<?xml version="1.0" encoding="UTF-8" standalone="no" ?>
<gpx xmlns="http://www.topografix.com/GPX/1/1" xmlns:xsi="http://www.w3.org/2001/XMLSchema-instance" xsi:schemaLocation="http://www.topografix.com/GPX/1/1 http://www.topografix.com/GPX/1/1/gpx.xsd" version="1.1" creator="VisuGPX - https://www.visugpx.com">
  <metadata>
    <name>2016-08-26 Saone-O plus Genay</name>
    <desc><![CDATA[2016-08-26 Saone-O plus Genay]]></desc>
  </metadata>
  <wpt lat="45.92444" lon="4.73717">
    <ele>174</ele>
    <name><![CDATA[2016-08-26 10:39 (Start)]]></name>
  </wpt>
  <wpt lat="45.92462" lon="4.73705">
    <ele>174</ele>
    <name><![CDATA[2016-08-26 10:39 (End)]]></name>
    <desc><![CDATA[Created by Google My Tracks on Android  Name: 2016-08-26 10:39 Activity type: biking Description: - Total distance: 32.88 km (20.4 mi) Total time: 2:23:32 Moving time: 2:12:27 Average speed: 13.74 km/h (8.5 mi/h) Average moving speed: 14.89 km/h (9.3 mi/h) Max speed: 38.01 km/h (23.6 mi/h) Average pace: 4:22 min/km (7:02 min/mi) Average moving pace: 4:02 min/km (6:29 min/mi) Fastest pace: 1:35 min/km (2:32 min/mi) Max elevation: 262 m (861 ft) Min elevation: 165 m (540 ft) Elevation gain: 581 m (1905 ft) Max grade: 12 % Min grade: -33 % Recorded: 26/08/2016 10:39]]></desc>
  </wpt>
  <trk>
    <name><![CDATA[2016-08-26 10:39]]></name>
    <trkseg>
      <trkpt lat="45.92444" lon="4.73717">
        <ele>174</ele>
        <time>2016-08-26T08:39:26.185Z</time>
      </trkpt>
      <trkpt lat="45.92452" lon="4.73718">
        <ele>174</ele>
        <time>2016-08-26T08:39:52Z</time>
      </trkpt>
      <trkpt lat="45.92453" lon="4.73719">
        <ele>174</ele>
        <time>2016-08-26T08:39:53Z</time>
      </trkpt>
      <trkpt lat="45.92461" lon="4.73718">
        <ele>174</ele>
        <time>2016-08-26T08:40:06Z</time>
      </trkpt>
      <trkpt lat="45.92463" lon="4.73721">
        <ele>174</ele>
        <time>2016-08-26T08:40:07Z</time>
      </trkpt>
      <trkpt lat="45.92459" lon="4.73709">
        <ele>174</ele>
        <time>2016-08-26T08:40:44Z</time>
      </trkpt>
      <trkpt lat="45.92461" lon="4.73708">
        <ele>174</ele>
        <time>2016-08-26T08:40:45Z</time>
      </trkpt>
      <trkpt lat="45.92464" lon="4.73699">
        <ele>174</ele>
        <time>2016-08-26T08:40:49Z</time>
      </trkpt>
      <trkpt lat="45.92465" lon="4.73695">
        <ele>174</ele>
        <time>2016-08-26T08:40:50Z</time>
      </trkpt>
      <trkpt lat="45.92467" lon="4.73683">
        <ele>174</ele>
        <time>2016-08-26T08:40:53Z</time>
      </trkpt>
      <trkpt lat="45.92468" lon="4.73679">
        <ele>174</ele>
        <time>2016-08-26T08:40:54Z</time>
      </trkpt>
      <trkpt lat="45.92468" lon="4.73669">
        <ele>174</ele>
        <time>2016-08-26T08:40:56Z</time>
      </trkpt>
      <trkpt lat="45.92468" lon="4.73663">
        <ele>174</ele>
        <time>2016-08-26T08:40:57Z</time>
      </trkpt>
      <trkpt lat="45.92469" lon="4.73653">
        <ele>174</ele>
        <time>2016-08-26T08:40:59Z</time>
      </trkpt>
      <trkpt lat="45.9247" lon="4.73647">
        <ele>174</ele>
        <time>2016-08-26T08:41:00Z</time>
      </trkpt>
      <trkpt lat="45.92469" lon="4.73635">
        <ele>174</ele>
        <time>2016-08-26T08:41:02Z</time>
      </trkpt>
      <trkpt lat="45.9247" lon="4.73629">
        <ele>174</ele>
        <time>2016-08-26T08:41:03Z</time>
      </trkpt>
      <trkpt lat="45.92469" lon="4.73617">
        <ele>174</ele>
        <time>2016-08-26T08:41:05Z</time>
      </trkpt>
      <trkpt lat="45.92468" lon="4.73611">
        <ele>174</ele>
        <time>2016-08-26T08:41:06Z</time>
      </trkpt>
      <trkpt lat="45.92467" lon="4.73599">
        <ele>174</ele>
        <time>2016-08-26T08:41:08Z</time>
      </trkpt>
      <trkpt lat="45.92467" lon="4.73594">
        <ele>174</ele>
        <time>2016-08-26T08:41:09Z</time>
      </trkpt>
      <trkpt lat="45.92466" lon="4.73583">
        <ele>173</ele>
        <time>2016-08-26T08:41:11Z</time>
      </trkpt>
      <trkpt lat="45.92466" lon="4.73578">
        <ele>173</ele>
        <time>2016-08-26T08:41:12Z</time>
      </trkpt>
      <trkpt lat="45.92467" lon="4.73566">
        <ele>173</ele>
        <time>2016-08-26T08:41:14Z</time>
      </trkpt>
      <trkpt lat="45.92467" lon="4.73561">
        <ele>173</ele>
        <time>2016-08-26T08:41:15Z</time>
      </trkpt>
      <trkpt lat="45.92463" lon="4.73549">
        <ele>173</ele>
        <time>2016-08-26T08:41:18Z</time>
      </trkpt>
      <trkpt lat="45.92461" lon="4.73547">
        <ele>173</ele>
        <time>2016-08-26T08:41:19Z</time>
      </trkpt>
      <trkpt lat="45.92453" lon="4.73549">
        <ele>174</ele>
        <time>2016-08-26T08:41:21Z</time>
      </trkpt>
      <trkpt lat="45.92449" lon="4.73551">
        <ele>174</ele>
        <time>2016-08-26T08:41:22Z</time>
      </trkpt>
      <trkpt lat="45.9244" lon="4.73555">
        <ele>174</ele>
        <time>2016-08-26T08:41:24Z</time>
      </trkpt>
      <trkpt lat="45.92436" lon="4.73557">
        <ele>174</ele>
        <time>2016-08-26T08:41:25Z</time>
      </trkpt>
      <trkpt lat="45.92431" lon="4.73559">
        <ele>174</ele>
        <time>2016-08-26T08:41:26Z</time>
      </trkpt>
      <trkpt lat="45.92426" lon="4.73561">
        <ele>174</ele>
        <time>2016-08-26T08:41:27Z</time>
      </trkpt>
      <trkpt lat="45.92422" lon="4.73564">
        <ele>174</ele>
        <time>2016-08-26T08:41:28Z</time>
      </trkpt>
      <trkpt lat="45.92418" lon="4.73566">
        <ele>174</ele>
        <time>2016-08-26T08:41:29Z</time>
      </trkpt>
      <trkpt lat="45.92413" lon="4.73567">
        <ele>173</ele>
        <time>2016-08-26T08:41:30Z</time>
      </trkpt>
      <trkpt lat="45.92409" lon="4.73569">
        <ele>173</ele>
        <time>2016-08-26T08:41:31Z</time>
      </trkpt>
      <trkpt lat="45.92404" lon="4.73571">
        <ele>173</ele>
        <time>2016-08-26T08:41:32Z</time>
      </trkpt>
      <trkpt lat="45.924" lon="4.73573">
        <ele>173</ele>
        <time>2016-08-26T08:41:33Z</time>
      </trkpt>
      <trkpt lat="45.92395" lon="4.73575">
        <ele>173</ele>
        <time>2016-08-26T08:41:34Z</time>
      </trkpt>
      <trkpt lat="45.9239" lon="4.73577">
        <ele>173</ele>
        <time>2016-08-26T08:41:35Z</time>
      </trkpt>
      <trkpt lat="45.92386" lon="4.73579">
        <ele>173</ele>
        <time>2016-08-26T08:41:36Z</time>
      </trkpt>
      <trkpt lat="45.92381" lon="4.73582">
        <ele>173</ele>
        <time>2016-08-26T08:41:37Z</time>
      </trkpt>
      <trkpt lat="45.92376" lon="4.73585">
        <ele>173</ele>
        <time>2016-08-26T08:41:38Z</time>
      </trkpt>
      <trkpt lat="45.92371" lon="4.73587">
        <ele>173</ele>
        <time>2016-08-26T08:41:39Z</time>
      </trkpt>
      <trkpt lat="45.92366" lon="4.7359">
        <ele>173</ele>
        <time>2016-08-26T08:41:40Z</time>
      </trkpt>
      <trkpt lat="45.92362" lon="4.73593">
        <ele>173</ele>
        <time>2016-08-26T08:41:41Z</time>
      </trkpt>
      <trkpt lat="45.92357" lon="4.73596">
        <ele>173</ele>
        <time>2016-08-26T08:41:42Z</time>
      </trkpt>
      <trkpt lat="45.92352" lon="4.73598">
        <ele>173</ele>
        <time>2016-08-26T08:41:43Z</time>
      </trkpt>
      <trkpt lat="45.92347" lon="4.73601">
        <ele>173</ele>
        <time>2016-08-26T08:41:44Z</time>
      </trkpt>
      <trkpt lat="45.92342" lon="4.73603">
        <ele>173</ele>
        <time>2016-08-26T08:41:45Z</time>
      </trkpt>
      <trkpt lat="45.92337" lon="4.73605">
        <ele>173</ele>
        <time>2016-08-26T08:41:46Z</time>
      </trkpt>
      <trkpt lat="45.92332" lon="4.73608">
        <ele>172</ele>
        <time>2016-08-26T08:41:47Z</time>
      </trkpt>
      <trkpt lat="45.92327" lon="4.7361">
        <ele>172</ele>
        <time>2016-08-26T08:41:48Z</time>
      </trkpt>
      <trkpt lat="45.92322" lon="4.73613">
        <ele>172</ele>
        <time>2016-08-26T08:41:49Z</time>
      </trkpt>
      <trkpt lat="45.92317" lon="4.73615">
        <ele>172</ele>
        <time>2016-08-26T08:41:50Z</time>
      </trkpt>
      <trkpt lat="45.92312" lon="4.73617">
        <ele>172</ele>
        <time>2016-08-26T08:41:51Z</time>
      </trkpt>
      <trkpt lat="45.92308" lon="4.7362">
        <ele>172</ele>
        <time>2016-08-26T08:41:52Z</time>
      </trkpt>
      <trkpt lat="45.92303" lon="4.73623">
        <ele>172</ele>
        <time>2016-08-26T08:41:53Z</time>
      </trkpt>
      <trkpt lat="45.92298" lon="4.73626">
        <ele>172</ele>
        <time>2016-08-26T08:41:54Z</time>
      </trkpt>
      <trkpt lat="45.92294" lon="4.73629">
        <ele>172</ele>
        <time>2016-08-26T08:41:55Z</time>
      </trkpt>
      <trkpt lat="45.92288" lon="4.73631">
        <ele>172</ele>
        <time>2016-08-26T08:41:56Z</time>
      </trkpt>
      <trkpt lat="45.92283" lon="4.73634">
        <ele>172</ele>
        <time>2016-08-26T08:41:57Z</time>
      </trkpt>
      <trkpt lat="45.92278" lon="4.73637">
        <ele>172</ele>
        <time>2016-08-26T08:41:58Z</time>
      </trkpt>
      <trkpt lat="45.92273" lon="4.7364">
        <ele>172</ele>
        <time>2016-08-26T08:41:59Z</time>
      </trkpt>
      <trkpt lat="45.92268" lon="4.73643">
        <ele>172</ele>
        <time>2016-08-26T08:42:00Z</time>
      </trkpt>
      <trkpt lat="45.92263" lon="4.73647">
        <ele>171</ele>
        <time>2016-08-26T08:42:01Z</time>
      </trkpt>
      <trkpt lat="45.92258" lon="4.7365">
        <ele>171</ele>
        <time>2016-08-26T08:42:02Z</time>
      </trkpt>
      <trkpt lat="45.92253" lon="4.73653">
        <ele>171</ele>
        <time>2016-08-26T08:42:03Z</time>
      </trkpt>
      <trkpt lat="45.92248" lon="4.73656">
        <ele>171</ele>
        <time>2016-08-26T08:42:04Z</time>
      </trkpt>
      <trkpt lat="45.92244" lon="4.73659">
        <ele>171</ele>
        <time>2016-08-26T08:42:05Z</time>
      </trkpt>
      <trkpt lat="45.92239" lon="4.73662">
        <ele>171</ele>
        <time>2016-08-26T08:42:06Z</time>
      </trkpt>
      <trkpt lat="45.92233" lon="4.73665">
        <ele>171</ele>
        <time>2016-08-26T08:42:07Z</time>
      </trkpt>
      <trkpt lat="45.92228" lon="4.73668">
        <ele>171</ele>
        <time>2016-08-26T08:42:08Z</time>
      </trkpt>
      <trkpt lat="45.92223" lon="4.73671">
        <ele>171</ele>
        <time>2016-08-26T08:42:09Z</time>
      </trkpt>
      <trkpt lat="45.92218" lon="4.73673">
        <ele>171</ele>
        <time>2016-08-26T08:42:10Z</time>
      </trkpt>
      <trkpt lat="45.92213" lon="4.73675">
        <ele>171</ele>
        <time>2016-08-26T08:42:11Z</time>
      </trkpt>
      <trkpt lat="45.92209" lon="4.73678">
        <ele>171</ele>
        <time>2016-08-26T08:42:12Z</time>
      </trkpt>
      <trkpt lat="45.92204" lon="4.7368">
        <ele>171</ele>
        <time>2016-08-26T08:42:13Z</time>
      </trkpt>
      <trkpt lat="45.922" lon="4.73683">
        <ele>171</ele>
        <time>2016-08-26T08:42:14Z</time>
      </trkpt>
      <trkpt lat="45.92195" lon="4.73685">
        <ele>171</ele>
        <time>2016-08-26T08:42:15Z</time>
      </trkpt>
      <trkpt lat="45.92191" lon="4.73688">
        <ele>171</ele>
        <time>2016-08-26T08:42:16Z</time>
      </trkpt>
      <trkpt lat="45.92186" lon="4.7369">
        <ele>171</ele>
        <time>2016-08-26T08:42:17Z</time>
      </trkpt>
      <trkpt lat="45.92181" lon="4.73693">
        <ele>171</ele>
        <time>2016-08-26T08:42:18Z</time>
      </trkpt>
      <trkpt lat="45.92176" lon="4.73695">
        <ele>171</ele>
        <time>2016-08-26T08:42:19Z</time>
      </trkpt>
      <trkpt lat="45.92172" lon="4.73698">
        <ele>171</ele>
        <time>2016-08-26T08:42:20Z</time>
      </trkpt>
      <trkpt lat="45.92167" lon="4.737">
        <ele>171</ele>
        <time>2016-08-26T08:42:21Z</time>
      </trkpt>
      <trkpt lat="45.92162" lon="4.73703">
        <ele>171</ele>
        <time>2016-08-26T08:42:22Z</time>
      </trkpt>
      <trkpt lat="45.92157" lon="4.73704">
        <ele>171</ele>
        <time>2016-08-26T08:42:23Z</time>
      </trkpt>
      <trkpt lat="45.92151" lon="4.73707">
        <ele>171</ele>
        <time>2016-08-26T08:42:24Z</time>
      </trkpt>
      <trkpt lat="45.92146" lon="4.73709">
        <ele>171</ele>
        <time>2016-08-26T08:42:25Z</time>
      </trkpt>
      <trkpt lat="45.9214" lon="4.73711">
        <ele>171</ele>
        <time>2016-08-26T08:42:26Z</time>
      </trkpt>
      <trkpt lat="45.92135" lon="4.73713">
        <ele>171</ele>
        <time>2016-08-26T08:42:27Z</time>
      </trkpt>
      <trkpt lat="45.92129" lon="4.73714">
        <ele>171</ele>
        <time>2016-08-26T08:42:28Z</time>
      </trkpt>
      <trkpt lat="45.92124" lon="4.73716">
        <ele>171</ele>
        <time>2016-08-26T08:42:29Z</time>
      </trkpt>
      <trkpt lat="45.92118" lon="4.73717">
        <ele>171</ele>
        <time>2016-08-26T08:42:30Z</time>
      </trkpt>
      <trkpt lat="45.92112" lon="4.73719">
        <ele>171</ele>
        <time>2016-08-26T08:42:31Z</time>
      </trkpt>
      <trkpt lat="45.92106" lon="4.73721">
        <ele>171</ele>
        <time>2016-08-26T08:42:32Z</time>
      </trkpt>
      <trkpt lat="45.92101" lon="4.73722">
        <ele>171</ele>
        <time>2016-08-26T08:42:33Z</time>
      </trkpt>
      <trkpt lat="45.92095" lon="4.73723">
        <ele>171</ele>
        <time>2016-08-26T08:42:34Z</time>
      </trkpt>
      <trkpt lat="45.92089" lon="4.73724">
        <ele>171</ele>
        <time>2016-08-26T08:42:35Z</time>
      </trkpt>
      <trkpt lat="45.92083" lon="4.73725">
        <ele>171</ele>
        <time>2016-08-26T08:42:36Z</time>
      </trkpt>
      <trkpt lat="45.92078" lon="4.73725">
        <ele>171</ele>
        <time>2016-08-26T08:42:37Z</time>
      </trkpt>
      <trkpt lat="45.92073" lon="4.73726">
        <ele>171</ele>
        <time>2016-08-26T08:42:38Z</time>
      </trkpt>
      <trkpt lat="45.92068" lon="4.73726">
        <ele>171</ele>
        <time>2016-08-26T08:42:39Z</time>
      </trkpt>
      <trkpt lat="45.92062" lon="4.73726">
        <ele>171</ele>
        <time>2016-08-26T08:42:40Z</time>
      </trkpt>
      <trkpt lat="45.92057" lon="4.73727">
        <ele>171</ele>
        <time>2016-08-26T08:42:41Z</time>
      </trkpt>
      <trkpt lat="45.92052" lon="4.73727">
        <ele>171</ele>
        <time>2016-08-26T08:42:42Z</time>
      </trkpt>
      <trkpt lat="45.92047" lon="4.73727">
        <ele>171</ele>
        <time>2016-08-26T08:42:43Z</time>
      </trkpt>
      <trkpt lat="45.92041" lon="4.73728">
        <ele>171</ele>
        <time>2016-08-26T08:42:44Z</time>
      </trkpt>
      <trkpt lat="45.92036" lon="4.73728">
        <ele>171</ele>
        <time>2016-08-26T08:42:45Z</time>
      </trkpt>
      <trkpt lat="45.9203" lon="4.73728">
        <ele>171</ele>
        <time>2016-08-26T08:42:46Z</time>
      </trkpt>
      <trkpt lat="45.92025" lon="4.73729">
        <ele>171</ele>
        <time>2016-08-26T08:42:47Z</time>
      </trkpt>
      <trkpt lat="45.92019" lon="4.73729">
        <ele>171</ele>
        <time>2016-08-26T08:42:48Z</time>
      </trkpt>
      <trkpt lat="45.92014" lon="4.73729">
        <ele>171</ele>
        <time>2016-08-26T08:42:49Z</time>
      </trkpt>
      <trkpt lat="45.92008" lon="4.73729">
        <ele>171</ele>
        <time>2016-08-26T08:42:50Z</time>
      </trkpt>
      <trkpt lat="45.92002" lon="4.73728">
        <ele>171</ele>
        <time>2016-08-26T08:42:51Z</time>
      </trkpt>
      <trkpt lat="45.91996" lon="4.73728">
        <ele>171</ele>
        <time>2016-08-26T08:42:52Z</time>
      </trkpt>
      <trkpt lat="45.91991" lon="4.73729">
        <ele>171</ele>
        <time>2016-08-26T08:42:53Z</time>
      </trkpt>
      <trkpt lat="45.91985" lon="4.73729">
        <ele>171</ele>
        <time>2016-08-26T08:42:54Z</time>
      </trkpt>
      <trkpt lat="45.9198" lon="4.73728">
        <ele>171</ele>
        <time>2016-08-26T08:42:55Z</time>
      </trkpt>
      <trkpt lat="45.91974" lon="4.73728">
        <ele>171</ele>
        <time>2016-08-26T08:42:56Z</time>
      </trkpt>
      <trkpt lat="45.91969" lon="4.73728">
        <ele>171</ele>
        <time>2016-08-26T08:42:57Z</time>
      </trkpt>
      <trkpt lat="45.91963" lon="4.73728">
        <ele>171</ele>
        <time>2016-08-26T08:42:58Z</time>
      </trkpt>
      <trkpt lat="45.91957" lon="4.73728">
        <ele>170</ele>
        <time>2016-08-26T08:42:59Z</time>
      </trkpt>
      <trkpt lat="45.91952" lon="4.73728">
        <ele>170</ele>
        <time>2016-08-26T08:43:00Z</time>
      </trkpt>
      <trkpt lat="45.91946" lon="4.73728">
        <ele>170</ele>
        <time>2016-08-26T08:43:01Z</time>
      </trkpt>
      <trkpt lat="45.91941" lon="4.73729">
        <ele>170</ele>
        <time>2016-08-26T08:43:02Z</time>
      </trkpt>
      <trkpt lat="45.91935" lon="4.73729">
        <ele>170</ele>
        <time>2016-08-26T08:43:03Z</time>
      </trkpt>
      <trkpt lat="45.91929" lon="4.73729">
        <ele>170</ele>
        <time>2016-08-26T08:43:04Z</time>
      </trkpt>
      <trkpt lat="45.91923" lon="4.73729">
        <ele>170</ele>
        <time>2016-08-26T08:43:05Z</time>
      </trkpt>
      <trkpt lat="45.91917" lon="4.73729">
        <ele>170</ele>
        <time>2016-08-26T08:43:06Z</time>
      </trkpt>
      <trkpt lat="45.91912" lon="4.73729">
        <ele>171</ele>
        <time>2016-08-26T08:43:07Z</time>
      </trkpt>
      <trkpt lat="45.91906" lon="4.73729">
        <ele>171</ele>
        <time>2016-08-26T08:43:08Z</time>
      </trkpt>
      <trkpt lat="45.91901" lon="4.73729">
        <ele>171</ele>
        <time>2016-08-26T08:43:09Z</time>
      </trkpt>
      <trkpt lat="45.91895" lon="4.73729">
        <ele>171</ele>
        <time>2016-08-26T08:43:10Z</time>
      </trkpt>
      <trkpt lat="45.9189" lon="4.73729">
        <ele>171</ele>
        <time>2016-08-26T08:43:11Z</time>
      </trkpt>
      <trkpt lat="45.91884" lon="4.7373">
        <ele>171</ele>
        <time>2016-08-26T08:43:12Z</time>
      </trkpt>
      <trkpt lat="45.91879" lon="4.7373">
        <ele>171</ele>
        <time>2016-08-26T08:43:13Z</time>
      </trkpt>
      <trkpt lat="45.91874" lon="4.7373">
        <ele>171</ele>
        <time>2016-08-26T08:43:14Z</time>
      </trkpt>
      <trkpt lat="45.91868" lon="4.7373">
        <ele>171</ele>
        <time>2016-08-26T08:43:15Z</time>
      </trkpt>
      <trkpt lat="45.91862" lon="4.7373">
        <ele>171</ele>
        <time>2016-08-26T08:43:16Z</time>
      </trkpt>
      <trkpt lat="45.91856" lon="4.7373">
        <ele>171</ele>
        <time>2016-08-26T08:43:17Z</time>
      </trkpt>
      <trkpt lat="45.9185" lon="4.7373">
        <ele>171</ele>
        <time>2016-08-26T08:43:18Z</time>
      </trkpt>
      <trkpt lat="45.91844" lon="4.7373">
        <ele>172</ele>
        <time>2016-08-26T08:43:19Z</time>
      </trkpt>
      <trkpt lat="45.91838" lon="4.7373">
        <ele>172</ele>
        <time>2016-08-26T08:43:20Z</time>
      </trkpt>
      <trkpt lat="45.91832" lon="4.7373">
        <ele>172</ele>
        <time>2016-08-26T08:43:21Z</time>
      </trkpt>
      <trkpt lat="45.91826" lon="4.7373">
        <ele>172</ele>
        <time>2016-08-26T08:43:22Z</time>
      </trkpt>
      <trkpt lat="45.91819" lon="4.7373">
        <ele>172</ele>
        <time>2016-08-26T08:43:23Z</time>
      </trkpt>
      <trkpt lat="45.91813" lon="4.7373">
        <ele>172</ele>
        <time>2016-08-26T08:43:24Z</time>
      </trkpt>
      <trkpt lat="45.91808" lon="4.7373">
        <ele>172</ele>
        <time>2016-08-26T08:43:25Z</time>
      </trkpt>
      <trkpt lat="45.91802" lon="4.7373">
        <ele>172</ele>
        <time>2016-08-26T08:43:26Z</time>
      </trkpt>
      <trkpt lat="45.91797" lon="4.73731">
        <ele>172</ele>
        <time>2016-08-26T08:43:27Z</time>
      </trkpt>
      <trkpt lat="45.91792" lon="4.73731">
        <ele>173</ele>
        <time>2016-08-26T08:43:28Z</time>
      </trkpt>
      <trkpt lat="45.91787" lon="4.73731">
        <ele>173</ele>
        <time>2016-08-26T08:43:29Z</time>
      </trkpt>
      <trkpt lat="45.91781" lon="4.73732">
        <ele>173</ele>
        <time>2016-08-26T08:43:30Z</time>
      </trkpt>
      <trkpt lat="45.91775" lon="4.73732">
        <ele>173</ele>
        <time>2016-08-26T08:43:31Z</time>
      </trkpt>
      <trkpt lat="45.9177" lon="4.73732">
        <ele>173</ele>
        <time>2016-08-26T08:43:32Z</time>
      </trkpt>
      <trkpt lat="45.91764" lon="4.73732">
        <ele>173</ele>
        <time>2016-08-26T08:43:33Z</time>
      </trkpt>
      <trkpt lat="45.91759" lon="4.73732">
        <ele>173</ele>
        <time>2016-08-26T08:43:34Z</time>
      </trkpt>
      <trkpt lat="45.91754" lon="4.73732">
        <ele>173</ele>
        <time>2016-08-26T08:43:35Z</time>
      </trkpt>
      <trkpt lat="45.91749" lon="4.73732">
        <ele>173</ele>
        <time>2016-08-26T08:43:36Z</time>
      </trkpt>
      <trkpt lat="45.91743" lon="4.73732">
        <ele>173</ele>
        <time>2016-08-26T08:43:37Z</time>
      </trkpt>
      <trkpt lat="45.91738" lon="4.73732">
        <ele>173</ele>
        <time>2016-08-26T08:43:38Z</time>
      </trkpt>
      <trkpt lat="45.91733" lon="4.73732">
        <ele>173</ele>
        <time>2016-08-26T08:43:39Z</time>
      </trkpt>
      <trkpt lat="45.91727" lon="4.73731">
        <ele>173</ele>
        <time>2016-08-26T08:43:40Z</time>
      </trkpt>
      <trkpt lat="45.91722" lon="4.73731">
        <ele>173</ele>
        <time>2016-08-26T08:43:41Z</time>
      </trkpt>
      <trkpt lat="45.91716" lon="4.73731">
        <ele>173</ele>
        <time>2016-08-26T08:43:42Z</time>
      </trkpt>
      <trkpt lat="45.91711" lon="4.7373">
        <ele>173</ele>
        <time>2016-08-26T08:43:43Z</time>
      </trkpt>
      <trkpt lat="45.91706" lon="4.73731">
        <ele>172</ele>
        <time>2016-08-26T08:43:44Z</time>
      </trkpt>
      <trkpt lat="45.917" lon="4.73731">
        <ele>172</ele>
        <time>2016-08-26T08:43:45Z</time>
      </trkpt>
      <trkpt lat="45.91694" lon="4.73732">
        <ele>172</ele>
        <time>2016-08-26T08:43:46Z</time>
      </trkpt>
      <trkpt lat="45.91689" lon="4.73732">
        <ele>172</ele>
        <time>2016-08-26T08:43:47Z</time>
      </trkpt>
      <trkpt lat="45.91683" lon="4.73732">
        <ele>172</ele>
        <time>2016-08-26T08:43:48Z</time>
      </trkpt>
      <trkpt lat="45.91677" lon="4.73732">
        <ele>172</ele>
        <time>2016-08-26T08:43:49Z</time>
      </trkpt>
      <trkpt lat="45.91671" lon="4.73732">
        <ele>172</ele>
        <time>2016-08-26T08:43:50Z</time>
      </trkpt>
      <trkpt lat="45.91665" lon="4.73732">
        <ele>172</ele>
        <time>2016-08-26T08:43:51Z</time>
      </trkpt>
      <trkpt lat="45.91659" lon="4.73732">
        <ele>172</ele>
        <time>2016-08-26T08:43:52Z</time>
      </trkpt>
      <trkpt lat="45.91654" lon="4.73734">
        <ele>172</ele>
        <time>2016-08-26T08:43:53Z</time>
      </trkpt>
      <trkpt lat="45.91649" lon="4.73734">
        <ele>172</ele>
        <time>2016-08-26T08:43:54Z</time>
      </trkpt>
      <trkpt lat="45.91643" lon="4.73734">
        <ele>172</ele>
        <time>2016-08-26T08:43:55Z</time>
      </trkpt>
      <trkpt lat="45.91638" lon="4.73734">
        <ele>172</ele>
        <time>2016-08-26T08:43:56Z</time>
      </trkpt>
      <trkpt lat="45.91633" lon="4.73734">
        <ele>172</ele>
        <time>2016-08-26T08:43:57Z</time>
      </trkpt>
      <trkpt lat="45.91628" lon="4.73734">
        <ele>172</ele>
        <time>2016-08-26T08:43:58Z</time>
      </trkpt>
      <trkpt lat="45.91623" lon="4.73734">
        <ele>173</ele>
        <time>2016-08-26T08:43:59Z</time>
      </trkpt>
      <trkpt lat="45.91617" lon="4.73734">
        <ele>173</ele>
        <time>2016-08-26T08:44:00Z</time>
      </trkpt>
      <trkpt lat="45.91611" lon="4.73734">
        <ele>173</ele>
        <time>2016-08-26T08:44:01Z</time>
      </trkpt>
      <trkpt lat="45.91605" lon="4.73734">
        <ele>173</ele>
        <time>2016-08-26T08:44:02Z</time>
      </trkpt>
      <trkpt lat="45.91599" lon="4.73734">
        <ele>173</ele>
        <time>2016-08-26T08:44:03Z</time>
      </trkpt>
      <trkpt lat="45.91593" lon="4.73734">
        <ele>173</ele>
        <time>2016-08-26T08:44:04Z</time>
      </trkpt>
      <trkpt lat="45.91587" lon="4.73734">
        <ele>173</ele>
        <time>2016-08-26T08:44:05Z</time>
      </trkpt>
      <trkpt lat="45.91581" lon="4.73734">
        <ele>173</ele>
        <time>2016-08-26T08:44:06Z</time>
      </trkpt>
      <trkpt lat="45.91575" lon="4.73733">
        <ele>173</ele>
        <time>2016-08-26T08:44:07Z</time>
      </trkpt>
      <trkpt lat="45.9157" lon="4.73733">
        <ele>173</ele>
        <time>2016-08-26T08:44:08Z</time>
      </trkpt>
      <trkpt lat="45.91564" lon="4.73733">
        <ele>173</ele>
        <time>2016-08-26T08:44:09Z</time>
      </trkpt>
      <trkpt lat="45.91558" lon="4.73733">
        <ele>174</ele>
        <time>2016-08-26T08:44:10Z</time>
      </trkpt>
      <trkpt lat="45.91552" lon="4.73733">
        <ele>174</ele>
        <time>2016-08-26T08:44:11Z</time>
      </trkpt>
      <trkpt lat="45.91546" lon="4.73734">
        <ele>174</ele>
        <time>2016-08-26T08:44:12Z</time>
      </trkpt>
      <trkpt lat="45.9154" lon="4.73734">
        <ele>174</ele>
        <time>2016-08-26T08:44:13Z</time>
      </trkpt>
      <trkpt lat="45.91534" lon="4.73735">
        <ele>174</ele>
        <time>2016-08-26T08:44:14Z</time>
      </trkpt>
      <trkpt lat="45.91528" lon="4.73735">
        <ele>174</ele>
        <time>2016-08-26T08:44:15Z</time>
      </trkpt>
      <trkpt lat="45.91521" lon="4.73736">
        <ele>174</ele>
        <time>2016-08-26T08:44:16Z</time>
      </trkpt>
      <trkpt lat="45.91515" lon="4.73737">
        <ele>174</ele>
        <time>2016-08-26T08:44:17Z</time>
      </trkpt>
      <trkpt lat="45.91509" lon="4.73737">
        <ele>174</ele>
        <time>2016-08-26T08:44:18Z</time>
      </trkpt>
      <trkpt lat="45.91503" lon="4.73738">
        <ele>174</ele>
        <time>2016-08-26T08:44:19Z</time>
      </trkpt>
      <trkpt lat="45.91497" lon="4.73738">
        <ele>174</ele>
        <time>2016-08-26T08:44:20Z</time>
      </trkpt>
      <trkpt lat="45.91492" lon="4.73737">
        <ele>174</ele>
        <time>2016-08-26T08:44:21Z</time>
      </trkpt>
      <trkpt lat="45.91487" lon="4.73737">
        <ele>174</ele>
        <time>2016-08-26T08:44:22Z</time>
      </trkpt>
      <trkpt lat="45.91481" lon="4.73737">
        <ele>174</ele>
        <time>2016-08-26T08:44:23Z</time>
      </trkpt>
      <trkpt lat="45.91476" lon="4.73738">
        <ele>174</ele>
        <time>2016-08-26T08:44:24Z</time>
      </trkpt>
      <trkpt lat="45.91471" lon="4.73738">
        <ele>174</ele>
        <time>2016-08-26T08:44:25Z</time>
      </trkpt>
      <trkpt lat="45.91466" lon="4.73737">
        <ele>174</ele>
        <time>2016-08-26T08:44:26Z</time>
      </trkpt>
      <trkpt lat="45.91461" lon="4.73737">
        <ele>174</ele>
        <time>2016-08-26T08:44:27Z</time>
      </trkpt>
      <trkpt lat="45.91456" lon="4.73737">
        <ele>173</ele>
        <time>2016-08-26T08:44:28Z</time>
      </trkpt>
      <trkpt lat="45.9145" lon="4.73737">
        <ele>173</ele>
        <time>2016-08-26T08:44:29Z</time>
      </trkpt>
      <trkpt lat="45.91445" lon="4.73737">
        <ele>173</ele>
        <time>2016-08-26T08:44:30Z</time>
      </trkpt>
      <trkpt lat="45.91439" lon="4.73737">
        <ele>173</ele>
        <time>2016-08-26T08:44:31Z</time>
      </trkpt>
      <trkpt lat="45.91433" lon="4.73738">
        <ele>173</ele>
        <time>2016-08-26T08:44:32Z</time>
      </trkpt>
      <trkpt lat="45.91427" lon="4.73738">
        <ele>173</ele>
        <time>2016-08-26T08:44:33Z</time>
      </trkpt>
      <trkpt lat="45.91421" lon="4.73738">
        <ele>173</ele>
        <time>2016-08-26T08:44:34Z</time>
      </trkpt>
      <trkpt lat="45.91416" lon="4.73738">
        <ele>172</ele>
        <time>2016-08-26T08:44:35Z</time>
      </trkpt>
      <trkpt lat="45.9141" lon="4.73738">
        <ele>173</ele>
        <time>2016-08-26T08:44:36Z</time>
      </trkpt>
      <trkpt lat="45.91403" lon="4.73739">
        <ele>173</ele>
        <time>2016-08-26T08:44:37Z</time>
      </trkpt>
      <trkpt lat="45.91398" lon="4.73738">
        <ele>173</ele>
        <time>2016-08-26T08:44:38Z</time>
      </trkpt>
      <trkpt lat="45.91392" lon="4.73738">
        <ele>173</ele>
        <time>2016-08-26T08:44:39Z</time>
      </trkpt>
      <trkpt lat="45.91385" lon="4.73738">
        <ele>173</ele>
        <time>2016-08-26T08:44:40Z</time>
      </trkpt>
      <trkpt lat="45.91379" lon="4.73738">
        <ele>173</ele>
        <time>2016-08-26T08:44:41Z</time>
      </trkpt>
      <trkpt lat="45.91373" lon="4.73738">
        <ele>173</ele>
        <time>2016-08-26T08:44:42Z</time>
      </trkpt>
      <trkpt lat="45.91368" lon="4.73738">
        <ele>173</ele>
        <time>2016-08-26T08:44:43Z</time>
      </trkpt>
      <trkpt lat="45.91362" lon="4.73738">
        <ele>173</ele>
        <time>2016-08-26T08:44:44Z</time>
      </trkpt>
      <trkpt lat="45.91356" lon="4.73738">
        <ele>173</ele>
        <time>2016-08-26T08:44:45Z</time>
      </trkpt>
      <trkpt lat="45.91351" lon="4.73738">
        <ele>173</ele>
        <time>2016-08-26T08:44:46Z</time>
      </trkpt>
      <trkpt lat="45.91345" lon="4.73738">
        <ele>173</ele>
        <time>2016-08-26T08:44:47Z</time>
      </trkpt>
      <trkpt lat="45.9134" lon="4.73738">
        <ele>173</ele>
        <time>2016-08-26T08:44:48Z</time>
      </trkpt>
      <trkpt lat="45.91334" lon="4.73738">
        <ele>173</ele>
        <time>2016-08-26T08:44:49Z</time>
      </trkpt>
      <trkpt lat="45.91328" lon="4.73738">
        <ele>173</ele>
        <time>2016-08-26T08:44:50Z</time>
      </trkpt>
      <trkpt lat="45.91322" lon="4.73738">
        <ele>174</ele>
        <time>2016-08-26T08:44:51Z</time>
      </trkpt>
      <trkpt lat="45.91316" lon="4.73738">
        <ele>174</ele>
        <time>2016-08-26T08:44:52Z</time>
      </trkpt>
      <trkpt lat="45.91311" lon="4.73738">
        <ele>174</ele>
        <time>2016-08-26T08:44:53Z</time>
      </trkpt>
      <trkpt lat="45.91305" lon="4.73739">
        <ele>174</ele>
        <time>2016-08-26T08:44:54Z</time>
      </trkpt>
      <trkpt lat="45.91299" lon="4.73739">
        <ele>174</ele>
        <time>2016-08-26T08:44:55Z</time>
      </trkpt>
      <trkpt lat="45.91293" lon="4.73739">
        <ele>174</ele>
        <time>2016-08-26T08:44:56Z</time>
      </trkpt>
      <trkpt lat="45.91287" lon="4.73739">
        <ele>174</ele>
        <time>2016-08-26T08:44:57Z</time>
      </trkpt>
      <trkpt lat="45.91281" lon="4.7374">
        <ele>174</ele>
        <time>2016-08-26T08:44:58Z</time>
      </trkpt>
      <trkpt lat="45.91276" lon="4.7374">
        <ele>174</ele>
        <time>2016-08-26T08:44:59Z</time>
      </trkpt>
      <trkpt lat="45.9127" lon="4.7374">
        <ele>174</ele>
        <time>2016-08-26T08:45:00Z</time>
      </trkpt>
      <trkpt lat="45.91265" lon="4.7374">
        <ele>174</ele>
        <time>2016-08-26T08:45:01Z</time>
      </trkpt>
      <trkpt lat="45.91259" lon="4.7374">
        <ele>175</ele>
        <time>2016-08-26T08:45:02Z</time>
      </trkpt>
      <trkpt lat="45.91254" lon="4.7374">
        <ele>175</ele>
        <time>2016-08-26T08:45:03Z</time>
      </trkpt>
      <trkpt lat="45.91249" lon="4.7374">
        <ele>175</ele>
        <time>2016-08-26T08:45:04Z</time>
      </trkpt>
      <trkpt lat="45.91244" lon="4.7374">
        <ele>175</ele>
        <time>2016-08-26T08:45:05Z</time>
      </trkpt>
      <trkpt lat="45.91238" lon="4.73741">
        <ele>175</ele>
        <time>2016-08-26T08:45:06Z</time>
      </trkpt>
      <trkpt lat="45.91233" lon="4.73741">
        <ele>175</ele>
        <time>2016-08-26T08:45:07Z</time>
      </trkpt>
      <trkpt lat="45.91227" lon="4.73741">
        <ele>175</ele>
        <time>2016-08-26T08:45:08Z</time>
      </trkpt>
      <trkpt lat="45.91222" lon="4.73742">
        <ele>175</ele>
        <time>2016-08-26T08:45:09Z</time>
      </trkpt>
      <trkpt lat="45.91216" lon="4.73742">
        <ele>175</ele>
        <time>2016-08-26T08:45:10Z</time>
      </trkpt>
      <trkpt lat="45.9121" lon="4.73742">
        <ele>175</ele>
        <time>2016-08-26T08:45:11Z</time>
      </trkpt>
      <trkpt lat="45.91205" lon="4.73742">
        <ele>175</ele>
        <time>2016-08-26T08:45:12Z</time>
      </trkpt>
      <trkpt lat="45.91199" lon="4.73741">
        <ele>175</ele>
        <time>2016-08-26T08:45:13Z</time>
      </trkpt>
      <trkpt lat="45.91193" lon="4.7374">
        <ele>175</ele>
        <time>2016-08-26T08:45:14Z</time>
      </trkpt>
      <trkpt lat="45.91187" lon="4.73738">
        <ele>175</ele>
        <time>2016-08-26T08:45:15Z</time>
      </trkpt>
      <trkpt lat="45.91181" lon="4.73736">
        <ele>175</ele>
        <time>2016-08-26T08:45:16Z</time>
      </trkpt>
      <trkpt lat="45.91176" lon="4.73734">
        <ele>175</ele>
        <time>2016-08-26T08:45:17Z</time>
      </trkpt>
      <trkpt lat="45.9117" lon="4.73733">
        <ele>175</ele>
        <time>2016-08-26T08:45:18Z</time>
      </trkpt>
      <trkpt lat="45.91165" lon="4.73732">
        <ele>175</ele>
        <time>2016-08-26T08:45:19Z</time>
      </trkpt>
      <trkpt lat="45.91157" lon="4.73735">
        <ele>175</ele>
        <time>2016-08-26T08:45:21Z</time>
      </trkpt>
      <trkpt lat="45.91155" lon="4.73739">
        <ele>175</ele>
        <time>2016-08-26T08:45:22Z</time>
      </trkpt>
      <trkpt lat="45.91155" lon="4.7375">
        <ele>175</ele>
        <time>2016-08-26T08:45:24Z</time>
      </trkpt>
      <trkpt lat="45.91158" lon="4.73755">
        <ele>175</ele>
        <time>2016-08-26T08:45:25Z</time>
      </trkpt>
      <trkpt lat="45.91162" lon="4.73761">
        <ele>175</ele>
        <time>2016-08-26T08:45:26Z</time>
      </trkpt>
      <trkpt lat="45.91165" lon="4.73766">
        <ele>175</ele>
        <time>2016-08-26T08:45:27Z</time>
      </trkpt>
      <trkpt lat="45.91169" lon="4.73772">
        <ele>175</ele>
        <time>2016-08-26T08:45:28Z</time>
      </trkpt>
      <trkpt lat="45.91172" lon="4.73779">
        <ele>175</ele>
        <time>2016-08-26T08:45:29Z</time>
      </trkpt>
      <trkpt lat="45.91174" lon="4.73785">
        <ele>175</ele>
        <time>2016-08-26T08:45:30Z</time>
      </trkpt>
      <trkpt lat="45.91177" lon="4.73792">
        <ele>175</ele>
        <time>2016-08-26T08:45:31Z</time>
      </trkpt>
      <trkpt lat="45.9118" lon="4.73799">
        <ele>175</ele>
        <time>2016-08-26T08:45:32Z</time>
      </trkpt>
      <trkpt lat="45.91183" lon="4.73805">
        <ele>175</ele>
        <time>2016-08-26T08:45:33Z</time>
      </trkpt>
      <trkpt lat="45.91186" lon="4.73811">
        <ele>175</ele>
        <time>2016-08-26T08:45:34Z</time>
      </trkpt>
      <trkpt lat="45.91189" lon="4.73817">
        <ele>175</ele>
        <time>2016-08-26T08:45:35Z</time>
      </trkpt>
      <trkpt lat="45.91193" lon="4.73823">
        <ele>175</ele>
        <time>2016-08-26T08:45:36Z</time>
      </trkpt>
      <trkpt lat="45.91196" lon="4.73829">
        <ele>175</ele>
        <time>2016-08-26T08:45:37Z</time>
      </trkpt>
      <trkpt lat="45.91199" lon="4.73836">
        <ele>174</ele>
        <time>2016-08-26T08:45:38Z</time>
      </trkpt>
      <trkpt lat="45.91201" lon="4.73842">
        <ele>174</ele>
        <time>2016-08-26T08:45:39Z</time>
      </trkpt>
      <trkpt lat="45.91203" lon="4.73848">
        <ele>174</ele>
        <time>2016-08-26T08:45:40Z</time>
      </trkpt>
      <trkpt lat="45.91206" lon="4.73855">
        <ele>174</ele>
        <time>2016-08-26T08:45:41Z</time>
      </trkpt>
      <trkpt lat="45.91208" lon="4.73861">
        <ele>174</ele>
        <time>2016-08-26T08:45:42Z</time>
      </trkpt>
      <trkpt lat="45.9121" lon="4.73867">
        <ele>174</ele>
        <time>2016-08-26T08:45:43Z</time>
      </trkpt>
      <trkpt lat="45.91212" lon="4.73874">
        <ele>174</ele>
        <time>2016-08-26T08:45:44Z</time>
      </trkpt>
      <trkpt lat="45.91214" lon="4.7388">
        <ele>174</ele>
        <time>2016-08-26T08:45:45Z</time>
      </trkpt>
      <trkpt lat="45.91216" lon="4.73886">
        <ele>174</ele>
        <time>2016-08-26T08:45:46Z</time>
      </trkpt>
      <trkpt lat="45.91218" lon="4.73893">
        <ele>174</ele>
        <time>2016-08-26T08:45:47Z</time>
      </trkpt>
      <trkpt lat="45.91219" lon="4.739">
        <ele>174</ele>
        <time>2016-08-26T08:45:48Z</time>
      </trkpt>
      <trkpt lat="45.9122" lon="4.73907">
        <ele>174</ele>
        <time>2016-08-26T08:45:49Z</time>
      </trkpt>
      <trkpt lat="45.91222" lon="4.73914">
        <ele>174</ele>
        <time>2016-08-26T08:45:50Z</time>
      </trkpt>
      <trkpt lat="45.91222" lon="4.73921">
        <ele>173</ele>
        <time>2016-08-26T08:45:51Z</time>
      </trkpt>
      <trkpt lat="45.91223" lon="4.73928">
        <ele>173</ele>
        <time>2016-08-26T08:45:52Z</time>
      </trkpt>
      <trkpt lat="45.91224" lon="4.73935">
        <ele>173</ele>
        <time>2016-08-26T08:45:53Z</time>
      </trkpt>
      <trkpt lat="45.91224" lon="4.73942">
        <ele>173</ele>
        <time>2016-08-26T08:45:54Z</time>
      </trkpt>
      <trkpt lat="45.91225" lon="4.73949">
        <ele>173</ele>
        <time>2016-08-26T08:45:55Z</time>
      </trkpt>
      <trkpt lat="45.91225" lon="4.73956">
        <ele>173</ele>
        <time>2016-08-26T08:45:56Z</time>
      </trkpt>
      <trkpt lat="45.91224" lon="4.73963">
        <ele>173</ele>
        <time>2016-08-26T08:45:57Z</time>
      </trkpt>
      <trkpt lat="45.91224" lon="4.73971">
        <ele>173</ele>
        <time>2016-08-26T08:45:58Z</time>
      </trkpt>
      <trkpt lat="45.91223" lon="4.73978">
        <ele>173</ele>
        <time>2016-08-26T08:45:59Z</time>
      </trkpt>
      <trkpt lat="45.91222" lon="4.73984">
        <ele>173</ele>
        <time>2016-08-26T08:46:00Z</time>
      </trkpt>
      <trkpt lat="45.91221" lon="4.73991">
        <ele>173</ele>
        <time>2016-08-26T08:46:01Z</time>
      </trkpt>
      <trkpt lat="45.9122" lon="4.73997">
        <ele>173</ele>
        <time>2016-08-26T08:46:02Z</time>
      </trkpt>
      <trkpt lat="45.91219" lon="4.74004">
        <ele>173</ele>
        <time>2016-08-26T08:46:03Z</time>
      </trkpt>
      <trkpt lat="45.91217" lon="4.74016">
        <ele>173</ele>
        <time>2016-08-26T08:46:05Z</time>
      </trkpt>
      <trkpt lat="45.91215" lon="4.74022">
        <ele>173</ele>
        <time>2016-08-26T08:46:06Z</time>
      </trkpt>
      <trkpt lat="45.91214" lon="4.74028">
        <ele>173</ele>
        <time>2016-08-26T08:46:07Z</time>
      </trkpt>
      <trkpt lat="45.91213" lon="4.74035">
        <ele>173</ele>
        <time>2016-08-26T08:46:08Z</time>
      </trkpt>
      <trkpt lat="45.9121" lon="4.74046">
        <ele>173</ele>
        <time>2016-08-26T08:46:10Z</time>
      </trkpt>
      <trkpt lat="45.91209" lon="4.74052">
        <ele>173</ele>
        <time>2016-08-26T08:46:11Z</time>
      </trkpt>
      <trkpt lat="45.91206" lon="4.74064">
        <ele>173</ele>
        <time>2016-08-26T08:46:13Z</time>
      </trkpt>
      <trkpt lat="45.91205" lon="4.74071">
        <ele>173</ele>
        <time>2016-08-26T08:46:14Z</time>
      </trkpt>
      <trkpt lat="45.91204" lon="4.74077">
        <ele>173</ele>
        <time>2016-08-26T08:46:15Z</time>
      </trkpt>
      <trkpt lat="45.91202" lon="4.74084">
        <ele>173</ele>
        <time>2016-08-26T08:46:16Z</time>
      </trkpt>
      <trkpt lat="45.91201" lon="4.7409">
        <ele>173</ele>
        <time>2016-08-26T08:46:17Z</time>
      </trkpt>
      <trkpt lat="45.91199" lon="4.74097">
        <ele>173</ele>
        <time>2016-08-26T08:46:18Z</time>
      </trkpt>
      <trkpt lat="45.91197" lon="4.74104">
        <ele>174</ele>
        <time>2016-08-26T08:46:19Z</time>
      </trkpt>
      <trkpt lat="45.91195" lon="4.74111">
        <ele>174</ele>
        <time>2016-08-26T08:46:20Z</time>
      </trkpt>
      <trkpt lat="45.91194" lon="4.74118">
        <ele>174</ele>
        <time>2016-08-26T08:46:21Z</time>
      </trkpt>
      <trkpt lat="45.91192" lon="4.74126">
        <ele>174</ele>
        <time>2016-08-26T08:46:22Z</time>
      </trkpt>
      <trkpt lat="45.91191" lon="4.74133">
        <ele>174</ele>
        <time>2016-08-26T08:46:23Z</time>
      </trkpt>
      <trkpt lat="45.91189" lon="4.7414">
        <ele>174</ele>
        <time>2016-08-26T08:46:24Z</time>
      </trkpt>
      <trkpt lat="45.91187" lon="4.74148">
        <ele>174</ele>
        <time>2016-08-26T08:46:25Z</time>
      </trkpt>
      <trkpt lat="45.91186" lon="4.74156">
        <ele>174</ele>
        <time>2016-08-26T08:46:26Z</time>
      </trkpt>
      <trkpt lat="45.91185" lon="4.74164">
        <ele>174</ele>
        <time>2016-08-26T08:46:27Z</time>
      </trkpt>
      <trkpt lat="45.91183" lon="4.74172">
        <ele>174</ele>
        <time>2016-08-26T08:46:28Z</time>
      </trkpt>
      <trkpt lat="45.91182" lon="4.74181">
        <ele>174</ele>
        <time>2016-08-26T08:46:29Z</time>
      </trkpt>
      <trkpt lat="45.91181" lon="4.7419">
        <ele>174</ele>
        <time>2016-08-26T08:46:30Z</time>
      </trkpt>
      <trkpt lat="45.91181" lon="4.74199">
        <ele>175</ele>
        <time>2016-08-26T08:46:31Z</time>
      </trkpt>
      <trkpt lat="45.91181" lon="4.74208">
        <ele>175</ele>
        <time>2016-08-26T08:46:32Z</time>
      </trkpt>
      <trkpt lat="45.91181" lon="4.74217">
        <ele>175</ele>
        <time>2016-08-26T08:46:33Z</time>
      </trkpt>
      <trkpt lat="45.91181" lon="4.74227">
        <ele>175</ele>
        <time>2016-08-26T08:46:34Z</time>
      </trkpt>
      <trkpt lat="45.91182" lon="4.74236">
        <ele>175</ele>
        <time>2016-08-26T08:46:35Z</time>
      </trkpt>
      <trkpt lat="45.91183" lon="4.74246">
        <ele>175</ele>
        <time>2016-08-26T08:46:36Z</time>
      </trkpt>
      <trkpt lat="45.91185" lon="4.74256">
        <ele>175</ele>
        <time>2016-08-26T08:46:37Z</time>
      </trkpt>
      <trkpt lat="45.91187" lon="4.74266">
        <ele>175</ele>
        <time>2016-08-26T08:46:38Z</time>
      </trkpt>
      <trkpt lat="45.91189" lon="4.74277">
        <ele>175</ele>
        <time>2016-08-26T08:46:39Z</time>
      </trkpt>
      <trkpt lat="45.91192" lon="4.74287">
        <ele>175</ele>
        <time>2016-08-26T08:46:40Z</time>
      </trkpt>
      <trkpt lat="45.91195" lon="4.74298">
        <ele>175</ele>
        <time>2016-08-26T08:46:41Z</time>
      </trkpt>
      <trkpt lat="45.91198" lon="4.74309">
        <ele>175</ele>
        <time>2016-08-26T08:46:42Z</time>
      </trkpt>
      <trkpt lat="45.912" lon="4.7432">
        <ele>175</ele>
        <time>2016-08-26T08:46:43Z</time>
      </trkpt>
      <trkpt lat="45.91203" lon="4.74331">
        <ele>175</ele>
        <time>2016-08-26T08:46:44Z</time>
      </trkpt>
      <trkpt lat="45.91206" lon="4.74343">
        <ele>175</ele>
        <time>2016-08-26T08:46:45Z</time>
      </trkpt>
      <trkpt lat="45.91209" lon="4.74354">
        <ele>175</ele>
        <time>2016-08-26T08:46:46Z</time>
      </trkpt>
      <trkpt lat="45.91213" lon="4.74365">
        <ele>175</ele>
        <time>2016-08-26T08:46:47Z</time>
      </trkpt>
      <trkpt lat="45.91216" lon="4.74377">
        <ele>174</ele>
        <time>2016-08-26T08:46:48Z</time>
      </trkpt>
      <trkpt lat="45.91219" lon="4.74388">
        <ele>174</ele>
        <time>2016-08-26T08:46:49Z</time>
      </trkpt>
      <trkpt lat="45.91222" lon="4.74399">
        <ele>174</ele>
        <time>2016-08-26T08:46:50Z</time>
      </trkpt>
      <trkpt lat="45.91225" lon="4.7441">
        <ele>174</ele>
        <time>2016-08-26T08:46:51Z</time>
      </trkpt>
      <trkpt lat="45.91228" lon="4.74421">
        <ele>174</ele>
        <time>2016-08-26T08:46:52Z</time>
      </trkpt>
      <trkpt lat="45.91231" lon="4.74432">
        <ele>174</ele>
        <time>2016-08-26T08:46:53Z</time>
      </trkpt>
      <trkpt lat="45.91234" lon="4.74442">
        <ele>174</ele>
        <time>2016-08-26T08:46:54Z</time>
      </trkpt>
      <trkpt lat="45.91237" lon="4.74452">
        <ele>174</ele>
        <time>2016-08-26T08:46:55Z</time>
      </trkpt>
      <trkpt lat="45.91239" lon="4.74462">
        <ele>174</ele>
        <time>2016-08-26T08:46:56Z</time>
      </trkpt>
      <trkpt lat="45.91242" lon="4.74471">
        <ele>174</ele>
        <time>2016-08-26T08:46:57Z</time>
      </trkpt>
      <trkpt lat="45.91244" lon="4.7448">
        <ele>174</ele>
        <time>2016-08-26T08:46:58Z</time>
      </trkpt>
      <trkpt lat="45.91247" lon="4.74489">
        <ele>174</ele>
        <time>2016-08-26T08:46:59Z</time>
      </trkpt>
      <trkpt lat="45.91249" lon="4.74498">
        <ele>174</ele>
        <time>2016-08-26T08:47:00Z</time>
      </trkpt>
      <trkpt lat="45.91252" lon="4.74507">
        <ele>174</ele>
        <time>2016-08-26T08:47:01Z</time>
      </trkpt>
      <trkpt lat="45.91255" lon="4.74515">
        <ele>174</ele>
        <time>2016-08-26T08:47:02Z</time>
      </trkpt>
      <trkpt lat="45.91257" lon="4.74524">
        <ele>174</ele>
        <time>2016-08-26T08:47:03Z</time>
      </trkpt>
      <trkpt lat="45.9126" lon="4.74532">
        <ele>173</ele>
        <time>2016-08-26T08:47:04Z</time>
      </trkpt>
      <trkpt lat="45.91263" lon="4.7454">
        <ele>173</ele>
        <time>2016-08-26T08:47:05Z</time>
      </trkpt>
      <trkpt lat="45.91266" lon="4.74547">
        <ele>173</ele>
        <time>2016-08-26T08:47:06Z</time>
      </trkpt>
      <trkpt lat="45.9127" lon="4.74555">
        <ele>173</ele>
        <time>2016-08-26T08:47:07Z</time>
      </trkpt>
      <trkpt lat="45.91273" lon="4.74563">
        <ele>173</ele>
        <time>2016-08-26T08:47:08Z</time>
      </trkpt>
      <trkpt lat="45.91277" lon="4.7457">
        <ele>173</ele>
        <time>2016-08-26T08:47:09Z</time>
      </trkpt>
      <trkpt lat="45.91281" lon="4.74579">
        <ele>173</ele>
        <time>2016-08-26T08:47:10Z</time>
      </trkpt>
      <trkpt lat="45.91284" lon="4.74587">
        <ele>173</ele>
        <time>2016-08-26T08:47:11Z</time>
      </trkpt>
      <trkpt lat="45.91288" lon="4.74595">
        <ele>173</ele>
        <time>2016-08-26T08:47:12Z</time>
      </trkpt>
      <trkpt lat="45.91291" lon="4.74603">
        <ele>173</ele>
        <time>2016-08-26T08:47:13Z</time>
      </trkpt>
      <trkpt lat="45.91295" lon="4.7461">
        <ele>173</ele>
        <time>2016-08-26T08:47:14Z</time>
      </trkpt>
      <trkpt lat="45.91298" lon="4.74618">
        <ele>173</ele>
        <time>2016-08-26T08:47:15Z</time>
      </trkpt>
      <trkpt lat="45.91301" lon="4.74625">
        <ele>173</ele>
        <time>2016-08-26T08:47:16Z</time>
      </trkpt>
      <trkpt lat="45.91304" lon="4.74632">
        <ele>173</ele>
        <time>2016-08-26T08:47:17Z</time>
      </trkpt>
      <trkpt lat="45.91308" lon="4.74639">
        <ele>173</ele>
        <time>2016-08-26T08:47:18Z</time>
      </trkpt>
      <trkpt lat="45.91311" lon="4.74646">
        <ele>173</ele>
        <time>2016-08-26T08:47:19Z</time>
      </trkpt>
      <trkpt lat="45.91314" lon="4.74653">
        <ele>173</ele>
        <time>2016-08-26T08:47:20Z</time>
      </trkpt>
      <trkpt lat="45.91316" lon="4.74659">
        <ele>173</ele>
        <time>2016-08-26T08:47:21Z</time>
      </trkpt>
      <trkpt lat="45.91319" lon="4.74666">
        <ele>173</ele>
        <time>2016-08-26T08:47:22Z</time>
      </trkpt>
      <trkpt lat="45.91322" lon="4.74673">
        <ele>173</ele>
        <time>2016-08-26T08:47:23Z</time>
      </trkpt>
      <trkpt lat="45.91324" lon="4.74681">
        <ele>173</ele>
        <time>2016-08-26T08:47:24Z</time>
      </trkpt>
      <trkpt lat="45.91325" lon="4.74689">
        <ele>173</ele>
        <time>2016-08-26T08:47:25Z</time>
      </trkpt>
      <trkpt lat="45.91326" lon="4.74697">
        <ele>173</ele>
        <time>2016-08-26T08:47:26Z</time>
      </trkpt>
      <trkpt lat="45.91328" lon="4.74706">
        <ele>173</ele>
        <time>2016-08-26T08:47:27Z</time>
      </trkpt>
      <trkpt lat="45.91328" lon="4.74714">
        <ele>173</ele>
        <time>2016-08-26T08:47:28Z</time>
      </trkpt>
      <trkpt lat="45.91328" lon="4.74722">
        <ele>173</ele>
        <time>2016-08-26T08:47:29Z</time>
      </trkpt>
      <trkpt lat="45.91327" lon="4.74731">
        <ele>173</ele>
        <time>2016-08-26T08:47:30Z</time>
      </trkpt>
      <trkpt lat="45.91325" lon="4.7474">
        <ele>173</ele>
        <time>2016-08-26T08:47:31Z</time>
      </trkpt>
      <trkpt lat="45.91324" lon="4.74748">
        <ele>173</ele>
        <time>2016-08-26T08:47:32Z</time>
      </trkpt>
      <trkpt lat="45.91323" lon="4.74756">
        <ele>174</ele>
        <time>2016-08-26T08:47:33Z</time>
      </trkpt>
      <trkpt lat="45.9132" lon="4.74764">
        <ele>174</ele>
        <time>2016-08-26T08:47:34Z</time>
      </trkpt>
      <trkpt lat="45.91318" lon="4.74772">
        <ele>174</ele>
        <time>2016-08-26T08:47:35Z</time>
      </trkpt>
      <trkpt lat="45.91316" lon="4.7478">
        <ele>174</ele>
        <time>2016-08-26T08:47:36Z</time>
      </trkpt>
      <trkpt lat="45.91314" lon="4.74789">
        <ele>174</ele>
        <time>2016-08-26T08:47:37Z</time>
      </trkpt>
      <trkpt lat="45.91313" lon="4.74797">
        <ele>174</ele>
        <time>2016-08-26T08:47:38Z</time>
      </trkpt>
      <trkpt lat="45.91312" lon="4.74806">
        <ele>175</ele>
        <time>2016-08-26T08:47:39Z</time>
      </trkpt>
      <trkpt lat="45.91311" lon="4.74815">
        <ele>175</ele>
        <time>2016-08-26T08:47:40Z</time>
      </trkpt>
      <trkpt lat="45.9131" lon="4.74823">
        <ele>175</ele>
        <time>2016-08-26T08:47:41Z</time>
      </trkpt>
      <trkpt lat="45.91309" lon="4.74831">
        <ele>175</ele>
        <time>2016-08-26T08:47:42Z</time>
      </trkpt>
      <trkpt lat="45.91309" lon="4.74838">
        <ele>176</ele>
        <time>2016-08-26T08:47:43Z</time>
      </trkpt>
      <trkpt lat="45.9131" lon="4.74845">
        <ele>176</ele>
        <time>2016-08-26T08:47:44Z</time>
      </trkpt>
      <trkpt lat="45.9131" lon="4.74858">
        <ele>176</ele>
        <time>2016-08-26T08:47:46Z</time>
      </trkpt>
      <trkpt lat="45.91309" lon="4.74864">
        <ele>176</ele>
        <time>2016-08-26T08:47:47Z</time>
      </trkpt>
      <trkpt lat="45.91309" lon="4.74871">
        <ele>176</ele>
        <time>2016-08-26T08:47:48Z</time>
      </trkpt>
      <trkpt lat="45.91309" lon="4.74878">
        <ele>176</ele>
        <time>2016-08-26T08:47:49Z</time>
      </trkpt>
      <trkpt lat="45.91309" lon="4.74886">
        <ele>176</ele>
        <time>2016-08-26T08:47:50Z</time>
      </trkpt>
      <trkpt lat="45.91308" lon="4.74894">
        <ele>176</ele>
        <time>2016-08-26T08:47:51Z</time>
      </trkpt>
      <trkpt lat="45.91307" lon="4.749">
        <ele>176</ele>
        <time>2016-08-26T08:47:52Z</time>
      </trkpt>
      <trkpt lat="45.91306" lon="4.74907">
        <ele>176</ele>
        <time>2016-08-26T08:47:53Z</time>
      </trkpt>
      <trkpt lat="45.91305" lon="4.74914">
        <ele>176</ele>
        <time>2016-08-26T08:47:54Z</time>
      </trkpt>
      <trkpt lat="45.91304" lon="4.74921">
        <ele>177</ele>
        <time>2016-08-26T08:47:55Z</time>
      </trkpt>
      <trkpt lat="45.91304" lon="4.74928">
        <ele>177</ele>
        <time>2016-08-26T08:47:56Z</time>
      </trkpt>
      <trkpt lat="45.91303" lon="4.74935">
        <ele>177</ele>
        <time>2016-08-26T08:47:57Z</time>
      </trkpt>
      <trkpt lat="45.91302" lon="4.74943">
        <ele>177</ele>
        <time>2016-08-26T08:47:58Z</time>
      </trkpt>
      <trkpt lat="45.91301" lon="4.7495">
        <ele>177</ele>
        <time>2016-08-26T08:47:59Z</time>
      </trkpt>
      <trkpt lat="45.91301" lon="4.74958">
        <ele>177</ele>
        <time>2016-08-26T08:48:00Z</time>
      </trkpt>
      <trkpt lat="45.913" lon="4.74966">
        <ele>177</ele>
        <time>2016-08-26T08:48:01Z</time>
      </trkpt>
      <trkpt lat="45.91299" lon="4.74974">
        <ele>177</ele>
        <time>2016-08-26T08:48:02Z</time>
      </trkpt>
      <trkpt lat="45.91298" lon="4.74981">
        <ele>177</ele>
        <time>2016-08-26T08:48:03Z</time>
      </trkpt>
      <trkpt lat="45.91298" lon="4.74988">
        <ele>177</ele>
        <time>2016-08-26T08:48:04Z</time>
      </trkpt>
      <trkpt lat="45.91297" lon="4.74996">
        <ele>177</ele>
        <time>2016-08-26T08:48:05Z</time>
      </trkpt>
      <trkpt lat="45.91296" lon="4.75004">
        <ele>177</ele>
        <time>2016-08-26T08:48:06Z</time>
      </trkpt>
      <trkpt lat="45.91296" lon="4.75012">
        <ele>177</ele>
        <time>2016-08-26T08:48:07Z</time>
      </trkpt>
      <trkpt lat="45.91296" lon="4.75021">
        <ele>177</ele>
        <time>2016-08-26T08:48:08Z</time>
      </trkpt>
      <trkpt lat="45.91297" lon="4.7503">
        <ele>177</ele>
        <time>2016-08-26T08:48:09Z</time>
      </trkpt>
      <trkpt lat="45.91296" lon="4.75038">
        <ele>177</ele>
        <time>2016-08-26T08:48:10Z</time>
      </trkpt>
      <trkpt lat="45.91296" lon="4.75045">
        <ele>177</ele>
        <time>2016-08-26T08:48:11Z</time>
      </trkpt>
      <trkpt lat="45.91296" lon="4.75053">
        <ele>177</ele>
        <time>2016-08-26T08:48:12Z</time>
      </trkpt>
      <trkpt lat="45.91297" lon="4.7506">
        <ele>177</ele>
        <time>2016-08-26T08:48:13Z</time>
      </trkpt>
      <trkpt lat="45.91298" lon="4.75067">
        <ele>177</ele>
        <time>2016-08-26T08:48:14Z</time>
      </trkpt>
      <trkpt lat="45.91298" lon="4.75074">
        <ele>177</ele>
        <time>2016-08-26T08:48:15Z</time>
      </trkpt>
      <trkpt lat="45.91299" lon="4.75081">
        <ele>177</ele>
        <time>2016-08-26T08:48:16Z</time>
      </trkpt>
      <trkpt lat="45.913" lon="4.75088">
        <ele>177</ele>
        <time>2016-08-26T08:48:17Z</time>
      </trkpt>
      <trkpt lat="45.913" lon="4.75095">
        <ele>177</ele>
        <time>2016-08-26T08:48:18Z</time>
      </trkpt>
      <trkpt lat="45.91301" lon="4.75102">
        <ele>177</ele>
        <time>2016-08-26T08:48:19Z</time>
      </trkpt>
      <trkpt lat="45.91301" lon="4.75109">
        <ele>177</ele>
        <time>2016-08-26T08:48:20Z</time>
      </trkpt>
      <trkpt lat="45.91301" lon="4.75116">
        <ele>177</ele>
        <time>2016-08-26T08:48:21Z</time>
      </trkpt>
      <trkpt lat="45.91302" lon="4.75123">
        <ele>177</ele>
        <time>2016-08-26T08:48:22Z</time>
      </trkpt>
      <trkpt lat="45.91302" lon="4.75129">
        <ele>177</ele>
        <time>2016-08-26T08:48:23Z</time>
      </trkpt>
      <trkpt lat="45.91303" lon="4.75136">
        <ele>177</ele>
        <time>2016-08-26T08:48:24Z</time>
      </trkpt>
      <trkpt lat="45.91304" lon="4.75143">
        <ele>177</ele>
        <time>2016-08-26T08:48:25Z</time>
      </trkpt>
      <trkpt lat="45.91303" lon="4.75154">
        <ele>177</ele>
        <time>2016-08-26T08:48:27Z</time>
      </trkpt>
      <trkpt lat="45.91302" lon="4.75156">
        <ele>177</ele>
        <time>2016-08-26T08:48:28Z</time>
      </trkpt>
      <trkpt lat="45.91296" lon="4.75158">
        <ele>177</ele>
        <time>2016-08-26T08:48:30Z</time>
      </trkpt>
      <trkpt lat="45.91292" lon="4.75158">
        <ele>177</ele>
        <time>2016-08-26T08:48:31Z</time>
      </trkpt>
      <trkpt lat="45.91285" lon="4.75152">
        <ele>177</ele>
        <time>2016-08-26T08:48:33Z</time>
      </trkpt>
      <trkpt lat="45.91281" lon="4.75149">
        <ele>177</ele>
        <time>2016-08-26T08:48:34Z</time>
      </trkpt>
      <trkpt lat="45.91276" lon="4.75148">
        <ele>177</ele>
        <time>2016-08-26T08:48:35Z</time>
      </trkpt>
      <trkpt lat="45.91272" lon="4.75146">
        <ele>177</ele>
        <time>2016-08-26T08:48:36Z</time>
      </trkpt>
      <trkpt lat="45.91267" lon="4.75143">
        <ele>177</ele>
        <time>2016-08-26T08:48:37Z</time>
      </trkpt>
      <trkpt lat="45.91262" lon="4.7514">
        <ele>177</ele>
        <time>2016-08-26T08:48:38Z</time>
      </trkpt>
      <trkpt lat="45.91258" lon="4.75135">
        <ele>177</ele>
        <time>2016-08-26T08:48:39Z</time>
      </trkpt>
      <trkpt lat="45.91253" lon="4.75133">
        <ele>177</ele>
        <time>2016-08-26T08:48:40Z</time>
      </trkpt>
      <trkpt lat="45.91248" lon="4.75132">
        <ele>177</ele>
        <time>2016-08-26T08:48:41Z</time>
      </trkpt>
      <trkpt lat="45.91243" lon="4.7513">
        <ele>177</ele>
        <time>2016-08-26T08:48:42Z</time>
      </trkpt>
      <trkpt lat="45.91238" lon="4.75128">
        <ele>177</ele>
        <time>2016-08-26T08:48:43Z</time>
      </trkpt>
      <trkpt lat="45.91233" lon="4.75125">
        <ele>177</ele>
        <time>2016-08-26T08:48:44Z</time>
      </trkpt>
      <trkpt lat="45.91227" lon="4.75123">
        <ele>177</ele>
        <time>2016-08-26T08:48:45Z</time>
      </trkpt>
      <trkpt lat="45.91222" lon="4.75121">
        <ele>177</ele>
        <time>2016-08-26T08:48:46Z</time>
      </trkpt>
      <trkpt lat="45.91217" lon="4.75119">
        <ele>177</ele>
        <time>2016-08-26T08:48:47Z</time>
      </trkpt>
      <trkpt lat="45.91212" lon="4.75118">
        <ele>177</ele>
        <time>2016-08-26T08:48:48Z</time>
      </trkpt>
      <trkpt lat="45.91207" lon="4.75117">
        <ele>178</ele>
        <time>2016-08-26T08:48:49Z</time>
      </trkpt>
      <trkpt lat="45.91201" lon="4.75115">
        <ele>178</ele>
        <time>2016-08-26T08:48:50Z</time>
      </trkpt>
      <trkpt lat="45.91195" lon="4.75114">
        <ele>178</ele>
        <time>2016-08-26T08:48:51Z</time>
      </trkpt>
      <trkpt lat="45.9119" lon="4.75114">
        <ele>178</ele>
        <time>2016-08-26T08:48:52Z</time>
      </trkpt>
      <trkpt lat="45.91185" lon="4.75113">
        <ele>178</ele>
        <time>2016-08-26T08:48:53Z</time>
      </trkpt>
      <trkpt lat="45.91179" lon="4.75111">
        <ele>178</ele>
        <time>2016-08-26T08:48:54Z</time>
      </trkpt>
      <trkpt lat="45.91174" lon="4.7511">
        <ele>178</ele>
        <time>2016-08-26T08:48:55Z</time>
      </trkpt>
      <trkpt lat="45.91168" lon="4.75109">
        <ele>178</ele>
        <time>2016-08-26T08:48:56Z</time>
      </trkpt>
      <trkpt lat="45.91163" lon="4.75107">
        <ele>179</ele>
        <time>2016-08-26T08:48:57Z</time>
      </trkpt>
      <trkpt lat="45.91158" lon="4.75105">
        <ele>179</ele>
        <time>2016-08-26T08:48:58Z</time>
      </trkpt>
      <trkpt lat="45.91153" lon="4.75104">
        <ele>179</ele>
        <time>2016-08-26T08:48:59Z</time>
      </trkpt>
      <trkpt lat="45.91147" lon="4.75103">
        <ele>179</ele>
        <time>2016-08-26T08:49:00Z</time>
      </trkpt>
      <trkpt lat="45.91142" lon="4.75101">
        <ele>179</ele>
        <time>2016-08-26T08:49:01Z</time>
      </trkpt>
      <trkpt lat="45.91136" lon="4.75099">
        <ele>179</ele>
        <time>2016-08-26T08:49:02Z</time>
      </trkpt>
      <trkpt lat="45.9113" lon="4.75095">
        <ele>179</ele>
        <time>2016-08-26T08:49:03Z</time>
      </trkpt>
      <trkpt lat="45.91124" lon="4.75093">
        <ele>179</ele>
        <time>2016-08-26T08:49:04Z</time>
      </trkpt>
      <trkpt lat="45.91118" lon="4.7509">
        <ele>179</ele>
        <time>2016-08-26T08:49:05Z</time>
      </trkpt>
      <trkpt lat="45.91113" lon="4.75088">
        <ele>179</ele>
        <time>2016-08-26T08:49:06Z</time>
      </trkpt>
      <trkpt lat="45.91107" lon="4.75086">
        <ele>180</ele>
        <time>2016-08-26T08:49:07Z</time>
      </trkpt>
      <trkpt lat="45.91102" lon="4.75083">
        <ele>179</ele>
        <time>2016-08-26T08:49:08Z</time>
      </trkpt>
      <trkpt lat="45.91096" lon="4.75081">
        <ele>179</ele>
        <time>2016-08-26T08:49:09Z</time>
      </trkpt>
      <trkpt lat="45.91091" lon="4.75079">
        <ele>180</ele>
        <time>2016-08-26T08:49:10Z</time>
      </trkpt>
      <trkpt lat="45.91085" lon="4.75077">
        <ele>180</ele>
        <time>2016-08-26T08:49:11Z</time>
      </trkpt>
      <trkpt lat="45.91079" lon="4.75075">
        <ele>180</ele>
        <time>2016-08-26T08:49:12Z</time>
      </trkpt>
      <trkpt lat="45.91073" lon="4.75073">
        <ele>179</ele>
        <time>2016-08-26T08:49:13Z</time>
      </trkpt>
      <trkpt lat="45.91068" lon="4.75071">
        <ele>179</ele>
        <time>2016-08-26T08:49:14Z</time>
      </trkpt>
      <trkpt lat="45.91063" lon="4.75069">
        <ele>179</ele>
        <time>2016-08-26T08:49:15Z</time>
      </trkpt>
      <trkpt lat="45.91057" lon="4.75067">
        <ele>179</ele>
        <time>2016-08-26T08:49:16Z</time>
      </trkpt>
      <trkpt lat="45.91052" lon="4.75065">
        <ele>179</ele>
        <time>2016-08-26T08:49:17Z</time>
      </trkpt>
      <trkpt lat="45.91046" lon="4.75063">
        <ele>179</ele>
        <time>2016-08-26T08:49:18Z</time>
      </trkpt>
      <trkpt lat="45.91041" lon="4.75062">
        <ele>179</ele>
        <time>2016-08-26T08:49:19Z</time>
      </trkpt>
      <trkpt lat="45.91036" lon="4.7506">
        <ele>179</ele>
        <time>2016-08-26T08:49:20Z</time>
      </trkpt>
      <trkpt lat="45.91031" lon="4.75059">
        <ele>179</ele>
        <time>2016-08-26T08:49:21Z</time>
      </trkpt>
      <trkpt lat="45.91027" lon="4.75057">
        <ele>179</ele>
        <time>2016-08-26T08:49:22Z</time>
      </trkpt>
      <trkpt lat="45.91022" lon="4.75055">
        <ele>179</ele>
        <time>2016-08-26T08:49:23Z</time>
      </trkpt>
      <trkpt lat="45.91018" lon="4.75054">
        <ele>179</ele>
        <time>2016-08-26T08:49:24Z</time>
      </trkpt>
      <trkpt lat="45.91013" lon="4.75052">
        <ele>179</ele>
        <time>2016-08-26T08:49:25Z</time>
      </trkpt>
      <trkpt lat="45.91008" lon="4.7505">
        <ele>178</ele>
        <time>2016-08-26T08:49:26Z</time>
      </trkpt>
      <trkpt lat="45.91003" lon="4.75048">
        <ele>178</ele>
        <time>2016-08-26T08:49:27Z</time>
      </trkpt>
      <trkpt lat="45.90998" lon="4.75046">
        <ele>179</ele>
        <time>2016-08-26T08:49:28Z</time>
      </trkpt>
      <trkpt lat="45.90993" lon="4.75044">
        <ele>179</ele>
        <time>2016-08-26T08:49:29Z</time>
      </trkpt>
      <trkpt lat="45.90987" lon="4.75042">
        <ele>179</ele>
        <time>2016-08-26T08:49:30Z</time>
      </trkpt>
      <trkpt lat="45.90982" lon="4.75039">
        <ele>179</ele>
        <time>2016-08-26T08:49:31Z</time>
      </trkpt>
      <trkpt lat="45.90977" lon="4.75037">
        <ele>179</ele>
        <time>2016-08-26T08:49:32Z</time>
      </trkpt>
      <trkpt lat="45.90972" lon="4.75035">
        <ele>179</ele>
        <time>2016-08-26T08:49:33Z</time>
      </trkpt>
      <trkpt lat="45.90967" lon="4.75032">
        <ele>179</ele>
        <time>2016-08-26T08:49:34Z</time>
      </trkpt>
      <trkpt lat="45.90962" lon="4.7503">
        <ele>179</ele>
        <time>2016-08-26T08:49:35Z</time>
      </trkpt>
      <trkpt lat="45.90957" lon="4.75028">
        <ele>179</ele>
        <time>2016-08-26T08:49:36Z</time>
      </trkpt>
      <trkpt lat="45.90952" lon="4.75026">
        <ele>179</ele>
        <time>2016-08-26T08:49:37Z</time>
      </trkpt>
      <trkpt lat="45.90947" lon="4.75024">
        <ele>179</ele>
        <time>2016-08-26T08:49:38Z</time>
      </trkpt>
      <trkpt lat="45.90942" lon="4.75021">
        <ele>179</ele>
        <time>2016-08-26T08:49:39Z</time>
      </trkpt>
      <trkpt lat="45.90937" lon="4.75019">
        <ele>179</ele>
        <time>2016-08-26T08:49:40Z</time>
      </trkpt>
      <trkpt lat="45.90933" lon="4.75017">
        <ele>178</ele>
        <time>2016-08-26T08:49:41Z</time>
      </trkpt>
      <trkpt lat="45.90928" lon="4.75016">
        <ele>178</ele>
        <time>2016-08-26T08:49:42Z</time>
      </trkpt>
      <trkpt lat="45.90923" lon="4.75014">
        <ele>178</ele>
        <time>2016-08-26T08:49:43Z</time>
      </trkpt>
      <trkpt lat="45.90918" lon="4.75012">
        <ele>178</ele>
        <time>2016-08-26T08:49:44Z</time>
      </trkpt>
      <trkpt lat="45.90914" lon="4.7501">
        <ele>179</ele>
        <time>2016-08-26T08:49:45Z</time>
      </trkpt>
      <trkpt lat="45.90909" lon="4.75008">
        <ele>179</ele>
        <time>2016-08-26T08:49:46Z</time>
      </trkpt>
      <trkpt lat="45.90905" lon="4.75006">
        <ele>179</ele>
        <time>2016-08-26T08:49:47Z</time>
      </trkpt>
      <trkpt lat="45.90899" lon="4.75004">
        <ele>179</ele>
        <time>2016-08-26T08:49:48Z</time>
      </trkpt>
      <trkpt lat="45.90894" lon="4.75002">
        <ele>179</ele>
        <time>2016-08-26T08:49:49Z</time>
      </trkpt>
      <trkpt lat="45.90889" lon="4.75">
        <ele>178</ele>
        <time>2016-08-26T08:49:50Z</time>
      </trkpt>
      <trkpt lat="45.90884" lon="4.74998">
        <ele>178</ele>
        <time>2016-08-26T08:49:51Z</time>
      </trkpt>
      <trkpt lat="45.90879" lon="4.74995">
        <ele>178</ele>
        <time>2016-08-26T08:49:52Z</time>
      </trkpt>
      <trkpt lat="45.90874" lon="4.74993">
        <ele>179</ele>
        <time>2016-08-26T08:49:53Z</time>
      </trkpt>
      <trkpt lat="45.90869" lon="4.7499">
        <ele>179</ele>
        <time>2016-08-26T08:49:54Z</time>
      </trkpt>
      <trkpt lat="45.90863" lon="4.74988">
        <ele>179</ele>
        <time>2016-08-26T08:49:55Z</time>
      </trkpt>
      <trkpt lat="45.90858" lon="4.74986">
        <ele>179</ele>
        <time>2016-08-26T08:49:56Z</time>
      </trkpt>
      <trkpt lat="45.90852" lon="4.74983">
        <ele>179</ele>
        <time>2016-08-26T08:49:57Z</time>
      </trkpt>
      <trkpt lat="45.90847" lon="4.74981">
        <ele>179</ele>
        <time>2016-08-26T08:49:58Z</time>
      </trkpt>
      <trkpt lat="45.90842" lon="4.74979">
        <ele>179</ele>
        <time>2016-08-26T08:49:59Z</time>
      </trkpt>
      <trkpt lat="45.90838" lon="4.74977">
        <ele>179</ele>
        <time>2016-08-26T08:50:00Z</time>
      </trkpt>
      <trkpt lat="45.90833" lon="4.74974">
        <ele>179</ele>
        <time>2016-08-26T08:50:01Z</time>
      </trkpt>
      <trkpt lat="45.90828" lon="4.74973">
        <ele>179</ele>
        <time>2016-08-26T08:50:02Z</time>
      </trkpt>
      <trkpt lat="45.90822" lon="4.7497">
        <ele>179</ele>
        <time>2016-08-26T08:50:03Z</time>
      </trkpt>
      <trkpt lat="45.90817" lon="4.74968">
        <ele>179</ele>
        <time>2016-08-26T08:50:04Z</time>
      </trkpt>
      <trkpt lat="45.9081" lon="4.74966">
        <ele>179</ele>
        <time>2016-08-26T08:50:05Z</time>
      </trkpt>
      <trkpt lat="45.90804" lon="4.74964">
        <ele>179</ele>
        <time>2016-08-26T08:50:06Z</time>
      </trkpt>
      <trkpt lat="45.90798" lon="4.74962">
        <ele>179</ele>
        <time>2016-08-26T08:50:07Z</time>
      </trkpt>
      <trkpt lat="45.90793" lon="4.7496">
        <ele>179</ele>
        <time>2016-08-26T08:50:08Z</time>
      </trkpt>
      <trkpt lat="45.90788" lon="4.74958">
        <ele>180</ele>
        <time>2016-08-26T08:50:09Z</time>
      </trkpt>
      <trkpt lat="45.90783" lon="4.74956">
        <ele>180</ele>
        <time>2016-08-26T08:50:10Z</time>
      </trkpt>
      <trkpt lat="45.90778" lon="4.74954">
        <ele>180</ele>
        <time>2016-08-26T08:50:11Z</time>
      </trkpt>
      <trkpt lat="45.90773" lon="4.74952">
        <ele>180</ele>
        <time>2016-08-26T08:50:12Z</time>
      </trkpt>
      <trkpt lat="45.90767" lon="4.7495">
        <ele>180</ele>
        <time>2016-08-26T08:50:13Z</time>
      </trkpt>
      <trkpt lat="45.90762" lon="4.74949">
        <ele>180</ele>
        <time>2016-08-26T08:50:14Z</time>
      </trkpt>
      <trkpt lat="45.90757" lon="4.74947">
        <ele>180</ele>
        <time>2016-08-26T08:50:15Z</time>
      </trkpt>
      <trkpt lat="45.90752" lon="4.74945">
        <ele>180</ele>
        <time>2016-08-26T08:50:16Z</time>
      </trkpt>
      <trkpt lat="45.90747" lon="4.74943">
        <ele>181</ele>
        <time>2016-08-26T08:50:17Z</time>
      </trkpt>
      <trkpt lat="45.90741" lon="4.74941">
        <ele>181</ele>
        <time>2016-08-26T08:50:18Z</time>
      </trkpt>
      <trkpt lat="45.90736" lon="4.7494">
        <ele>181</ele>
        <time>2016-08-26T08:50:19Z</time>
      </trkpt>
      <trkpt lat="45.90732" lon="4.74938">
        <ele>181</ele>
        <time>2016-08-26T08:50:20Z</time>
      </trkpt>
      <trkpt lat="45.90727" lon="4.74936">
        <ele>181</ele>
        <time>2016-08-26T08:50:21Z</time>
      </trkpt>
      <trkpt lat="45.90722" lon="4.74935">
        <ele>181</ele>
        <time>2016-08-26T08:50:22Z</time>
      </trkpt>
      <trkpt lat="45.90717" lon="4.74934">
        <ele>181</ele>
        <time>2016-08-26T08:50:23Z</time>
      </trkpt>
      <trkpt lat="45.90712" lon="4.74934">
        <ele>181</ele>
        <time>2016-08-26T08:50:24Z</time>
      </trkpt>
      <trkpt lat="45.90707" lon="4.74936">
        <ele>181</ele>
        <time>2016-08-26T08:50:25Z</time>
      </trkpt>
      <trkpt lat="45.90702" lon="4.74938">
        <ele>181</ele>
        <time>2016-08-26T08:50:26Z</time>
      </trkpt>
      <trkpt lat="45.90696" lon="4.74939">
        <ele>181</ele>
        <time>2016-08-26T08:50:27Z</time>
      </trkpt>
      <trkpt lat="45.90691" lon="4.74941">
        <ele>181</ele>
        <time>2016-08-26T08:50:28Z</time>
      </trkpt>
      <trkpt lat="45.90686" lon="4.74944">
        <ele>181</ele>
        <time>2016-08-26T08:50:29Z</time>
      </trkpt>
      <trkpt lat="45.90682" lon="4.74946">
        <ele>181</ele>
        <time>2016-08-26T08:50:30Z</time>
      </trkpt>
      <trkpt lat="45.90677" lon="4.74948">
        <ele>181</ele>
        <time>2016-08-26T08:50:31Z</time>
      </trkpt>
      <trkpt lat="45.90672" lon="4.74951">
        <ele>182</ele>
        <time>2016-08-26T08:50:32Z</time>
      </trkpt>
      <trkpt lat="45.90667" lon="4.74952">
        <ele>183</ele>
        <time>2016-08-26T08:50:33Z</time>
      </trkpt>
      <trkpt lat="45.90662" lon="4.74954">
        <ele>183</ele>
        <time>2016-08-26T08:50:34Z</time>
      </trkpt>
      <trkpt lat="45.90657" lon="4.74956">
        <ele>183</ele>
        <time>2016-08-26T08:50:35Z</time>
      </trkpt>
      <trkpt lat="45.90651" lon="4.74959">
        <ele>183</ele>
        <time>2016-08-26T08:50:36Z</time>
      </trkpt>
      <trkpt lat="45.90645" lon="4.74961">
        <ele>183</ele>
        <time>2016-08-26T08:50:37Z</time>
      </trkpt>
      <trkpt lat="45.9064" lon="4.74962">
        <ele>183</ele>
        <time>2016-08-26T08:50:38Z</time>
      </trkpt>
      <trkpt lat="45.90634" lon="4.74964">
        <ele>183</ele>
        <time>2016-08-26T08:50:39Z</time>
      </trkpt>
      <trkpt lat="45.90629" lon="4.74965">
        <ele>183</ele>
        <time>2016-08-26T08:50:40Z</time>
      </trkpt>
      <trkpt lat="45.9062" lon="4.74966">
        <ele>183</ele>
        <time>2016-08-26T08:50:42Z</time>
      </trkpt>
      <trkpt lat="45.90616" lon="4.74967">
        <ele>183</ele>
        <time>2016-08-26T08:50:43Z</time>
      </trkpt>
      <trkpt lat="45.90607" lon="4.74969">
        <ele>184</ele>
        <time>2016-08-26T08:50:45Z</time>
      </trkpt>
      <trkpt lat="45.90603" lon="4.7497">
        <ele>184</ele>
        <time>2016-08-26T08:50:46Z</time>
      </trkpt>
      <trkpt lat="45.90594" lon="4.74971">
        <ele>184</ele>
        <time>2016-08-26T08:50:48Z</time>
      </trkpt>
      <trkpt lat="45.9059" lon="4.74972">
        <ele>184</ele>
        <time>2016-08-26T08:50:49Z</time>
      </trkpt>
      <trkpt lat="45.90585" lon="4.74973">
        <ele>184</ele>
        <time>2016-08-26T08:50:50Z</time>
      </trkpt>
      <trkpt lat="45.9058" lon="4.74973">
        <ele>184</ele>
        <time>2016-08-26T08:50:51Z</time>
      </trkpt>
      <trkpt lat="45.90576" lon="4.74974">
        <ele>184</ele>
        <time>2016-08-26T08:50:52Z</time>
      </trkpt>
      <trkpt lat="45.90571" lon="4.74975">
        <ele>184</ele>
        <time>2016-08-26T08:50:53Z</time>
      </trkpt>
      <trkpt lat="45.90566" lon="4.74975">
        <ele>184</ele>
        <time>2016-08-26T08:50:54Z</time>
      </trkpt>
      <trkpt lat="45.90561" lon="4.74976">
        <ele>184</ele>
        <time>2016-08-26T08:50:55Z</time>
      </trkpt>
      <trkpt lat="45.90556" lon="4.74977">
        <ele>184</ele>
        <time>2016-08-26T08:50:56Z</time>
      </trkpt>
      <trkpt lat="45.90551" lon="4.74978">
        <ele>184</ele>
        <time>2016-08-26T08:50:57Z</time>
      </trkpt>
      <trkpt lat="45.90546" lon="4.74978">
        <ele>185</ele>
        <time>2016-08-26T08:50:58Z</time>
      </trkpt>
      <trkpt lat="45.90541" lon="4.74979">
        <ele>185</ele>
        <time>2016-08-26T08:50:59Z</time>
      </trkpt>
      <trkpt lat="45.90536" lon="4.74979">
        <ele>185</ele>
        <time>2016-08-26T08:51:00Z</time>
      </trkpt>
      <trkpt lat="45.90532" lon="4.7498">
        <ele>185</ele>
        <time>2016-08-26T08:51:01Z</time>
      </trkpt>
      <trkpt lat="45.90527" lon="4.7498">
        <ele>185</ele>
        <time>2016-08-26T08:51:02Z</time>
      </trkpt>
      <trkpt lat="45.90522" lon="4.74981">
        <ele>185</ele>
        <time>2016-08-26T08:51:03Z</time>
      </trkpt>
      <trkpt lat="45.90517" lon="4.74982">
        <ele>185</ele>
        <time>2016-08-26T08:51:04Z</time>
      </trkpt>
      <trkpt lat="45.90513" lon="4.74983">
        <ele>185</ele>
        <time>2016-08-26T08:51:05Z</time>
      </trkpt>
      <trkpt lat="45.90508" lon="4.74983">
        <ele>185</ele>
        <time>2016-08-26T08:51:06Z</time>
      </trkpt>
      <trkpt lat="45.90503" lon="4.74984">
        <ele>185</ele>
        <time>2016-08-26T08:51:07Z</time>
      </trkpt>
      <trkpt lat="45.90498" lon="4.74985">
        <ele>186</ele>
        <time>2016-08-26T08:51:08Z</time>
      </trkpt>
      <trkpt lat="45.90493" lon="4.74986">
        <ele>186</ele>
        <time>2016-08-26T08:51:09Z</time>
      </trkpt>
      <trkpt lat="45.90488" lon="4.74987">
        <ele>186</ele>
        <time>2016-08-26T08:51:10Z</time>
      </trkpt>
      <trkpt lat="45.90483" lon="4.74987">
        <ele>186</ele>
        <time>2016-08-26T08:51:11Z</time>
      </trkpt>
      <trkpt lat="45.90478" lon="4.74988">
        <ele>186</ele>
        <time>2016-08-26T08:51:12Z</time>
      </trkpt>
      <trkpt lat="45.90473" lon="4.74988">
        <ele>186</ele>
        <time>2016-08-26T08:51:13Z</time>
      </trkpt>
      <trkpt lat="45.90469" lon="4.74988">
        <ele>186</ele>
        <time>2016-08-26T08:51:14Z</time>
      </trkpt>
      <trkpt lat="45.90464" lon="4.74989">
        <ele>186</ele>
        <time>2016-08-26T08:51:15Z</time>
      </trkpt>
      <trkpt lat="45.90459" lon="4.7499">
        <ele>186</ele>
        <time>2016-08-26T08:51:16Z</time>
      </trkpt>
      <trkpt lat="45.90454" lon="4.74991">
        <ele>186</ele>
        <time>2016-08-26T08:51:17Z</time>
      </trkpt>
      <trkpt lat="45.90449" lon="4.74992">
        <ele>186</ele>
        <time>2016-08-26T08:51:18Z</time>
      </trkpt>
      <trkpt lat="45.90444" lon="4.74993">
        <ele>186</ele>
        <time>2016-08-26T08:51:19Z</time>
      </trkpt>
      <trkpt lat="45.90439" lon="4.74994">
        <ele>187</ele>
        <time>2016-08-26T08:51:20Z</time>
      </trkpt>
      <trkpt lat="45.90435" lon="4.74996">
        <ele>187</ele>
        <time>2016-08-26T08:51:21Z</time>
      </trkpt>
      <trkpt lat="45.9043" lon="4.74997">
        <ele>187</ele>
        <time>2016-08-26T08:51:22Z</time>
      </trkpt>
      <trkpt lat="45.90426" lon="4.74999">
        <ele>187</ele>
        <time>2016-08-26T08:51:23Z</time>
      </trkpt>
      <trkpt lat="45.90421" lon="4.75">
        <ele>188</ele>
        <time>2016-08-26T08:51:24Z</time>
      </trkpt>
      <trkpt lat="45.90416" lon="4.75001">
        <ele>188</ele>
        <time>2016-08-26T08:51:25Z</time>
      </trkpt>
      <trkpt lat="45.90411" lon="4.75001">
        <ele>188</ele>
        <time>2016-08-26T08:51:26Z</time>
      </trkpt>
      <trkpt lat="45.90406" lon="4.75003">
        <ele>188</ele>
        <time>2016-08-26T08:51:27Z</time>
      </trkpt>
      <trkpt lat="45.90401" lon="4.75004">
        <ele>188</ele>
        <time>2016-08-26T08:51:28Z</time>
      </trkpt>
      <trkpt lat="45.90396" lon="4.75006">
        <ele>188</ele>
        <time>2016-08-26T08:51:29Z</time>
      </trkpt>
      <trkpt lat="45.90391" lon="4.75007">
        <ele>188</ele>
        <time>2016-08-26T08:51:30Z</time>
      </trkpt>
      <trkpt lat="45.90387" lon="4.75009">
        <ele>188</ele>
        <time>2016-08-26T08:51:31Z</time>
      </trkpt>
      <trkpt lat="45.90382" lon="4.7501">
        <ele>188</ele>
        <time>2016-08-26T08:51:32Z</time>
      </trkpt>
      <trkpt lat="45.90377" lon="4.75011">
        <ele>188</ele>
        <time>2016-08-26T08:51:33Z</time>
      </trkpt>
      <trkpt lat="45.90373" lon="4.75012">
        <ele>188</ele>
        <time>2016-08-26T08:51:34Z</time>
      </trkpt>
      <trkpt lat="45.90368" lon="4.75014">
        <ele>188</ele>
        <time>2016-08-26T08:51:35Z</time>
      </trkpt>
      <trkpt lat="45.90364" lon="4.75015">
        <ele>188</ele>
        <time>2016-08-26T08:51:36Z</time>
      </trkpt>
      <trkpt lat="45.90359" lon="4.75016">
        <ele>188</ele>
        <time>2016-08-26T08:51:37Z</time>
      </trkpt>
      <trkpt lat="45.90354" lon="4.75018">
        <ele>188</ele>
        <time>2016-08-26T08:51:38Z</time>
      </trkpt>
      <trkpt lat="45.90349" lon="4.75019">
        <ele>188</ele>
        <time>2016-08-26T08:51:39Z</time>
      </trkpt>
      <trkpt lat="45.90341" lon="4.75022">
        <ele>188</ele>
        <time>2016-08-26T08:51:41Z</time>
      </trkpt>
      <trkpt lat="45.90336" lon="4.75023">
        <ele>188</ele>
        <time>2016-08-26T08:51:42Z</time>
      </trkpt>
      <trkpt lat="45.90328" lon="4.75025">
        <ele>189</ele>
        <time>2016-08-26T08:51:44Z</time>
      </trkpt>
      <trkpt lat="45.90323" lon="4.75027">
        <ele>189</ele>
        <time>2016-08-26T08:51:45Z</time>
      </trkpt>
      <trkpt lat="45.90315" lon="4.75029">
        <ele>189</ele>
        <time>2016-08-26T08:51:47Z</time>
      </trkpt>
      <trkpt lat="45.90311" lon="4.7503">
        <ele>189</ele>
        <time>2016-08-26T08:51:48Z</time>
      </trkpt>
      <trkpt lat="45.90307" lon="4.75031">
        <ele>189</ele>
        <time>2016-08-26T08:51:49Z</time>
      </trkpt>
      <trkpt lat="45.90302" lon="4.75032">
        <ele>189</ele>
        <time>2016-08-26T08:51:50Z</time>
      </trkpt>
      <trkpt lat="45.90297" lon="4.75034">
        <ele>189</ele>
        <time>2016-08-26T08:51:51Z</time>
      </trkpt>
      <trkpt lat="45.90293" lon="4.75035">
        <ele>189</ele>
        <time>2016-08-26T08:51:52Z</time>
      </trkpt>
      <trkpt lat="45.90288" lon="4.75036">
        <ele>189</ele>
        <time>2016-08-26T08:51:53Z</time>
      </trkpt>
      <trkpt lat="45.90283" lon="4.75037">
        <ele>190</ele>
        <time>2016-08-26T08:51:54Z</time>
      </trkpt>
      <trkpt lat="45.90278" lon="4.75038">
        <ele>190</ele>
        <time>2016-08-26T08:51:55Z</time>
      </trkpt>
      <trkpt lat="45.90273" lon="4.75039">
        <ele>190</ele>
        <time>2016-08-26T08:51:56Z</time>
      </trkpt>
      <trkpt lat="45.90268" lon="4.7504">
        <ele>190</ele>
        <time>2016-08-26T08:51:57Z</time>
      </trkpt>
      <trkpt lat="45.90263" lon="4.75041">
        <ele>190</ele>
        <time>2016-08-26T08:51:58Z</time>
      </trkpt>
      <trkpt lat="45.90254" lon="4.75043">
        <ele>190</ele>
        <time>2016-08-26T08:52:00Z</time>
      </trkpt>
      <trkpt lat="45.9025" lon="4.75044">
        <ele>190</ele>
        <time>2016-08-26T08:52:01Z</time>
      </trkpt>
      <trkpt lat="45.90242" lon="4.75046">
        <ele>191</ele>
        <time>2016-08-26T08:52:03Z</time>
      </trkpt>
      <trkpt lat="45.90237" lon="4.75047">
        <ele>191</ele>
        <time>2016-08-26T08:52:04Z</time>
      </trkpt>
      <trkpt lat="45.90233" lon="4.75048">
        <ele>191</ele>
        <time>2016-08-26T08:52:05Z</time>
      </trkpt>
      <trkpt lat="45.90228" lon="4.75049">
        <ele>191</ele>
        <time>2016-08-26T08:52:06Z</time>
      </trkpt>
      <trkpt lat="45.90224" lon="4.7505">
        <ele>191</ele>
        <time>2016-08-26T08:52:07Z</time>
      </trkpt>
      <trkpt lat="45.90219" lon="4.75051">
        <ele>191</ele>
        <time>2016-08-26T08:52:08Z</time>
      </trkpt>
      <trkpt lat="45.90211" lon="4.75055">
        <ele>191</ele>
        <time>2016-08-26T08:52:10Z</time>
      </trkpt>
      <trkpt lat="45.90206" lon="4.75056">
        <ele>191</ele>
        <time>2016-08-26T08:52:11Z</time>
      </trkpt>
      <trkpt lat="45.90198" lon="4.75059">
        <ele>191</ele>
        <time>2016-08-26T08:52:13Z</time>
      </trkpt>
      <trkpt lat="45.90193" lon="4.7506">
        <ele>191</ele>
        <time>2016-08-26T08:52:14Z</time>
      </trkpt>
      <trkpt lat="45.90189" lon="4.75062">
        <ele>191</ele>
        <time>2016-08-26T08:52:15Z</time>
      </trkpt>
      <trkpt lat="45.90184" lon="4.75064">
        <ele>191</ele>
        <time>2016-08-26T08:52:16Z</time>
      </trkpt>
      <trkpt lat="45.9018" lon="4.75067">
        <ele>191</ele>
        <time>2016-08-26T08:52:17Z</time>
      </trkpt>
      <trkpt lat="45.90176" lon="4.7507">
        <ele>191</ele>
        <time>2016-08-26T08:52:18Z</time>
      </trkpt>
      <trkpt lat="45.90169" lon="4.75076">
        <ele>191</ele>
        <time>2016-08-26T08:52:20Z</time>
      </trkpt>
      <trkpt lat="45.90165" lon="4.75077">
        <ele>191</ele>
        <time>2016-08-26T08:52:21Z</time>
      </trkpt>
      <trkpt lat="45.90156" lon="4.75076">
        <ele>191</ele>
        <time>2016-08-26T08:52:23Z</time>
      </trkpt>
      <trkpt lat="45.90153" lon="4.75073">
        <ele>191</ele>
        <time>2016-08-26T08:52:24Z</time>
      </trkpt>
      <trkpt lat="45.90145" lon="4.75067">
        <ele>192</ele>
        <time>2016-08-26T08:52:26Z</time>
      </trkpt>
      <trkpt lat="45.90141" lon="4.75064">
        <ele>192</ele>
        <time>2016-08-26T08:52:27Z</time>
      </trkpt>
      <trkpt lat="45.90137" lon="4.75061">
        <ele>192</ele>
        <time>2016-08-26T08:52:28Z</time>
      </trkpt>
      <trkpt lat="45.90133" lon="4.75057">
        <ele>192</ele>
        <time>2016-08-26T08:52:29Z</time>
      </trkpt>
      <trkpt lat="45.90129" lon="4.75055">
        <ele>192</ele>
        <time>2016-08-26T08:52:30Z</time>
      </trkpt>
      <trkpt lat="45.90124" lon="4.75052">
        <ele>192</ele>
        <time>2016-08-26T08:52:31Z</time>
      </trkpt>
      <trkpt lat="45.9012" lon="4.7505">
        <ele>192</ele>
        <time>2016-08-26T08:52:32Z</time>
      </trkpt>
      <trkpt lat="45.90115" lon="4.75047">
        <ele>192</ele>
        <time>2016-08-26T08:52:33Z</time>
      </trkpt>
      <trkpt lat="45.9011" lon="4.75045">
        <ele>192</ele>
        <time>2016-08-26T08:52:34Z</time>
      </trkpt>
      <trkpt lat="45.90106" lon="4.75043">
        <ele>192</ele>
        <time>2016-08-26T08:52:35Z</time>
      </trkpt>
      <trkpt lat="45.90101" lon="4.75041">
        <ele>192</ele>
        <time>2016-08-26T08:52:36Z</time>
      </trkpt>
      <trkpt lat="45.90096" lon="4.75039">
        <ele>192</ele>
        <time>2016-08-26T08:52:37Z</time>
      </trkpt>
      <trkpt lat="45.90091" lon="4.75037">
        <ele>192</ele>
        <time>2016-08-26T08:52:38Z</time>
      </trkpt>
      <trkpt lat="45.90086" lon="4.75035">
        <ele>192</ele>
        <time>2016-08-26T08:52:39Z</time>
      </trkpt>
      <trkpt lat="45.90082" lon="4.75033">
        <ele>193</ele>
        <time>2016-08-26T08:52:40Z</time>
      </trkpt>
      <trkpt lat="45.90077" lon="4.75031">
        <ele>193</ele>
        <time>2016-08-26T08:52:41Z</time>
      </trkpt>
      <trkpt lat="45.90072" lon="4.75029">
        <ele>193</ele>
        <time>2016-08-26T08:52:42Z</time>
      </trkpt>
      <trkpt lat="45.90066" lon="4.75026">
        <ele>193</ele>
        <time>2016-08-26T08:52:43Z</time>
      </trkpt>
      <trkpt lat="45.90061" lon="4.75025">
        <ele>193</ele>
        <time>2016-08-26T08:52:44Z</time>
      </trkpt>
      <trkpt lat="45.90056" lon="4.75023">
        <ele>193</ele>
        <time>2016-08-26T08:52:45Z</time>
      </trkpt>
      <trkpt lat="45.90051" lon="4.75021">
        <ele>193</ele>
        <time>2016-08-26T08:52:46Z</time>
      </trkpt>
      <trkpt lat="45.90047" lon="4.75019">
        <ele>193</ele>
        <time>2016-08-26T08:52:47Z</time>
      </trkpt>
      <trkpt lat="45.90042" lon="4.75017">
        <ele>193</ele>
        <time>2016-08-26T08:52:48Z</time>
      </trkpt>
      <trkpt lat="45.90037" lon="4.75015">
        <ele>193</ele>
        <time>2016-08-26T08:52:49Z</time>
      </trkpt>
      <trkpt lat="45.90031" lon="4.75014">
        <ele>193</ele>
        <time>2016-08-26T08:52:50Z</time>
      </trkpt>
      <trkpt lat="45.90026" lon="4.75012">
        <ele>193</ele>
        <time>2016-08-26T08:52:51Z</time>
      </trkpt>
      <trkpt lat="45.90021" lon="4.7501">
        <ele>193</ele>
        <time>2016-08-26T08:52:52Z</time>
      </trkpt>
      <trkpt lat="45.90016" lon="4.75009">
        <ele>193</ele>
        <time>2016-08-26T08:52:53Z</time>
      </trkpt>
      <trkpt lat="45.90012" lon="4.75007">
        <ele>193</ele>
        <time>2016-08-26T08:52:54Z</time>
      </trkpt>
      <trkpt lat="45.90007" lon="4.75006">
        <ele>192</ele>
        <time>2016-08-26T08:52:55Z</time>
      </trkpt>
      <trkpt lat="45.90002" lon="4.75004">
        <ele>192</ele>
        <time>2016-08-26T08:52:56Z</time>
      </trkpt>
      <trkpt lat="45.89997" lon="4.75003">
        <ele>192</ele>
        <time>2016-08-26T08:52:57Z</time>
      </trkpt>
      <trkpt lat="45.89991" lon="4.75002">
        <ele>193</ele>
        <time>2016-08-26T08:52:58Z</time>
      </trkpt>
      <trkpt lat="45.89986" lon="4.75">
        <ele>192</ele>
        <time>2016-08-26T08:52:59Z</time>
      </trkpt>
      <trkpt lat="45.89981" lon="4.74999">
        <ele>192</ele>
        <time>2016-08-26T08:53:00Z</time>
      </trkpt>
      <trkpt lat="45.89976" lon="4.74998">
        <ele>193</ele>
        <time>2016-08-26T08:53:01Z</time>
      </trkpt>
      <trkpt lat="45.8997" lon="4.74996">
        <ele>193</ele>
        <time>2016-08-26T08:53:02Z</time>
      </trkpt>
      <trkpt lat="45.89965" lon="4.74995">
        <ele>193</ele>
        <time>2016-08-26T08:53:03Z</time>
      </trkpt>
      <trkpt lat="45.8996" lon="4.74994">
        <ele>193</ele>
        <time>2016-08-26T08:53:04Z</time>
      </trkpt>
      <trkpt lat="45.89955" lon="4.74993">
        <ele>193</ele>
        <time>2016-08-26T08:53:05Z</time>
      </trkpt>
      <trkpt lat="45.8995" lon="4.74991">
        <ele>193</ele>
        <time>2016-08-26T08:53:06Z</time>
      </trkpt>
      <trkpt lat="45.89945" lon="4.7499">
        <ele>193</ele>
        <time>2016-08-26T08:53:07Z</time>
      </trkpt>
      <trkpt lat="45.8994" lon="4.74988">
        <ele>193</ele>
        <time>2016-08-26T08:53:08Z</time>
      </trkpt>
      <trkpt lat="45.89934" lon="4.74987">
        <ele>193</ele>
        <time>2016-08-26T08:53:09Z</time>
      </trkpt>
      <trkpt lat="45.89929" lon="4.74986">
        <ele>193</ele>
        <time>2016-08-26T08:53:10Z</time>
      </trkpt>
      <trkpt lat="45.89923" lon="4.74984">
        <ele>193</ele>
        <time>2016-08-26T08:53:11Z</time>
      </trkpt>
      <trkpt lat="45.89918" lon="4.74983">
        <ele>193</ele>
        <time>2016-08-26T08:53:12Z</time>
      </trkpt>
      <trkpt lat="45.89913" lon="4.74982">
        <ele>194</ele>
        <time>2016-08-26T08:53:13Z</time>
      </trkpt>
      <trkpt lat="45.89908" lon="4.74981">
        <ele>194</ele>
        <time>2016-08-26T08:53:14Z</time>
      </trkpt>
      <trkpt lat="45.89903" lon="4.74979">
        <ele>194</ele>
        <time>2016-08-26T08:53:15Z</time>
      </trkpt>
      <trkpt lat="45.89898" lon="4.74978">
        <ele>194</ele>
        <time>2016-08-26T08:53:16Z</time>
      </trkpt>
      <trkpt lat="45.89893" lon="4.74977">
        <ele>194</ele>
        <time>2016-08-26T08:53:17Z</time>
      </trkpt>
      <trkpt lat="45.89887" lon="4.74975">
        <ele>194</ele>
        <time>2016-08-26T08:53:18Z</time>
      </trkpt>
      <trkpt lat="45.89882" lon="4.74974">
        <ele>194</ele>
        <time>2016-08-26T08:53:19Z</time>
      </trkpt>
      <trkpt lat="45.89876" lon="4.74972">
        <ele>194</ele>
        <time>2016-08-26T08:53:20Z</time>
      </trkpt>
      <trkpt lat="45.89871" lon="4.74971">
        <ele>194</ele>
        <time>2016-08-26T08:53:21Z</time>
      </trkpt>
      <trkpt lat="45.89864" lon="4.74969">
        <ele>194</ele>
        <time>2016-08-26T08:53:22Z</time>
      </trkpt>
      <trkpt lat="45.89858" lon="4.74967">
        <ele>194</ele>
        <time>2016-08-26T08:53:23Z</time>
      </trkpt>
      <trkpt lat="45.89853" lon="4.74966">
        <ele>194</ele>
        <time>2016-08-26T08:53:24Z</time>
      </trkpt>
      <trkpt lat="45.89847" lon="4.74964">
        <ele>194</ele>
        <time>2016-08-26T08:53:25Z</time>
      </trkpt>
      <trkpt lat="45.89841" lon="4.74963">
        <ele>194</ele>
        <time>2016-08-26T08:53:26Z</time>
      </trkpt>
      <trkpt lat="45.89836" lon="4.74961">
        <ele>194</ele>
        <time>2016-08-26T08:53:27Z</time>
      </trkpt>
      <trkpt lat="45.89831" lon="4.7496">
        <ele>194</ele>
        <time>2016-08-26T08:53:28Z</time>
      </trkpt>
      <trkpt lat="45.89826" lon="4.74959">
        <ele>194</ele>
        <time>2016-08-26T08:53:29Z</time>
      </trkpt>
      <trkpt lat="45.89821" lon="4.74957">
        <ele>195</ele>
        <time>2016-08-26T08:53:30Z</time>
      </trkpt>
      <trkpt lat="45.89815" lon="4.74955">
        <ele>195</ele>
        <time>2016-08-26T08:53:31Z</time>
      </trkpt>
      <trkpt lat="45.8981" lon="4.74954">
        <ele>195</ele>
        <time>2016-08-26T08:53:32Z</time>
      </trkpt>
      <trkpt lat="45.89805" lon="4.74952">
        <ele>195</ele>
        <time>2016-08-26T08:53:33Z</time>
      </trkpt>
      <trkpt lat="45.89799" lon="4.7495">
        <ele>195</ele>
        <time>2016-08-26T08:53:34Z</time>
      </trkpt>
      <trkpt lat="45.89794" lon="4.74948">
        <ele>195</ele>
        <time>2016-08-26T08:53:35Z</time>
      </trkpt>
      <trkpt lat="45.89789" lon="4.74945">
        <ele>195</ele>
        <time>2016-08-26T08:53:36Z</time>
      </trkpt>
      <trkpt lat="45.89783" lon="4.74943">
        <ele>195</ele>
        <time>2016-08-26T08:53:37Z</time>
      </trkpt>
      <trkpt lat="45.89778" lon="4.7494">
        <ele>195</ele>
        <time>2016-08-26T08:53:38Z</time>
      </trkpt>
      <trkpt lat="45.89772" lon="4.74938">
        <ele>195</ele>
        <time>2016-08-26T08:53:39Z</time>
      </trkpt>
      <trkpt lat="45.89766" lon="4.74935">
        <ele>195</ele>
        <time>2016-08-26T08:53:40Z</time>
      </trkpt>
      <trkpt lat="45.89761" lon="4.74932">
        <ele>195</ele>
        <time>2016-08-26T08:53:41Z</time>
      </trkpt>
      <trkpt lat="45.89755" lon="4.7493">
        <ele>195</ele>
        <time>2016-08-26T08:53:42Z</time>
      </trkpt>
      <trkpt lat="45.89749" lon="4.74927">
        <ele>195</ele>
        <time>2016-08-26T08:53:43Z</time>
      </trkpt>
      <trkpt lat="45.89743" lon="4.74925">
        <ele>195</ele>
        <time>2016-08-26T08:53:44Z</time>
      </trkpt>
      <trkpt lat="45.89738" lon="4.74922">
        <ele>196</ele>
        <time>2016-08-26T08:53:45Z</time>
      </trkpt>
      <trkpt lat="45.89732" lon="4.74919">
        <ele>196</ele>
        <time>2016-08-26T08:53:46Z</time>
      </trkpt>
      <trkpt lat="45.89727" lon="4.74916">
        <ele>195</ele>
        <time>2016-08-26T08:53:47Z</time>
      </trkpt>
      <trkpt lat="45.89721" lon="4.74912">
        <ele>195</ele>
        <time>2016-08-26T08:53:48Z</time>
      </trkpt>
      <trkpt lat="45.89716" lon="4.7491">
        <ele>195</ele>
        <time>2016-08-26T08:53:49Z</time>
      </trkpt>
      <trkpt lat="45.8971" lon="4.74909">
        <ele>195</ele>
        <time>2016-08-26T08:53:50Z</time>
      </trkpt>
      <trkpt lat="45.89705" lon="4.7491">
        <ele>195</ele>
        <time>2016-08-26T08:53:51Z</time>
      </trkpt>
      <trkpt lat="45.897" lon="4.74911">
        <ele>195</ele>
        <time>2016-08-26T08:53:52Z</time>
      </trkpt>
      <trkpt lat="45.89695" lon="4.74912">
        <ele>195</ele>
        <time>2016-08-26T08:53:53Z</time>
      </trkpt>
      <trkpt lat="45.8969" lon="4.74913">
        <ele>195</ele>
        <time>2016-08-26T08:53:54Z</time>
      </trkpt>
      <trkpt lat="45.89684" lon="4.74913">
        <ele>195</ele>
        <time>2016-08-26T08:53:55Z</time>
      </trkpt>
      <trkpt lat="45.89679" lon="4.74913">
        <ele>196</ele>
        <time>2016-08-26T08:53:56Z</time>
      </trkpt>
      <trkpt lat="45.89673" lon="4.74912">
        <ele>196</ele>
        <time>2016-08-26T08:53:57Z</time>
      </trkpt>
      <trkpt lat="45.89668" lon="4.74912">
        <ele>196</ele>
        <time>2016-08-26T08:53:58Z</time>
      </trkpt>
      <trkpt lat="45.89662" lon="4.74911">
        <ele>196</ele>
        <time>2016-08-26T08:53:59Z</time>
      </trkpt>
      <trkpt lat="45.89656" lon="4.74911">
        <ele>196</ele>
        <time>2016-08-26T08:54:00Z</time>
      </trkpt>
      <trkpt lat="45.89651" lon="4.74911">
        <ele>196</ele>
        <time>2016-08-26T08:54:01Z</time>
      </trkpt>
      <trkpt lat="45.89645" lon="4.74911">
        <ele>196</ele>
        <time>2016-08-26T08:54:02Z</time>
      </trkpt>
      <trkpt lat="45.89639" lon="4.7491">
        <ele>196</ele>
        <time>2016-08-26T08:54:03Z</time>
      </trkpt>
      <trkpt lat="45.89633" lon="4.7491">
        <ele>196</ele>
        <time>2016-08-26T08:54:04Z</time>
      </trkpt>
      <trkpt lat="45.89627" lon="4.74909">
        <ele>196</ele>
        <time>2016-08-26T08:54:05Z</time>
      </trkpt>
      <trkpt lat="45.89621" lon="4.74909">
        <ele>197</ele>
        <time>2016-08-26T08:54:06Z</time>
      </trkpt>
      <trkpt lat="45.89616" lon="4.74909">
        <ele>197</ele>
        <time>2016-08-26T08:54:07Z</time>
      </trkpt>
      <trkpt lat="45.89611" lon="4.74908">
        <ele>197</ele>
        <time>2016-08-26T08:54:08Z</time>
      </trkpt>
      <trkpt lat="45.89606" lon="4.74908">
        <ele>197</ele>
        <time>2016-08-26T08:54:09Z</time>
      </trkpt>
      <trkpt lat="45.89602" lon="4.74907">
        <ele>197</ele>
        <time>2016-08-26T08:54:10Z</time>
      </trkpt>
      <trkpt lat="45.89597" lon="4.74906">
        <ele>197</ele>
        <time>2016-08-26T08:54:11Z</time>
      </trkpt>
      <trkpt lat="45.89592" lon="4.74905">
        <ele>197</ele>
        <time>2016-08-26T08:54:12Z</time>
      </trkpt>
      <trkpt lat="45.89587" lon="4.74904">
        <ele>197</ele>
        <time>2016-08-26T08:54:13Z</time>
      </trkpt>
      <trkpt lat="45.89582" lon="4.74903">
        <ele>198</ele>
        <time>2016-08-26T08:54:14Z</time>
      </trkpt>
      <trkpt lat="45.89576" lon="4.74903">
        <ele>198</ele>
        <time>2016-08-26T08:54:15Z</time>
      </trkpt>
      <trkpt lat="45.89571" lon="4.74902">
        <ele>198</ele>
        <time>2016-08-26T08:54:16Z</time>
      </trkpt>
      <trkpt lat="45.89566" lon="4.74901">
        <ele>198</ele>
        <time>2016-08-26T08:54:17Z</time>
      </trkpt>
      <trkpt lat="45.89561" lon="4.749">
        <ele>198</ele>
        <time>2016-08-26T08:54:18Z</time>
      </trkpt>
      <trkpt lat="45.89555" lon="4.74899">
        <ele>198</ele>
        <time>2016-08-26T08:54:19Z</time>
      </trkpt>
      <trkpt lat="45.8955" lon="4.74898">
        <ele>198</ele>
        <time>2016-08-26T08:54:20Z</time>
      </trkpt>
      <trkpt lat="45.89544" lon="4.74896">
        <ele>198</ele>
        <time>2016-08-26T08:54:21Z</time>
      </trkpt>
      <trkpt lat="45.89539" lon="4.74895">
        <ele>198</ele>
        <time>2016-08-26T08:54:22Z</time>
      </trkpt>
      <trkpt lat="45.89533" lon="4.74894">
        <ele>198</ele>
        <time>2016-08-26T08:54:23Z</time>
      </trkpt>
      <trkpt lat="45.89528" lon="4.74894">
        <ele>198</ele>
        <time>2016-08-26T08:54:24Z</time>
      </trkpt>
      <trkpt lat="45.89523" lon="4.74893">
        <ele>198</ele>
        <time>2016-08-26T08:54:25Z</time>
      </trkpt>
      <trkpt lat="45.89515" lon="4.7489">
        <ele>198</ele>
        <time>2016-08-26T08:54:27Z</time>
      </trkpt>
      <trkpt lat="45.8951" lon="4.74888">
        <ele>198</ele>
        <time>2016-08-26T08:54:28Z</time>
      </trkpt>
      <trkpt lat="45.89505" lon="4.74887">
        <ele>198</ele>
        <time>2016-08-26T08:54:29Z</time>
      </trkpt>
      <trkpt lat="45.895" lon="4.74886">
        <ele>198</ele>
        <time>2016-08-26T08:54:30Z</time>
      </trkpt>
      <trkpt lat="45.89492" lon="4.74885">
        <ele>198</ele>
        <time>2016-08-26T08:54:32Z</time>
      </trkpt>
      <trkpt lat="45.89488" lon="4.74885">
        <ele>198</ele>
        <time>2016-08-26T08:54:33Z</time>
      </trkpt>
      <trkpt lat="45.89479" lon="4.74885">
        <ele>198</ele>
        <time>2016-08-26T08:54:35Z</time>
      </trkpt>
      <trkpt lat="45.89475" lon="4.74884">
        <ele>198</ele>
        <time>2016-08-26T08:54:36Z</time>
      </trkpt>
      <trkpt lat="45.8947" lon="4.74883">
        <ele>198</ele>
        <time>2016-08-26T08:54:37Z</time>
      </trkpt>
      <trkpt lat="45.89466" lon="4.74881">
        <ele>199</ele>
        <time>2016-08-26T08:54:38Z</time>
      </trkpt>
      <trkpt lat="45.89461" lon="4.7488">
        <ele>199</ele>
        <time>2016-08-26T08:54:39Z</time>
      </trkpt>
      <trkpt lat="45.89456" lon="4.7488">
        <ele>199</ele>
        <time>2016-08-26T08:54:40Z</time>
      </trkpt>
      <trkpt lat="45.89452" lon="4.7488">
        <ele>199</ele>
        <time>2016-08-26T08:54:41Z</time>
      </trkpt>
      <trkpt lat="45.89447" lon="4.74879">
        <ele>199</ele>
        <time>2016-08-26T08:54:42Z</time>
      </trkpt>
      <trkpt lat="45.89442" lon="4.74878">
        <ele>199</ele>
        <time>2016-08-26T08:54:43Z</time>
      </trkpt>
      <trkpt lat="45.89438" lon="4.74877">
        <ele>199</ele>
        <time>2016-08-26T08:54:44Z</time>
      </trkpt>
      <trkpt lat="45.89433" lon="4.74876">
        <ele>199</ele>
        <time>2016-08-26T08:54:45Z</time>
      </trkpt>
      <trkpt lat="45.89427" lon="4.74875">
        <ele>199</ele>
        <time>2016-08-26T08:54:46Z</time>
      </trkpt>
      <trkpt lat="45.89422" lon="4.74874">
        <ele>199</ele>
        <time>2016-08-26T08:54:47Z</time>
      </trkpt>
      <trkpt lat="45.89416" lon="4.74873">
        <ele>199</ele>
        <time>2016-08-26T08:54:48Z</time>
      </trkpt>
      <trkpt lat="45.8941" lon="4.74873">
        <ele>199</ele>
        <time>2016-08-26T08:54:49Z</time>
      </trkpt>
      <trkpt lat="45.89405" lon="4.74872">
        <ele>199</ele>
        <time>2016-08-26T08:54:50Z</time>
      </trkpt>
      <trkpt lat="45.89398" lon="4.74871">
        <ele>199</ele>
        <time>2016-08-26T08:54:51Z</time>
      </trkpt>
      <trkpt lat="45.89393" lon="4.74871">
        <ele>199</ele>
        <time>2016-08-26T08:54:52Z</time>
      </trkpt>
      <trkpt lat="45.89387" lon="4.7487">
        <ele>199</ele>
        <time>2016-08-26T08:54:53Z</time>
      </trkpt>
      <trkpt lat="45.89382" lon="4.74869">
        <ele>199</ele>
        <time>2016-08-26T08:54:54Z</time>
      </trkpt>
      <trkpt lat="45.89376" lon="4.74869">
        <ele>199</ele>
        <time>2016-08-26T08:54:55Z</time>
      </trkpt>
      <trkpt lat="45.89371" lon="4.74869">
        <ele>199</ele>
        <time>2016-08-26T08:54:56Z</time>
      </trkpt>
      <trkpt lat="45.89365" lon="4.74868">
        <ele>199</ele>
        <time>2016-08-26T08:54:57Z</time>
      </trkpt>
      <trkpt lat="45.89359" lon="4.74868">
        <ele>199</ele>
        <time>2016-08-26T08:54:58Z</time>
      </trkpt>
      <trkpt lat="45.89353" lon="4.74868">
        <ele>199</ele>
        <time>2016-08-26T08:54:59Z</time>
      </trkpt>
      <trkpt lat="45.89348" lon="4.74868">
        <ele>199</ele>
        <time>2016-08-26T08:55:00Z</time>
      </trkpt>
      <trkpt lat="45.89342" lon="4.74866">
        <ele>199</ele>
        <time>2016-08-26T08:55:01Z</time>
      </trkpt>
      <trkpt lat="45.89336" lon="4.74866">
        <ele>199</ele>
        <time>2016-08-26T08:55:02Z</time>
      </trkpt>
      <trkpt lat="45.89331" lon="4.74866">
        <ele>198</ele>
        <time>2016-08-26T08:55:03Z</time>
      </trkpt>
      <trkpt lat="45.89325" lon="4.74865">
        <ele>198</ele>
        <time>2016-08-26T08:55:04Z</time>
      </trkpt>
      <trkpt lat="45.8932" lon="4.74863">
        <ele>198</ele>
        <time>2016-08-26T08:55:05Z</time>
      </trkpt>
      <trkpt lat="45.89314" lon="4.74862">
        <ele>198</ele>
        <time>2016-08-26T08:55:06Z</time>
      </trkpt>
      <trkpt lat="45.89307" lon="4.7486">
        <ele>198</ele>
        <time>2016-08-26T08:55:07Z</time>
      </trkpt>
      <trkpt lat="45.89302" lon="4.74859">
        <ele>198</ele>
        <time>2016-08-26T08:55:08Z</time>
      </trkpt>
      <trkpt lat="45.89296" lon="4.74859">
        <ele>198</ele>
        <time>2016-08-26T08:55:09Z</time>
      </trkpt>
      <trkpt lat="45.8929" lon="4.74858">
        <ele>198</ele>
        <time>2016-08-26T08:55:10Z</time>
      </trkpt>
      <trkpt lat="45.89284" lon="4.74856">
        <ele>198</ele>
        <time>2016-08-26T08:55:11Z</time>
      </trkpt>
      <trkpt lat="45.89278" lon="4.74856">
        <ele>198</ele>
        <time>2016-08-26T08:55:12Z</time>
      </trkpt>
      <trkpt lat="45.89271" lon="4.74855">
        <ele>198</ele>
        <time>2016-08-26T08:55:13Z</time>
      </trkpt>
      <trkpt lat="45.89264" lon="4.74854">
        <ele>198</ele>
        <time>2016-08-26T08:55:14Z</time>
      </trkpt>
      <trkpt lat="45.89258" lon="4.74853">
        <ele>198</ele>
        <time>2016-08-26T08:55:15Z</time>
      </trkpt>
      <trkpt lat="45.89252" lon="4.74851">
        <ele>197</ele>
        <time>2016-08-26T08:55:16Z</time>
      </trkpt>
      <trkpt lat="45.89244" lon="4.74852">
        <ele>198</ele>
        <time>2016-08-26T08:55:17Z</time>
      </trkpt>
      <trkpt lat="45.89238" lon="4.74851">
        <ele>198</ele>
        <time>2016-08-26T08:55:18Z</time>
      </trkpt>
      <trkpt lat="45.89231" lon="4.74852">
        <ele>198</ele>
        <time>2016-08-26T08:55:19Z</time>
      </trkpt>
      <trkpt lat="45.89226" lon="4.74853">
        <ele>198</ele>
        <time>2016-08-26T08:55:20Z</time>
      </trkpt>
      <trkpt lat="45.89221" lon="4.74854">
        <ele>198</ele>
        <time>2016-08-26T08:55:21Z</time>
      </trkpt>
      <trkpt lat="45.89215" lon="4.74854">
        <ele>198</ele>
        <time>2016-08-26T08:55:22Z</time>
      </trkpt>
      <trkpt lat="45.8921" lon="4.74853">
        <ele>198</ele>
        <time>2016-08-26T08:55:23Z</time>
      </trkpt>
      <trkpt lat="45.89205" lon="4.74853">
        <ele>198</ele>
        <time>2016-08-26T08:55:24Z</time>
      </trkpt>
      <trkpt lat="45.892" lon="4.74854">
        <ele>198</ele>
        <time>2016-08-26T08:55:25Z</time>
      </trkpt>
      <trkpt lat="45.89195" lon="4.74854">
        <ele>198</ele>
        <time>2016-08-26T08:55:26Z</time>
      </trkpt>
      <trkpt lat="45.8919" lon="4.74855">
        <ele>198</ele>
        <time>2016-08-26T08:55:27Z</time>
      </trkpt>
      <trkpt lat="45.89185" lon="4.74855">
        <ele>198</ele>
        <time>2016-08-26T08:55:28Z</time>
      </trkpt>
      <trkpt lat="45.8918" lon="4.74855">
        <ele>198</ele>
        <time>2016-08-26T08:55:29Z</time>
      </trkpt>
      <trkpt lat="45.89175" lon="4.74855">
        <ele>198</ele>
        <time>2016-08-26T08:55:30Z</time>
      </trkpt>
      <trkpt lat="45.8917" lon="4.74856">
        <ele>198</ele>
        <time>2016-08-26T08:55:31Z</time>
      </trkpt>
      <trkpt lat="45.89165" lon="4.74856">
        <ele>198</ele>
        <time>2016-08-26T08:55:32Z</time>
      </trkpt>
      <trkpt lat="45.89161" lon="4.74856">
        <ele>198</ele>
        <time>2016-08-26T08:55:33Z</time>
      </trkpt>
      <trkpt lat="45.89156" lon="4.74857">
        <ele>199</ele>
        <time>2016-08-26T08:55:34Z</time>
      </trkpt>
      <trkpt lat="45.89151" lon="4.74857">
        <ele>199</ele>
        <time>2016-08-26T08:55:35Z</time>
      </trkpt>
      <trkpt lat="45.89146" lon="4.74856">
        <ele>199</ele>
        <time>2016-08-26T08:55:36Z</time>
      </trkpt>
      <trkpt lat="45.89141" lon="4.74856">
        <ele>199</ele>
        <time>2016-08-26T08:55:37Z</time>
      </trkpt>
      <trkpt lat="45.89136" lon="4.74856">
        <ele>199</ele>
        <time>2016-08-26T08:55:38Z</time>
      </trkpt>
      <trkpt lat="45.89131" lon="4.74856">
        <ele>199</ele>
        <time>2016-08-26T08:55:39Z</time>
      </trkpt>
      <trkpt lat="45.89126" lon="4.74855">
        <ele>199</ele>
        <time>2016-08-26T08:55:40Z</time>
      </trkpt>
      <trkpt lat="45.89117" lon="4.74856">
        <ele>199</ele>
        <time>2016-08-26T08:55:42Z</time>
      </trkpt>
      <trkpt lat="45.89113" lon="4.74857">
        <ele>199</ele>
        <time>2016-08-26T08:55:43Z</time>
      </trkpt>
      <trkpt lat="45.89105" lon="4.74858">
        <ele>199</ele>
        <time>2016-08-26T08:55:45Z</time>
      </trkpt>
      <trkpt lat="45.89101" lon="4.74858">
        <ele>199</ele>
        <time>2016-08-26T08:55:46Z</time>
      </trkpt>
      <trkpt lat="45.89096" lon="4.74858">
        <ele>199</ele>
        <time>2016-08-26T08:55:47Z</time>
      </trkpt>
      <trkpt lat="45.89091" lon="4.74859">
        <ele>199</ele>
        <time>2016-08-26T08:55:48Z</time>
      </trkpt>
      <trkpt lat="45.89087" lon="4.7486">
        <ele>199</ele>
        <time>2016-08-26T08:55:49Z</time>
      </trkpt>
      <trkpt lat="45.89082" lon="4.74861">
        <ele>199</ele>
        <time>2016-08-26T08:55:50Z</time>
      </trkpt>
      <trkpt lat="45.89078" lon="4.74863">
        <ele>199</ele>
        <time>2016-08-26T08:55:51Z</time>
      </trkpt>
      <trkpt lat="45.89073" lon="4.74864">
        <ele>199</ele>
        <time>2016-08-26T08:55:52Z</time>
      </trkpt>
      <trkpt lat="45.89065" lon="4.74867">
        <ele>199</ele>
        <time>2016-08-26T08:55:54Z</time>
      </trkpt>
      <trkpt lat="45.8906" lon="4.74868">
        <ele>199</ele>
        <time>2016-08-26T08:55:55Z</time>
      </trkpt>
      <trkpt lat="45.89052" lon="4.7487">
        <ele>199</ele>
        <time>2016-08-26T08:55:57Z</time>
      </trkpt>
      <trkpt lat="45.89048" lon="4.74871">
        <ele>199</ele>
        <time>2016-08-26T08:55:58Z</time>
      </trkpt>
      <trkpt lat="45.89041" lon="4.74875">
        <ele>199</ele>
        <time>2016-08-26T08:56:00Z</time>
      </trkpt>
      <trkpt lat="45.89038" lon="4.74877">
        <ele>199</ele>
        <time>2016-08-26T08:56:01Z</time>
      </trkpt>
      <trkpt lat="45.89031" lon="4.74882">
        <ele>199</ele>
        <time>2016-08-26T08:56:03Z</time>
      </trkpt>
      <trkpt lat="45.89027" lon="4.74885">
        <ele>199</ele>
        <time>2016-08-26T08:56:04Z</time>
      </trkpt>
      <trkpt lat="45.8902" lon="4.74892">
        <ele>199</ele>
        <time>2016-08-26T08:56:06Z</time>
      </trkpt>
      <trkpt lat="45.89015" lon="4.74894">
        <ele>199</ele>
        <time>2016-08-26T08:56:07Z</time>
      </trkpt>
      <trkpt lat="45.89006" lon="4.74898">
        <ele>199</ele>
        <time>2016-08-26T08:56:09Z</time>
      </trkpt>
      <trkpt lat="45.89002" lon="4.749">
        <ele>199</ele>
        <time>2016-08-26T08:56:10Z</time>
      </trkpt>
      <trkpt lat="45.88999" lon="4.74904">
        <ele>200</ele>
        <time>2016-08-26T08:56:11Z</time>
      </trkpt>
      <trkpt lat="45.88994" lon="4.74907">
        <ele>199</ele>
        <time>2016-08-26T08:56:12Z</time>
      </trkpt>
      <trkpt lat="45.8899" lon="4.7491">
        <ele>200</ele>
        <time>2016-08-26T08:56:13Z</time>
      </trkpt>
      <trkpt lat="45.88985" lon="4.74914">
        <ele>200</ele>
        <time>2016-08-26T08:56:14Z</time>
      </trkpt>
      <trkpt lat="45.88979" lon="4.74916">
        <ele>200</ele>
        <time>2016-08-26T08:56:15Z</time>
      </trkpt>
      <trkpt lat="45.88974" lon="4.74919">
        <ele>200</ele>
        <time>2016-08-26T08:56:16Z</time>
      </trkpt>
      <trkpt lat="45.8897" lon="4.74922">
        <ele>200</ele>
        <time>2016-08-26T08:56:17Z</time>
      </trkpt>
      <trkpt lat="45.88965" lon="4.74926">
        <ele>200</ele>
        <time>2016-08-26T08:56:18Z</time>
      </trkpt>
      <trkpt lat="45.8896" lon="4.74929">
        <ele>200</ele>
        <time>2016-08-26T08:56:19Z</time>
      </trkpt>
      <trkpt lat="45.88955" lon="4.74931">
        <ele>200</ele>
        <time>2016-08-26T08:56:20Z</time>
      </trkpt>
      <trkpt lat="45.8895" lon="4.74933">
        <ele>200</ele>
        <time>2016-08-26T08:56:21Z</time>
      </trkpt>
      <trkpt lat="45.88945" lon="4.74936">
        <ele>200</ele>
        <time>2016-08-26T08:56:22Z</time>
      </trkpt>
      <trkpt lat="45.8894" lon="4.74938">
        <ele>200</ele>
        <time>2016-08-26T08:56:23Z</time>
      </trkpt>
      <trkpt lat="45.88935" lon="4.74941">
        <ele>200</ele>
        <time>2016-08-26T08:56:24Z</time>
      </trkpt>
      <trkpt lat="45.8893" lon="4.74944">
        <ele>200</ele>
        <time>2016-08-26T08:56:25Z</time>
      </trkpt>
      <trkpt lat="45.88925" lon="4.74946">
        <ele>200</ele>
        <time>2016-08-26T08:56:26Z</time>
      </trkpt>
      <trkpt lat="45.88917" lon="4.7495">
        <ele>201</ele>
        <time>2016-08-26T08:56:28Z</time>
      </trkpt>
      <trkpt lat="45.88914" lon="4.74951">
        <ele>201</ele>
        <time>2016-08-26T08:56:29Z</time>
      </trkpt>
      <trkpt lat="45.88907" lon="4.74956">
        <ele>201</ele>
        <time>2016-08-26T08:57:03Z</time>
      </trkpt>
      <trkpt lat="45.88905" lon="4.74956">
        <ele>201</ele>
        <time>2016-08-26T08:57:04Z</time>
      </trkpt>
      <trkpt lat="45.88899" lon="4.74956">
        <ele>201</ele>
        <time>2016-08-26T08:57:06Z</time>
      </trkpt>
      <trkpt lat="45.88894" lon="4.74956">
        <ele>201</ele>
        <time>2016-08-26T08:57:07Z</time>
      </trkpt>
      <trkpt lat="45.88887" lon="4.74958">
        <ele>201</ele>
        <time>2016-08-26T08:57:09Z</time>
      </trkpt>
      <trkpt lat="45.88883" lon="4.7496">
        <ele>201</ele>
        <time>2016-08-26T08:57:10Z</time>
      </trkpt>
      <trkpt lat="45.88874" lon="4.7496">
        <ele>201</ele>
        <time>2016-08-26T08:57:12Z</time>
      </trkpt>
      <trkpt lat="45.8887" lon="4.74958">
        <ele>201</ele>
        <time>2016-08-26T08:57:13Z</time>
      </trkpt>
      <trkpt lat="45.88866" lon="4.74956">
        <ele>201</ele>
        <time>2016-08-26T08:57:14Z</time>
      </trkpt>
      <trkpt lat="45.88861" lon="4.74955">
        <ele>201</ele>
        <time>2016-08-26T08:57:15Z</time>
      </trkpt>
      <trkpt lat="45.88856" lon="4.74954">
        <ele>201</ele>
        <time>2016-08-26T08:57:16Z</time>
      </trkpt>
      <trkpt lat="45.88852" lon="4.74954">
        <ele>201</ele>
        <time>2016-08-26T08:57:17Z</time>
      </trkpt>
      <trkpt lat="45.88844" lon="4.74954">
        <ele>201</ele>
        <time>2016-08-26T08:57:19Z</time>
      </trkpt>
      <trkpt lat="45.8884" lon="4.74953">
        <ele>201</ele>
        <time>2016-08-26T08:57:20Z</time>
      </trkpt>
      <trkpt lat="45.88832" lon="4.74952">
        <ele>201</ele>
        <time>2016-08-26T08:57:22Z</time>
      </trkpt>
      <trkpt lat="45.88829" lon="4.74951">
        <ele>201</ele>
        <time>2016-08-26T08:57:23Z</time>
      </trkpt>
      <trkpt lat="45.88822" lon="4.74949">
        <ele>201</ele>
        <time>2016-08-26T08:57:25Z</time>
      </trkpt>
      <trkpt lat="45.88818" lon="4.74948">
        <ele>201</ele>
        <time>2016-08-26T08:57:26Z</time>
      </trkpt>
      <trkpt lat="45.8881" lon="4.74947">
        <ele>201</ele>
        <time>2016-08-26T08:57:28Z</time>
      </trkpt>
      <trkpt lat="45.88805" lon="4.74946">
        <ele>201</ele>
        <time>2016-08-26T08:57:29Z</time>
      </trkpt>
      <trkpt lat="45.888" lon="4.74945">
        <ele>201</ele>
        <time>2016-08-26T08:57:30Z</time>
      </trkpt>
      <trkpt lat="45.88796" lon="4.74944">
        <ele>201</ele>
        <time>2016-08-26T08:57:31Z</time>
      </trkpt>
      <trkpt lat="45.88791" lon="4.74944">
        <ele>201</ele>
        <time>2016-08-26T08:57:32Z</time>
      </trkpt>
      <trkpt lat="45.88785" lon="4.74942">
        <ele>201</ele>
        <time>2016-08-26T08:57:33Z</time>
      </trkpt>
      <trkpt lat="45.88779" lon="4.7494">
        <ele>201</ele>
        <time>2016-08-26T08:57:34Z</time>
      </trkpt>
      <trkpt lat="45.88773" lon="4.74938">
        <ele>201</ele>
        <time>2016-08-26T08:57:35Z</time>
      </trkpt>
      <trkpt lat="45.88768" lon="4.74938">
        <ele>201</ele>
        <time>2016-08-26T08:57:36Z</time>
      </trkpt>
      <trkpt lat="45.88763" lon="4.74936">
        <ele>201</ele>
        <time>2016-08-26T08:57:37Z</time>
      </trkpt>
      <trkpt lat="45.88758" lon="4.74935">
        <ele>201</ele>
        <time>2016-08-26T08:57:38Z</time>
      </trkpt>
      <trkpt lat="45.88753" lon="4.74935">
        <ele>201</ele>
        <time>2016-08-26T08:57:39Z</time>
      </trkpt>
      <trkpt lat="45.88748" lon="4.74934">
        <ele>201</ele>
        <time>2016-08-26T08:57:40Z</time>
      </trkpt>
      <trkpt lat="45.88743" lon="4.74934">
        <ele>201</ele>
        <time>2016-08-26T08:57:41Z</time>
      </trkpt>
      <trkpt lat="45.88738" lon="4.74933">
        <ele>201</ele>
        <time>2016-08-26T08:57:42Z</time>
      </trkpt>
      <trkpt lat="45.88733" lon="4.74932">
        <ele>201</ele>
        <time>2016-08-26T08:57:43Z</time>
      </trkpt>
      <trkpt lat="45.88728" lon="4.74931">
        <ele>201</ele>
        <time>2016-08-26T08:57:44Z</time>
      </trkpt>
      <trkpt lat="45.88723" lon="4.7493">
        <ele>201</ele>
        <time>2016-08-26T08:57:45Z</time>
      </trkpt>
      <trkpt lat="45.88718" lon="4.74929">
        <ele>201</ele>
        <time>2016-08-26T08:57:46Z</time>
      </trkpt>
      <trkpt lat="45.88713" lon="4.74928">
        <ele>201</ele>
        <time>2016-08-26T08:57:47Z</time>
      </trkpt>
      <trkpt lat="45.88707" lon="4.74927">
        <ele>202</ele>
        <time>2016-08-26T08:57:48Z</time>
      </trkpt>
      <trkpt lat="45.88701" lon="4.74926">
        <ele>202</ele>
        <time>2016-08-26T08:57:49Z</time>
      </trkpt>
      <trkpt lat="45.88697" lon="4.74925">
        <ele>202</ele>
        <time>2016-08-26T08:57:50Z</time>
      </trkpt>
      <trkpt lat="45.88692" lon="4.74923">
        <ele>202</ele>
        <time>2016-08-26T08:57:51Z</time>
      </trkpt>
      <trkpt lat="45.88683" lon="4.7492">
        <ele>202</ele>
        <time>2016-08-26T08:57:53Z</time>
      </trkpt>
      <trkpt lat="45.88679" lon="4.74919">
        <ele>202</ele>
        <time>2016-08-26T08:57:54Z</time>
      </trkpt>
      <trkpt lat="45.88672" lon="4.74916">
        <ele>202</ele>
        <time>2016-08-26T08:57:56Z</time>
      </trkpt>
      <trkpt lat="45.88669" lon="4.74915">
        <ele>202</ele>
        <time>2016-08-26T08:57:57Z</time>
      </trkpt>
      <trkpt lat="45.88662" lon="4.74915">
        <ele>202</ele>
        <time>2016-08-26T08:57:59Z</time>
      </trkpt>
      <trkpt lat="45.88659" lon="4.74917">
        <ele>202</ele>
        <time>2016-08-26T08:58:00Z</time>
      </trkpt>
      <trkpt lat="45.88652" lon="4.74923">
        <ele>202</ele>
        <time>2016-08-26T08:58:02Z</time>
      </trkpt>
      <trkpt lat="45.88649" lon="4.74927">
        <ele>202</ele>
        <time>2016-08-26T08:58:03Z</time>
      </trkpt>
      <trkpt lat="45.88646" lon="4.74931">
        <ele>202</ele>
        <time>2016-08-26T08:58:04Z</time>
      </trkpt>
      <trkpt lat="45.88643" lon="4.74938">
        <ele>201</ele>
        <time>2016-08-26T08:58:05Z</time>
      </trkpt>
      <trkpt lat="45.88641" lon="4.74945">
        <ele>201</ele>
        <time>2016-08-26T08:58:06Z</time>
      </trkpt>
      <trkpt lat="45.88639" lon="4.7495">
        <ele>201</ele>
        <time>2016-08-26T08:58:07Z</time>
      </trkpt>
      <trkpt lat="45.88635" lon="4.74961">
        <ele>201</ele>
        <time>2016-08-26T08:58:09Z</time>
      </trkpt>
      <trkpt lat="45.88633" lon="4.74967">
        <ele>201</ele>
        <time>2016-08-26T08:58:10Z</time>
      </trkpt>
      <trkpt lat="45.8863" lon="4.74978">
        <ele>201</ele>
        <time>2016-08-26T08:58:12Z</time>
      </trkpt>
      <trkpt lat="45.88629" lon="4.74984">
        <ele>201</ele>
        <time>2016-08-26T08:58:13Z</time>
      </trkpt>
      <trkpt lat="45.88627" lon="4.74991">
        <ele>201</ele>
        <time>2016-08-26T08:58:14Z</time>
      </trkpt>
      <trkpt lat="45.88626" lon="4.74998">
        <ele>201</ele>
        <time>2016-08-26T08:58:15Z</time>
      </trkpt>
      <trkpt lat="45.88624" lon="4.75005">
        <ele>201</ele>
        <time>2016-08-26T08:58:16Z</time>
      </trkpt>
      <trkpt lat="45.88623" lon="4.75012">
        <ele>201</ele>
        <time>2016-08-26T08:58:17Z</time>
      </trkpt>
      <trkpt lat="45.88622" lon="4.75019">
        <ele>202</ele>
        <time>2016-08-26T08:58:18Z</time>
      </trkpt>
      <trkpt lat="45.88621" lon="4.75026">
        <ele>202</ele>
        <time>2016-08-26T08:58:19Z</time>
      </trkpt>
      <trkpt lat="45.8862" lon="4.75034">
        <ele>202</ele>
        <time>2016-08-26T08:58:20Z</time>
      </trkpt>
      <trkpt lat="45.88619" lon="4.75042">
        <ele>202</ele>
        <time>2016-08-26T08:58:21Z</time>
      </trkpt>
      <trkpt lat="45.88618" lon="4.75049">
        <ele>202</ele>
        <time>2016-08-26T08:58:22Z</time>
      </trkpt>
      <trkpt lat="45.88617" lon="4.75056">
        <ele>202</ele>
        <time>2016-08-26T08:58:23Z</time>
      </trkpt>
      <trkpt lat="45.88615" lon="4.75063">
        <ele>202</ele>
        <time>2016-08-26T08:58:24Z</time>
      </trkpt>
      <trkpt lat="45.88613" lon="4.7507">
        <ele>202</ele>
        <time>2016-08-26T08:58:25Z</time>
      </trkpt>
      <trkpt lat="45.88609" lon="4.75076">
        <ele>202</ele>
        <time>2016-08-26T08:58:26Z</time>
      </trkpt>
      <trkpt lat="45.88605" lon="4.75082">
        <ele>202</ele>
        <time>2016-08-26T08:58:27Z</time>
      </trkpt>
      <trkpt lat="45.88601" lon="4.75088">
        <ele>202</ele>
        <time>2016-08-26T08:58:28Z</time>
      </trkpt>
      <trkpt lat="45.88597" lon="4.75093">
        <ele>202</ele>
        <time>2016-08-26T08:58:29Z</time>
      </trkpt>
      <trkpt lat="45.88593" lon="4.75099">
        <ele>202</ele>
        <time>2016-08-26T08:58:30Z</time>
      </trkpt>
      <trkpt lat="45.88589" lon="4.75104">
        <ele>202</ele>
        <time>2016-08-26T08:58:31Z</time>
      </trkpt>
      <trkpt lat="45.88584" lon="4.75108">
        <ele>202</ele>
        <time>2016-08-26T08:58:32Z</time>
      </trkpt>
      <trkpt lat="45.8858" lon="4.75112">
        <ele>201</ele>
        <time>2016-08-26T08:58:33Z</time>
      </trkpt>
      <trkpt lat="45.88576" lon="4.75116">
        <ele>201</ele>
        <time>2016-08-26T08:58:34Z</time>
      </trkpt>
      <trkpt lat="45.88571" lon="4.75119">
        <ele>201</ele>
        <time>2016-08-26T08:58:35Z</time>
      </trkpt>
      <trkpt lat="45.88567" lon="4.75123">
        <ele>201</ele>
        <time>2016-08-26T08:58:36Z</time>
      </trkpt>
      <trkpt lat="45.88563" lon="4.75128">
        <ele>201</ele>
        <time>2016-08-26T08:58:37Z</time>
      </trkpt>
      <trkpt lat="45.88557" lon="4.75137">
        <ele>201</ele>
        <time>2016-08-26T08:58:39Z</time>
      </trkpt>
      <trkpt lat="45.88553" lon="4.75142">
        <ele>201</ele>
        <time>2016-08-26T08:58:40Z</time>
      </trkpt>
      <trkpt lat="45.8855" lon="4.75147">
        <ele>201</ele>
        <time>2016-08-26T08:58:41Z</time>
      </trkpt>
      <trkpt lat="45.88547" lon="4.75153">
        <ele>201</ele>
        <time>2016-08-26T08:58:42Z</time>
      </trkpt>
      <trkpt lat="45.88545" lon="4.7516">
        <ele>201</ele>
        <time>2016-08-26T08:58:43Z</time>
      </trkpt>
      <trkpt lat="45.88542" lon="4.75167">
        <ele>201</ele>
        <time>2016-08-26T08:58:44Z</time>
      </trkpt>
      <trkpt lat="45.8854" lon="4.75174">
        <ele>201</ele>
        <time>2016-08-26T08:58:45Z</time>
      </trkpt>
      <trkpt lat="45.88537" lon="4.7518">
        <ele>201</ele>
        <time>2016-08-26T08:58:46Z</time>
      </trkpt>
      <trkpt lat="45.88534" lon="4.75187">
        <ele>201</ele>
        <time>2016-08-26T08:58:47Z</time>
      </trkpt>
      <trkpt lat="45.88532" lon="4.75193">
        <ele>201</ele>
        <time>2016-08-26T08:58:48Z</time>
      </trkpt>
      <trkpt lat="45.88529" lon="4.752">
        <ele>201</ele>
        <time>2016-08-26T08:58:49Z</time>
      </trkpt>
      <trkpt lat="45.88526" lon="4.75206">
        <ele>201</ele>
        <time>2016-08-26T08:58:50Z</time>
      </trkpt>
      <trkpt lat="45.88524" lon="4.75212">
        <ele>201</ele>
        <time>2016-08-26T08:58:51Z</time>
      </trkpt>
      <trkpt lat="45.88521" lon="4.75218">
        <ele>201</ele>
        <time>2016-08-26T08:58:52Z</time>
      </trkpt>
      <trkpt lat="45.88517" lon="4.75224">
        <ele>201</ele>
        <time>2016-08-26T08:58:53Z</time>
      </trkpt>
      <trkpt lat="45.88514" lon="4.75229">
        <ele>201</ele>
        <time>2016-08-26T08:58:54Z</time>
      </trkpt>
      <trkpt lat="45.8851" lon="4.75234">
        <ele>201</ele>
        <time>2016-08-26T08:58:55Z</time>
      </trkpt>
      <trkpt lat="45.88505" lon="4.75238">
        <ele>201</ele>
        <time>2016-08-26T08:58:56Z</time>
      </trkpt>
      <trkpt lat="45.885" lon="4.75242">
        <ele>201</ele>
        <time>2016-08-26T08:58:57Z</time>
      </trkpt>
      <trkpt lat="45.88495" lon="4.75246">
        <ele>201</ele>
        <time>2016-08-26T08:58:58Z</time>
      </trkpt>
      <trkpt lat="45.8849" lon="4.7525">
        <ele>201</ele>
        <time>2016-08-26T08:58:59Z</time>
      </trkpt>
      <trkpt lat="45.88484" lon="4.75253">
        <ele>201</ele>
        <time>2016-08-26T08:59:00Z</time>
      </trkpt>
      <trkpt lat="45.88479" lon="4.75257">
        <ele>201</ele>
        <time>2016-08-26T08:59:01Z</time>
      </trkpt>
      <trkpt lat="45.88472" lon="4.7526">
        <ele>201</ele>
        <time>2016-08-26T08:59:02Z</time>
      </trkpt>
      <trkpt lat="45.88466" lon="4.75264">
        <ele>201</ele>
        <time>2016-08-26T08:59:03Z</time>
      </trkpt>
      <trkpt lat="45.8846" lon="4.75267">
        <ele>201</ele>
        <time>2016-08-26T08:59:04Z</time>
      </trkpt>
      <trkpt lat="45.88454" lon="4.7527">
        <ele>201</ele>
        <time>2016-08-26T08:59:05Z</time>
      </trkpt>
      <trkpt lat="45.88448" lon="4.75273">
        <ele>201</ele>
        <time>2016-08-26T08:59:06Z</time>
      </trkpt>
      <trkpt lat="45.88442" lon="4.75276">
        <ele>201</ele>
        <time>2016-08-26T08:59:07Z</time>
      </trkpt>
      <trkpt lat="45.88436" lon="4.75279">
        <ele>201</ele>
        <time>2016-08-26T08:59:08Z</time>
      </trkpt>
      <trkpt lat="45.88431" lon="4.75283">
        <ele>201</ele>
        <time>2016-08-26T08:59:09Z</time>
      </trkpt>
      <trkpt lat="45.88426" lon="4.75288">
        <ele>201</ele>
        <time>2016-08-26T08:59:10Z</time>
      </trkpt>
      <trkpt lat="45.88421" lon="4.75293">
        <ele>201</ele>
        <time>2016-08-26T08:59:11Z</time>
      </trkpt>
      <trkpt lat="45.88417" lon="4.75299">
        <ele>200</ele>
        <time>2016-08-26T08:59:12Z</time>
      </trkpt>
      <trkpt lat="45.88413" lon="4.75306">
        <ele>200</ele>
        <time>2016-08-26T08:59:13Z</time>
      </trkpt>
      <trkpt lat="45.8841" lon="4.75313">
        <ele>200</ele>
        <time>2016-08-26T08:59:14Z</time>
      </trkpt>
      <trkpt lat="45.88407" lon="4.7532">
        <ele>200</ele>
        <time>2016-08-26T08:59:15Z</time>
      </trkpt>
      <trkpt lat="45.88404" lon="4.75327">
        <ele>200</ele>
        <time>2016-08-26T08:59:16Z</time>
      </trkpt>
      <trkpt lat="45.88401" lon="4.75334">
        <ele>201</ele>
        <time>2016-08-26T08:59:17Z</time>
      </trkpt>
      <trkpt lat="45.88398" lon="4.75341">
        <ele>201</ele>
        <time>2016-08-26T08:59:18Z</time>
      </trkpt>
      <trkpt lat="45.88395" lon="4.75348">
        <ele>201</ele>
        <time>2016-08-26T08:59:19Z</time>
      </trkpt>
      <trkpt lat="45.88392" lon="4.75354">
        <ele>201</ele>
        <time>2016-08-26T08:59:20Z</time>
      </trkpt>
      <trkpt lat="45.88388" lon="4.75359">
        <ele>201</ele>
        <time>2016-08-26T08:59:21Z</time>
      </trkpt>
      <trkpt lat="45.88385" lon="4.75365">
        <ele>201</ele>
        <time>2016-08-26T08:59:22Z</time>
      </trkpt>
      <trkpt lat="45.88382" lon="4.75372">
        <ele>201</ele>
        <time>2016-08-26T08:59:23Z</time>
      </trkpt>
      <trkpt lat="45.8838" lon="4.75378">
        <ele>201</ele>
        <time>2016-08-26T08:59:24Z</time>
      </trkpt>
      <trkpt lat="45.88378" lon="4.75385">
        <ele>201</ele>
        <time>2016-08-26T08:59:25Z</time>
      </trkpt>
      <trkpt lat="45.88376" lon="4.75391">
        <ele>201</ele>
        <time>2016-08-26T08:59:26Z</time>
      </trkpt>
      <trkpt lat="45.88374" lon="4.75398">
        <ele>202</ele>
        <time>2016-08-26T08:59:27Z</time>
      </trkpt>
      <trkpt lat="45.88373" lon="4.75405">
        <ele>202</ele>
        <time>2016-08-26T08:59:28Z</time>
      </trkpt>
      <trkpt lat="45.88372" lon="4.75413">
        <ele>202</ele>
        <time>2016-08-26T08:59:29Z</time>
      </trkpt>
      <trkpt lat="45.8837" lon="4.7542">
        <ele>203</ele>
        <time>2016-08-26T08:59:30Z</time>
      </trkpt>
      <trkpt lat="45.8837" lon="4.75429">
        <ele>203</ele>
        <time>2016-08-26T08:59:31Z</time>
      </trkpt>
      <trkpt lat="45.88369" lon="4.75436">
        <ele>203</ele>
        <time>2016-08-26T08:59:32Z</time>
      </trkpt>
      <trkpt lat="45.88367" lon="4.75444">
        <ele>203</ele>
        <time>2016-08-26T08:59:33Z</time>
      </trkpt>
      <trkpt lat="45.88366" lon="4.7545">
        <ele>203</ele>
        <time>2016-08-26T08:59:34Z</time>
      </trkpt>
      <trkpt lat="45.88365" lon="4.75457">
        <ele>203</ele>
        <time>2016-08-26T08:59:35Z</time>
      </trkpt>
      <trkpt lat="45.88364" lon="4.75464">
        <ele>203</ele>
        <time>2016-08-26T08:59:36Z</time>
      </trkpt>
      <trkpt lat="45.88364" lon="4.75471">
        <ele>203</ele>
        <time>2016-08-26T08:59:37Z</time>
      </trkpt>
      <trkpt lat="45.88364" lon="4.75478">
        <ele>203</ele>
        <time>2016-08-26T08:59:38Z</time>
      </trkpt>
      <trkpt lat="45.88363" lon="4.75486">
        <ele>203</ele>
        <time>2016-08-26T08:59:39Z</time>
      </trkpt>
      <trkpt lat="45.88362" lon="4.75493">
        <ele>203</ele>
        <time>2016-08-26T08:59:40Z</time>
      </trkpt>
      <trkpt lat="45.88362" lon="4.75499">
        <ele>203</ele>
        <time>2016-08-26T08:59:41Z</time>
      </trkpt>
      <trkpt lat="45.88361" lon="4.75506">
        <ele>204</ele>
        <time>2016-08-26T08:59:42Z</time>
      </trkpt>
      <trkpt lat="45.88361" lon="4.75513">
        <ele>204</ele>
        <time>2016-08-26T08:59:43Z</time>
      </trkpt>
      <trkpt lat="45.88361" lon="4.7552">
        <ele>204</ele>
        <time>2016-08-26T08:59:44Z</time>
      </trkpt>
      <trkpt lat="45.88361" lon="4.75528">
        <ele>204</ele>
        <time>2016-08-26T08:59:45Z</time>
      </trkpt>
      <trkpt lat="45.88361" lon="4.75535">
        <ele>204</ele>
        <time>2016-08-26T08:59:46Z</time>
      </trkpt>
      <trkpt lat="45.88361" lon="4.75542">
        <ele>204</ele>
        <time>2016-08-26T08:59:47Z</time>
      </trkpt>
      <trkpt lat="45.88361" lon="4.7555">
        <ele>204</ele>
        <time>2016-08-26T08:59:48Z</time>
      </trkpt>
      <trkpt lat="45.88362" lon="4.75557">
        <ele>204</ele>
        <time>2016-08-26T08:59:49Z</time>
      </trkpt>
      <trkpt lat="45.88362" lon="4.75565">
        <ele>204</ele>
        <time>2016-08-26T08:59:50Z</time>
      </trkpt>
      <trkpt lat="45.88361" lon="4.75572">
        <ele>204</ele>
        <time>2016-08-26T08:59:51Z</time>
      </trkpt>
      <trkpt lat="45.88361" lon="4.75579">
        <ele>204</ele>
        <time>2016-08-26T08:59:52Z</time>
      </trkpt>
      <trkpt lat="45.88361" lon="4.75587">
        <ele>204</ele>
        <time>2016-08-26T08:59:53Z</time>
      </trkpt>
      <trkpt lat="45.88361" lon="4.75594">
        <ele>204</ele>
        <time>2016-08-26T08:59:54Z</time>
      </trkpt>
      <trkpt lat="45.88361" lon="4.75601">
        <ele>204</ele>
        <time>2016-08-26T08:59:55Z</time>
      </trkpt>
      <trkpt lat="45.88361" lon="4.75608">
        <ele>204</ele>
        <time>2016-08-26T08:59:56Z</time>
      </trkpt>
      <trkpt lat="45.88361" lon="4.75614">
        <ele>204</ele>
        <time>2016-08-26T08:59:57Z</time>
      </trkpt>
      <trkpt lat="45.88361" lon="4.75621">
        <ele>204</ele>
        <time>2016-08-26T08:59:58Z</time>
      </trkpt>
      <trkpt lat="45.88361" lon="4.75633">
        <ele>204</ele>
        <time>2016-08-26T09:00:00Z</time>
      </trkpt>
      <trkpt lat="45.8836" lon="4.7564">
        <ele>204</ele>
        <time>2016-08-26T09:00:01Z</time>
      </trkpt>
      <trkpt lat="45.8836" lon="4.75646">
        <ele>204</ele>
        <time>2016-08-26T09:00:02Z</time>
      </trkpt>
      <trkpt lat="45.8836" lon="4.75653">
        <ele>204</ele>
        <time>2016-08-26T09:00:03Z</time>
      </trkpt>
      <trkpt lat="45.88359" lon="4.7566">
        <ele>204</ele>
        <time>2016-08-26T09:00:04Z</time>
      </trkpt>
      <trkpt lat="45.88359" lon="4.75667">
        <ele>203</ele>
        <time>2016-08-26T09:00:05Z</time>
      </trkpt>
      <trkpt lat="45.88358" lon="4.75674">
        <ele>203</ele>
        <time>2016-08-26T09:00:06Z</time>
      </trkpt>
      <trkpt lat="45.88357" lon="4.75681">
        <ele>203</ele>
        <time>2016-08-26T09:00:07Z</time>
      </trkpt>
      <trkpt lat="45.88356" lon="4.75689">
        <ele>204</ele>
        <time>2016-08-26T09:00:08Z</time>
      </trkpt>
      <trkpt lat="45.88355" lon="4.75697">
        <ele>204</ele>
        <time>2016-08-26T09:00:09Z</time>
      </trkpt>
      <trkpt lat="45.88353" lon="4.75704">
        <ele>204</ele>
        <time>2016-08-26T09:00:10Z</time>
      </trkpt>
      <trkpt lat="45.88351" lon="4.75711">
        <ele>204</ele>
        <time>2016-08-26T09:00:11Z</time>
      </trkpt>
      <trkpt lat="45.8835" lon="4.75718">
        <ele>204</ele>
        <time>2016-08-26T09:00:12Z</time>
      </trkpt>
      <trkpt lat="45.88349" lon="4.75725">
        <ele>204</ele>
        <time>2016-08-26T09:00:13Z</time>
      </trkpt>
      <trkpt lat="45.88347" lon="4.75731">
        <ele>203</ele>
        <time>2016-08-26T09:00:14Z</time>
      </trkpt>
      <trkpt lat="45.88345" lon="4.75738">
        <ele>203</ele>
        <time>2016-08-26T09:00:15Z</time>
      </trkpt>
      <trkpt lat="45.88344" lon="4.75745">
        <ele>203</ele>
        <time>2016-08-26T09:00:16Z</time>
      </trkpt>
      <trkpt lat="45.88342" lon="4.75751">
        <ele>203</ele>
        <time>2016-08-26T09:00:17Z</time>
      </trkpt>
      <trkpt lat="45.88341" lon="4.75758">
        <ele>203</ele>
        <time>2016-08-26T09:00:18Z</time>
      </trkpt>
      <trkpt lat="45.8834" lon="4.75765">
        <ele>203</ele>
        <time>2016-08-26T09:00:19Z</time>
      </trkpt>
      <trkpt lat="45.88339" lon="4.75772">
        <ele>203</ele>
        <time>2016-08-26T09:00:20Z</time>
      </trkpt>
      <trkpt lat="45.88339" lon="4.75779">
        <ele>203</ele>
        <time>2016-08-26T09:00:21Z</time>
      </trkpt>
      <trkpt lat="45.88338" lon="4.75786">
        <ele>203</ele>
        <time>2016-08-26T09:00:22Z</time>
      </trkpt>
      <trkpt lat="45.88338" lon="4.75793">
        <ele>203</ele>
        <time>2016-08-26T09:00:23Z</time>
      </trkpt>
      <trkpt lat="45.88337" lon="4.758">
        <ele>203</ele>
        <time>2016-08-26T09:00:24Z</time>
      </trkpt>
      <trkpt lat="45.88337" lon="4.75807">
        <ele>203</ele>
        <time>2016-08-26T09:00:25Z</time>
      </trkpt>
      <trkpt lat="45.88337" lon="4.75814">
        <ele>203</ele>
        <time>2016-08-26T09:00:26Z</time>
      </trkpt>
      <trkpt lat="45.88336" lon="4.75821">
        <ele>203</ele>
        <time>2016-08-26T09:00:27Z</time>
      </trkpt>
      <trkpt lat="45.88336" lon="4.75828">
        <ele>203</ele>
        <time>2016-08-26T09:00:28Z</time>
      </trkpt>
      <trkpt lat="45.88336" lon="4.75835">
        <ele>203</ele>
        <time>2016-08-26T09:00:29Z</time>
      </trkpt>
      <trkpt lat="45.88336" lon="4.75842">
        <ele>203</ele>
        <time>2016-08-26T09:00:30Z</time>
      </trkpt>
      <trkpt lat="45.88336" lon="4.75848">
        <ele>203</ele>
        <time>2016-08-26T09:00:31Z</time>
      </trkpt>
      <trkpt lat="45.88334" lon="4.75861">
        <ele>204</ele>
        <time>2016-08-26T09:00:33Z</time>
      </trkpt>
      <trkpt lat="45.88333" lon="4.75867">
        <ele>204</ele>
        <time>2016-08-26T09:00:34Z</time>
      </trkpt>
      <trkpt lat="45.88332" lon="4.75875">
        <ele>204</ele>
        <time>2016-08-26T09:00:35Z</time>
      </trkpt>
      <trkpt lat="45.88331" lon="4.75882">
        <ele>204</ele>
        <time>2016-08-26T09:00:36Z</time>
      </trkpt>
      <trkpt lat="45.8833" lon="4.75889">
        <ele>205</ele>
        <time>2016-08-26T09:00:37Z</time>
      </trkpt>
      <trkpt lat="45.88328" lon="4.75896">
        <ele>205</ele>
        <time>2016-08-26T09:00:38Z</time>
      </trkpt>
      <trkpt lat="45.88327" lon="4.75902">
        <ele>205</ele>
        <time>2016-08-26T09:00:39Z</time>
      </trkpt>
      <trkpt lat="45.88326" lon="4.75909">
        <ele>205</ele>
        <time>2016-08-26T09:00:40Z</time>
      </trkpt>
      <trkpt lat="45.88324" lon="4.75916">
        <ele>205</ele>
        <time>2016-08-26T09:00:41Z</time>
      </trkpt>
      <trkpt lat="45.88323" lon="4.75924">
        <ele>205</ele>
        <time>2016-08-26T09:00:42Z</time>
      </trkpt>
      <trkpt lat="45.88321" lon="4.75931">
        <ele>205</ele>
        <time>2016-08-26T09:00:43Z</time>
      </trkpt>
      <trkpt lat="45.88319" lon="4.75937">
        <ele>206</ele>
        <time>2016-08-26T09:00:44Z</time>
      </trkpt>
      <trkpt lat="45.88315" lon="4.75948">
        <ele>206</ele>
        <time>2016-08-26T09:00:46Z</time>
      </trkpt>
      <trkpt lat="45.88313" lon="4.75954">
        <ele>206</ele>
        <time>2016-08-26T09:00:47Z</time>
      </trkpt>
      <trkpt lat="45.88309" lon="4.75965">
        <ele>206</ele>
        <time>2016-08-26T09:00:49Z</time>
      </trkpt>
      <trkpt lat="45.88307" lon="4.75971">
        <ele>206</ele>
        <time>2016-08-26T09:00:50Z</time>
      </trkpt>
      <trkpt lat="45.88305" lon="4.75977">
        <ele>206</ele>
        <time>2016-08-26T09:00:51Z</time>
      </trkpt>
      <trkpt lat="45.88303" lon="4.75983">
        <ele>206</ele>
        <time>2016-08-26T09:00:52Z</time>
      </trkpt>
      <trkpt lat="45.883" lon="4.75994">
        <ele>206</ele>
        <time>2016-08-26T09:00:54Z</time>
      </trkpt>
      <trkpt lat="45.88298" lon="4.76">
        <ele>206</ele>
        <time>2016-08-26T09:00:55Z</time>
      </trkpt>
      <trkpt lat="45.88296" lon="4.76011">
        <ele>207</ele>
        <time>2016-08-26T09:00:57Z</time>
      </trkpt>
      <trkpt lat="45.88295" lon="4.76017">
        <ele>207</ele>
        <time>2016-08-26T09:00:58Z</time>
      </trkpt>
      <trkpt lat="45.88293" lon="4.76028">
        <ele>207</ele>
        <time>2016-08-26T09:01:00Z</time>
      </trkpt>
      <trkpt lat="45.88292" lon="4.76034">
        <ele>207</ele>
        <time>2016-08-26T09:01:01Z</time>
      </trkpt>
      <trkpt lat="45.88291" lon="4.76046">
        <ele>208</ele>
        <time>2016-08-26T09:01:03Z</time>
      </trkpt>
      <trkpt lat="45.8829" lon="4.76051">
        <ele>208</ele>
        <time>2016-08-26T09:01:04Z</time>
      </trkpt>
      <trkpt lat="45.88289" lon="4.76063">
        <ele>208</ele>
        <time>2016-08-26T09:01:06Z</time>
      </trkpt>
      <trkpt lat="45.88289" lon="4.76069">
        <ele>208</ele>
        <time>2016-08-26T09:01:07Z</time>
      </trkpt>
      <trkpt lat="45.88287" lon="4.76082">
        <ele>208</ele>
        <time>2016-08-26T09:01:09Z</time>
      </trkpt>
      <trkpt lat="45.88286" lon="4.76088">
        <ele>210</ele>
        <time>2016-08-26T09:01:10Z</time>
      </trkpt>
      <trkpt lat="45.88285" lon="4.76094">
        <ele>210</ele>
        <time>2016-08-26T09:01:11Z</time>
      </trkpt>
      <trkpt lat="45.88285" lon="4.76101">
        <ele>210</ele>
        <time>2016-08-26T09:01:12Z</time>
      </trkpt>
      <trkpt lat="45.88284" lon="4.76113">
        <ele>210</ele>
        <time>2016-08-26T09:01:14Z</time>
      </trkpt>
      <trkpt lat="45.88284" lon="4.76119">
        <ele>210</ele>
        <time>2016-08-26T09:01:15Z</time>
      </trkpt>
      <trkpt lat="45.88285" lon="4.7613">
        <ele>210</ele>
        <time>2016-08-26T09:01:17Z</time>
      </trkpt>
      <trkpt lat="45.88285" lon="4.76136">
        <ele>210</ele>
        <time>2016-08-26T09:01:18Z</time>
      </trkpt>
      <trkpt lat="45.88285" lon="4.76148">
        <ele>211</ele>
        <time>2016-08-26T09:01:20Z</time>
      </trkpt>
      <trkpt lat="45.88285" lon="4.76153">
        <ele>211</ele>
        <time>2016-08-26T09:01:21Z</time>
      </trkpt>
      <trkpt lat="45.88284" lon="4.76165">
        <ele>211</ele>
        <time>2016-08-26T09:01:23Z</time>
      </trkpt>
      <trkpt lat="45.88284" lon="4.76171">
        <ele>212</ele>
        <time>2016-08-26T09:01:24Z</time>
      </trkpt>
      <trkpt lat="45.88283" lon="4.76182">
        <ele>213</ele>
        <time>2016-08-26T09:01:26Z</time>
      </trkpt>
      <trkpt lat="45.88283" lon="4.76188">
        <ele>213</ele>
        <time>2016-08-26T09:01:27Z</time>
      </trkpt>
      <trkpt lat="45.88282" lon="4.762">
        <ele>213</ele>
        <time>2016-08-26T09:01:29Z</time>
      </trkpt>
      <trkpt lat="45.88281" lon="4.76206">
        <ele>213</ele>
        <time>2016-08-26T09:01:30Z</time>
      </trkpt>
      <trkpt lat="45.8828" lon="4.76218">
        <ele>213</ele>
        <time>2016-08-26T09:01:32Z</time>
      </trkpt>
      <trkpt lat="45.8828" lon="4.76224">
        <ele>213</ele>
        <time>2016-08-26T09:01:33Z</time>
      </trkpt>
      <trkpt lat="45.88279" lon="4.76236">
        <ele>213</ele>
        <time>2016-08-26T09:01:35Z</time>
      </trkpt>
      <trkpt lat="45.88278" lon="4.76241">
        <ele>213</ele>
        <time>2016-08-26T09:01:36Z</time>
      </trkpt>
      <trkpt lat="45.88277" lon="4.76253">
        <ele>214</ele>
        <time>2016-08-26T09:01:38Z</time>
      </trkpt>
      <trkpt lat="45.88276" lon="4.76259">
        <ele>214</ele>
        <time>2016-08-26T09:01:39Z</time>
      </trkpt>
      <trkpt lat="45.88276" lon="4.76265">
        <ele>214</ele>
        <time>2016-08-26T09:01:40Z</time>
      </trkpt>
      <trkpt lat="45.88275" lon="4.76272">
        <ele>214</ele>
        <time>2016-08-26T09:01:41Z</time>
      </trkpt>
      <trkpt lat="45.88272" lon="4.76284">
        <ele>214</ele>
        <time>2016-08-26T09:01:43Z</time>
      </trkpt>
      <trkpt lat="45.88271" lon="4.7629">
        <ele>214</ele>
        <time>2016-08-26T09:01:44Z</time>
      </trkpt>
      <trkpt lat="45.88268" lon="4.76301">
        <ele>214</ele>
        <time>2016-08-26T09:01:46Z</time>
      </trkpt>
      <trkpt lat="45.88267" lon="4.76306">
        <ele>214</ele>
        <time>2016-08-26T09:01:47Z</time>
      </trkpt>
      <trkpt lat="45.88263" lon="4.76317">
        <ele>214</ele>
        <time>2016-08-26T09:01:49Z</time>
      </trkpt>
      <trkpt lat="45.88262" lon="4.76323">
        <ele>214</ele>
        <time>2016-08-26T09:01:50Z</time>
      </trkpt>
      <trkpt lat="45.8826" lon="4.76329">
        <ele>214</ele>
        <time>2016-08-26T09:01:51Z</time>
      </trkpt>
      <trkpt lat="45.88259" lon="4.76335">
        <ele>215</ele>
        <time>2016-08-26T09:01:52Z</time>
      </trkpt>
      <trkpt lat="45.88257" lon="4.76341">
        <ele>214</ele>
        <time>2016-08-26T09:01:53Z</time>
      </trkpt>
      <trkpt lat="45.88254" lon="4.76346">
        <ele>214</ele>
        <time>2016-08-26T09:01:54Z</time>
      </trkpt>
      <trkpt lat="45.88252" lon="4.76352">
        <ele>214</ele>
        <time>2016-08-26T09:01:55Z</time>
      </trkpt>
      <trkpt lat="45.8825" lon="4.76359">
        <ele>214</ele>
        <time>2016-08-26T09:01:56Z</time>
      </trkpt>
      <trkpt lat="45.88246" lon="4.7637">
        <ele>215</ele>
        <time>2016-08-26T09:01:58Z</time>
      </trkpt>
      <trkpt lat="45.88245" lon="4.76376">
        <ele>215</ele>
        <time>2016-08-26T09:01:59Z</time>
      </trkpt>
      <trkpt lat="45.8824" lon="4.76387">
        <ele>215</ele>
        <time>2016-08-26T09:02:01Z</time>
      </trkpt>
      <trkpt lat="45.88238" lon="4.76392">
        <ele>215</ele>
        <time>2016-08-26T09:02:02Z</time>
      </trkpt>
      <trkpt lat="45.88235" lon="4.76397">
        <ele>215</ele>
        <time>2016-08-26T09:02:03Z</time>
      </trkpt>
      <trkpt lat="45.88233" lon="4.76403">
        <ele>215</ele>
        <time>2016-08-26T09:02:04Z</time>
      </trkpt>
      <trkpt lat="45.8823" lon="4.76409">
        <ele>215</ele>
        <time>2016-08-26T09:02:05Z</time>
      </trkpt>
      <trkpt lat="45.88229" lon="4.76416">
        <ele>215</ele>
        <time>2016-08-26T09:02:06Z</time>
      </trkpt>
      <trkpt lat="45.88226" lon="4.76422">
        <ele>214</ele>
        <time>2016-08-26T09:02:07Z</time>
      </trkpt>
      <trkpt lat="45.88224" lon="4.76427">
        <ele>214</ele>
        <time>2016-08-26T09:02:08Z</time>
      </trkpt>
      <trkpt lat="45.88219" lon="4.76438">
        <ele>214</ele>
        <time>2016-08-26T09:02:10Z</time>
      </trkpt>
      <trkpt lat="45.88217" lon="4.76443">
        <ele>214</ele>
        <time>2016-08-26T09:02:11Z</time>
      </trkpt>
      <trkpt lat="45.88215" lon="4.76449">
        <ele>214</ele>
        <time>2016-08-26T09:02:12Z</time>
      </trkpt>
      <trkpt lat="45.88213" lon="4.76456">
        <ele>214</ele>
        <time>2016-08-26T09:02:13Z</time>
      </trkpt>
      <trkpt lat="45.8821" lon="4.76462">
        <ele>214</ele>
        <time>2016-08-26T09:02:14Z</time>
      </trkpt>
      <trkpt lat="45.88208" lon="4.76468">
        <ele>214</ele>
        <time>2016-08-26T09:02:15Z</time>
      </trkpt>
      <trkpt lat="45.88206" lon="4.76474">
        <ele>214</ele>
        <time>2016-08-26T09:02:16Z</time>
      </trkpt>
      <trkpt lat="45.88203" lon="4.76481">
        <ele>214</ele>
        <time>2016-08-26T09:02:17Z</time>
      </trkpt>
      <trkpt lat="45.88201" lon="4.76487">
        <ele>214</ele>
        <time>2016-08-26T09:02:18Z</time>
      </trkpt>
      <trkpt lat="45.88199" lon="4.76494">
        <ele>214</ele>
        <time>2016-08-26T09:02:19Z</time>
      </trkpt>
      <trkpt lat="45.88196" lon="4.76501">
        <ele>214</ele>
        <time>2016-08-26T09:02:20Z</time>
      </trkpt>
      <trkpt lat="45.88194" lon="4.76508">
        <ele>214</ele>
        <time>2016-08-26T09:02:21Z</time>
      </trkpt>
      <trkpt lat="45.88192" lon="4.76515">
        <ele>214</ele>
        <time>2016-08-26T09:02:22Z</time>
      </trkpt>
      <trkpt lat="45.8819" lon="4.76522">
        <ele>214</ele>
        <time>2016-08-26T09:02:23Z</time>
      </trkpt>
      <trkpt lat="45.88188" lon="4.76529">
        <ele>214</ele>
        <time>2016-08-26T09:02:24Z</time>
      </trkpt>
      <trkpt lat="45.88186" lon="4.76536">
        <ele>214</ele>
        <time>2016-08-26T09:02:25Z</time>
      </trkpt>
      <trkpt lat="45.88184" lon="4.76543">
        <ele>214</ele>
        <time>2016-08-26T09:02:26Z</time>
      </trkpt>
      <trkpt lat="45.88182" lon="4.7655">
        <ele>214</ele>
        <time>2016-08-26T09:02:27Z</time>
      </trkpt>
      <trkpt lat="45.88181" lon="4.76557">
        <ele>214</ele>
        <time>2016-08-26T09:02:28Z</time>
      </trkpt>
      <trkpt lat="45.88179" lon="4.76563">
        <ele>214</ele>
        <time>2016-08-26T09:02:29Z</time>
      </trkpt>
      <trkpt lat="45.88177" lon="4.76571">
        <ele>214</ele>
        <time>2016-08-26T09:02:30Z</time>
      </trkpt>
      <trkpt lat="45.88175" lon="4.76578">
        <ele>215</ele>
        <time>2016-08-26T09:02:31Z</time>
      </trkpt>
      <trkpt lat="45.88173" lon="4.76585">
        <ele>215</ele>
        <time>2016-08-26T09:02:32Z</time>
      </trkpt>
      <trkpt lat="45.8817" lon="4.76592">
        <ele>215</ele>
        <time>2016-08-26T09:02:33Z</time>
      </trkpt>
      <trkpt lat="45.88168" lon="4.766">
        <ele>214</ele>
        <time>2016-08-26T09:02:34Z</time>
      </trkpt>
      <trkpt lat="45.88165" lon="4.76606">
        <ele>215</ele>
        <time>2016-08-26T09:02:35Z</time>
      </trkpt>
      <trkpt lat="45.88162" lon="4.76612">
        <ele>215</ele>
        <time>2016-08-26T09:02:36Z</time>
      </trkpt>
      <trkpt lat="45.8816" lon="4.76619">
        <ele>215</ele>
        <time>2016-08-26T09:02:37Z</time>
      </trkpt>
      <trkpt lat="45.88158" lon="4.76624">
        <ele>215</ele>
        <time>2016-08-26T09:02:38Z</time>
      </trkpt>
      <trkpt lat="45.88155" lon="4.7663">
        <ele>215</ele>
        <time>2016-08-26T09:02:39Z</time>
      </trkpt>
      <trkpt lat="45.88153" lon="4.76636">
        <ele>215</ele>
        <time>2016-08-26T09:02:40Z</time>
      </trkpt>
      <trkpt lat="45.88151" lon="4.76642">
        <ele>215</ele>
        <time>2016-08-26T09:02:41Z</time>
      </trkpt>
      <trkpt lat="45.88148" lon="4.76648">
        <ele>215</ele>
        <time>2016-08-26T09:02:42Z</time>
      </trkpt>
      <trkpt lat="45.88146" lon="4.76656">
        <ele>214</ele>
        <time>2016-08-26T09:02:43Z</time>
      </trkpt>
      <trkpt lat="45.88144" lon="4.76662">
        <ele>214</ele>
        <time>2016-08-26T09:02:44Z</time>
      </trkpt>
      <trkpt lat="45.88142" lon="4.76669">
        <ele>214</ele>
        <time>2016-08-26T09:02:45Z</time>
      </trkpt>
      <trkpt lat="45.88139" lon="4.76676">
        <ele>214</ele>
        <time>2016-08-26T09:02:46Z</time>
      </trkpt>
      <trkpt lat="45.88137" lon="4.76683">
        <ele>214</ele>
        <time>2016-08-26T09:02:47Z</time>
      </trkpt>
      <trkpt lat="45.88134" lon="4.7669">
        <ele>214</ele>
        <time>2016-08-26T09:02:48Z</time>
      </trkpt>
      <trkpt lat="45.88131" lon="4.76696">
        <ele>214</ele>
        <time>2016-08-26T09:02:49Z</time>
      </trkpt>
      <trkpt lat="45.88127" lon="4.76702">
        <ele>214</ele>
        <time>2016-08-26T09:02:50Z</time>
      </trkpt>
      <trkpt lat="45.88124" lon="4.76708">
        <ele>214</ele>
        <time>2016-08-26T09:02:51Z</time>
      </trkpt>
      <trkpt lat="45.88121" lon="4.76715">
        <ele>214</ele>
        <time>2016-08-26T09:02:52Z</time>
      </trkpt>
      <trkpt lat="45.88118" lon="4.76722">
        <ele>214</ele>
        <time>2016-08-26T09:02:53Z</time>
      </trkpt>
      <trkpt lat="45.88115" lon="4.76729">
        <ele>214</ele>
        <time>2016-08-26T09:02:54Z</time>
      </trkpt>
      <trkpt lat="45.88113" lon="4.76736">
        <ele>214</ele>
        <time>2016-08-26T09:02:55Z</time>
      </trkpt>
      <trkpt lat="45.88111" lon="4.76743">
        <ele>214</ele>
        <time>2016-08-26T09:02:56Z</time>
      </trkpt>
      <trkpt lat="45.88109" lon="4.76751">
        <ele>213</ele>
        <time>2016-08-26T09:02:57Z</time>
      </trkpt>
      <trkpt lat="45.88108" lon="4.76758">
        <ele>213</ele>
        <time>2016-08-26T09:02:58Z</time>
      </trkpt>
      <trkpt lat="45.88107" lon="4.76765">
        <ele>213</ele>
        <time>2016-08-26T09:02:59Z</time>
      </trkpt>
      <trkpt lat="45.88106" lon="4.76773">
        <ele>213</ele>
        <time>2016-08-26T09:03:00Z</time>
      </trkpt>
      <trkpt lat="45.88105" lon="4.7678">
        <ele>213</ele>
        <time>2016-08-26T09:03:01Z</time>
      </trkpt>
      <trkpt lat="45.88105" lon="4.76788">
        <ele>213</ele>
        <time>2016-08-26T09:03:02Z</time>
      </trkpt>
      <trkpt lat="45.88104" lon="4.76796">
        <ele>213</ele>
        <time>2016-08-26T09:03:03Z</time>
      </trkpt>
      <trkpt lat="45.88104" lon="4.76804">
        <ele>213</ele>
        <time>2016-08-26T09:03:04Z</time>
      </trkpt>
      <trkpt lat="45.88103" lon="4.76812">
        <ele>213</ele>
        <time>2016-08-26T09:03:05Z</time>
      </trkpt>
      <trkpt lat="45.88102" lon="4.76819">
        <ele>213</ele>
        <time>2016-08-26T09:03:06Z</time>
      </trkpt>
      <trkpt lat="45.88101" lon="4.76827">
        <ele>213</ele>
        <time>2016-08-26T09:03:07Z</time>
      </trkpt>
      <trkpt lat="45.881" lon="4.76834">
        <ele>212</ele>
        <time>2016-08-26T09:03:08Z</time>
      </trkpt>
      <trkpt lat="45.88099" lon="4.76842">
        <ele>212</ele>
        <time>2016-08-26T09:03:09Z</time>
      </trkpt>
      <trkpt lat="45.88098" lon="4.7685">
        <ele>212</ele>
        <time>2016-08-26T09:03:10Z</time>
      </trkpt>
      <trkpt lat="45.88097" lon="4.76857">
        <ele>212</ele>
        <time>2016-08-26T09:03:11Z</time>
      </trkpt>
      <trkpt lat="45.88096" lon="4.76865">
        <ele>212</ele>
        <time>2016-08-26T09:03:12Z</time>
      </trkpt>
      <trkpt lat="45.88095" lon="4.76873">
        <ele>212</ele>
        <time>2016-08-26T09:03:13Z</time>
      </trkpt>
      <trkpt lat="45.88094" lon="4.76881">
        <ele>212</ele>
        <time>2016-08-26T09:03:14Z</time>
      </trkpt>
      <trkpt lat="45.88093" lon="4.76889">
        <ele>212</ele>
        <time>2016-08-26T09:03:15Z</time>
      </trkpt>
      <trkpt lat="45.88092" lon="4.76898">
        <ele>212</ele>
        <time>2016-08-26T09:03:16Z</time>
      </trkpt>
      <trkpt lat="45.8809" lon="4.76905">
        <ele>212</ele>
        <time>2016-08-26T09:03:17Z</time>
      </trkpt>
      <trkpt lat="45.88088" lon="4.76913">
        <ele>213</ele>
        <time>2016-08-26T09:03:18Z</time>
      </trkpt>
      <trkpt lat="45.88087" lon="4.7692">
        <ele>213</ele>
        <time>2016-08-26T09:03:19Z</time>
      </trkpt>
      <trkpt lat="45.88086" lon="4.76928">
        <ele>213</ele>
        <time>2016-08-26T09:03:20Z</time>
      </trkpt>
      <trkpt lat="45.88084" lon="4.76935">
        <ele>212</ele>
        <time>2016-08-26T09:03:21Z</time>
      </trkpt>
      <trkpt lat="45.88083" lon="4.76941">
        <ele>213</ele>
        <time>2016-08-26T09:03:22Z</time>
      </trkpt>
      <trkpt lat="45.88081" lon="4.76948">
        <ele>213</ele>
        <time>2016-08-26T09:03:23Z</time>
      </trkpt>
      <trkpt lat="45.88079" lon="4.76955">
        <ele>213</ele>
        <time>2016-08-26T09:03:24Z</time>
      </trkpt>
      <trkpt lat="45.88077" lon="4.76962">
        <ele>213</ele>
        <time>2016-08-26T09:03:25Z</time>
      </trkpt>
      <trkpt lat="45.88076" lon="4.7697">
        <ele>213</ele>
        <time>2016-08-26T09:03:26Z</time>
      </trkpt>
      <trkpt lat="45.88074" lon="4.76978">
        <ele>213</ele>
        <time>2016-08-26T09:03:27Z</time>
      </trkpt>
      <trkpt lat="45.88073" lon="4.76986">
        <ele>213</ele>
        <time>2016-08-26T09:03:28Z</time>
      </trkpt>
      <trkpt lat="45.88071" lon="4.76994">
        <ele>213</ele>
        <time>2016-08-26T09:03:29Z</time>
      </trkpt>
      <trkpt lat="45.88069" lon="4.77002">
        <ele>213</ele>
        <time>2016-08-26T09:03:30Z</time>
      </trkpt>
      <trkpt lat="45.88067" lon="4.7701">
        <ele>214</ele>
        <time>2016-08-26T09:03:31Z</time>
      </trkpt>
      <trkpt lat="45.88066" lon="4.77017">
        <ele>214</ele>
        <time>2016-08-26T09:03:32Z</time>
      </trkpt>
      <trkpt lat="45.88064" lon="4.77025">
        <ele>214</ele>
        <time>2016-08-26T09:03:33Z</time>
      </trkpt>
      <trkpt lat="45.88062" lon="4.77033">
        <ele>214</ele>
        <time>2016-08-26T09:03:34Z</time>
      </trkpt>
      <trkpt lat="45.8806" lon="4.77041">
        <ele>214</ele>
        <time>2016-08-26T09:03:35Z</time>
      </trkpt>
      <trkpt lat="45.88058" lon="4.77049">
        <ele>214</ele>
        <time>2016-08-26T09:03:36Z</time>
      </trkpt>
      <trkpt lat="45.88056" lon="4.77056">
        <ele>214</ele>
        <time>2016-08-26T09:03:37Z</time>
      </trkpt>
      <trkpt lat="45.88055" lon="4.77063">
        <ele>214</ele>
        <time>2016-08-26T09:03:38Z</time>
      </trkpt>
      <trkpt lat="45.88053" lon="4.77069">
        <ele>214</ele>
        <time>2016-08-26T09:03:39Z</time>
      </trkpt>
      <trkpt lat="45.88052" lon="4.77075">
        <ele>214</ele>
        <time>2016-08-26T09:03:40Z</time>
      </trkpt>
      <trkpt lat="45.8805" lon="4.77081">
        <ele>214</ele>
        <time>2016-08-26T09:03:41Z</time>
      </trkpt>
      <trkpt lat="45.88049" lon="4.77088">
        <ele>215</ele>
        <time>2016-08-26T09:03:42Z</time>
      </trkpt>
      <trkpt lat="45.88047" lon="4.77094">
        <ele>215</ele>
        <time>2016-08-26T09:03:43Z</time>
      </trkpt>
      <trkpt lat="45.88046" lon="4.77101">
        <ele>215</ele>
        <time>2016-08-26T09:03:44Z</time>
      </trkpt>
      <trkpt lat="45.88045" lon="4.77107">
        <ele>215</ele>
        <time>2016-08-26T09:03:45Z</time>
      </trkpt>
      <trkpt lat="45.88043" lon="4.77119">
        <ele>215</ele>
        <time>2016-08-26T09:03:47Z</time>
      </trkpt>
      <trkpt lat="45.88043" lon="4.77126">
        <ele>215</ele>
        <time>2016-08-26T09:03:48Z</time>
      </trkpt>
      <trkpt lat="45.88042" lon="4.77137">
        <ele>215</ele>
        <time>2016-08-26T09:03:50Z</time>
      </trkpt>
      <trkpt lat="45.88041" lon="4.77143">
        <ele>215</ele>
        <time>2016-08-26T09:03:51Z</time>
      </trkpt>
      <trkpt lat="45.88038" lon="4.77154">
        <ele>215</ele>
        <time>2016-08-26T09:03:53Z</time>
      </trkpt>
      <trkpt lat="45.88037" lon="4.77159">
        <ele>215</ele>
        <time>2016-08-26T09:03:54Z</time>
      </trkpt>
      <trkpt lat="45.88035" lon="4.77171">
        <ele>216</ele>
        <time>2016-08-26T09:03:56Z</time>
      </trkpt>
      <trkpt lat="45.88035" lon="4.77178">
        <ele>216</ele>
        <time>2016-08-26T09:03:57Z</time>
      </trkpt>
      <trkpt lat="45.88033" lon="4.77189">
        <ele>216</ele>
        <time>2016-08-26T09:03:59Z</time>
      </trkpt>
      <trkpt lat="45.88032" lon="4.77196">
        <ele>216</ele>
        <time>2016-08-26T09:04:00Z</time>
      </trkpt>
      <trkpt lat="45.88031" lon="4.77202">
        <ele>216</ele>
        <time>2016-08-26T09:04:01Z</time>
      </trkpt>
      <trkpt lat="45.88031" lon="4.77209">
        <ele>216</ele>
        <time>2016-08-26T09:04:02Z</time>
      </trkpt>
      <trkpt lat="45.88031" lon="4.77216">
        <ele>216</ele>
        <time>2016-08-26T09:04:03Z</time>
      </trkpt>
      <trkpt lat="45.8803" lon="4.77222">
        <ele>216</ele>
        <time>2016-08-26T09:04:04Z</time>
      </trkpt>
      <trkpt lat="45.88029" lon="4.77229">
        <ele>216</ele>
        <time>2016-08-26T09:04:05Z</time>
      </trkpt>
      <trkpt lat="45.88029" lon="4.77235">
        <ele>216</ele>
        <time>2016-08-26T09:04:06Z</time>
      </trkpt>
      <trkpt lat="45.88028" lon="4.77242">
        <ele>216</ele>
        <time>2016-08-26T09:04:07Z</time>
      </trkpt>
      <trkpt lat="45.88027" lon="4.77249">
        <ele>216</ele>
        <time>2016-08-26T09:04:08Z</time>
      </trkpt>
      <trkpt lat="45.88026" lon="4.77256">
        <ele>216</ele>
        <time>2016-08-26T09:04:09Z</time>
      </trkpt>
      <trkpt lat="45.88025" lon="4.77264">
        <ele>216</ele>
        <time>2016-08-26T09:04:10Z</time>
      </trkpt>
      <trkpt lat="45.88024" lon="4.77271">
        <ele>216</ele>
        <time>2016-08-26T09:04:11Z</time>
      </trkpt>
      <trkpt lat="45.88023" lon="4.77278">
        <ele>215</ele>
        <time>2016-08-26T09:04:12Z</time>
      </trkpt>
      <trkpt lat="45.88022" lon="4.77285">
        <ele>215</ele>
        <time>2016-08-26T09:04:13Z</time>
      </trkpt>
      <trkpt lat="45.8802" lon="4.77292">
        <ele>215</ele>
        <time>2016-08-26T09:04:14Z</time>
      </trkpt>
      <trkpt lat="45.88019" lon="4.77299">
        <ele>215</ele>
        <time>2016-08-26T09:04:15Z</time>
      </trkpt>
      <trkpt lat="45.88017" lon="4.77308">
        <ele>215</ele>
        <time>2016-08-26T09:04:16Z</time>
      </trkpt>
      <trkpt lat="45.88016" lon="4.77317">
        <ele>215</ele>
        <time>2016-08-26T09:04:17Z</time>
      </trkpt>
      <trkpt lat="45.88015" lon="4.77325">
        <ele>215</ele>
        <time>2016-08-26T09:04:18Z</time>
      </trkpt>
      <trkpt lat="45.88014" lon="4.77331">
        <ele>216</ele>
        <time>2016-08-26T09:04:19Z</time>
      </trkpt>
      <trkpt lat="45.88014" lon="4.77338">
        <ele>215</ele>
        <time>2016-08-26T09:04:20Z</time>
      </trkpt>
      <trkpt lat="45.88012" lon="4.77344">
        <ele>215</ele>
        <time>2016-08-26T09:04:21Z</time>
      </trkpt>
      <trkpt lat="45.88011" lon="4.77351">
        <ele>215</ele>
        <time>2016-08-26T09:04:22Z</time>
      </trkpt>
      <trkpt lat="45.8801" lon="4.77357">
        <ele>215</ele>
        <time>2016-08-26T09:04:23Z</time>
      </trkpt>
      <trkpt lat="45.88009" lon="4.77364">
        <ele>215</ele>
        <time>2016-08-26T09:04:24Z</time>
      </trkpt>
      <trkpt lat="45.88007" lon="4.7737">
        <ele>215</ele>
        <time>2016-08-26T09:04:25Z</time>
      </trkpt>
      <trkpt lat="45.88006" lon="4.77377">
        <ele>215</ele>
        <time>2016-08-26T09:04:26Z</time>
      </trkpt>
      <trkpt lat="45.88005" lon="4.77384">
        <ele>215</ele>
        <time>2016-08-26T09:04:27Z</time>
      </trkpt>
      <trkpt lat="45.88003" lon="4.7739">
        <ele>215</ele>
        <time>2016-08-26T09:04:28Z</time>
      </trkpt>
      <trkpt lat="45.88002" lon="4.77397">
        <ele>215</ele>
        <time>2016-08-26T09:04:29Z</time>
      </trkpt>
      <trkpt lat="45.88001" lon="4.77404">
        <ele>215</ele>
        <time>2016-08-26T09:04:30Z</time>
      </trkpt>
      <trkpt lat="45.88" lon="4.77411">
        <ele>216</ele>
        <time>2016-08-26T09:04:31Z</time>
      </trkpt>
      <trkpt lat="45.87999" lon="4.77419">
        <ele>215</ele>
        <time>2016-08-26T09:04:32Z</time>
      </trkpt>
      <trkpt lat="45.87998" lon="4.77427">
        <ele>216</ele>
        <time>2016-08-26T09:04:33Z</time>
      </trkpt>
      <trkpt lat="45.87997" lon="4.77434">
        <ele>216</ele>
        <time>2016-08-26T09:04:34Z</time>
      </trkpt>
      <trkpt lat="45.87997" lon="4.77441">
        <ele>216</ele>
        <time>2016-08-26T09:04:35Z</time>
      </trkpt>
      <trkpt lat="45.87996" lon="4.77447">
        <ele>216</ele>
        <time>2016-08-26T09:04:36Z</time>
      </trkpt>
      <trkpt lat="45.87995" lon="4.77454">
        <ele>217</ele>
        <time>2016-08-26T09:04:37Z</time>
      </trkpt>
      <trkpt lat="45.87994" lon="4.7746">
        <ele>217</ele>
        <time>2016-08-26T09:04:38Z</time>
      </trkpt>
      <trkpt lat="45.87994" lon="4.77467">
        <ele>217</ele>
        <time>2016-08-26T09:04:39Z</time>
      </trkpt>
      <trkpt lat="45.87993" lon="4.77474">
        <ele>217</ele>
        <time>2016-08-26T09:04:40Z</time>
      </trkpt>
      <trkpt lat="45.87993" lon="4.77481">
        <ele>217</ele>
        <time>2016-08-26T09:04:41Z</time>
      </trkpt>
      <trkpt lat="45.87991" lon="4.77488">
        <ele>216</ele>
        <time>2016-08-26T09:04:42Z</time>
      </trkpt>
      <trkpt lat="45.87991" lon="4.77496">
        <ele>216</ele>
        <time>2016-08-26T09:04:43Z</time>
      </trkpt>
      <trkpt lat="45.8799" lon="4.77503">
        <ele>217</ele>
        <time>2016-08-26T09:04:44Z</time>
      </trkpt>
      <trkpt lat="45.8799" lon="4.7751">
        <ele>217</ele>
        <time>2016-08-26T09:04:45Z</time>
      </trkpt>
      <trkpt lat="45.87989" lon="4.77517">
        <ele>217</ele>
        <time>2016-08-26T09:04:46Z</time>
      </trkpt>
      <trkpt lat="45.87988" lon="4.7753">
        <ele>217</ele>
        <time>2016-08-26T09:04:48Z</time>
      </trkpt>
      <trkpt lat="45.87986" lon="4.77537">
        <ele>217</ele>
        <time>2016-08-26T09:04:49Z</time>
      </trkpt>
      <trkpt lat="45.87985" lon="4.77544">
        <ele>217</ele>
        <time>2016-08-26T09:04:50Z</time>
      </trkpt>
      <trkpt lat="45.87984" lon="4.77551">
        <ele>217</ele>
        <time>2016-08-26T09:04:51Z</time>
      </trkpt>
      <trkpt lat="45.87983" lon="4.77557">
        <ele>217</ele>
        <time>2016-08-26T09:04:52Z</time>
      </trkpt>
      <trkpt lat="45.87982" lon="4.77564">
        <ele>217</ele>
        <time>2016-08-26T09:04:53Z</time>
      </trkpt>
      <trkpt lat="45.87981" lon="4.77572">
        <ele>217</ele>
        <time>2016-08-26T09:04:54Z</time>
      </trkpt>
      <trkpt lat="45.8798" lon="4.77579">
        <ele>217</ele>
        <time>2016-08-26T09:04:55Z</time>
      </trkpt>
      <trkpt lat="45.87978" lon="4.77587">
        <ele>218</ele>
        <time>2016-08-26T09:04:56Z</time>
      </trkpt>
      <trkpt lat="45.87976" lon="4.77595">
        <ele>218</ele>
        <time>2016-08-26T09:04:57Z</time>
      </trkpt>
      <trkpt lat="45.87974" lon="4.77602">
        <ele>218</ele>
        <time>2016-08-26T09:04:58Z</time>
      </trkpt>
      <trkpt lat="45.87973" lon="4.77609">
        <ele>218</ele>
        <time>2016-08-26T09:04:59Z</time>
      </trkpt>
      <trkpt lat="45.87971" lon="4.77616">
        <ele>218</ele>
        <time>2016-08-26T09:05:00Z</time>
      </trkpt>
      <trkpt lat="45.8797" lon="4.77623">
        <ele>218</ele>
        <time>2016-08-26T09:05:01Z</time>
      </trkpt>
      <trkpt lat="45.87966" lon="4.77634">
        <ele>218</ele>
        <time>2016-08-26T09:05:03Z</time>
      </trkpt>
      <trkpt lat="45.87964" lon="4.7764">
        <ele>218</ele>
        <time>2016-08-26T09:05:04Z</time>
      </trkpt>
      <trkpt lat="45.87961" lon="4.77651">
        <ele>218</ele>
        <time>2016-08-26T09:05:06Z</time>
      </trkpt>
      <trkpt lat="45.87959" lon="4.77657">
        <ele>218</ele>
        <time>2016-08-26T09:05:07Z</time>
      </trkpt>
      <trkpt lat="45.87956" lon="4.77663">
        <ele>218</ele>
        <time>2016-08-26T09:05:08Z</time>
      </trkpt>
      <trkpt lat="45.87954" lon="4.77669">
        <ele>218</ele>
        <time>2016-08-26T09:05:09Z</time>
      </trkpt>
      <trkpt lat="45.87952" lon="4.77676">
        <ele>218</ele>
        <time>2016-08-26T09:05:10Z</time>
      </trkpt>
      <trkpt lat="45.87951" lon="4.77684">
        <ele>218</ele>
        <time>2016-08-26T09:05:11Z</time>
      </trkpt>
      <trkpt lat="45.8795" lon="4.77692">
        <ele>218</ele>
        <time>2016-08-26T09:05:12Z</time>
      </trkpt>
      <trkpt lat="45.87949" lon="4.777">
        <ele>218</ele>
        <time>2016-08-26T09:05:13Z</time>
      </trkpt>
      <trkpt lat="45.87949" lon="4.77708">
        <ele>218</ele>
        <time>2016-08-26T09:05:14Z</time>
      </trkpt>
      <trkpt lat="45.8795" lon="4.77716">
        <ele>219</ele>
        <time>2016-08-26T09:05:15Z</time>
      </trkpt>
      <trkpt lat="45.8795" lon="4.77723">
        <ele>219</ele>
        <time>2016-08-26T09:05:16Z</time>
      </trkpt>
      <trkpt lat="45.8795" lon="4.77731">
        <ele>219</ele>
        <time>2016-08-26T09:05:17Z</time>
      </trkpt>
      <trkpt lat="45.87952" lon="4.77738">
        <ele>219</ele>
        <time>2016-08-26T09:05:18Z</time>
      </trkpt>
      <trkpt lat="45.87953" lon="4.77746">
        <ele>219</ele>
        <time>2016-08-26T09:05:19Z</time>
      </trkpt>
      <trkpt lat="45.87953" lon="4.77752">
        <ele>219</ele>
        <time>2016-08-26T09:05:20Z</time>
      </trkpt>
      <trkpt lat="45.87954" lon="4.77759">
        <ele>219</ele>
        <time>2016-08-26T09:05:21Z</time>
      </trkpt>
      <trkpt lat="45.87955" lon="4.77767">
        <ele>219</ele>
        <time>2016-08-26T09:05:22Z</time>
      </trkpt>
      <trkpt lat="45.87956" lon="4.77774">
        <ele>219</ele>
        <time>2016-08-26T09:05:23Z</time>
      </trkpt>
      <trkpt lat="45.87957" lon="4.77781">
        <ele>219</ele>
        <time>2016-08-26T09:05:24Z</time>
      </trkpt>
      <trkpt lat="45.87958" lon="4.77789">
        <ele>219</ele>
        <time>2016-08-26T09:05:25Z</time>
      </trkpt>
      <trkpt lat="45.87959" lon="4.77796">
        <ele>219</ele>
        <time>2016-08-26T09:05:26Z</time>
      </trkpt>
      <trkpt lat="45.87959" lon="4.77803">
        <ele>219</ele>
        <time>2016-08-26T09:05:27Z</time>
      </trkpt>
      <trkpt lat="45.8796" lon="4.7781">
        <ele>219</ele>
        <time>2016-08-26T09:05:28Z</time>
      </trkpt>
      <trkpt lat="45.87961" lon="4.77816">
        <ele>219</ele>
        <time>2016-08-26T09:05:29Z</time>
      </trkpt>
      <trkpt lat="45.87961" lon="4.77823">
        <ele>219</ele>
        <time>2016-08-26T09:05:30Z</time>
      </trkpt>
      <trkpt lat="45.87962" lon="4.7783">
        <ele>219</ele>
        <time>2016-08-26T09:05:31Z</time>
      </trkpt>
      <trkpt lat="45.87963" lon="4.77838">
        <ele>219</ele>
        <time>2016-08-26T09:05:32Z</time>
      </trkpt>
      <trkpt lat="45.87963" lon="4.77845">
        <ele>219</ele>
        <time>2016-08-26T09:05:33Z</time>
      </trkpt>
      <trkpt lat="45.87962" lon="4.77853">
        <ele>219</ele>
        <time>2016-08-26T09:05:34Z</time>
      </trkpt>
      <trkpt lat="45.87962" lon="4.77862">
        <ele>220</ele>
        <time>2016-08-26T09:05:35Z</time>
      </trkpt>
      <trkpt lat="45.87961" lon="4.7787">
        <ele>220</ele>
        <time>2016-08-26T09:05:36Z</time>
      </trkpt>
      <trkpt lat="45.87961" lon="4.77877">
        <ele>220</ele>
        <time>2016-08-26T09:05:37Z</time>
      </trkpt>
      <trkpt lat="45.87962" lon="4.77885">
        <ele>220</ele>
        <time>2016-08-26T09:05:38Z</time>
      </trkpt>
      <trkpt lat="45.87962" lon="4.77892">
        <ele>220</ele>
        <time>2016-08-26T09:05:39Z</time>
      </trkpt>
      <trkpt lat="45.87962" lon="4.77899">
        <ele>220</ele>
        <time>2016-08-26T09:05:40Z</time>
      </trkpt>
      <trkpt lat="45.87963" lon="4.77905">
        <ele>220</ele>
        <time>2016-08-26T09:05:41Z</time>
      </trkpt>
      <trkpt lat="45.87965" lon="4.77917">
        <ele>220</ele>
        <time>2016-08-26T09:05:43Z</time>
      </trkpt>
      <trkpt lat="45.87967" lon="4.77923">
        <ele>220</ele>
        <time>2016-08-26T09:05:44Z</time>
      </trkpt>
      <trkpt lat="45.87968" lon="4.77934">
        <ele>220</ele>
        <time>2016-08-26T09:05:46Z</time>
      </trkpt>
      <trkpt lat="45.87969" lon="4.7794">
        <ele>220</ele>
        <time>2016-08-26T09:05:47Z</time>
      </trkpt>
      <trkpt lat="45.87969" lon="4.77952">
        <ele>220</ele>
        <time>2016-08-26T09:05:49Z</time>
      </trkpt>
      <trkpt lat="45.87972" lon="4.77958">
        <ele>220</ele>
        <time>2016-08-26T09:05:50Z</time>
      </trkpt>
      <trkpt lat="45.87974" lon="4.77964">
        <ele>219</ele>
        <time>2016-08-26T09:05:51Z</time>
      </trkpt>
      <trkpt lat="45.87975" lon="4.77971">
        <ele>219</ele>
        <time>2016-08-26T09:05:52Z</time>
      </trkpt>
      <trkpt lat="45.87977" lon="4.77979">
        <ele>219</ele>
        <time>2016-08-26T09:05:53Z</time>
      </trkpt>
      <trkpt lat="45.87979" lon="4.77986">
        <ele>219</ele>
        <time>2016-08-26T09:05:54Z</time>
      </trkpt>
      <trkpt lat="45.8798" lon="4.77994">
        <ele>219</ele>
        <time>2016-08-26T09:05:55Z</time>
      </trkpt>
      <trkpt lat="45.87981" lon="4.78002">
        <ele>218</ele>
        <time>2016-08-26T09:05:56Z</time>
      </trkpt>
      <trkpt lat="45.87982" lon="4.7801">
        <ele>218</ele>
        <time>2016-08-26T09:05:57Z</time>
      </trkpt>
      <trkpt lat="45.87983" lon="4.78018">
        <ele>218</ele>
        <time>2016-08-26T09:05:58Z</time>
      </trkpt>
      <trkpt lat="45.87984" lon="4.78026">
        <ele>218</ele>
        <time>2016-08-26T09:05:59Z</time>
      </trkpt>
      <trkpt lat="45.87985" lon="4.78035">
        <ele>218</ele>
        <time>2016-08-26T09:06:00Z</time>
      </trkpt>
      <trkpt lat="45.87986" lon="4.78042">
        <ele>217</ele>
        <time>2016-08-26T09:06:01Z</time>
      </trkpt>
      <trkpt lat="45.87988" lon="4.78051">
        <ele>217</ele>
        <time>2016-08-26T09:06:02Z</time>
      </trkpt>
      <trkpt lat="45.87989" lon="4.78058">
        <ele>217</ele>
        <time>2016-08-26T09:06:03Z</time>
      </trkpt>
      <trkpt lat="45.8799" lon="4.78066">
        <ele>217</ele>
        <time>2016-08-26T09:06:04Z</time>
      </trkpt>
      <trkpt lat="45.87992" lon="4.78074">
        <ele>216</ele>
        <time>2016-08-26T09:06:05Z</time>
      </trkpt>
      <trkpt lat="45.87994" lon="4.78082">
        <ele>216</ele>
        <time>2016-08-26T09:06:06Z</time>
      </trkpt>
      <trkpt lat="45.87995" lon="4.7809">
        <ele>215</ele>
        <time>2016-08-26T09:06:07Z</time>
      </trkpt>
      <trkpt lat="45.87996" lon="4.78097">
        <ele>216</ele>
        <time>2016-08-26T09:06:08Z</time>
      </trkpt>
      <trkpt lat="45.87997" lon="4.78105">
        <ele>216</ele>
        <time>2016-08-26T09:06:09Z</time>
      </trkpt>
      <trkpt lat="45.87998" lon="4.78113">
        <ele>216</ele>
        <time>2016-08-26T09:06:10Z</time>
      </trkpt>
      <trkpt lat="45.87999" lon="4.78121">
        <ele>216</ele>
        <time>2016-08-26T09:06:11Z</time>
      </trkpt>
      <trkpt lat="45.88" lon="4.7813">
        <ele>216</ele>
        <time>2016-08-26T09:06:12Z</time>
      </trkpt>
      <trkpt lat="45.88" lon="4.78138">
        <ele>214</ele>
        <time>2016-08-26T09:06:13Z</time>
      </trkpt>
      <trkpt lat="45.88001" lon="4.78146">
        <ele>214</ele>
        <time>2016-08-26T09:06:14Z</time>
      </trkpt>
      <trkpt lat="45.88001" lon="4.78155">
        <ele>214</ele>
        <time>2016-08-26T09:06:15Z</time>
      </trkpt>
      <trkpt lat="45.88002" lon="4.78164">
        <ele>215</ele>
        <time>2016-08-26T09:06:16Z</time>
      </trkpt>
      <trkpt lat="45.88002" lon="4.78173">
        <ele>215</ele>
        <time>2016-08-26T09:06:17Z</time>
      </trkpt>
      <trkpt lat="45.88002" lon="4.78183">
        <ele>214</ele>
        <time>2016-08-26T09:06:18Z</time>
      </trkpt>
      <trkpt lat="45.88002" lon="4.78193">
        <ele>214</ele>
        <time>2016-08-26T09:06:19Z</time>
      </trkpt>
      <trkpt lat="45.88001" lon="4.78202">
        <ele>214</ele>
        <time>2016-08-26T09:06:20Z</time>
      </trkpt>
      <trkpt lat="45.88" lon="4.78213">
        <ele>214</ele>
        <time>2016-08-26T09:06:21Z</time>
      </trkpt>
      <trkpt lat="45.87999" lon="4.78221">
        <ele>215</ele>
        <time>2016-08-26T09:06:22Z</time>
      </trkpt>
      <trkpt lat="45.87998" lon="4.7823">
        <ele>215</ele>
        <time>2016-08-26T09:06:23Z</time>
      </trkpt>
      <trkpt lat="45.87996" lon="4.7824">
        <ele>215</ele>
        <time>2016-08-26T09:06:24Z</time>
      </trkpt>
      <trkpt lat="45.87995" lon="4.78249">
        <ele>214</ele>
        <time>2016-08-26T09:06:25Z</time>
      </trkpt>
      <trkpt lat="45.87994" lon="4.78258">
        <ele>214</ele>
        <time>2016-08-26T09:06:26Z</time>
      </trkpt>
      <trkpt lat="45.87993" lon="4.78266">
        <ele>215</ele>
        <time>2016-08-26T09:06:27Z</time>
      </trkpt>
      <trkpt lat="45.87992" lon="4.78274">
        <ele>215</ele>
        <time>2016-08-26T09:06:28Z</time>
      </trkpt>
      <trkpt lat="45.8799" lon="4.78282">
        <ele>215</ele>
        <time>2016-08-26T09:06:29Z</time>
      </trkpt>
      <trkpt lat="45.87989" lon="4.78291">
        <ele>215</ele>
        <time>2016-08-26T09:06:30Z</time>
      </trkpt>
      <trkpt lat="45.87988" lon="4.78299">
        <ele>215</ele>
        <time>2016-08-26T09:06:31Z</time>
      </trkpt>
      <trkpt lat="45.87986" lon="4.78307">
        <ele>215</ele>
        <time>2016-08-26T09:06:32Z</time>
      </trkpt>
      <trkpt lat="45.87985" lon="4.78316">
        <ele>215</ele>
        <time>2016-08-26T09:06:33Z</time>
      </trkpt>
      <trkpt lat="45.87984" lon="4.78324">
        <ele>215</ele>
        <time>2016-08-26T09:06:34Z</time>
      </trkpt>
      <trkpt lat="45.87984" lon="4.78332">
        <ele>215</ele>
        <time>2016-08-26T09:06:35Z</time>
      </trkpt>
      <trkpt lat="45.87983" lon="4.78341">
        <ele>215</ele>
        <time>2016-08-26T09:06:36Z</time>
      </trkpt>
      <trkpt lat="45.87982" lon="4.7835">
        <ele>215</ele>
        <time>2016-08-26T09:06:37Z</time>
      </trkpt>
      <trkpt lat="45.87983" lon="4.78358">
        <ele>215</ele>
        <time>2016-08-26T09:06:38Z</time>
      </trkpt>
      <trkpt lat="45.87983" lon="4.78365">
        <ele>215</ele>
        <time>2016-08-26T09:06:39Z</time>
      </trkpt>
      <trkpt lat="45.87983" lon="4.78373">
        <ele>215</ele>
        <time>2016-08-26T09:06:40Z</time>
      </trkpt>
      <trkpt lat="45.87984" lon="4.7838">
        <ele>215</ele>
        <time>2016-08-26T09:06:41Z</time>
      </trkpt>
      <trkpt lat="45.87985" lon="4.78388">
        <ele>215</ele>
        <time>2016-08-26T09:06:42Z</time>
      </trkpt>
      <trkpt lat="45.87986" lon="4.78395">
        <ele>214</ele>
        <time>2016-08-26T09:06:43Z</time>
      </trkpt>
      <trkpt lat="45.87987" lon="4.78401">
        <ele>214</ele>
        <time>2016-08-26T09:06:44Z</time>
      </trkpt>
      <trkpt lat="45.87985" lon="4.78412">
        <ele>214</ele>
        <time>2016-08-26T09:06:46Z</time>
      </trkpt>
      <trkpt lat="45.87983" lon="4.78415">
        <ele>214</ele>
        <time>2016-08-26T09:06:47Z</time>
      </trkpt>
      <trkpt lat="45.87976" lon="4.78419">
        <ele>215</ele>
        <time>2016-08-26T09:06:49Z</time>
      </trkpt>
      <trkpt lat="45.87972" lon="4.78419">
        <ele>215</ele>
        <time>2016-08-26T09:06:50Z</time>
      </trkpt>
      <trkpt lat="45.87968" lon="4.78419">
        <ele>215</ele>
        <time>2016-08-26T09:06:51Z</time>
      </trkpt>
      <trkpt lat="45.87963" lon="4.7842">
        <ele>215</ele>
        <time>2016-08-26T09:06:52Z</time>
      </trkpt>
      <trkpt lat="45.87955" lon="4.7842">
        <ele>216</ele>
        <time>2016-08-26T09:06:54Z</time>
      </trkpt>
      <trkpt lat="45.87951" lon="4.78421">
        <ele>216</ele>
        <time>2016-08-26T09:06:55Z</time>
      </trkpt>
      <trkpt lat="45.87944" lon="4.78423">
        <ele>216</ele>
        <time>2016-08-26T09:06:57Z</time>
      </trkpt>
      <trkpt lat="45.8794" lon="4.78424">
        <ele>216</ele>
        <time>2016-08-26T09:06:58Z</time>
      </trkpt>
      <trkpt lat="45.87932" lon="4.78426">
        <ele>216</ele>
        <time>2016-08-26T09:07:00Z</time>
      </trkpt>
      <trkpt lat="45.87928" lon="4.78428">
        <ele>216</ele>
        <time>2016-08-26T09:07:01Z</time>
      </trkpt>
      <trkpt lat="45.8792" lon="4.7843">
        <ele>217</ele>
        <time>2016-08-26T09:07:03Z</time>
      </trkpt>
      <trkpt lat="45.87916" lon="4.7843">
        <ele>219</ele>
        <time>2016-08-26T09:07:04Z</time>
      </trkpt>
      <trkpt lat="45.87909" lon="4.78432">
        <ele>219</ele>
        <time>2016-08-26T09:07:06Z</time>
      </trkpt>
      <trkpt lat="45.87905" lon="4.78433">
        <ele>219</ele>
        <time>2016-08-26T09:07:07Z</time>
      </trkpt>
      <trkpt lat="45.87897" lon="4.78435">
        <ele>220</ele>
        <time>2016-08-26T09:07:09Z</time>
      </trkpt>
      <trkpt lat="45.87894" lon="4.78436">
        <ele>220</ele>
        <time>2016-08-26T09:07:10Z</time>
      </trkpt>
      <trkpt lat="45.87887" lon="4.78439">
        <ele>220</ele>
        <time>2016-08-26T09:07:12Z</time>
      </trkpt>
      <trkpt lat="45.87883" lon="4.7844">
        <ele>221</ele>
        <time>2016-08-26T09:07:13Z</time>
      </trkpt>
      <trkpt lat="45.87875" lon="4.78442">
        <ele>221</ele>
        <time>2016-08-26T09:07:16Z</time>
      </trkpt>
      <trkpt lat="45.87871" lon="4.78442">
        <ele>221</ele>
        <time>2016-08-26T09:07:17Z</time>
      </trkpt>
      <trkpt lat="45.87865" lon="4.78444">
        <ele>221</ele>
        <time>2016-08-26T09:07:19Z</time>
      </trkpt>
      <trkpt lat="45.87862" lon="4.78445">
        <ele>222</ele>
        <time>2016-08-26T09:07:20Z</time>
      </trkpt>
      <trkpt lat="45.87855" lon="4.78448">
        <ele>222</ele>
        <time>2016-08-26T09:07:22Z</time>
      </trkpt>
      <trkpt lat="45.8785" lon="4.7845">
        <ele>222</ele>
        <time>2016-08-26T09:07:23Z</time>
      </trkpt>
      <trkpt lat="45.87842" lon="4.78453">
        <ele>222</ele>
        <time>2016-08-26T09:07:25Z</time>
      </trkpt>
      <trkpt lat="45.87838" lon="4.78454">
        <ele>222</ele>
        <time>2016-08-26T09:07:26Z</time>
      </trkpt>
      <trkpt lat="45.8783" lon="4.78455">
        <ele>225</ele>
        <time>2016-08-26T09:07:28Z</time>
      </trkpt>
      <trkpt lat="45.87827" lon="4.78455">
        <ele>225</ele>
        <time>2016-08-26T09:07:29Z</time>
      </trkpt>
      <trkpt lat="45.8782" lon="4.78454">
        <ele>225</ele>
        <time>2016-08-26T09:07:31Z</time>
      </trkpt>
      <trkpt lat="45.87817" lon="4.78453">
        <ele>225</ele>
        <time>2016-08-26T09:07:32Z</time>
      </trkpt>
      <trkpt lat="45.8781" lon="4.78455">
        <ele>226</ele>
        <time>2016-08-26T09:07:34Z</time>
      </trkpt>
      <trkpt lat="45.87808" lon="4.78458">
        <ele>226</ele>
        <time>2016-08-26T09:07:35Z</time>
      </trkpt>
      <trkpt lat="45.87807" lon="4.78468">
        <ele>226</ele>
        <time>2016-08-26T09:07:37Z</time>
      </trkpt>
      <trkpt lat="45.87807" lon="4.78473">
        <ele>226</ele>
        <time>2016-08-26T09:07:38Z</time>
      </trkpt>
      <trkpt lat="45.87808" lon="4.78484">
        <ele>226</ele>
        <time>2016-08-26T09:07:40Z</time>
      </trkpt>
      <trkpt lat="45.8781" lon="4.7849">
        <ele>226</ele>
        <time>2016-08-26T09:07:41Z</time>
      </trkpt>
      <trkpt lat="45.87813" lon="4.78496">
        <ele>226</ele>
        <time>2016-08-26T09:07:42Z</time>
      </trkpt>
      <trkpt lat="45.87814" lon="4.78502">
        <ele>227</ele>
        <time>2016-08-26T09:07:43Z</time>
      </trkpt>
      <trkpt lat="45.87818" lon="4.78513">
        <ele>228</ele>
        <time>2016-08-26T09:07:45Z</time>
      </trkpt>
      <trkpt lat="45.87819" lon="4.78519">
        <ele>228</ele>
        <time>2016-08-26T09:07:46Z</time>
      </trkpt>
      <trkpt lat="45.87821" lon="4.78531">
        <ele>228</ele>
        <time>2016-08-26T09:07:48Z</time>
      </trkpt>
      <trkpt lat="45.87822" lon="4.78536">
        <ele>228</ele>
        <time>2016-08-26T09:07:49Z</time>
      </trkpt>
      <trkpt lat="45.87824" lon="4.78547">
        <ele>228</ele>
        <time>2016-08-26T09:07:51Z</time>
      </trkpt>
      <trkpt lat="45.87824" lon="4.78552">
        <ele>228</ele>
        <time>2016-08-26T09:07:52Z</time>
      </trkpt>
      <trkpt lat="45.87825" lon="4.78565">
        <ele>228</ele>
        <time>2016-08-26T09:07:54Z</time>
      </trkpt>
      <trkpt lat="45.87826" lon="4.78571">
        <ele>228</ele>
        <time>2016-08-26T09:07:55Z</time>
      </trkpt>
      <trkpt lat="45.87828" lon="4.78583">
        <ele>228</ele>
        <time>2016-08-26T09:07:57Z</time>
      </trkpt>
      <trkpt lat="45.87829" lon="4.78589">
        <ele>229</ele>
        <time>2016-08-26T09:07:58Z</time>
      </trkpt>
      <trkpt lat="45.87831" lon="4.786">
        <ele>229</ele>
        <time>2016-08-26T09:08:00Z</time>
      </trkpt>
      <trkpt lat="45.87832" lon="4.78606">
        <ele>229</ele>
        <time>2016-08-26T09:08:01Z</time>
      </trkpt>
      <trkpt lat="45.87835" lon="4.78618">
        <ele>226</ele>
        <time>2016-08-26T09:08:03Z</time>
      </trkpt>
      <trkpt lat="45.87836" lon="4.78624">
        <ele>226</ele>
        <time>2016-08-26T09:08:04Z</time>
      </trkpt>
      <trkpt lat="45.87839" lon="4.78635">
        <ele>226</ele>
        <time>2016-08-26T09:08:06Z</time>
      </trkpt>
      <trkpt lat="45.8784" lon="4.78642">
        <ele>226</ele>
        <time>2016-08-26T09:08:07Z</time>
      </trkpt>
      <trkpt lat="45.87841" lon="4.78654">
        <ele>227</ele>
        <time>2016-08-26T09:08:09Z</time>
      </trkpt>
      <trkpt lat="45.87842" lon="4.78659">
        <ele>227</ele>
        <time>2016-08-26T09:08:10Z</time>
      </trkpt>
      <trkpt lat="45.87844" lon="4.7867">
        <ele>227</ele>
        <time>2016-08-26T09:08:12Z</time>
      </trkpt>
      <trkpt lat="45.87845" lon="4.78677">
        <ele>226</ele>
        <time>2016-08-26T09:08:13Z</time>
      </trkpt>
      <trkpt lat="45.87845" lon="4.78683">
        <ele>226</ele>
        <time>2016-08-26T09:08:14Z</time>
      </trkpt>
      <trkpt lat="45.87846" lon="4.7869">
        <ele>226</ele>
        <time>2016-08-26T09:08:15Z</time>
      </trkpt>
      <trkpt lat="45.87846" lon="4.78698">
        <ele>226</ele>
        <time>2016-08-26T09:08:16Z</time>
      </trkpt>
      <trkpt lat="45.87847" lon="4.78704">
        <ele>226</ele>
        <time>2016-08-26T09:08:17Z</time>
      </trkpt>
      <trkpt lat="45.87848" lon="4.78716">
        <ele>226</ele>
        <time>2016-08-26T09:08:19Z</time>
      </trkpt>
      <trkpt lat="45.87848" lon="4.78723">
        <ele>226</ele>
        <time>2016-08-26T09:08:20Z</time>
      </trkpt>
      <trkpt lat="45.8785" lon="4.78735">
        <ele>226</ele>
        <time>2016-08-26T09:08:22Z</time>
      </trkpt>
      <trkpt lat="45.8785" lon="4.7874">
        <ele>226</ele>
        <time>2016-08-26T09:08:23Z</time>
      </trkpt>
      <trkpt lat="45.87853" lon="4.78749">
        <ele>226</ele>
        <time>2016-08-26T09:08:25Z</time>
      </trkpt>
      <trkpt lat="45.87853" lon="4.78754">
        <ele>226</ele>
        <time>2016-08-26T09:08:26Z</time>
      </trkpt>
      <trkpt lat="45.87854" lon="4.78766">
        <ele>226</ele>
        <time>2016-08-26T09:08:28Z</time>
      </trkpt>
      <trkpt lat="45.87855" lon="4.78772">
        <ele>226</ele>
        <time>2016-08-26T09:08:29Z</time>
      </trkpt>
      <trkpt lat="45.87855" lon="4.78784">
        <ele>226</ele>
        <time>2016-08-26T09:08:31Z</time>
      </trkpt>
      <trkpt lat="45.87855" lon="4.7879">
        <ele>226</ele>
        <time>2016-08-26T09:08:32Z</time>
      </trkpt>
      <trkpt lat="45.87855" lon="4.78802">
        <ele>226</ele>
        <time>2016-08-26T09:08:34Z</time>
      </trkpt>
      <trkpt lat="45.87855" lon="4.78808">
        <ele>226</ele>
        <time>2016-08-26T09:08:35Z</time>
      </trkpt>
      <trkpt lat="45.87854" lon="4.78819">
        <ele>226</ele>
        <time>2016-08-26T09:08:37Z</time>
      </trkpt>
      <trkpt lat="45.87853" lon="4.78825">
        <ele>227</ele>
        <time>2016-08-26T09:08:38Z</time>
      </trkpt>
      <trkpt lat="45.8785" lon="4.78837">
        <ele>227</ele>
        <time>2016-08-26T09:08:40Z</time>
      </trkpt>
      <trkpt lat="45.87849" lon="4.78842">
        <ele>227</ele>
        <time>2016-08-26T09:08:41Z</time>
      </trkpt>
      <trkpt lat="45.87848" lon="4.78849">
        <ele>226</ele>
        <time>2016-08-26T09:08:42Z</time>
      </trkpt>
      <trkpt lat="45.87846" lon="4.78854">
        <ele>226</ele>
        <time>2016-08-26T09:08:43Z</time>
      </trkpt>
      <trkpt lat="45.87845" lon="4.78866">
        <ele>226</ele>
        <time>2016-08-26T09:08:45Z</time>
      </trkpt>
      <trkpt lat="45.87843" lon="4.78871">
        <ele>226</ele>
        <time>2016-08-26T09:08:46Z</time>
      </trkpt>
      <trkpt lat="45.8784" lon="4.78883">
        <ele>225</ele>
        <time>2016-08-26T09:08:48Z</time>
      </trkpt>
      <trkpt lat="45.87839" lon="4.78888">
        <ele>225</ele>
        <time>2016-08-26T09:08:49Z</time>
      </trkpt>
      <trkpt lat="45.87838" lon="4.78895">
        <ele>226</ele>
        <time>2016-08-26T09:08:50Z</time>
      </trkpt>
      <trkpt lat="45.87838" lon="4.78902">
        <ele>226</ele>
        <time>2016-08-26T09:08:51Z</time>
      </trkpt>
      <trkpt lat="45.87837" lon="4.78908">
        <ele>226</ele>
        <time>2016-08-26T09:08:52Z</time>
      </trkpt>
      <trkpt lat="45.87837" lon="4.78915">
        <ele>227</ele>
        <time>2016-08-26T09:08:53Z</time>
      </trkpt>
      <trkpt lat="45.87837" lon="4.78922">
        <ele>226</ele>
        <time>2016-08-26T09:08:54Z</time>
      </trkpt>
      <trkpt lat="45.87837" lon="4.78929">
        <ele>226</ele>
        <time>2016-08-26T09:08:55Z</time>
      </trkpt>
      <trkpt lat="45.87838" lon="4.78938">
        <ele>226</ele>
        <time>2016-08-26T09:08:56Z</time>
      </trkpt>
      <trkpt lat="45.87837" lon="4.78945">
        <ele>225</ele>
        <time>2016-08-26T09:08:57Z</time>
      </trkpt>
      <trkpt lat="45.87837" lon="4.78952">
        <ele>225</ele>
        <time>2016-08-26T09:08:58Z</time>
      </trkpt>
      <trkpt lat="45.87837" lon="4.78958">
        <ele>225</ele>
        <time>2016-08-26T09:08:59Z</time>
      </trkpt>
      <trkpt lat="45.87838" lon="4.78965">
        <ele>226</ele>
        <time>2016-08-26T09:09:00Z</time>
      </trkpt>
      <trkpt lat="45.87839" lon="4.78971">
        <ele>226</ele>
        <time>2016-08-26T09:09:01Z</time>
      </trkpt>
      <trkpt lat="45.87839" lon="4.78983">
        <ele>227</ele>
        <time>2016-08-26T09:09:03Z</time>
      </trkpt>
      <trkpt lat="45.8784" lon="4.7899">
        <ele>227</ele>
        <time>2016-08-26T09:09:04Z</time>
      </trkpt>
      <trkpt lat="45.87841" lon="4.79001">
        <ele>228</ele>
        <time>2016-08-26T09:09:06Z</time>
      </trkpt>
      <trkpt lat="45.87841" lon="4.79007">
        <ele>228</ele>
        <time>2016-08-26T09:09:07Z</time>
      </trkpt>
      <trkpt lat="45.87843" lon="4.79019">
        <ele>228</ele>
        <time>2016-08-26T09:09:09Z</time>
      </trkpt>
      <trkpt lat="45.87844" lon="4.79025">
        <ele>228</ele>
        <time>2016-08-26T09:09:10Z</time>
      </trkpt>
      <trkpt lat="45.87845" lon="4.79035">
        <ele>228</ele>
        <time>2016-08-26T09:09:12Z</time>
      </trkpt>
      <trkpt lat="45.87846" lon="4.7904">
        <ele>228</ele>
        <time>2016-08-26T09:09:13Z</time>
      </trkpt>
      <trkpt lat="45.87847" lon="4.79049">
        <ele>228</ele>
        <time>2016-08-26T09:09:15Z</time>
      </trkpt>
      <trkpt lat="45.87848" lon="4.79054">
        <ele>228</ele>
        <time>2016-08-26T09:09:16Z</time>
      </trkpt>
      <trkpt lat="45.8785" lon="4.79065">
        <ele>229</ele>
        <time>2016-08-26T09:09:18Z</time>
      </trkpt>
      <trkpt lat="45.8785" lon="4.7907">
        <ele>229</ele>
        <time>2016-08-26T09:09:19Z</time>
      </trkpt>
      <trkpt lat="45.87851" lon="4.79081">
        <ele>229</ele>
        <time>2016-08-26T09:09:21Z</time>
      </trkpt>
      <trkpt lat="45.87851" lon="4.79085">
        <ele>230</ele>
        <time>2016-08-26T09:09:22Z</time>
      </trkpt>
      <trkpt lat="45.87853" lon="4.79095">
        <ele>230</ele>
        <time>2016-08-26T09:09:24Z</time>
      </trkpt>
      <trkpt lat="45.87854" lon="4.791">
        <ele>230</ele>
        <time>2016-08-26T09:09:25Z</time>
      </trkpt>
      <trkpt lat="45.87855" lon="4.79112">
        <ele>230</ele>
        <time>2016-08-26T09:09:27Z</time>
      </trkpt>
      <trkpt lat="45.87856" lon="4.79118">
        <ele>230</ele>
        <time>2016-08-26T09:09:28Z</time>
      </trkpt>
      <trkpt lat="45.87858" lon="4.79128">
        <ele>230</ele>
        <time>2016-08-26T09:09:30Z</time>
      </trkpt>
      <trkpt lat="45.87858" lon="4.79132">
        <ele>230</ele>
        <time>2016-08-26T09:09:31Z</time>
      </trkpt>
      <trkpt lat="45.87859" lon="4.79142">
        <ele>230</ele>
        <time>2016-08-26T09:09:33Z</time>
      </trkpt>
      <trkpt lat="45.8786" lon="4.79146">
        <ele>231</ele>
        <time>2016-08-26T09:09:34Z</time>
      </trkpt>
      <trkpt lat="45.87862" lon="4.79156">
        <ele>231</ele>
        <time>2016-08-26T09:09:36Z</time>
      </trkpt>
      <trkpt lat="45.87862" lon="4.79161">
        <ele>231</ele>
        <time>2016-08-26T09:09:37Z</time>
      </trkpt>
      <trkpt lat="45.87863" lon="4.7917">
        <ele>233</ele>
        <time>2016-08-26T09:09:39Z</time>
      </trkpt>
      <trkpt lat="45.87864" lon="4.79176">
        <ele>233</ele>
        <time>2016-08-26T09:09:40Z</time>
      </trkpt>
      <trkpt lat="45.87864" lon="4.79185">
        <ele>233</ele>
        <time>2016-08-26T09:09:42Z</time>
      </trkpt>
      <trkpt lat="45.87865" lon="4.7919">
        <ele>233</ele>
        <time>2016-08-26T09:09:43Z</time>
      </trkpt>
      <trkpt lat="45.87867" lon="4.792">
        <ele>233</ele>
        <time>2016-08-26T09:09:45Z</time>
      </trkpt>
      <trkpt lat="45.87869" lon="4.79205">
        <ele>233</ele>
        <time>2016-08-26T09:09:46Z</time>
      </trkpt>
      <trkpt lat="45.8787" lon="4.79215">
        <ele>233</ele>
        <time>2016-08-26T09:09:48Z</time>
      </trkpt>
      <trkpt lat="45.87871" lon="4.7922">
        <ele>233</ele>
        <time>2016-08-26T09:09:49Z</time>
      </trkpt>
      <trkpt lat="45.87872" lon="4.79229">
        <ele>233</ele>
        <time>2016-08-26T09:09:51Z</time>
      </trkpt>
      <trkpt lat="45.87872" lon="4.79234">
        <ele>233</ele>
        <time>2016-08-26T09:09:52Z</time>
      </trkpt>
      <trkpt lat="45.87873" lon="4.79243">
        <ele>233</ele>
        <time>2016-08-26T09:09:54Z</time>
      </trkpt>
      <trkpt lat="45.87874" lon="4.79247">
        <ele>233</ele>
        <time>2016-08-26T09:09:55Z</time>
      </trkpt>
      <trkpt lat="45.87876" lon="4.79256">
        <ele>236</ele>
        <time>2016-08-26T09:09:57Z</time>
      </trkpt>
      <trkpt lat="45.87876" lon="4.79261">
        <ele>236</ele>
        <time>2016-08-26T09:09:58Z</time>
      </trkpt>
      <trkpt lat="45.87877" lon="4.79271">
        <ele>236</ele>
        <time>2016-08-26T09:10:00Z</time>
      </trkpt>
      <trkpt lat="45.87878" lon="4.79276">
        <ele>236</ele>
        <time>2016-08-26T09:10:01Z</time>
      </trkpt>
      <trkpt lat="45.87879" lon="4.79286">
        <ele>237</ele>
        <time>2016-08-26T09:10:03Z</time>
      </trkpt>
      <trkpt lat="45.8788" lon="4.79291">
        <ele>237</ele>
        <time>2016-08-26T09:10:04Z</time>
      </trkpt>
      <trkpt lat="45.87882" lon="4.79301">
        <ele>237</ele>
        <time>2016-08-26T09:10:06Z</time>
      </trkpt>
      <trkpt lat="45.87883" lon="4.79306">
        <ele>237</ele>
        <time>2016-08-26T09:10:07Z</time>
      </trkpt>
      <trkpt lat="45.87885" lon="4.79314">
        <ele>237</ele>
        <time>2016-08-26T09:10:09Z</time>
      </trkpt>
      <trkpt lat="45.87886" lon="4.79319">
        <ele>237</ele>
        <time>2016-08-26T09:10:10Z</time>
      </trkpt>
      <trkpt lat="45.87888" lon="4.79326">
        <ele>236</ele>
        <time>2016-08-26T09:10:12Z</time>
      </trkpt>
      <trkpt lat="45.87889" lon="4.79331">
        <ele>236</ele>
        <time>2016-08-26T09:10:13Z</time>
      </trkpt>
      <trkpt lat="45.8789" lon="4.79339">
        <ele>239</ele>
        <time>2016-08-26T09:10:15Z</time>
      </trkpt>
      <trkpt lat="45.8789" lon="4.79343">
        <ele>239</ele>
        <time>2016-08-26T09:10:16Z</time>
      </trkpt>
      <trkpt lat="45.87891" lon="4.79352">
        <ele>240</ele>
        <time>2016-08-26T09:10:18Z</time>
      </trkpt>
      <trkpt lat="45.87892" lon="4.79357">
        <ele>240</ele>
        <time>2016-08-26T09:10:19Z</time>
      </trkpt>
      <trkpt lat="45.87894" lon="4.79365">
        <ele>240</ele>
        <time>2016-08-26T09:10:21Z</time>
      </trkpt>
      <trkpt lat="45.87895" lon="4.79369">
        <ele>240</ele>
        <time>2016-08-26T09:10:22Z</time>
      </trkpt>
      <trkpt lat="45.87896" lon="4.79378">
        <ele>241</ele>
        <time>2016-08-26T09:10:24Z</time>
      </trkpt>
      <trkpt lat="45.87896" lon="4.79382">
        <ele>241</ele>
        <time>2016-08-26T09:10:25Z</time>
      </trkpt>
      <trkpt lat="45.87898" lon="4.79394">
        <ele>241</ele>
        <time>2016-08-26T09:10:28Z</time>
      </trkpt>
      <trkpt lat="45.87901" lon="4.79399">
        <ele>241</ele>
        <time>2016-08-26T09:10:29Z</time>
      </trkpt>
      <trkpt lat="45.87903" lon="4.79409">
        <ele>240</ele>
        <time>2016-08-26T09:10:31Z</time>
      </trkpt>
      <trkpt lat="45.87904" lon="4.79413">
        <ele>240</ele>
        <time>2016-08-26T09:10:32Z</time>
      </trkpt>
      <trkpt lat="45.87904" lon="4.79423">
        <ele>242</ele>
        <time>2016-08-26T09:10:34Z</time>
      </trkpt>
      <trkpt lat="45.87905" lon="4.79428">
        <ele>243</ele>
        <time>2016-08-26T09:10:35Z</time>
      </trkpt>
      <trkpt lat="45.87907" lon="4.79438">
        <ele>244</ele>
        <time>2016-08-26T09:10:37Z</time>
      </trkpt>
      <trkpt lat="45.87908" lon="4.79444">
        <ele>245</ele>
        <time>2016-08-26T09:10:38Z</time>
      </trkpt>
      <trkpt lat="45.8791" lon="4.79454">
        <ele>245</ele>
        <time>2016-08-26T09:10:40Z</time>
      </trkpt>
      <trkpt lat="45.87911" lon="4.7946">
        <ele>246</ele>
        <time>2016-08-26T09:10:41Z</time>
      </trkpt>
      <trkpt lat="45.87915" lon="4.79471">
        <ele>246</ele>
        <time>2016-08-26T09:10:43Z</time>
      </trkpt>
      <trkpt lat="45.87916" lon="4.79476">
        <ele>246</ele>
        <time>2016-08-26T09:10:44Z</time>
      </trkpt>
      <trkpt lat="45.8792" lon="4.79487">
        <ele>241</ele>
        <time>2016-08-26T09:10:46Z</time>
      </trkpt>
      <trkpt lat="45.87921" lon="4.79493">
        <ele>242</ele>
        <time>2016-08-26T09:10:47Z</time>
      </trkpt>
      <trkpt lat="45.87924" lon="4.79504">
        <ele>243</ele>
        <time>2016-08-26T09:10:49Z</time>
      </trkpt>
      <trkpt lat="45.87925" lon="4.7951">
        <ele>243</ele>
        <time>2016-08-26T09:10:50Z</time>
      </trkpt>
      <trkpt lat="45.87928" lon="4.79522">
        <ele>241</ele>
        <time>2016-08-26T09:10:52Z</time>
      </trkpt>
      <trkpt lat="45.8793" lon="4.79528">
        <ele>241</ele>
        <time>2016-08-26T09:10:53Z</time>
      </trkpt>
      <trkpt lat="45.87932" lon="4.79535">
        <ele>241</ele>
        <time>2016-08-26T09:10:54Z</time>
      </trkpt>
      <trkpt lat="45.87935" lon="4.79542">
        <ele>241</ele>
        <time>2016-08-26T09:10:55Z</time>
      </trkpt>
      <trkpt lat="45.87937" lon="4.79549">
        <ele>240</ele>
        <time>2016-08-26T09:10:56Z</time>
      </trkpt>
      <trkpt lat="45.87939" lon="4.79558">
        <ele>241</ele>
        <time>2016-08-26T09:10:57Z</time>
      </trkpt>
      <trkpt lat="45.87942" lon="4.79566">
        <ele>241</ele>
        <time>2016-08-26T09:10:58Z</time>
      </trkpt>
      <trkpt lat="45.87944" lon="4.79576">
        <ele>241</ele>
        <time>2016-08-26T09:10:59Z</time>
      </trkpt>
      <trkpt lat="45.87947" lon="4.79587">
        <ele>241</ele>
        <time>2016-08-26T09:11:00Z</time>
      </trkpt>
      <trkpt lat="45.8795" lon="4.79597">
        <ele>241</ele>
        <time>2016-08-26T09:11:01Z</time>
      </trkpt>
      <trkpt lat="45.87954" lon="4.79608">
        <ele>240</ele>
        <time>2016-08-26T09:11:02Z</time>
      </trkpt>
      <trkpt lat="45.87957" lon="4.7962">
        <ele>240</ele>
        <time>2016-08-26T09:11:03Z</time>
      </trkpt>
      <trkpt lat="45.87961" lon="4.7963">
        <ele>240</ele>
        <time>2016-08-26T09:11:04Z</time>
      </trkpt>
      <trkpt lat="45.87966" lon="4.79639">
        <ele>239</ele>
        <time>2016-08-26T09:11:05Z</time>
      </trkpt>
      <trkpt lat="45.8797" lon="4.79648">
        <ele>239</ele>
        <time>2016-08-26T09:11:06Z</time>
      </trkpt>
      <trkpt lat="45.87974" lon="4.79656">
        <ele>238</ele>
        <time>2016-08-26T09:11:07Z</time>
      </trkpt>
      <trkpt lat="45.87979" lon="4.79665">
        <ele>238</ele>
        <time>2016-08-26T09:11:08Z</time>
      </trkpt>
      <trkpt lat="45.87982" lon="4.79674">
        <ele>239</ele>
        <time>2016-08-26T09:11:09Z</time>
      </trkpt>
      <trkpt lat="45.87986" lon="4.79682">
        <ele>240</ele>
        <time>2016-08-26T09:11:10Z</time>
      </trkpt>
      <trkpt lat="45.87989" lon="4.7969">
        <ele>240</ele>
        <time>2016-08-26T09:11:11Z</time>
      </trkpt>
      <trkpt lat="45.87993" lon="4.79696">
        <ele>241</ele>
        <time>2016-08-26T09:11:12Z</time>
      </trkpt>
      <trkpt lat="45.87997" lon="4.79703">
        <ele>241</ele>
        <time>2016-08-26T09:11:13Z</time>
      </trkpt>
      <trkpt lat="45.88" lon="4.7971">
        <ele>242</ele>
        <time>2016-08-26T09:11:14Z</time>
      </trkpt>
      <trkpt lat="45.88003" lon="4.79715">
        <ele>237</ele>
        <time>2016-08-26T09:11:15Z</time>
      </trkpt>
      <trkpt lat="45.88005" lon="4.79721">
        <ele>237</ele>
        <time>2016-08-26T09:11:16Z</time>
      </trkpt>
      <trkpt lat="45.88008" lon="4.79726">
        <ele>237</ele>
        <time>2016-08-26T09:11:17Z</time>
      </trkpt>
      <trkpt lat="45.8801" lon="4.79732">
        <ele>238</ele>
        <time>2016-08-26T09:11:18Z</time>
      </trkpt>
      <trkpt lat="45.88014" lon="4.79742">
        <ele>239</ele>
        <time>2016-08-26T09:11:20Z</time>
      </trkpt>
      <trkpt lat="45.88016" lon="4.79747">
        <ele>239</ele>
        <time>2016-08-26T09:11:21Z</time>
      </trkpt>
      <trkpt lat="45.8802" lon="4.79757">
        <ele>241</ele>
        <time>2016-08-26T09:11:23Z</time>
      </trkpt>
      <trkpt lat="45.88021" lon="4.79762">
        <ele>241</ele>
        <time>2016-08-26T09:11:24Z</time>
      </trkpt>
      <trkpt lat="45.88023" lon="4.79772">
        <ele>242</ele>
        <time>2016-08-26T09:11:26Z</time>
      </trkpt>
      <trkpt lat="45.88025" lon="4.79777">
        <ele>242</ele>
        <time>2016-08-26T09:11:27Z</time>
      </trkpt>
      <trkpt lat="45.88027" lon="4.79786">
        <ele>242</ele>
        <time>2016-08-26T09:11:29Z</time>
      </trkpt>
      <trkpt lat="45.88028" lon="4.79791">
        <ele>242</ele>
        <time>2016-08-26T09:11:30Z</time>
      </trkpt>
      <trkpt lat="45.88027" lon="4.79801">
        <ele>243</ele>
        <time>2016-08-26T09:11:32Z</time>
      </trkpt>
      <trkpt lat="45.88027" lon="4.79805">
        <ele>243</ele>
        <time>2016-08-26T09:11:33Z</time>
      </trkpt>
      <trkpt lat="45.88027" lon="4.79814">
        <ele>243</ele>
        <time>2016-08-26T09:11:35Z</time>
      </trkpt>
      <trkpt lat="45.88028" lon="4.79819">
        <ele>243</ele>
        <time>2016-08-26T09:11:36Z</time>
      </trkpt>
      <trkpt lat="45.8803" lon="4.79828">
        <ele>244</ele>
        <time>2016-08-26T09:11:38Z</time>
      </trkpt>
      <trkpt lat="45.88029" lon="4.79833">
        <ele>244</ele>
        <time>2016-08-26T09:11:39Z</time>
      </trkpt>
      <trkpt lat="45.88029" lon="4.79843">
        <ele>247</ele>
        <time>2016-08-26T09:11:41Z</time>
      </trkpt>
      <trkpt lat="45.88029" lon="4.79848">
        <ele>247</ele>
        <time>2016-08-26T09:11:42Z</time>
      </trkpt>
      <trkpt lat="45.88028" lon="4.79858">
        <ele>247</ele>
        <time>2016-08-26T09:11:44Z</time>
      </trkpt>
      <trkpt lat="45.88028" lon="4.79863">
        <ele>247</ele>
        <time>2016-08-26T09:11:45Z</time>
      </trkpt>
      <trkpt lat="45.88027" lon="4.79873">
        <ele>247</ele>
        <time>2016-08-26T09:11:47Z</time>
      </trkpt>
      <trkpt lat="45.88025" lon="4.79877">
        <ele>247</ele>
        <time>2016-08-26T09:11:48Z</time>
      </trkpt>
      <trkpt lat="45.88023" lon="4.79887">
        <ele>248</ele>
        <time>2016-08-26T09:11:50Z</time>
      </trkpt>
      <trkpt lat="45.88022" lon="4.79892">
        <ele>248</ele>
        <time>2016-08-26T09:11:51Z</time>
      </trkpt>
      <trkpt lat="45.88019" lon="4.79901">
        <ele>248</ele>
        <time>2016-08-26T09:11:53Z</time>
      </trkpt>
      <trkpt lat="45.88017" lon="4.79905">
        <ele>249</ele>
        <time>2016-08-26T09:11:54Z</time>
      </trkpt>
      <trkpt lat="45.88015" lon="4.79915">
        <ele>249</ele>
        <time>2016-08-26T09:11:56Z</time>
      </trkpt>
      <trkpt lat="45.88013" lon="4.79919">
        <ele>250</ele>
        <time>2016-08-26T09:11:57Z</time>
      </trkpt>
      <trkpt lat="45.88011" lon="4.79928">
        <ele>250</ele>
        <time>2016-08-26T09:11:59Z</time>
      </trkpt>
      <trkpt lat="45.88009" lon="4.79932">
        <ele>250</ele>
        <time>2016-08-26T09:12:00Z</time>
      </trkpt>
      <trkpt lat="45.88007" lon="4.79941">
        <ele>250</ele>
        <time>2016-08-26T09:12:02Z</time>
      </trkpt>
      <trkpt lat="45.88005" lon="4.79946">
        <ele>250</ele>
        <time>2016-08-26T09:12:03Z</time>
      </trkpt>
      <trkpt lat="45.88003" lon="4.79954">
        <ele>250</ele>
        <time>2016-08-26T09:12:05Z</time>
      </trkpt>
      <trkpt lat="45.88002" lon="4.79958">
        <ele>250</ele>
        <time>2016-08-26T09:12:06Z</time>
      </trkpt>
      <trkpt lat="45.88" lon="4.79966">
        <ele>250</ele>
        <time>2016-08-26T09:12:08Z</time>
      </trkpt>
      <trkpt lat="45.87999" lon="4.79971">
        <ele>254</ele>
        <time>2016-08-26T09:12:09Z</time>
      </trkpt>
      <trkpt lat="45.87996" lon="4.79979">
        <ele>254</ele>
        <time>2016-08-26T09:12:11Z</time>
      </trkpt>
      <trkpt lat="45.87994" lon="4.79983">
        <ele>253</ele>
        <time>2016-08-26T09:12:12Z</time>
      </trkpt>
      <trkpt lat="45.87993" lon="4.79992">
        <ele>253</ele>
        <time>2016-08-26T09:12:14Z</time>
      </trkpt>
      <trkpt lat="45.87992" lon="4.79996">
        <ele>253</ele>
        <time>2016-08-26T09:12:15Z</time>
      </trkpt>
      <trkpt lat="45.87989" lon="4.80005">
        <ele>253</ele>
        <time>2016-08-26T09:12:17Z</time>
      </trkpt>
      <trkpt lat="45.87988" lon="4.80009">
        <ele>254</ele>
        <time>2016-08-26T09:12:18Z</time>
      </trkpt>
      <trkpt lat="45.87985" lon="4.80017">
        <ele>255</ele>
        <time>2016-08-26T09:12:20Z</time>
      </trkpt>
      <trkpt lat="45.87982" lon="4.80021">
        <ele>255</ele>
        <time>2016-08-26T09:12:21Z</time>
      </trkpt>
      <trkpt lat="45.87978" lon="4.8003">
        <ele>256</ele>
        <time>2016-08-26T09:12:23Z</time>
      </trkpt>
      <trkpt lat="45.87976" lon="4.80035">
        <ele>256</ele>
        <time>2016-08-26T09:12:24Z</time>
      </trkpt>
      <trkpt lat="45.87971" lon="4.80041">
        <ele>256</ele>
        <time>2016-08-26T09:12:26Z</time>
      </trkpt>
      <trkpt lat="45.87968" lon="4.80044">
        <ele>257</ele>
        <time>2016-08-26T09:12:27Z</time>
      </trkpt>
      <trkpt lat="45.87964" lon="4.8005">
        <ele>257</ele>
        <time>2016-08-26T09:12:29Z</time>
      </trkpt>
      <trkpt lat="45.87961" lon="4.80053">
        <ele>257</ele>
        <time>2016-08-26T09:12:30Z</time>
      </trkpt>
      <trkpt lat="45.87956" lon="4.80059">
        <ele>257</ele>
        <time>2016-08-26T09:12:32Z</time>
      </trkpt>
      <trkpt lat="45.87952" lon="4.80062">
        <ele>258</ele>
        <time>2016-08-26T09:12:33Z</time>
      </trkpt>
      <trkpt lat="45.87946" lon="4.8007">
        <ele>258</ele>
        <time>2016-08-26T09:12:36Z</time>
      </trkpt>
      <trkpt lat="45.87943" lon="4.80072">
        <ele>258</ele>
        <time>2016-08-26T09:12:37Z</time>
      </trkpt>
      <trkpt lat="45.87937" lon="4.80076">
        <ele>259</ele>
        <time>2016-08-26T09:12:39Z</time>
      </trkpt>
      <trkpt lat="45.87934" lon="4.80078">
        <ele>259</ele>
        <time>2016-08-26T09:12:40Z</time>
      </trkpt>
      <trkpt lat="45.87927" lon="4.80081">
        <ele>260</ele>
        <time>2016-08-26T09:12:42Z</time>
      </trkpt>
      <trkpt lat="45.87924" lon="4.80082">
        <ele>261</ele>
        <time>2016-08-26T09:12:43Z</time>
      </trkpt>
      <trkpt lat="45.87917" lon="4.80085">
        <ele>262</ele>
        <time>2016-08-26T09:12:45Z</time>
      </trkpt>
      <trkpt lat="45.87914" lon="4.80088">
        <ele>262</ele>
        <time>2016-08-26T09:12:46Z</time>
      </trkpt>
      <trkpt lat="45.87908" lon="4.80093">
        <ele>262</ele>
        <time>2016-08-26T09:12:48Z</time>
      </trkpt>
      <trkpt lat="45.87906" lon="4.80096">
        <ele>262</ele>
        <time>2016-08-26T09:12:49Z</time>
      </trkpt>
      <trkpt lat="45.87902" lon="4.80103">
        <ele>262</ele>
        <time>2016-08-26T09:12:51Z</time>
      </trkpt>
      <trkpt lat="45.87899" lon="4.80107">
        <ele>262</ele>
        <time>2016-08-26T09:12:52Z</time>
      </trkpt>
      <trkpt lat="45.87896" lon="4.80116">
        <ele>262</ele>
        <time>2016-08-26T09:12:54Z</time>
      </trkpt>
      <trkpt lat="45.87895" lon="4.80122">
        <ele>262</ele>
        <time>2016-08-26T09:12:55Z</time>
      </trkpt>
      <trkpt lat="45.87894" lon="4.80128">
        <ele>262</ele>
        <time>2016-08-26T09:12:56Z</time>
      </trkpt>
      <trkpt lat="45.87893" lon="4.80135">
        <ele>262</ele>
        <time>2016-08-26T09:12:57Z</time>
      </trkpt>
      <trkpt lat="45.87892" lon="4.80143">
        <ele>262</ele>
        <time>2016-08-26T09:12:58Z</time>
      </trkpt>
      <trkpt lat="45.87891" lon="4.80151">
        <ele>261</ele>
        <time>2016-08-26T09:12:59Z</time>
      </trkpt>
      <trkpt lat="45.8789" lon="4.8016">
        <ele>261</ele>
        <time>2016-08-26T09:13:00Z</time>
      </trkpt>
      <trkpt lat="45.87891" lon="4.80171">
        <ele>258</ele>
        <time>2016-08-26T09:13:01Z</time>
      </trkpt>
      <trkpt lat="45.8789" lon="4.80181">
        <ele>257</ele>
        <time>2016-08-26T09:13:02Z</time>
      </trkpt>
      <trkpt lat="45.8789" lon="4.80193">
        <ele>257</ele>
        <time>2016-08-26T09:13:03Z</time>
      </trkpt>
      <trkpt lat="45.87889" lon="4.80205">
        <ele>257</ele>
        <time>2016-08-26T09:13:04Z</time>
      </trkpt>
      <trkpt lat="45.87888" lon="4.80217">
        <ele>256</ele>
        <time>2016-08-26T09:13:05Z</time>
      </trkpt>
      <trkpt lat="45.87887" lon="4.8023">
        <ele>255</ele>
        <time>2016-08-26T09:13:06Z</time>
      </trkpt>
      <trkpt lat="45.87886" lon="4.80243">
        <ele>255</ele>
        <time>2016-08-26T09:13:07Z</time>
      </trkpt>
      <trkpt lat="45.87885" lon="4.80256">
        <ele>252</ele>
        <time>2016-08-26T09:13:08Z</time>
      </trkpt>
      <trkpt lat="45.87885" lon="4.80268">
        <ele>252</ele>
        <time>2016-08-26T09:13:09Z</time>
      </trkpt>
      <trkpt lat="45.87883" lon="4.80282">
        <ele>252</ele>
        <time>2016-08-26T09:13:10Z</time>
      </trkpt>
      <trkpt lat="45.87882" lon="4.80294">
        <ele>252</ele>
        <time>2016-08-26T09:13:11Z</time>
      </trkpt>
      <trkpt lat="45.87881" lon="4.80306">
        <ele>252</ele>
        <time>2016-08-26T09:13:12Z</time>
      </trkpt>
      <trkpt lat="45.8788" lon="4.80318">
        <ele>252</ele>
        <time>2016-08-26T09:13:13Z</time>
      </trkpt>
      <trkpt lat="45.8788" lon="4.80329">
        <ele>252</ele>
        <time>2016-08-26T09:13:14Z</time>
      </trkpt>
      <trkpt lat="45.87879" lon="4.8034">
        <ele>250</ele>
        <time>2016-08-26T09:13:15Z</time>
      </trkpt>
      <trkpt lat="45.87879" lon="4.80351">
        <ele>249</ele>
        <time>2016-08-26T09:13:16Z</time>
      </trkpt>
      <trkpt lat="45.87878" lon="4.80363">
        <ele>249</ele>
        <time>2016-08-26T09:13:17Z</time>
      </trkpt>
      <trkpt lat="45.87877" lon="4.80374">
        <ele>249</ele>
        <time>2016-08-26T09:13:18Z</time>
      </trkpt>
      <trkpt lat="45.87877" lon="4.80386">
        <ele>249</ele>
        <time>2016-08-26T09:13:19Z</time>
      </trkpt>
      <trkpt lat="45.87877" lon="4.80396">
        <ele>248</ele>
        <time>2016-08-26T09:13:20Z</time>
      </trkpt>
      <trkpt lat="45.87876" lon="4.80405">
        <ele>248</ele>
        <time>2016-08-26T09:13:21Z</time>
      </trkpt>
      <trkpt lat="45.87875" lon="4.80413">
        <ele>248</ele>
        <time>2016-08-26T09:13:22Z</time>
      </trkpt>
      <trkpt lat="45.87875" lon="4.80421">
        <ele>247</ele>
        <time>2016-08-26T09:13:23Z</time>
      </trkpt>
      <trkpt lat="45.87874" lon="4.80427">
        <ele>247</ele>
        <time>2016-08-26T09:13:24Z</time>
      </trkpt>
      <trkpt lat="45.87873" lon="4.80434">
        <ele>248</ele>
        <time>2016-08-26T09:13:25Z</time>
      </trkpt>
      <trkpt lat="45.87872" lon="4.8044">
        <ele>248</ele>
        <time>2016-08-26T09:13:26Z</time>
      </trkpt>
      <trkpt lat="45.87871" lon="4.80453">
        <ele>248</ele>
        <time>2016-08-26T09:13:28Z</time>
      </trkpt>
      <trkpt lat="45.8787" lon="4.80458">
        <ele>248</ele>
        <time>2016-08-26T09:13:29Z</time>
      </trkpt>
      <trkpt lat="45.87868" lon="4.80468">
        <ele>248</ele>
        <time>2016-08-26T09:13:31Z</time>
      </trkpt>
      <trkpt lat="45.87867" lon="4.80473">
        <ele>248</ele>
        <time>2016-08-26T09:13:32Z</time>
      </trkpt>
      <trkpt lat="45.87866" lon="4.80485">
        <ele>249</ele>
        <time>2016-08-26T09:13:34Z</time>
      </trkpt>
      <trkpt lat="45.87866" lon="4.80491">
        <ele>249</ele>
        <time>2016-08-26T09:13:35Z</time>
      </trkpt>
      <trkpt lat="45.87864" lon="4.80503">
        <ele>251</ele>
        <time>2016-08-26T09:13:37Z</time>
      </trkpt>
      <trkpt lat="45.87863" lon="4.80509">
        <ele>251</ele>
        <time>2016-08-26T09:13:38Z</time>
      </trkpt>
      <trkpt lat="45.87861" lon="4.80519">
        <ele>251</ele>
        <time>2016-08-26T09:13:40Z</time>
      </trkpt>
      <trkpt lat="45.87861" lon="4.80525">
        <ele>251</ele>
        <time>2016-08-26T09:13:41Z</time>
      </trkpt>
      <trkpt lat="45.87861" lon="4.80535">
        <ele>251</ele>
        <time>2016-08-26T09:13:43Z</time>
      </trkpt>
      <trkpt lat="45.87861" lon="4.80541">
        <ele>251</ele>
        <time>2016-08-26T09:13:44Z</time>
      </trkpt>
      <trkpt lat="45.8786" lon="4.80551">
        <ele>251</ele>
        <time>2016-08-26T09:13:46Z</time>
      </trkpt>
      <trkpt lat="45.87861" lon="4.80556">
        <ele>251</ele>
        <time>2016-08-26T09:13:47Z</time>
      </trkpt>
      <trkpt lat="45.8786" lon="4.80567">
        <ele>252</ele>
        <time>2016-08-26T09:13:49Z</time>
      </trkpt>
      <trkpt lat="45.87861" lon="4.80572">
        <ele>252</ele>
        <time>2016-08-26T09:13:50Z</time>
      </trkpt>
      <trkpt lat="45.8786" lon="4.80581">
        <ele>252</ele>
        <time>2016-08-26T09:13:52Z</time>
      </trkpt>
      <trkpt lat="45.8786" lon="4.80586">
        <ele>254</ele>
        <time>2016-08-26T09:13:53Z</time>
      </trkpt>
      <trkpt lat="45.87859" lon="4.80595">
        <ele>254</ele>
        <time>2016-08-26T09:13:55Z</time>
      </trkpt>
      <trkpt lat="45.87858" lon="4.80599">
        <ele>254</ele>
        <time>2016-08-26T09:13:56Z</time>
      </trkpt>
      <trkpt lat="45.87858" lon="4.80609">
        <ele>255</ele>
        <time>2016-08-26T09:13:58Z</time>
      </trkpt>
      <trkpt lat="45.87858" lon="4.80615">
        <ele>255</ele>
        <time>2016-08-26T09:13:59Z</time>
      </trkpt>
      <trkpt lat="45.87857" lon="4.80624">
        <ele>255</ele>
        <time>2016-08-26T09:14:01Z</time>
      </trkpt>
      <trkpt lat="45.87856" lon="4.80628">
        <ele>255</ele>
        <time>2016-08-26T09:14:02Z</time>
      </trkpt>
      <trkpt lat="45.87855" lon="4.8064">
        <ele>256</ele>
        <time>2016-08-26T09:14:05Z</time>
      </trkpt>
      <trkpt lat="45.87855" lon="4.80645">
        <ele>256</ele>
        <time>2016-08-26T09:14:06Z</time>
      </trkpt>
      <trkpt lat="45.87857" lon="4.80656">
        <ele>256</ele>
        <time>2016-08-26T09:14:08Z</time>
      </trkpt>
      <trkpt lat="45.87858" lon="4.80661">
        <ele>256</ele>
        <time>2016-08-26T09:14:09Z</time>
      </trkpt>
      <trkpt lat="45.8786" lon="4.80668">
        <ele>257</ele>
        <time>2016-08-26T09:14:10Z</time>
      </trkpt>
      <trkpt lat="45.8786" lon="4.80674">
        <ele>257</ele>
        <time>2016-08-26T09:14:11Z</time>
      </trkpt>
      <trkpt lat="45.87863" lon="4.80684">
        <ele>257</ele>
        <time>2016-08-26T09:14:13Z</time>
      </trkpt>
      <trkpt lat="45.87864" lon="4.80689">
        <ele>257</ele>
        <time>2016-08-26T09:14:14Z</time>
      </trkpt>
      <trkpt lat="45.87864" lon="4.80699">
        <ele>257</ele>
        <time>2016-08-26T09:14:16Z</time>
      </trkpt>
      <trkpt lat="45.87864" lon="4.80704">
        <ele>257</ele>
        <time>2016-08-26T09:14:17Z</time>
      </trkpt>
      <trkpt lat="45.87864" lon="4.80713">
        <ele>257</ele>
        <time>2016-08-26T09:14:19Z</time>
      </trkpt>
      <trkpt lat="45.87863" lon="4.80718">
        <ele>257</ele>
        <time>2016-08-26T09:14:20Z</time>
      </trkpt>
      <trkpt lat="45.87861" lon="4.8073">
        <ele>257</ele>
        <time>2016-08-26T09:14:23Z</time>
      </trkpt>
      <trkpt lat="45.8786" lon="4.80734">
        <ele>257</ele>
        <time>2016-08-26T09:14:24Z</time>
      </trkpt>
      <trkpt lat="45.87859" lon="4.80744">
        <ele>257</ele>
        <time>2016-08-26T09:14:26Z</time>
      </trkpt>
      <trkpt lat="45.87858" lon="4.80749">
        <ele>257</ele>
        <time>2016-08-26T09:14:27Z</time>
      </trkpt>
      <trkpt lat="45.87854" lon="4.80756">
        <ele>256</ele>
        <time>2016-08-26T09:14:29Z</time>
      </trkpt>
      <trkpt lat="45.87849" lon="4.80757">
        <ele>256</ele>
        <time>2016-08-26T09:14:30Z</time>
      </trkpt>
      <trkpt lat="45.87845" lon="4.80765">
        <ele>256</ele>
        <time>2016-08-26T09:14:32Z</time>
      </trkpt>
      <trkpt lat="45.87842" lon="4.80769">
        <ele>256</ele>
        <time>2016-08-26T09:14:33Z</time>
      </trkpt>
      <trkpt lat="45.87837" lon="4.80777">
        <ele>256</ele>
        <time>2016-08-26T09:14:35Z</time>
      </trkpt>
      <trkpt lat="45.87834" lon="4.80781">
        <ele>256</ele>
        <time>2016-08-26T09:14:36Z</time>
      </trkpt>
      <trkpt lat="45.87832" lon="4.80789">
        <ele>257</ele>
        <time>2016-08-26T09:14:37Z</time>
      </trkpt>
      <trkpt lat="45.87829" lon="4.80794">
        <ele>257</ele>
        <time>2016-08-26T09:14:38Z</time>
      </trkpt>
      <trkpt lat="45.87824" lon="4.80802">
        <ele>256</ele>
        <time>2016-08-26T09:14:40Z</time>
      </trkpt>
      <trkpt lat="45.87822" lon="4.80807">
        <ele>256</ele>
        <time>2016-08-26T09:14:41Z</time>
      </trkpt>
      <trkpt lat="45.87818" lon="4.80812">
        <ele>256</ele>
        <time>2016-08-26T09:14:42Z</time>
      </trkpt>
      <trkpt lat="45.87815" lon="4.80816">
        <ele>256</ele>
        <time>2016-08-26T09:14:43Z</time>
      </trkpt>
      <trkpt lat="45.87811" lon="4.80822">
        <ele>256</ele>
        <time>2016-08-26T09:14:44Z</time>
      </trkpt>
      <trkpt lat="45.87808" lon="4.80828">
        <ele>256</ele>
        <time>2016-08-26T09:14:45Z</time>
      </trkpt>
      <trkpt lat="45.87805" lon="4.80835">
        <ele>254</ele>
        <time>2016-08-26T09:14:46Z</time>
      </trkpt>
      <trkpt lat="45.87801" lon="4.80839">
        <ele>254</ele>
        <time>2016-08-26T09:14:47Z</time>
      </trkpt>
      <trkpt lat="45.87797" lon="4.80842">
        <ele>254</ele>
        <time>2016-08-26T09:14:48Z</time>
      </trkpt>
      <trkpt lat="45.87793" lon="4.80846">
        <ele>254</ele>
        <time>2016-08-26T09:14:49Z</time>
      </trkpt>
      <trkpt lat="45.8779" lon="4.80852">
        <ele>253</ele>
        <time>2016-08-26T09:14:50Z</time>
      </trkpt>
      <trkpt lat="45.87787" lon="4.80858">
        <ele>253</ele>
        <time>2016-08-26T09:14:51Z</time>
      </trkpt>
      <trkpt lat="45.87784" lon="4.80865">
        <ele>253</ele>
        <time>2016-08-26T09:14:52Z</time>
      </trkpt>
      <trkpt lat="45.87781" lon="4.80872">
        <ele>253</ele>
        <time>2016-08-26T09:14:53Z</time>
      </trkpt>
      <trkpt lat="45.87777" lon="4.80879">
        <ele>253</ele>
        <time>2016-08-26T09:14:54Z</time>
      </trkpt>
      <trkpt lat="45.87773" lon="4.80886">
        <ele>252</ele>
        <time>2016-08-26T09:14:55Z</time>
      </trkpt>
      <trkpt lat="45.87769" lon="4.80893">
        <ele>252</ele>
        <time>2016-08-26T09:14:56Z</time>
      </trkpt>
      <trkpt lat="45.87765" lon="4.809">
        <ele>252</ele>
        <time>2016-08-26T09:14:57Z</time>
      </trkpt>
      <trkpt lat="45.87762" lon="4.80908">
        <ele>251</ele>
        <time>2016-08-26T09:14:58Z</time>
      </trkpt>
      <trkpt lat="45.87758" lon="4.80916">
        <ele>251</ele>
        <time>2016-08-26T09:14:59Z</time>
      </trkpt>
      <trkpt lat="45.87755" lon="4.80925">
        <ele>250</ele>
        <time>2016-08-26T09:15:00Z</time>
      </trkpt>
      <trkpt lat="45.87753" lon="4.80934">
        <ele>249</ele>
        <time>2016-08-26T09:15:01Z</time>
      </trkpt>
      <trkpt lat="45.8775" lon="4.80943">
        <ele>249</ele>
        <time>2016-08-26T09:15:02Z</time>
      </trkpt>
      <trkpt lat="45.87749" lon="4.80953">
        <ele>252</ele>
        <time>2016-08-26T09:15:03Z</time>
      </trkpt>
      <trkpt lat="45.87748" lon="4.80963">
        <ele>252</ele>
        <time>2016-08-26T09:15:04Z</time>
      </trkpt>
      <trkpt lat="45.87748" lon="4.80973">
        <ele>251</ele>
        <time>2016-08-26T09:15:05Z</time>
      </trkpt>
      <trkpt lat="45.87748" lon="4.80982">
        <ele>251</ele>
        <time>2016-08-26T09:15:06Z</time>
      </trkpt>
      <trkpt lat="45.87748" lon="4.80991">
        <ele>250</ele>
        <time>2016-08-26T09:15:07Z</time>
      </trkpt>
      <trkpt lat="45.8775" lon="4.81001">
        <ele>249</ele>
        <time>2016-08-26T09:15:08Z</time>
      </trkpt>
      <trkpt lat="45.8775" lon="4.81011">
        <ele>248</ele>
        <time>2016-08-26T09:15:09Z</time>
      </trkpt>
      <trkpt lat="45.8775" lon="4.8102">
        <ele>247</ele>
        <time>2016-08-26T09:15:10Z</time>
      </trkpt>
      <trkpt lat="45.8775" lon="4.8103">
        <ele>249</ele>
        <time>2016-08-26T09:15:11Z</time>
      </trkpt>
      <trkpt lat="45.8775" lon="4.81039">
        <ele>249</ele>
        <time>2016-08-26T09:15:12Z</time>
      </trkpt>
      <trkpt lat="45.8775" lon="4.81048">
        <ele>249</ele>
        <time>2016-08-26T09:15:13Z</time>
      </trkpt>
      <trkpt lat="45.87749" lon="4.81057">
        <ele>248</ele>
        <time>2016-08-26T09:15:14Z</time>
      </trkpt>
      <trkpt lat="45.87748" lon="4.81066">
        <ele>248</ele>
        <time>2016-08-26T09:15:15Z</time>
      </trkpt>
      <trkpt lat="45.87746" lon="4.81074">
        <ele>247</ele>
        <time>2016-08-26T09:15:16Z</time>
      </trkpt>
      <trkpt lat="45.87744" lon="4.81083">
        <ele>247</ele>
        <time>2016-08-26T09:15:17Z</time>
      </trkpt>
      <trkpt lat="45.87742" lon="4.81092">
        <ele>246</ele>
        <time>2016-08-26T09:15:18Z</time>
      </trkpt>
      <trkpt lat="45.87739" lon="4.811">
        <ele>246</ele>
        <time>2016-08-26T09:15:19Z</time>
      </trkpt>
      <trkpt lat="45.87736" lon="4.81108">
        <ele>246</ele>
        <time>2016-08-26T09:15:20Z</time>
      </trkpt>
      <trkpt lat="45.87733" lon="4.81117">
        <ele>246</ele>
        <time>2016-08-26T09:15:21Z</time>
      </trkpt>
      <trkpt lat="45.87729" lon="4.81126">
        <ele>245</ele>
        <time>2016-08-26T09:15:22Z</time>
      </trkpt>
      <trkpt lat="45.87725" lon="4.81135">
        <ele>245</ele>
        <time>2016-08-26T09:15:23Z</time>
      </trkpt>
      <trkpt lat="45.87721" lon="4.81144">
        <ele>245</ele>
        <time>2016-08-26T09:15:24Z</time>
      </trkpt>
      <trkpt lat="45.87717" lon="4.81154">
        <ele>245</ele>
        <time>2016-08-26T09:15:25Z</time>
      </trkpt>
      <trkpt lat="45.87713" lon="4.81164">
        <ele>245</ele>
        <time>2016-08-26T09:15:26Z</time>
      </trkpt>
      <trkpt lat="45.87709" lon="4.81175">
        <ele>242</ele>
        <time>2016-08-26T09:15:27Z</time>
      </trkpt>
      <trkpt lat="45.87705" lon="4.81186">
        <ele>242</ele>
        <time>2016-08-26T09:15:28Z</time>
      </trkpt>
      <trkpt lat="45.87701" lon="4.81196">
        <ele>242</ele>
        <time>2016-08-26T09:15:29Z</time>
      </trkpt>
      <trkpt lat="45.87697" lon="4.81207">
        <ele>241</ele>
        <time>2016-08-26T09:15:30Z</time>
      </trkpt>
      <trkpt lat="45.87693" lon="4.81219">
        <ele>241</ele>
        <time>2016-08-26T09:15:31Z</time>
      </trkpt>
      <trkpt lat="45.87688" lon="4.8123">
        <ele>241</ele>
        <time>2016-08-26T09:15:32Z</time>
      </trkpt>
      <trkpt lat="45.87683" lon="4.8124">
        <ele>240</ele>
        <time>2016-08-26T09:15:33Z</time>
      </trkpt>
      <trkpt lat="45.87678" lon="4.8125">
        <ele>240</ele>
        <time>2016-08-26T09:15:34Z</time>
      </trkpt>
      <trkpt lat="45.87673" lon="4.81259">
        <ele>238</ele>
        <time>2016-08-26T09:15:35Z</time>
      </trkpt>
      <trkpt lat="45.87668" lon="4.81267">
        <ele>237</ele>
        <time>2016-08-26T09:15:36Z</time>
      </trkpt>
      <trkpt lat="45.87661" lon="4.81275">
        <ele>239</ele>
        <time>2016-08-26T09:15:37Z</time>
      </trkpt>
      <trkpt lat="45.87654" lon="4.8128">
        <ele>239</ele>
        <time>2016-08-26T09:15:38Z</time>
      </trkpt>
      <trkpt lat="45.87646" lon="4.81282">
        <ele>239</ele>
        <time>2016-08-26T09:15:39Z</time>
      </trkpt>
      <trkpt lat="45.87638" lon="4.81284">
        <ele>239</ele>
        <time>2016-08-26T09:15:40Z</time>
      </trkpt>
      <trkpt lat="45.8763" lon="4.81286">
        <ele>239</ele>
        <time>2016-08-26T09:15:41Z</time>
      </trkpt>
      <trkpt lat="45.87624" lon="4.81287">
        <ele>240</ele>
        <time>2016-08-26T09:15:42Z</time>
      </trkpt>
      <trkpt lat="45.87618" lon="4.81289">
        <ele>240</ele>
        <time>2016-08-26T09:15:43Z</time>
      </trkpt>
      <trkpt lat="45.87614" lon="4.81293">
        <ele>240</ele>
        <time>2016-08-26T09:15:44Z</time>
      </trkpt>
      <trkpt lat="45.8761" lon="4.81303">
        <ele>239</ele>
        <time>2016-08-26T09:15:46Z</time>
      </trkpt>
      <trkpt lat="45.8761" lon="4.81307">
        <ele>239</ele>
        <time>2016-08-26T09:15:47Z</time>
      </trkpt>
      <trkpt lat="45.87614" lon="4.81315">
        <ele>239</ele>
        <time>2016-08-26T09:15:49Z</time>
      </trkpt>
      <trkpt lat="45.87619" lon="4.81321">
        <ele>238</ele>
        <time>2016-08-26T09:15:50Z</time>
      </trkpt>
      <trkpt lat="45.87622" lon="4.81326">
        <ele>238</ele>
        <time>2016-08-26T09:15:51Z</time>
      </trkpt>
      <trkpt lat="45.87627" lon="4.81331">
        <ele>238</ele>
        <time>2016-08-26T09:15:52Z</time>
      </trkpt>
      <trkpt lat="45.87631" lon="4.81336">
        <ele>234</ele>
        <time>2016-08-26T09:15:53Z</time>
      </trkpt>
      <trkpt lat="45.87634" lon="4.8134">
        <ele>234</ele>
        <time>2016-08-26T09:15:54Z</time>
      </trkpt>
      <trkpt lat="45.87638" lon="4.81346">
        <ele>233</ele>
        <time>2016-08-26T09:15:55Z</time>
      </trkpt>
      <trkpt lat="45.87642" lon="4.81352">
        <ele>233</ele>
        <time>2016-08-26T09:15:56Z</time>
      </trkpt>
      <trkpt lat="45.87646" lon="4.81358">
        <ele>233</ele>
        <time>2016-08-26T09:15:57Z</time>
      </trkpt>
      <trkpt lat="45.87649" lon="4.81364">
        <ele>233</ele>
        <time>2016-08-26T09:15:58Z</time>
      </trkpt>
      <trkpt lat="45.87653" lon="4.81369">
        <ele>232</ele>
        <time>2016-08-26T09:15:59Z</time>
      </trkpt>
      <trkpt lat="45.87656" lon="4.81376">
        <ele>232</ele>
        <time>2016-08-26T09:16:00Z</time>
      </trkpt>
      <trkpt lat="45.8766" lon="4.81383">
        <ele>232</ele>
        <time>2016-08-26T09:16:01Z</time>
      </trkpt>
      <trkpt lat="45.87663" lon="4.81391">
        <ele>231</ele>
        <time>2016-08-26T09:16:02Z</time>
      </trkpt>
      <trkpt lat="45.87665" lon="4.814">
        <ele>230</ele>
        <time>2016-08-26T09:16:03Z</time>
      </trkpt>
      <trkpt lat="45.87668" lon="4.81409">
        <ele>227</ele>
        <time>2016-08-26T09:16:04Z</time>
      </trkpt>
      <trkpt lat="45.8767" lon="4.81418">
        <ele>226</ele>
        <time>2016-08-26T09:16:05Z</time>
      </trkpt>
      <trkpt lat="45.87672" lon="4.81429">
        <ele>225</ele>
        <time>2016-08-26T09:16:06Z</time>
      </trkpt>
      <trkpt lat="45.87674" lon="4.81439">
        <ele>224</ele>
        <time>2016-08-26T09:16:07Z</time>
      </trkpt>
      <trkpt lat="45.87675" lon="4.81451">
        <ele>224</ele>
        <time>2016-08-26T09:16:08Z</time>
      </trkpt>
      <trkpt lat="45.87677" lon="4.81463">
        <ele>224</ele>
        <time>2016-08-26T09:16:09Z</time>
      </trkpt>
      <trkpt lat="45.87678" lon="4.81476">
        <ele>223</ele>
        <time>2016-08-26T09:16:10Z</time>
      </trkpt>
      <trkpt lat="45.87679" lon="4.81489">
        <ele>224</ele>
        <time>2016-08-26T09:16:11Z</time>
      </trkpt>
      <trkpt lat="45.87681" lon="4.81502">
        <ele>222</ele>
        <time>2016-08-26T09:16:12Z</time>
      </trkpt>
      <trkpt lat="45.87683" lon="4.81515">
        <ele>221</ele>
        <time>2016-08-26T09:16:13Z</time>
      </trkpt>
      <trkpt lat="45.87684" lon="4.81528">
        <ele>220</ele>
        <time>2016-08-26T09:16:14Z</time>
      </trkpt>
      <trkpt lat="45.87685" lon="4.8154">
        <ele>219</ele>
        <time>2016-08-26T09:16:15Z</time>
      </trkpt>
      <trkpt lat="45.87687" lon="4.81551">
        <ele>219</ele>
        <time>2016-08-26T09:16:16Z</time>
      </trkpt>
      <trkpt lat="45.87691" lon="4.8156">
        <ele>218</ele>
        <time>2016-08-26T09:16:17Z</time>
      </trkpt>
      <trkpt lat="45.87694" lon="4.81568">
        <ele>218</ele>
        <time>2016-08-26T09:16:18Z</time>
      </trkpt>
      <trkpt lat="45.87698" lon="4.81568">
        <ele>218</ele>
        <time>2016-08-26T09:16:19Z</time>
      </trkpt>
      <trkpt lat="45.87703" lon="4.81566">
        <ele>217</ele>
        <time>2016-08-26T09:16:20Z</time>
      </trkpt>
      <trkpt lat="45.87707" lon="4.81564">
        <ele>217</ele>
        <time>2016-08-26T09:16:21Z</time>
      </trkpt>
      <trkpt lat="45.87713" lon="4.81554">
        <ele>217</ele>
        <time>2016-08-26T09:16:23Z</time>
      </trkpt>
      <trkpt lat="45.87713" lon="4.81545">
        <ele>217</ele>
        <time>2016-08-26T09:16:24Z</time>
      </trkpt>
      <trkpt lat="45.87713" lon="4.81535">
        <ele>217</ele>
        <time>2016-08-26T09:16:25Z</time>
      </trkpt>
      <trkpt lat="45.87712" lon="4.81526">
        <ele>218</ele>
        <time>2016-08-26T09:16:26Z</time>
      </trkpt>
      <trkpt lat="45.87712" lon="4.81517">
        <ele>218</ele>
        <time>2016-08-26T09:16:27Z</time>
      </trkpt>
      <trkpt lat="45.87712" lon="4.81508">
        <ele>218</ele>
        <time>2016-08-26T09:16:28Z</time>
      </trkpt>
      <trkpt lat="45.87713" lon="4.81499">
        <ele>221</ele>
        <time>2016-08-26T09:16:29Z</time>
      </trkpt>
      <trkpt lat="45.87714" lon="4.81491">
        <ele>221</ele>
        <time>2016-08-26T09:16:30Z</time>
      </trkpt>
      <trkpt lat="45.87719" lon="4.81487">
        <ele>221</ele>
        <time>2016-08-26T09:16:31Z</time>
      </trkpt>
      <trkpt lat="45.87722" lon="4.81485">
        <ele>221</ele>
        <time>2016-08-26T09:16:32Z</time>
      </trkpt>
      <trkpt lat="45.87729" lon="4.81487">
        <ele>220</ele>
        <time>2016-08-26T09:16:33Z</time>
      </trkpt>
      <trkpt lat="45.87733" lon="4.8149">
        <ele>219</ele>
        <time>2016-08-26T09:16:34Z</time>
      </trkpt>
      <trkpt lat="45.87737" lon="4.81495">
        <ele>218</ele>
        <time>2016-08-26T09:16:35Z</time>
      </trkpt>
      <trkpt lat="45.8774" lon="4.81502">
        <ele>216</ele>
        <time>2016-08-26T09:16:36Z</time>
      </trkpt>
      <trkpt lat="45.87743" lon="4.8151">
        <ele>216</ele>
        <time>2016-08-26T09:16:37Z</time>
      </trkpt>
      <trkpt lat="45.87744" lon="4.81521">
        <ele>216</ele>
        <time>2016-08-26T09:16:38Z</time>
      </trkpt>
      <trkpt lat="45.87747" lon="4.81532">
        <ele>216</ele>
        <time>2016-08-26T09:16:39Z</time>
      </trkpt>
      <trkpt lat="45.87749" lon="4.81543">
        <ele>215</ele>
        <time>2016-08-26T09:16:40Z</time>
      </trkpt>
      <trkpt lat="45.87753" lon="4.81553">
        <ele>212</ele>
        <time>2016-08-26T09:16:41Z</time>
      </trkpt>
      <trkpt lat="45.87756" lon="4.81563">
        <ele>211</ele>
        <time>2016-08-26T09:16:42Z</time>
      </trkpt>
      <trkpt lat="45.8776" lon="4.81574">
        <ele>211</ele>
        <time>2016-08-26T09:16:43Z</time>
      </trkpt>
      <trkpt lat="45.87763" lon="4.81586">
        <ele>208</ele>
        <time>2016-08-26T09:16:44Z</time>
      </trkpt>
      <trkpt lat="45.87767" lon="4.81598">
        <ele>208</ele>
        <time>2016-08-26T09:16:45Z</time>
      </trkpt>
      <trkpt lat="45.8777" lon="4.81612">
        <ele>208</ele>
        <time>2016-08-26T09:16:46Z</time>
      </trkpt>
      <trkpt lat="45.87775" lon="4.81625">
        <ele>207</ele>
        <time>2016-08-26T09:16:47Z</time>
      </trkpt>
      <trkpt lat="45.87779" lon="4.81638">
        <ele>207</ele>
        <time>2016-08-26T09:16:48Z</time>
      </trkpt>
      <trkpt lat="45.87782" lon="4.81651">
        <ele>207</ele>
        <time>2016-08-26T09:16:49Z</time>
      </trkpt>
      <trkpt lat="45.87785" lon="4.81664">
        <ele>207</ele>
        <time>2016-08-26T09:16:50Z</time>
      </trkpt>
      <trkpt lat="45.87786" lon="4.81678">
        <ele>201</ele>
        <time>2016-08-26T09:16:51Z</time>
      </trkpt>
      <trkpt lat="45.87788" lon="4.81693">
        <ele>200</ele>
        <time>2016-08-26T09:16:52Z</time>
      </trkpt>
      <trkpt lat="45.87791" lon="4.81705">
        <ele>199</ele>
        <time>2016-08-26T09:16:53Z</time>
      </trkpt>
      <trkpt lat="45.87794" lon="4.81718">
        <ele>199</ele>
        <time>2016-08-26T09:16:54Z</time>
      </trkpt>
      <trkpt lat="45.87796" lon="4.81732">
        <ele>198</ele>
        <time>2016-08-26T09:16:55Z</time>
      </trkpt>
      <trkpt lat="45.87799" lon="4.81745">
        <ele>197</ele>
        <time>2016-08-26T09:16:56Z</time>
      </trkpt>
      <trkpt lat="45.87802" lon="4.81759">
        <ele>191</ele>
        <time>2016-08-26T09:16:57Z</time>
      </trkpt>
      <trkpt lat="45.87804" lon="4.81772">
        <ele>191</ele>
        <time>2016-08-26T09:16:58Z</time>
      </trkpt>
      <trkpt lat="45.87808" lon="4.81784">
        <ele>191</ele>
        <time>2016-08-26T09:16:59Z</time>
      </trkpt>
      <trkpt lat="45.87812" lon="4.81796">
        <ele>190</ele>
        <time>2016-08-26T09:17:00Z</time>
      </trkpt>
      <trkpt lat="45.87818" lon="4.81807">
        <ele>189</ele>
        <time>2016-08-26T09:17:01Z</time>
      </trkpt>
      <trkpt lat="45.87824" lon="4.81818">
        <ele>188</ele>
        <time>2016-08-26T09:17:02Z</time>
      </trkpt>
      <trkpt lat="45.8783" lon="4.81827">
        <ele>186</ele>
        <time>2016-08-26T09:17:03Z</time>
      </trkpt>
      <trkpt lat="45.87838" lon="4.81836">
        <ele>184</ele>
        <time>2016-08-26T09:17:04Z</time>
      </trkpt>
      <trkpt lat="45.87845" lon="4.81845">
        <ele>184</ele>
        <time>2016-08-26T09:17:05Z</time>
      </trkpt>
      <trkpt lat="45.87853" lon="4.81853">
        <ele>184</ele>
        <time>2016-08-26T09:17:06Z</time>
      </trkpt>
      <trkpt lat="45.87861" lon="4.8186">
        <ele>184</ele>
        <time>2016-08-26T09:17:07Z</time>
      </trkpt>
      <trkpt lat="45.87868" lon="4.81868">
        <ele>184</ele>
        <time>2016-08-26T09:17:08Z</time>
      </trkpt>
      <trkpt lat="45.87876" lon="4.81876">
        <ele>184</ele>
        <time>2016-08-26T09:17:09Z</time>
      </trkpt>
      <trkpt lat="45.87883" lon="4.81884">
        <ele>183</ele>
        <time>2016-08-26T09:17:10Z</time>
      </trkpt>
      <trkpt lat="45.8789" lon="4.81893">
        <ele>183</ele>
        <time>2016-08-26T09:17:11Z</time>
      </trkpt>
      <trkpt lat="45.87896" lon="4.81902">
        <ele>182</ele>
        <time>2016-08-26T09:17:12Z</time>
      </trkpt>
      <trkpt lat="45.87901" lon="4.81911">
        <ele>181</ele>
        <time>2016-08-26T09:17:13Z</time>
      </trkpt>
      <trkpt lat="45.87905" lon="4.8192">
        <ele>181</ele>
        <time>2016-08-26T09:17:14Z</time>
      </trkpt>
      <trkpt lat="45.8791" lon="4.81931">
        <ele>182</ele>
        <time>2016-08-26T09:17:15Z</time>
      </trkpt>
      <trkpt lat="45.87913" lon="4.81942">
        <ele>182</ele>
        <time>2016-08-26T09:17:16Z</time>
      </trkpt>
      <trkpt lat="45.87916" lon="4.81953">
        <ele>183</ele>
        <time>2016-08-26T09:17:17Z</time>
      </trkpt>
      <trkpt lat="45.87919" lon="4.81965">
        <ele>176</ele>
        <time>2016-08-26T09:17:18Z</time>
      </trkpt>
      <trkpt lat="45.87922" lon="4.81976">
        <ele>176</ele>
        <time>2016-08-26T09:17:19Z</time>
      </trkpt>
      <trkpt lat="45.87926" lon="4.81988">
        <ele>176</ele>
        <time>2016-08-26T09:17:20Z</time>
      </trkpt>
      <trkpt lat="45.87931" lon="4.82">
        <ele>176</ele>
        <time>2016-08-26T09:17:21Z</time>
      </trkpt>
      <trkpt lat="45.87936" lon="4.8201">
        <ele>175</ele>
        <time>2016-08-26T09:17:22Z</time>
      </trkpt>
      <trkpt lat="45.87942" lon="4.82019">
        <ele>175</ele>
        <time>2016-08-26T09:17:23Z</time>
      </trkpt>
      <trkpt lat="45.87949" lon="4.82027">
        <ele>174</ele>
        <time>2016-08-26T09:17:24Z</time>
      </trkpt>
      <trkpt lat="45.87956" lon="4.82033">
        <ele>174</ele>
        <time>2016-08-26T09:17:25Z</time>
      </trkpt>
      <trkpt lat="45.87964" lon="4.82039">
        <ele>174</ele>
        <time>2016-08-26T09:17:26Z</time>
      </trkpt>
      <trkpt lat="45.87971" lon="4.82043">
        <ele>173</ele>
        <time>2016-08-26T09:17:27Z</time>
      </trkpt>
      <trkpt lat="45.87977" lon="4.82047">
        <ele>173</ele>
        <time>2016-08-26T09:17:28Z</time>
      </trkpt>
      <trkpt lat="45.87985" lon="4.82053">
        <ele>173</ele>
        <time>2016-08-26T09:17:30Z</time>
      </trkpt>
      <trkpt lat="45.87988" lon="4.82057">
        <ele>173</ele>
        <time>2016-08-26T09:17:31Z</time>
      </trkpt>
      <trkpt lat="45.87989" lon="4.8207">
        <ele>172</ele>
        <time>2016-08-26T09:17:34Z</time>
      </trkpt>
      <trkpt lat="45.87989" lon="4.82072">
        <ele>172</ele>
        <time>2016-08-26T09:17:35Z</time>
      </trkpt>
      <trkpt lat="45.87984" lon="4.8208">
        <ele>172</ele>
        <time>2016-08-26T09:17:38Z</time>
      </trkpt>
      <trkpt lat="45.87983" lon="4.82084">
        <ele>171</ele>
        <time>2016-08-26T09:17:39Z</time>
      </trkpt>
      <trkpt lat="45.8798" lon="4.82092">
        <ele>171</ele>
        <time>2016-08-26T09:17:41Z</time>
      </trkpt>
      <trkpt lat="45.87978" lon="4.82098">
        <ele>171</ele>
        <time>2016-08-26T09:17:42Z</time>
      </trkpt>
      <trkpt lat="45.87975" lon="4.82103">
        <ele>171</ele>
        <time>2016-08-26T09:17:43Z</time>
      </trkpt>
      <trkpt lat="45.87973" lon="4.82109">
        <ele>171</ele>
        <time>2016-08-26T09:17:44Z</time>
      </trkpt>
      <trkpt lat="45.87969" lon="4.82119">
        <ele>172</ele>
        <time>2016-08-26T09:17:46Z</time>
      </trkpt>
      <trkpt lat="45.87967" lon="4.82125">
        <ele>172</ele>
        <time>2016-08-26T09:17:47Z</time>
      </trkpt>
      <trkpt lat="45.87965" lon="4.82138">
        <ele>171</ele>
        <time>2016-08-26T09:17:49Z</time>
      </trkpt>
      <trkpt lat="45.87964" lon="4.82143">
        <ele>171</ele>
        <time>2016-08-26T09:17:50Z</time>
      </trkpt>
      <trkpt lat="45.87961" lon="4.82156">
        <ele>171</ele>
        <time>2016-08-26T09:17:52Z</time>
      </trkpt>
      <trkpt lat="45.87961" lon="4.82163">
        <ele>171</ele>
        <time>2016-08-26T09:17:53Z</time>
      </trkpt>
      <trkpt lat="45.8796" lon="4.8217">
        <ele>170</ele>
        <time>2016-08-26T09:17:54Z</time>
      </trkpt>
      <trkpt lat="45.87959" lon="4.82178">
        <ele>170</ele>
        <time>2016-08-26T09:17:55Z</time>
      </trkpt>
      <trkpt lat="45.87958" lon="4.82186">
        <ele>170</ele>
        <time>2016-08-26T09:17:56Z</time>
      </trkpt>
      <trkpt lat="45.87958" lon="4.82193">
        <ele>170</ele>
        <time>2016-08-26T09:17:57Z</time>
      </trkpt>
      <trkpt lat="45.87957" lon="4.82201">
        <ele>170</ele>
        <time>2016-08-26T09:17:58Z</time>
      </trkpt>
      <trkpt lat="45.87957" lon="4.82209">
        <ele>170</ele>
        <time>2016-08-26T09:17:59Z</time>
      </trkpt>
      <trkpt lat="45.87957" lon="4.82217">
        <ele>170</ele>
        <time>2016-08-26T09:18:00Z</time>
      </trkpt>
      <trkpt lat="45.87955" lon="4.82224">
        <ele>170</ele>
        <time>2016-08-26T09:18:01Z</time>
      </trkpt>
      <trkpt lat="45.87955" lon="4.82232">
        <ele>170</ele>
        <time>2016-08-26T09:18:02Z</time>
      </trkpt>
      <trkpt lat="45.87955" lon="4.82239">
        <ele>170</ele>
        <time>2016-08-26T09:18:03Z</time>
      </trkpt>
      <trkpt lat="45.87954" lon="4.82245">
        <ele>170</ele>
        <time>2016-08-26T09:18:04Z</time>
      </trkpt>
      <trkpt lat="45.87954" lon="4.82252">
        <ele>168</ele>
        <time>2016-08-26T09:18:05Z</time>
      </trkpt>
      <trkpt lat="45.87953" lon="4.82258">
        <ele>169</ele>
        <time>2016-08-26T09:18:06Z</time>
      </trkpt>
      <trkpt lat="45.87951" lon="4.82266">
        <ele>169</ele>
        <time>2016-08-26T09:18:07Z</time>
      </trkpt>
      <trkpt lat="45.8795" lon="4.82273">
        <ele>168</ele>
        <time>2016-08-26T09:18:08Z</time>
      </trkpt>
      <trkpt lat="45.87949" lon="4.82281">
        <ele>168</ele>
        <time>2016-08-26T09:18:09Z</time>
      </trkpt>
      <trkpt lat="45.87948" lon="4.82288">
        <ele>168</ele>
        <time>2016-08-26T09:18:10Z</time>
      </trkpt>
      <trkpt lat="45.87947" lon="4.82295">
        <ele>168</ele>
        <time>2016-08-26T09:18:11Z</time>
      </trkpt>
      <trkpt lat="45.87946" lon="4.82303">
        <ele>168</ele>
        <time>2016-08-26T09:18:12Z</time>
      </trkpt>
      <trkpt lat="45.87945" lon="4.82311">
        <ele>168</ele>
        <time>2016-08-26T09:18:13Z</time>
      </trkpt>
      <trkpt lat="45.87944" lon="4.82319">
        <ele>168</ele>
        <time>2016-08-26T09:18:14Z</time>
      </trkpt>
      <trkpt lat="45.87944" lon="4.82327">
        <ele>168</ele>
        <time>2016-08-26T09:18:15Z</time>
      </trkpt>
      <trkpt lat="45.87944" lon="4.82336">
        <ele>168</ele>
        <time>2016-08-26T09:18:16Z</time>
      </trkpt>
      <trkpt lat="45.87943" lon="4.82345">
        <ele>168</ele>
        <time>2016-08-26T09:18:17Z</time>
      </trkpt>
      <trkpt lat="45.87942" lon="4.82353">
        <ele>168</ele>
        <time>2016-08-26T09:18:18Z</time>
      </trkpt>
      <trkpt lat="45.8794" lon="4.82361">
        <ele>167</ele>
        <time>2016-08-26T09:18:19Z</time>
      </trkpt>
      <trkpt lat="45.8794" lon="4.82369">
        <ele>167</ele>
        <time>2016-08-26T09:18:20Z</time>
      </trkpt>
      <trkpt lat="45.87938" lon="4.82376">
        <ele>167</ele>
        <time>2016-08-26T09:18:21Z</time>
      </trkpt>
      <trkpt lat="45.87937" lon="4.82384">
        <ele>167</ele>
        <time>2016-08-26T09:18:22Z</time>
      </trkpt>
      <trkpt lat="45.87935" lon="4.82391">
        <ele>167</ele>
        <time>2016-08-26T09:18:23Z</time>
      </trkpt>
      <trkpt lat="45.87934" lon="4.82399">
        <ele>167</ele>
        <time>2016-08-26T09:18:24Z</time>
      </trkpt>
      <trkpt lat="45.87933" lon="4.82407">
        <ele>167</ele>
        <time>2016-08-26T09:18:25Z</time>
      </trkpt>
      <trkpt lat="45.87932" lon="4.82414">
        <ele>167</ele>
        <time>2016-08-26T09:18:26Z</time>
      </trkpt>
      <trkpt lat="45.87931" lon="4.82422">
        <ele>167</ele>
        <time>2016-08-26T09:18:27Z</time>
      </trkpt>
      <trkpt lat="45.8793" lon="4.8243">
        <ele>167</ele>
        <time>2016-08-26T09:18:28Z</time>
      </trkpt>
      <trkpt lat="45.87928" lon="4.82439">
        <ele>167</ele>
        <time>2016-08-26T09:18:29Z</time>
      </trkpt>
      <trkpt lat="45.87927" lon="4.82447">
        <ele>167</ele>
        <time>2016-08-26T09:18:30Z</time>
      </trkpt>
      <trkpt lat="45.87925" lon="4.82456">
        <ele>167</ele>
        <time>2016-08-26T09:18:31Z</time>
      </trkpt>
      <trkpt lat="45.87923" lon="4.82465">
        <ele>167</ele>
        <time>2016-08-26T09:18:32Z</time>
      </trkpt>
      <trkpt lat="45.87921" lon="4.82473">
        <ele>167</ele>
        <time>2016-08-26T09:18:33Z</time>
      </trkpt>
      <trkpt lat="45.87919" lon="4.82482">
        <ele>167</ele>
        <time>2016-08-26T09:18:34Z</time>
      </trkpt>
      <trkpt lat="45.87917" lon="4.82491">
        <ele>167</ele>
        <time>2016-08-26T09:18:35Z</time>
      </trkpt>
      <trkpt lat="45.87916" lon="4.82499">
        <ele>168</ele>
        <time>2016-08-26T09:18:36Z</time>
      </trkpt>
      <trkpt lat="45.87914" lon="4.82508">
        <ele>168</ele>
        <time>2016-08-26T09:18:37Z</time>
      </trkpt>
      <trkpt lat="45.87913" lon="4.82517">
        <ele>168</ele>
        <time>2016-08-26T09:18:38Z</time>
      </trkpt>
      <trkpt lat="45.87911" lon="4.82524">
        <ele>168</ele>
        <time>2016-08-26T09:18:39Z</time>
      </trkpt>
      <trkpt lat="45.8791" lon="4.82532">
        <ele>168</ele>
        <time>2016-08-26T09:18:40Z</time>
      </trkpt>
      <trkpt lat="45.87909" lon="4.82538">
        <ele>168</ele>
        <time>2016-08-26T09:18:41Z</time>
      </trkpt>
      <trkpt lat="45.87907" lon="4.82545">
        <ele>168</ele>
        <time>2016-08-26T09:18:42Z</time>
      </trkpt>
      <trkpt lat="45.87906" lon="4.82552">
        <ele>168</ele>
        <time>2016-08-26T09:18:43Z</time>
      </trkpt>
      <trkpt lat="45.87905" lon="4.82558">
        <ele>168</ele>
        <time>2016-08-26T09:18:44Z</time>
      </trkpt>
      <trkpt lat="45.87903" lon="4.82565">
        <ele>167</ele>
        <time>2016-08-26T09:18:45Z</time>
      </trkpt>
      <trkpt lat="45.87901" lon="4.82572">
        <ele>167</ele>
        <time>2016-08-26T09:18:46Z</time>
      </trkpt>
      <trkpt lat="45.87899" lon="4.82578">
        <ele>167</ele>
        <time>2016-08-26T09:18:47Z</time>
      </trkpt>
      <trkpt lat="45.87897" lon="4.82586">
        <ele>167</ele>
        <time>2016-08-26T09:18:48Z</time>
      </trkpt>
      <trkpt lat="45.87895" lon="4.82593">
        <ele>167</ele>
        <time>2016-08-26T09:18:49Z</time>
      </trkpt>
      <trkpt lat="45.87893" lon="4.82601">
        <ele>167</ele>
        <time>2016-08-26T09:18:50Z</time>
      </trkpt>
      <trkpt lat="45.87891" lon="4.82609">
        <ele>167</ele>
        <time>2016-08-26T09:18:51Z</time>
      </trkpt>
      <trkpt lat="45.8789" lon="4.82616">
        <ele>167</ele>
        <time>2016-08-26T09:18:52Z</time>
      </trkpt>
      <trkpt lat="45.87888" lon="4.82624">
        <ele>168</ele>
        <time>2016-08-26T09:18:53Z</time>
      </trkpt>
      <trkpt lat="45.87887" lon="4.82632">
        <ele>168</ele>
        <time>2016-08-26T09:18:54Z</time>
      </trkpt>
      <trkpt lat="45.87885" lon="4.8264">
        <ele>168</ele>
        <time>2016-08-26T09:18:55Z</time>
      </trkpt>
      <trkpt lat="45.87883" lon="4.82647">
        <ele>168</ele>
        <time>2016-08-26T09:18:56Z</time>
      </trkpt>
      <trkpt lat="45.87881" lon="4.82655">
        <ele>168</ele>
        <time>2016-08-26T09:18:57Z</time>
      </trkpt>
      <trkpt lat="45.87879" lon="4.82663">
        <ele>168</ele>
        <time>2016-08-26T09:18:58Z</time>
      </trkpt>
      <trkpt lat="45.87878" lon="4.8267">
        <ele>169</ele>
        <time>2016-08-26T09:18:59Z</time>
      </trkpt>
      <trkpt lat="45.87876" lon="4.82678">
        <ele>169</ele>
        <time>2016-08-26T09:19:00Z</time>
      </trkpt>
      <trkpt lat="45.87875" lon="4.82686">
        <ele>169</ele>
        <time>2016-08-26T09:19:01Z</time>
      </trkpt>
      <trkpt lat="45.87874" lon="4.82695">
        <ele>169</ele>
        <time>2016-08-26T09:19:02Z</time>
      </trkpt>
      <trkpt lat="45.87875" lon="4.82704">
        <ele>169</ele>
        <time>2016-08-26T09:19:03Z</time>
      </trkpt>
      <trkpt lat="45.87875" lon="4.82713">
        <ele>169</ele>
        <time>2016-08-26T09:19:04Z</time>
      </trkpt>
      <trkpt lat="45.87875" lon="4.82722">
        <ele>169</ele>
        <time>2016-08-26T09:19:05Z</time>
      </trkpt>
      <trkpt lat="45.87875" lon="4.8273">
        <ele>169</ele>
        <time>2016-08-26T09:19:06Z</time>
      </trkpt>
      <trkpt lat="45.87875" lon="4.82737">
        <ele>169</ele>
        <time>2016-08-26T09:19:07Z</time>
      </trkpt>
      <trkpt lat="45.87875" lon="4.82745">
        <ele>169</ele>
        <time>2016-08-26T09:19:08Z</time>
      </trkpt>
      <trkpt lat="45.87876" lon="4.82752">
        <ele>169</ele>
        <time>2016-08-26T09:19:09Z</time>
      </trkpt>
      <trkpt lat="45.87876" lon="4.82758">
        <ele>169</ele>
        <time>2016-08-26T09:19:10Z</time>
      </trkpt>
      <trkpt lat="45.87877" lon="4.82765">
        <ele>169</ele>
        <time>2016-08-26T09:19:11Z</time>
      </trkpt>
      <trkpt lat="45.87878" lon="4.82771">
        <ele>169</ele>
        <time>2016-08-26T09:19:12Z</time>
      </trkpt>
      <trkpt lat="45.87878" lon="4.82779">
        <ele>169</ele>
        <time>2016-08-26T09:19:13Z</time>
      </trkpt>
      <trkpt lat="45.87879" lon="4.82788">
        <ele>169</ele>
        <time>2016-08-26T09:19:14Z</time>
      </trkpt>
      <trkpt lat="45.8788" lon="4.82797">
        <ele>169</ele>
        <time>2016-08-26T09:19:15Z</time>
      </trkpt>
      <trkpt lat="45.8788" lon="4.82805">
        <ele>169</ele>
        <time>2016-08-26T09:19:16Z</time>
      </trkpt>
      <trkpt lat="45.87881" lon="4.82813">
        <ele>169</ele>
        <time>2016-08-26T09:19:17Z</time>
      </trkpt>
      <trkpt lat="45.87881" lon="4.82821">
        <ele>169</ele>
        <time>2016-08-26T09:19:18Z</time>
      </trkpt>
      <trkpt lat="45.87882" lon="4.82829">
        <ele>169</ele>
        <time>2016-08-26T09:19:19Z</time>
      </trkpt>
      <trkpt lat="45.87882" lon="4.82835">
        <ele>169</ele>
        <time>2016-08-26T09:19:20Z</time>
      </trkpt>
      <trkpt lat="45.87883" lon="4.82843">
        <ele>169</ele>
        <time>2016-08-26T09:19:21Z</time>
      </trkpt>
      <trkpt lat="45.87883" lon="4.8285">
        <ele>169</ele>
        <time>2016-08-26T09:19:22Z</time>
      </trkpt>
      <trkpt lat="45.87884" lon="4.82858">
        <ele>169</ele>
        <time>2016-08-26T09:19:23Z</time>
      </trkpt>
      <trkpt lat="45.87884" lon="4.82866">
        <ele>169</ele>
        <time>2016-08-26T09:19:24Z</time>
      </trkpt>
      <trkpt lat="45.87885" lon="4.82875">
        <ele>169</ele>
        <time>2016-08-26T09:19:25Z</time>
      </trkpt>
      <trkpt lat="45.87885" lon="4.82883">
        <ele>169</ele>
        <time>2016-08-26T09:19:26Z</time>
      </trkpt>
      <trkpt lat="45.87884" lon="4.82891">
        <ele>169</ele>
        <time>2016-08-26T09:19:27Z</time>
      </trkpt>
      <trkpt lat="45.87884" lon="4.829">
        <ele>169</ele>
        <time>2016-08-26T09:19:28Z</time>
      </trkpt>
      <trkpt lat="45.87885" lon="4.82908">
        <ele>168</ele>
        <time>2016-08-26T09:19:29Z</time>
      </trkpt>
      <trkpt lat="45.87885" lon="4.82917">
        <ele>168</ele>
        <time>2016-08-26T09:19:30Z</time>
      </trkpt>
      <trkpt lat="45.87885" lon="4.82925">
        <ele>168</ele>
        <time>2016-08-26T09:19:31Z</time>
      </trkpt>
      <trkpt lat="45.87885" lon="4.82934">
        <ele>168</ele>
        <time>2016-08-26T09:19:32Z</time>
      </trkpt>
      <trkpt lat="45.87884" lon="4.82944">
        <ele>168</ele>
        <time>2016-08-26T09:19:33Z</time>
      </trkpt>
      <trkpt lat="45.87884" lon="4.82954">
        <ele>168</ele>
        <time>2016-08-26T09:19:34Z</time>
      </trkpt>
      <trkpt lat="45.87883" lon="4.82963">
        <ele>168</ele>
        <time>2016-08-26T09:19:35Z</time>
      </trkpt>
      <trkpt lat="45.87883" lon="4.82972">
        <ele>168</ele>
        <time>2016-08-26T09:19:36Z</time>
      </trkpt>
      <trkpt lat="45.87882" lon="4.8298">
        <ele>168</ele>
        <time>2016-08-26T09:19:37Z</time>
      </trkpt>
      <trkpt lat="45.87881" lon="4.82988">
        <ele>168</ele>
        <time>2016-08-26T09:19:38Z</time>
      </trkpt>
      <trkpt lat="45.8788" lon="4.82996">
        <ele>168</ele>
        <time>2016-08-26T09:19:39Z</time>
      </trkpt>
      <trkpt lat="45.87879" lon="4.83005">
        <ele>169</ele>
        <time>2016-08-26T09:19:40Z</time>
      </trkpt>
      <trkpt lat="45.87878" lon="4.83014">
        <ele>169</ele>
        <time>2016-08-26T09:19:41Z</time>
      </trkpt>
      <trkpt lat="45.87877" lon="4.83022">
        <ele>169</ele>
        <time>2016-08-26T09:19:42Z</time>
      </trkpt>
      <trkpt lat="45.87876" lon="4.83031">
        <ele>169</ele>
        <time>2016-08-26T09:19:43Z</time>
      </trkpt>
      <trkpt lat="45.87875" lon="4.83039">
        <ele>169</ele>
        <time>2016-08-26T09:19:44Z</time>
      </trkpt>
      <trkpt lat="45.87874" lon="4.83048">
        <ele>169</ele>
        <time>2016-08-26T09:19:45Z</time>
      </trkpt>
      <trkpt lat="45.87873" lon="4.83056">
        <ele>169</ele>
        <time>2016-08-26T09:19:46Z</time>
      </trkpt>
      <trkpt lat="45.87873" lon="4.83064">
        <ele>169</ele>
        <time>2016-08-26T09:19:47Z</time>
      </trkpt>
      <trkpt lat="45.87872" lon="4.83073">
        <ele>169</ele>
        <time>2016-08-26T09:19:48Z</time>
      </trkpt>
      <trkpt lat="45.87872" lon="4.8308">
        <ele>169</ele>
        <time>2016-08-26T09:19:49Z</time>
      </trkpt>
      <trkpt lat="45.87871" lon="4.83087">
        <ele>170</ele>
        <time>2016-08-26T09:19:50Z</time>
      </trkpt>
      <trkpt lat="45.8787" lon="4.83094">
        <ele>170</ele>
        <time>2016-08-26T09:19:51Z</time>
      </trkpt>
      <trkpt lat="45.87869" lon="4.83101">
        <ele>170</ele>
        <time>2016-08-26T09:19:52Z</time>
      </trkpt>
      <trkpt lat="45.87868" lon="4.83108">
        <ele>170</ele>
        <time>2016-08-26T09:19:53Z</time>
      </trkpt>
      <trkpt lat="45.87867" lon="4.83115">
        <ele>170</ele>
        <time>2016-08-26T09:19:54Z</time>
      </trkpt>
      <trkpt lat="45.87866" lon="4.83123">
        <ele>170</ele>
        <time>2016-08-26T09:19:55Z</time>
      </trkpt>
      <trkpt lat="45.87864" lon="4.83129">
        <ele>170</ele>
        <time>2016-08-26T09:19:56Z</time>
      </trkpt>
      <trkpt lat="45.87863" lon="4.83137">
        <ele>170</ele>
        <time>2016-08-26T09:19:57Z</time>
      </trkpt>
      <trkpt lat="45.87862" lon="4.83145">
        <ele>170</ele>
        <time>2016-08-26T09:19:58Z</time>
      </trkpt>
      <trkpt lat="45.87861" lon="4.83152">
        <ele>171</ele>
        <time>2016-08-26T09:19:59Z</time>
      </trkpt>
      <trkpt lat="45.8786" lon="4.83159">
        <ele>171</ele>
        <time>2016-08-26T09:20:00Z</time>
      </trkpt>
      <trkpt lat="45.87859" lon="4.83167">
        <ele>171</ele>
        <time>2016-08-26T09:20:01Z</time>
      </trkpt>
      <trkpt lat="45.87857" lon="4.83174">
        <ele>170</ele>
        <time>2016-08-26T09:20:02Z</time>
      </trkpt>
      <trkpt lat="45.87855" lon="4.83181">
        <ele>170</ele>
        <time>2016-08-26T09:20:03Z</time>
      </trkpt>
      <trkpt lat="45.87852" lon="4.8319">
        <ele>170</ele>
        <time>2016-08-26T09:20:04Z</time>
      </trkpt>
      <trkpt lat="45.8785" lon="4.83198">
        <ele>170</ele>
        <time>2016-08-26T09:20:05Z</time>
      </trkpt>
      <trkpt lat="45.87849" lon="4.83206">
        <ele>170</ele>
        <time>2016-08-26T09:20:06Z</time>
      </trkpt>
      <trkpt lat="45.87847" lon="4.83213">
        <ele>170</ele>
        <time>2016-08-26T09:20:07Z</time>
      </trkpt>
      <trkpt lat="45.87844" lon="4.8322">
        <ele>170</ele>
        <time>2016-08-26T09:20:08Z</time>
      </trkpt>
      <trkpt lat="45.87842" lon="4.83227">
        <ele>170</ele>
        <time>2016-08-26T09:20:09Z</time>
      </trkpt>
      <trkpt lat="45.8784" lon="4.83235">
        <ele>170</ele>
        <time>2016-08-26T09:20:10Z</time>
      </trkpt>
      <trkpt lat="45.87839" lon="4.83243">
        <ele>170</ele>
        <time>2016-08-26T09:20:11Z</time>
      </trkpt>
      <trkpt lat="45.87837" lon="4.8325">
        <ele>170</ele>
        <time>2016-08-26T09:20:12Z</time>
      </trkpt>
      <trkpt lat="45.87834" lon="4.83258">
        <ele>170</ele>
        <time>2016-08-26T09:20:13Z</time>
      </trkpt>
      <trkpt lat="45.87833" lon="4.83266">
        <ele>170</ele>
        <time>2016-08-26T09:20:14Z</time>
      </trkpt>
      <trkpt lat="45.87831" lon="4.83274">
        <ele>170</ele>
        <time>2016-08-26T09:20:15Z</time>
      </trkpt>
      <trkpt lat="45.87828" lon="4.83281">
        <ele>170</ele>
        <time>2016-08-26T09:20:16Z</time>
      </trkpt>
      <trkpt lat="45.87827" lon="4.83288">
        <ele>169</ele>
        <time>2016-08-26T09:20:17Z</time>
      </trkpt>
      <trkpt lat="45.87825" lon="4.83296">
        <ele>169</ele>
        <time>2016-08-26T09:20:18Z</time>
      </trkpt>
      <trkpt lat="45.87823" lon="4.83303">
        <ele>169</ele>
        <time>2016-08-26T09:20:19Z</time>
      </trkpt>
      <trkpt lat="45.87821" lon="4.8331">
        <ele>168</ele>
        <time>2016-08-26T09:20:20Z</time>
      </trkpt>
      <trkpt lat="45.87818" lon="4.83316">
        <ele>168</ele>
        <time>2016-08-26T09:20:21Z</time>
      </trkpt>
      <trkpt lat="45.87816" lon="4.83323">
        <ele>168</ele>
        <time>2016-08-26T09:20:22Z</time>
      </trkpt>
      <trkpt lat="45.87814" lon="4.8333">
        <ele>168</ele>
        <time>2016-08-26T09:20:23Z</time>
      </trkpt>
      <trkpt lat="45.87812" lon="4.83336">
        <ele>167</ele>
        <time>2016-08-26T09:20:24Z</time>
      </trkpt>
      <trkpt lat="45.87809" lon="4.83343">
        <ele>167</ele>
        <time>2016-08-26T09:20:25Z</time>
      </trkpt>
      <trkpt lat="45.87807" lon="4.8335">
        <ele>167</ele>
        <time>2016-08-26T09:20:26Z</time>
      </trkpt>
      <trkpt lat="45.87804" lon="4.83356">
        <ele>168</ele>
        <time>2016-08-26T09:20:27Z</time>
      </trkpt>
      <trkpt lat="45.87802" lon="4.83361">
        <ele>168</ele>
        <time>2016-08-26T09:20:28Z</time>
      </trkpt>
      <trkpt lat="45.87799" lon="4.83367">
        <ele>168</ele>
        <time>2016-08-26T09:20:29Z</time>
      </trkpt>
      <trkpt lat="45.87796" lon="4.83373">
        <ele>168</ele>
        <time>2016-08-26T09:20:30Z</time>
      </trkpt>
      <trkpt lat="45.87793" lon="4.8338">
        <ele>168</ele>
        <time>2016-08-26T09:20:31Z</time>
      </trkpt>
      <trkpt lat="45.8779" lon="4.83386">
        <ele>168</ele>
        <time>2016-08-26T09:20:32Z</time>
      </trkpt>
      <trkpt lat="45.87787" lon="4.83393">
        <ele>169</ele>
        <time>2016-08-26T09:20:33Z</time>
      </trkpt>
      <trkpt lat="45.87785" lon="4.834">
        <ele>169</ele>
        <time>2016-08-26T09:20:34Z</time>
      </trkpt>
      <trkpt lat="45.87782" lon="4.83408">
        <ele>169</ele>
        <time>2016-08-26T09:20:35Z</time>
      </trkpt>
      <trkpt lat="45.87779" lon="4.83415">
        <ele>169</ele>
        <time>2016-08-26T09:20:36Z</time>
      </trkpt>
      <trkpt lat="45.87777" lon="4.83422">
        <ele>170</ele>
        <time>2016-08-26T09:20:37Z</time>
      </trkpt>
      <trkpt lat="45.87773" lon="4.83428">
        <ele>170</ele>
        <time>2016-08-26T09:20:38Z</time>
      </trkpt>
      <trkpt lat="45.87769" lon="4.83434">
        <ele>170</ele>
        <time>2016-08-26T09:20:39Z</time>
      </trkpt>
      <trkpt lat="45.87766" lon="4.8344">
        <ele>170</ele>
        <time>2016-08-26T09:20:40Z</time>
      </trkpt>
      <trkpt lat="45.87762" lon="4.83446">
        <ele>170</ele>
        <time>2016-08-26T09:20:41Z</time>
      </trkpt>
      <trkpt lat="45.87758" lon="4.83451">
        <ele>170</ele>
        <time>2016-08-26T09:20:42Z</time>
      </trkpt>
      <trkpt lat="45.87754" lon="4.83455">
        <ele>170</ele>
        <time>2016-08-26T09:20:43Z</time>
      </trkpt>
      <trkpt lat="45.8775" lon="4.8346">
        <ele>172</ele>
        <time>2016-08-26T09:20:44Z</time>
      </trkpt>
      <trkpt lat="45.87747" lon="4.83465">
        <ele>172</ele>
        <time>2016-08-26T09:20:45Z</time>
      </trkpt>
      <trkpt lat="45.87743" lon="4.8347">
        <ele>172</ele>
        <time>2016-08-26T09:20:46Z</time>
      </trkpt>
      <trkpt lat="45.87739" lon="4.83475">
        <ele>172</ele>
        <time>2016-08-26T09:20:47Z</time>
      </trkpt>
      <trkpt lat="45.87735" lon="4.83479">
        <ele>172</ele>
        <time>2016-08-26T09:20:48Z</time>
      </trkpt>
      <trkpt lat="45.87732" lon="4.83484">
        <ele>172</ele>
        <time>2016-08-26T09:20:49Z</time>
      </trkpt>
      <trkpt lat="45.87728" lon="4.83488">
        <ele>172</ele>
        <time>2016-08-26T09:20:50Z</time>
      </trkpt>
      <trkpt lat="45.87725" lon="4.83493">
        <ele>172</ele>
        <time>2016-08-26T09:20:51Z</time>
      </trkpt>
      <trkpt lat="45.87721" lon="4.83497">
        <ele>172</ele>
        <time>2016-08-26T09:20:52Z</time>
      </trkpt>
      <trkpt lat="45.87717" lon="4.83501">
        <ele>170</ele>
        <time>2016-08-26T09:20:53Z</time>
      </trkpt>
      <trkpt lat="45.87713" lon="4.83505">
        <ele>170</ele>
        <time>2016-08-26T09:20:54Z</time>
      </trkpt>
      <trkpt lat="45.87709" lon="4.83509">
        <ele>170</ele>
        <time>2016-08-26T09:20:55Z</time>
      </trkpt>
      <trkpt lat="45.87703" lon="4.83518">
        <ele>169</ele>
        <time>2016-08-26T09:20:57Z</time>
      </trkpt>
      <trkpt lat="45.87699" lon="4.83521">
        <ele>169</ele>
        <time>2016-08-26T09:20:58Z</time>
      </trkpt>
      <trkpt lat="45.87691" lon="4.83524">
        <ele>169</ele>
        <time>2016-08-26T09:21:00Z</time>
      </trkpt>
      <trkpt lat="45.87687" lon="4.83525">
        <ele>169</ele>
        <time>2016-08-26T09:21:01Z</time>
      </trkpt>
      <trkpt lat="45.87679" lon="4.83524">
        <ele>169</ele>
        <time>2016-08-26T09:21:03Z</time>
      </trkpt>
      <trkpt lat="45.87675" lon="4.83524">
        <ele>169</ele>
        <time>2016-08-26T09:21:04Z</time>
      </trkpt>
      <trkpt lat="45.87669" lon="4.83532">
        <ele>169</ele>
        <time>2016-08-26T09:21:06Z</time>
      </trkpt>
      <trkpt lat="45.87668" lon="4.83539">
        <ele>168</ele>
        <time>2016-08-26T09:21:07Z</time>
      </trkpt>
      <trkpt lat="45.8767" lon="4.83548">
        <ele>168</ele>
        <time>2016-08-26T09:21:08Z</time>
      </trkpt>
      <trkpt lat="45.87671" lon="4.83555">
        <ele>168</ele>
        <time>2016-08-26T09:21:09Z</time>
      </trkpt>
      <trkpt lat="45.87673" lon="4.83562">
        <ele>167</ele>
        <time>2016-08-26T09:21:10Z</time>
      </trkpt>
      <trkpt lat="45.87674" lon="4.83569">
        <ele>167</ele>
        <time>2016-08-26T09:21:11Z</time>
      </trkpt>
      <trkpt lat="45.87675" lon="4.83575">
        <ele>166</ele>
        <time>2016-08-26T09:21:12Z</time>
      </trkpt>
      <trkpt lat="45.87676" lon="4.83582">
        <ele>166</ele>
        <time>2016-08-26T09:21:13Z</time>
      </trkpt>
      <trkpt lat="45.87678" lon="4.83594">
        <ele>165</ele>
        <time>2016-08-26T09:21:15Z</time>
      </trkpt>
      <trkpt lat="45.87678" lon="4.836">
        <ele>165</ele>
        <time>2016-08-26T09:21:16Z</time>
      </trkpt>
      <trkpt lat="45.87679" lon="4.83612">
        <ele>165</ele>
        <time>2016-08-26T09:21:18Z</time>
      </trkpt>
      <trkpt lat="45.87679" lon="4.83618">
        <ele>165</ele>
        <time>2016-08-26T09:21:19Z</time>
      </trkpt>
      <trkpt lat="45.87681" lon="4.8363">
        <ele>165</ele>
        <time>2016-08-26T09:21:21Z</time>
      </trkpt>
      <trkpt lat="45.87682" lon="4.83636">
        <ele>165</ele>
        <time>2016-08-26T09:21:22Z</time>
      </trkpt>
      <trkpt lat="45.87683" lon="4.83647">
        <ele>165</ele>
        <time>2016-08-26T09:21:24Z</time>
      </trkpt>
      <trkpt lat="45.87684" lon="4.83652">
        <ele>165</ele>
        <time>2016-08-26T09:21:25Z</time>
      </trkpt>
      <trkpt lat="45.87685" lon="4.83662">
        <ele>165</ele>
        <time>2016-08-26T09:21:27Z</time>
      </trkpt>
      <trkpt lat="45.87685" lon="4.83667">
        <ele>165</ele>
        <time>2016-08-26T09:21:28Z</time>
      </trkpt>
      <trkpt lat="45.87686" lon="4.83677">
        <ele>165</ele>
        <time>2016-08-26T09:21:30Z</time>
      </trkpt>
      <trkpt lat="45.87686" lon="4.83682">
        <ele>165</ele>
        <time>2016-08-26T09:21:31Z</time>
      </trkpt>
      <trkpt lat="45.87687" lon="4.83693">
        <ele>165</ele>
        <time>2016-08-26T09:21:33Z</time>
      </trkpt>
      <trkpt lat="45.87687" lon="4.83699">
        <ele>165</ele>
        <time>2016-08-26T09:21:34Z</time>
      </trkpt>
      <trkpt lat="45.87689" lon="4.8371">
        <ele>165</ele>
        <time>2016-08-26T09:21:36Z</time>
      </trkpt>
      <trkpt lat="45.87689" lon="4.83717">
        <ele>165</ele>
        <time>2016-08-26T09:21:37Z</time>
      </trkpt>
      <trkpt lat="45.87691" lon="4.83723">
        <ele>165</ele>
        <time>2016-08-26T09:21:38Z</time>
      </trkpt>
      <trkpt lat="45.87693" lon="4.8373">
        <ele>165</ele>
        <time>2016-08-26T09:21:39Z</time>
      </trkpt>
      <trkpt lat="45.87695" lon="4.83736">
        <ele>165</ele>
        <time>2016-08-26T09:21:40Z</time>
      </trkpt>
      <trkpt lat="45.87696" lon="4.83743">
        <ele>165</ele>
        <time>2016-08-26T09:21:41Z</time>
      </trkpt>
      <trkpt lat="45.87697" lon="4.83754">
        <ele>167</ele>
        <time>2016-08-26T09:21:43Z</time>
      </trkpt>
      <trkpt lat="45.87697" lon="4.83761">
        <ele>167</ele>
        <time>2016-08-26T09:21:44Z</time>
      </trkpt>
      <trkpt lat="45.87697" lon="4.83769">
        <ele>167</ele>
        <time>2016-08-26T09:21:45Z</time>
      </trkpt>
      <trkpt lat="45.87697" lon="4.83776">
        <ele>168</ele>
        <time>2016-08-26T09:21:46Z</time>
      </trkpt>
      <trkpt lat="45.87697" lon="4.83788">
        <ele>168</ele>
        <time>2016-08-26T09:21:48Z</time>
      </trkpt>
      <trkpt lat="45.87697" lon="4.83794">
        <ele>168</ele>
        <time>2016-08-26T09:21:49Z</time>
      </trkpt>
      <trkpt lat="45.87696" lon="4.83804">
        <ele>169</ele>
        <time>2016-08-26T09:21:51Z</time>
      </trkpt>
      <trkpt lat="45.87696" lon="4.83809">
        <ele>169</ele>
        <time>2016-08-26T09:21:52Z</time>
      </trkpt>
      <trkpt lat="45.87695" lon="4.83821">
        <ele>169</ele>
        <time>2016-08-26T09:21:55Z</time>
      </trkpt>
      <trkpt lat="45.87695" lon="4.83827">
        <ele>170</ele>
        <time>2016-08-26T09:21:56Z</time>
      </trkpt>
      <trkpt lat="45.87696" lon="4.83838">
        <ele>172</ele>
        <time>2016-08-26T09:21:58Z</time>
      </trkpt>
      <trkpt lat="45.87698" lon="4.83843">
        <ele>172</ele>
        <time>2016-08-26T09:21:59Z</time>
      </trkpt>
      <trkpt lat="45.87706" lon="4.83849">
        <ele>172</ele>
        <time>2016-08-26T09:22:01Z</time>
      </trkpt>
      <trkpt lat="45.87709" lon="4.83849">
        <ele>172</ele>
        <time>2016-08-26T09:22:02Z</time>
      </trkpt>
      <trkpt lat="45.87717" lon="4.8385">
        <ele>172</ele>
        <time>2016-08-26T09:22:04Z</time>
      </trkpt>
      <trkpt lat="45.87721" lon="4.8385">
        <ele>172</ele>
        <time>2016-08-26T09:22:05Z</time>
      </trkpt>
      <trkpt lat="45.87729" lon="4.8385">
        <ele>172</ele>
        <time>2016-08-26T09:22:07Z</time>
      </trkpt>
      <trkpt lat="45.87733" lon="4.83852">
        <ele>172</ele>
        <time>2016-08-26T09:22:08Z</time>
      </trkpt>
      <trkpt lat="45.87735" lon="4.83852">
        <ele>172</ele>
        <time>2016-08-26T09:22:09Z</time>
      </trkpt>
      <trkpt lat="45.87737" lon="4.83851">
        <ele>172</ele>
        <time>2016-08-26T09:22:16Z</time>
      </trkpt>
      <trkpt lat="45.8774" lon="4.83851">
        <ele>172</ele>
        <time>2016-08-26T09:22:17Z</time>
      </trkpt>
      <trkpt lat="45.87748" lon="4.83849">
        <ele>172</ele>
        <time>2016-08-26T09:22:19Z</time>
      </trkpt>
      <trkpt lat="45.87753" lon="4.83848">
        <ele>171</ele>
        <time>2016-08-26T09:22:20Z</time>
      </trkpt>
      <trkpt lat="45.87758" lon="4.83845">
        <ele>171</ele>
        <time>2016-08-26T09:22:21Z</time>
      </trkpt>
      <trkpt lat="45.87763" lon="4.83842">
        <ele>172</ele>
        <time>2016-08-26T09:22:22Z</time>
      </trkpt>
      <trkpt lat="45.87768" lon="4.83839">
        <ele>172</ele>
        <time>2016-08-26T09:22:23Z</time>
      </trkpt>
      <trkpt lat="45.87773" lon="4.83836">
        <ele>172</ele>
        <time>2016-08-26T09:22:24Z</time>
      </trkpt>
      <trkpt lat="45.87777" lon="4.83832">
        <ele>170</ele>
        <time>2016-08-26T09:22:25Z</time>
      </trkpt>
      <trkpt lat="45.87781" lon="4.83827">
        <ele>170</ele>
        <time>2016-08-26T09:22:26Z</time>
      </trkpt>
      <trkpt lat="45.87786" lon="4.83823">
        <ele>170</ele>
        <time>2016-08-26T09:22:27Z</time>
      </trkpt>
      <trkpt lat="45.8779" lon="4.83818">
        <ele>169</ele>
        <time>2016-08-26T09:22:28Z</time>
      </trkpt>
      <trkpt lat="45.87794" lon="4.83813">
        <ele>169</ele>
        <time>2016-08-26T09:22:29Z</time>
      </trkpt>
      <trkpt lat="45.87798" lon="4.83809">
        <ele>169</ele>
        <time>2016-08-26T09:22:30Z</time>
      </trkpt>
      <trkpt lat="45.87802" lon="4.83805">
        <ele>169</ele>
        <time>2016-08-26T09:22:31Z</time>
      </trkpt>
      <trkpt lat="45.87806" lon="4.83801">
        <ele>169</ele>
        <time>2016-08-26T09:22:32Z</time>
      </trkpt>
      <trkpt lat="45.87809" lon="4.83797">
        <ele>169</ele>
        <time>2016-08-26T09:22:33Z</time>
      </trkpt>
      <trkpt lat="45.87813" lon="4.83793">
        <ele>169</ele>
        <time>2016-08-26T09:22:34Z</time>
      </trkpt>
      <trkpt lat="45.87821" lon="4.83787">
        <ele>168</ele>
        <time>2016-08-26T09:22:36Z</time>
      </trkpt>
      <trkpt lat="45.87825" lon="4.83783">
        <ele>168</ele>
        <time>2016-08-26T09:22:37Z</time>
      </trkpt>
      <trkpt lat="45.87828" lon="4.83779">
        <ele>168</ele>
        <time>2016-08-26T09:22:38Z</time>
      </trkpt>
      <trkpt lat="45.87833" lon="4.83775">
        <ele>168</ele>
        <time>2016-08-26T09:22:39Z</time>
      </trkpt>
      <trkpt lat="45.87837" lon="4.83771">
        <ele>169</ele>
        <time>2016-08-26T09:22:40Z</time>
      </trkpt>
      <trkpt lat="45.87842" lon="4.83768">
        <ele>169</ele>
        <time>2016-08-26T09:22:41Z</time>
      </trkpt>
      <trkpt lat="45.87847" lon="4.83766">
        <ele>169</ele>
        <time>2016-08-26T09:22:42Z</time>
      </trkpt>
      <trkpt lat="45.87852" lon="4.83762">
        <ele>169</ele>
        <time>2016-08-26T09:22:43Z</time>
      </trkpt>
      <trkpt lat="45.87856" lon="4.83757">
        <ele>169</ele>
        <time>2016-08-26T09:22:44Z</time>
      </trkpt>
      <trkpt lat="45.87861" lon="4.83753">
        <ele>169</ele>
        <time>2016-08-26T09:22:45Z</time>
      </trkpt>
      <trkpt lat="45.87865" lon="4.83748">
        <ele>168</ele>
        <time>2016-08-26T09:22:46Z</time>
      </trkpt>
      <trkpt lat="45.87869" lon="4.83744">
        <ele>168</ele>
        <time>2016-08-26T09:22:47Z</time>
      </trkpt>
      <trkpt lat="45.87874" lon="4.83741">
        <ele>169</ele>
        <time>2016-08-26T09:22:48Z</time>
      </trkpt>
      <trkpt lat="45.87878" lon="4.83737">
        <ele>169</ele>
        <time>2016-08-26T09:22:49Z</time>
      </trkpt>
      <trkpt lat="45.87885" lon="4.83731">
        <ele>169</ele>
        <time>2016-08-26T09:22:51Z</time>
      </trkpt>
      <trkpt lat="45.87889" lon="4.83728">
        <ele>169</ele>
        <time>2016-08-26T09:22:52Z</time>
      </trkpt>
      <trkpt lat="45.87894" lon="4.83722">
        <ele>170</ele>
        <time>2016-08-26T09:22:54Z</time>
      </trkpt>
      <trkpt lat="45.87897" lon="4.8372">
        <ele>170</ele>
        <time>2016-08-26T09:22:55Z</time>
      </trkpt>
      <trkpt lat="45.87902" lon="4.83715">
        <ele>170</ele>
        <time>2016-08-26T09:22:57Z</time>
      </trkpt>
      <trkpt lat="45.87905" lon="4.83711">
        <ele>170</ele>
        <time>2016-08-26T09:22:58Z</time>
      </trkpt>
      <trkpt lat="45.87909" lon="4.83708">
        <ele>170</ele>
        <time>2016-08-26T09:22:59Z</time>
      </trkpt>
      <trkpt lat="45.87913" lon="4.83704">
        <ele>170</ele>
        <time>2016-08-26T09:23:00Z</time>
      </trkpt>
      <trkpt lat="45.87918" lon="4.837">
        <ele>172</ele>
        <time>2016-08-26T09:23:01Z</time>
      </trkpt>
      <trkpt lat="45.87922" lon="4.83695">
        <ele>172</ele>
        <time>2016-08-26T09:23:02Z</time>
      </trkpt>
      <trkpt lat="45.87927" lon="4.8369">
        <ele>172</ele>
        <time>2016-08-26T09:23:03Z</time>
      </trkpt>
      <trkpt lat="45.87932" lon="4.83686">
        <ele>172</ele>
        <time>2016-08-26T09:23:04Z</time>
      </trkpt>
      <trkpt lat="45.87937" lon="4.8368">
        <ele>171</ele>
        <time>2016-08-26T09:23:05Z</time>
      </trkpt>
      <trkpt lat="45.87941" lon="4.83676">
        <ele>171</ele>
        <time>2016-08-26T09:23:06Z</time>
      </trkpt>
      <trkpt lat="45.87945" lon="4.83671">
        <ele>171</ele>
        <time>2016-08-26T09:23:07Z</time>
      </trkpt>
      <trkpt lat="45.8795" lon="4.83668">
        <ele>171</ele>
        <time>2016-08-26T09:23:08Z</time>
      </trkpt>
      <trkpt lat="45.87954" lon="4.83664">
        <ele>171</ele>
        <time>2016-08-26T09:23:09Z</time>
      </trkpt>
      <trkpt lat="45.87957" lon="4.83659">
        <ele>171</ele>
        <time>2016-08-26T09:23:10Z</time>
      </trkpt>
      <trkpt lat="45.87961" lon="4.83654">
        <ele>171</ele>
        <time>2016-08-26T09:23:11Z</time>
      </trkpt>
      <trkpt lat="45.87964" lon="4.8365">
        <ele>171</ele>
        <time>2016-08-26T09:23:12Z</time>
      </trkpt>
      <trkpt lat="45.87968" lon="4.83645">
        <ele>171</ele>
        <time>2016-08-26T09:23:13Z</time>
      </trkpt>
      <trkpt lat="45.87972" lon="4.83639">
        <ele>171</ele>
        <time>2016-08-26T09:23:14Z</time>
      </trkpt>
      <trkpt lat="45.87976" lon="4.83635">
        <ele>171</ele>
        <time>2016-08-26T09:23:15Z</time>
      </trkpt>
      <trkpt lat="45.8798" lon="4.8363">
        <ele>171</ele>
        <time>2016-08-26T09:23:16Z</time>
      </trkpt>
      <trkpt lat="45.87985" lon="4.83625">
        <ele>171</ele>
        <time>2016-08-26T09:23:17Z</time>
      </trkpt>
      <trkpt lat="45.8799" lon="4.83619">
        <ele>171</ele>
        <time>2016-08-26T09:23:18Z</time>
      </trkpt>
      <trkpt lat="45.87995" lon="4.83615">
        <ele>171</ele>
        <time>2016-08-26T09:23:19Z</time>
      </trkpt>
      <trkpt lat="45.88001" lon="4.8361">
        <ele>172</ele>
        <time>2016-08-26T09:23:20Z</time>
      </trkpt>
      <trkpt lat="45.88006" lon="4.83604">
        <ele>172</ele>
        <time>2016-08-26T09:23:21Z</time>
      </trkpt>
      <trkpt lat="45.8801" lon="4.83599">
        <ele>172</ele>
        <time>2016-08-26T09:23:22Z</time>
      </trkpt>
      <trkpt lat="45.88014" lon="4.83594">
        <ele>172</ele>
        <time>2016-08-26T09:23:23Z</time>
      </trkpt>
      <trkpt lat="45.88018" lon="4.83589">
        <ele>172</ele>
        <time>2016-08-26T09:23:24Z</time>
      </trkpt>
      <trkpt lat="45.88022" lon="4.83584">
        <ele>172</ele>
        <time>2016-08-26T09:23:25Z</time>
      </trkpt>
      <trkpt lat="45.88026" lon="4.8358">
        <ele>172</ele>
        <time>2016-08-26T09:23:26Z</time>
      </trkpt>
      <trkpt lat="45.8803" lon="4.83576">
        <ele>172</ele>
        <time>2016-08-26T09:23:27Z</time>
      </trkpt>
      <trkpt lat="45.88035" lon="4.83572">
        <ele>172</ele>
        <time>2016-08-26T09:23:28Z</time>
      </trkpt>
      <trkpt lat="45.88039" lon="4.83568">
        <ele>172</ele>
        <time>2016-08-26T09:23:29Z</time>
      </trkpt>
      <trkpt lat="45.88044" lon="4.83564">
        <ele>172</ele>
        <time>2016-08-26T09:23:30Z</time>
      </trkpt>
      <trkpt lat="45.88049" lon="4.83557">
        <ele>172</ele>
        <time>2016-08-26T09:23:31Z</time>
      </trkpt>
      <trkpt lat="45.88054" lon="4.83552">
        <ele>173</ele>
        <time>2016-08-26T09:23:32Z</time>
      </trkpt>
      <trkpt lat="45.8806" lon="4.83545">
        <ele>173</ele>
        <time>2016-08-26T09:23:34Z</time>
      </trkpt>
      <trkpt lat="45.88064" lon="4.83544">
        <ele>173</ele>
        <time>2016-08-26T09:23:35Z</time>
      </trkpt>
      <trkpt lat="45.88068" lon="4.83537">
        <ele>173</ele>
        <time>2016-08-26T09:23:40Z</time>
      </trkpt>
      <trkpt lat="45.88069" lon="4.83532">
        <ele>173</ele>
        <time>2016-08-26T09:23:41Z</time>
      </trkpt>
      <trkpt lat="45.88075" lon="4.83527">
        <ele>173</ele>
        <time>2016-08-26T09:23:43Z</time>
      </trkpt>
      <trkpt lat="45.88078" lon="4.83524">
        <ele>173</ele>
        <time>2016-08-26T09:23:44Z</time>
      </trkpt>
      <trkpt lat="45.88086" lon="4.83518">
        <ele>173</ele>
        <time>2016-08-26T09:23:46Z</time>
      </trkpt>
      <trkpt lat="45.88089" lon="4.83515">
        <ele>173</ele>
        <time>2016-08-26T09:23:47Z</time>
      </trkpt>
      <trkpt lat="45.88094" lon="4.83512">
        <ele>173</ele>
        <time>2016-08-26T09:23:48Z</time>
      </trkpt>
      <trkpt lat="45.88098" lon="4.83508">
        <ele>173</ele>
        <time>2016-08-26T09:23:49Z</time>
      </trkpt>
      <trkpt lat="45.88102" lon="4.83504">
        <ele>173</ele>
        <time>2016-08-26T09:23:50Z</time>
      </trkpt>
      <trkpt lat="45.88106" lon="4.83501">
        <ele>173</ele>
        <time>2016-08-26T09:23:51Z</time>
      </trkpt>
      <trkpt lat="45.88111" lon="4.83498">
        <ele>172</ele>
        <time>2016-08-26T09:23:52Z</time>
      </trkpt>
      <trkpt lat="45.88116" lon="4.83494">
        <ele>172</ele>
        <time>2016-08-26T09:23:53Z</time>
      </trkpt>
      <trkpt lat="45.88122" lon="4.8349">
        <ele>172</ele>
        <time>2016-08-26T09:23:54Z</time>
      </trkpt>
      <trkpt lat="45.88128" lon="4.83486">
        <ele>172</ele>
        <time>2016-08-26T09:23:55Z</time>
      </trkpt>
      <trkpt lat="45.88133" lon="4.83482">
        <ele>172</ele>
        <time>2016-08-26T09:23:56Z</time>
      </trkpt>
      <trkpt lat="45.88139" lon="4.83478">
        <ele>172</ele>
        <time>2016-08-26T09:23:57Z</time>
      </trkpt>
      <trkpt lat="45.88144" lon="4.83474">
        <ele>172</ele>
        <time>2016-08-26T09:23:58Z</time>
      </trkpt>
      <trkpt lat="45.88149" lon="4.8347">
        <ele>172</ele>
        <time>2016-08-26T09:23:59Z</time>
      </trkpt>
      <trkpt lat="45.88154" lon="4.83467">
        <ele>171</ele>
        <time>2016-08-26T09:24:00Z</time>
      </trkpt>
      <trkpt lat="45.88159" lon="4.83463">
        <ele>171</ele>
        <time>2016-08-26T09:24:01Z</time>
      </trkpt>
      <trkpt lat="45.88163" lon="4.83461">
        <ele>171</ele>
        <time>2016-08-26T09:24:02Z</time>
      </trkpt>
      <trkpt lat="45.88168" lon="4.83458">
        <ele>171</ele>
        <time>2016-08-26T09:24:03Z</time>
      </trkpt>
      <trkpt lat="45.88173" lon="4.83455">
        <ele>171</ele>
        <time>2016-08-26T09:24:04Z</time>
      </trkpt>
      <trkpt lat="45.88179" lon="4.83452">
        <ele>171</ele>
        <time>2016-08-26T09:24:05Z</time>
      </trkpt>
      <trkpt lat="45.88184" lon="4.83448">
        <ele>171</ele>
        <time>2016-08-26T09:24:06Z</time>
      </trkpt>
      <trkpt lat="45.88189" lon="4.83444">
        <ele>171</ele>
        <time>2016-08-26T09:24:07Z</time>
      </trkpt>
      <trkpt lat="45.88194" lon="4.8344">
        <ele>171</ele>
        <time>2016-08-26T09:24:08Z</time>
      </trkpt>
      <trkpt lat="45.88199" lon="4.83437">
        <ele>171</ele>
        <time>2016-08-26T09:24:09Z</time>
      </trkpt>
      <trkpt lat="45.88204" lon="4.83435">
        <ele>171</ele>
        <time>2016-08-26T09:24:10Z</time>
      </trkpt>
      <trkpt lat="45.88209" lon="4.83433">
        <ele>172</ele>
        <time>2016-08-26T09:24:11Z</time>
      </trkpt>
      <trkpt lat="45.88214" lon="4.83431">
        <ele>172</ele>
        <time>2016-08-26T09:24:12Z</time>
      </trkpt>
      <trkpt lat="45.8822" lon="4.83429">
        <ele>172</ele>
        <time>2016-08-26T09:24:13Z</time>
      </trkpt>
      <trkpt lat="45.88225" lon="4.83428">
        <ele>172</ele>
        <time>2016-08-26T09:24:14Z</time>
      </trkpt>
      <trkpt lat="45.8823" lon="4.83426">
        <ele>172</ele>
        <time>2016-08-26T09:24:15Z</time>
      </trkpt>
      <trkpt lat="45.88235" lon="4.83425">
        <ele>172</ele>
        <time>2016-08-26T09:24:16Z</time>
      </trkpt>
      <trkpt lat="45.8824" lon="4.83424">
        <ele>172</ele>
        <time>2016-08-26T09:24:17Z</time>
      </trkpt>
      <trkpt lat="45.88246" lon="4.83422">
        <ele>172</ele>
        <time>2016-08-26T09:24:18Z</time>
      </trkpt>
      <trkpt lat="45.88252" lon="4.8342">
        <ele>172</ele>
        <time>2016-08-26T09:24:19Z</time>
      </trkpt>
      <trkpt lat="45.88258" lon="4.83419">
        <ele>172</ele>
        <time>2016-08-26T09:24:20Z</time>
      </trkpt>
      <trkpt lat="45.88264" lon="4.83418">
        <ele>172</ele>
        <time>2016-08-26T09:24:21Z</time>
      </trkpt>
      <trkpt lat="45.88269" lon="4.83416">
        <ele>172</ele>
        <time>2016-08-26T09:24:22Z</time>
      </trkpt>
      <trkpt lat="45.88275" lon="4.83413">
        <ele>172</ele>
        <time>2016-08-26T09:24:23Z</time>
      </trkpt>
      <trkpt lat="45.8828" lon="4.8341">
        <ele>172</ele>
        <time>2016-08-26T09:24:24Z</time>
      </trkpt>
      <trkpt lat="45.88286" lon="4.83407">
        <ele>172</ele>
        <time>2016-08-26T09:24:25Z</time>
      </trkpt>
      <trkpt lat="45.88291" lon="4.83405">
        <ele>172</ele>
        <time>2016-08-26T09:24:26Z</time>
      </trkpt>
      <trkpt lat="45.88296" lon="4.83403">
        <ele>172</ele>
        <time>2016-08-26T09:24:27Z</time>
      </trkpt>
      <trkpt lat="45.88302" lon="4.83401">
        <ele>172</ele>
        <time>2016-08-26T09:24:28Z</time>
      </trkpt>
      <trkpt lat="45.88308" lon="4.83398">
        <ele>172</ele>
        <time>2016-08-26T09:24:29Z</time>
      </trkpt>
      <trkpt lat="45.88313" lon="4.83396">
        <ele>172</ele>
        <time>2016-08-26T09:24:30Z</time>
      </trkpt>
      <trkpt lat="45.88319" lon="4.83395">
        <ele>172</ele>
        <time>2016-08-26T09:24:31Z</time>
      </trkpt>
      <trkpt lat="45.88324" lon="4.83393">
        <ele>172</ele>
        <time>2016-08-26T09:24:32Z</time>
      </trkpt>
      <trkpt lat="45.88329" lon="4.83391">
        <ele>172</ele>
        <time>2016-08-26T09:24:33Z</time>
      </trkpt>
      <trkpt lat="45.88335" lon="4.83389">
        <ele>172</ele>
        <time>2016-08-26T09:24:34Z</time>
      </trkpt>
      <trkpt lat="45.8834" lon="4.83386">
        <ele>172</ele>
        <time>2016-08-26T09:24:35Z</time>
      </trkpt>
      <trkpt lat="45.88345" lon="4.83384">
        <ele>172</ele>
        <time>2016-08-26T09:24:36Z</time>
      </trkpt>
      <trkpt lat="45.88351" lon="4.83381">
        <ele>172</ele>
        <time>2016-08-26T09:24:37Z</time>
      </trkpt>
      <trkpt lat="45.88356" lon="4.83378">
        <ele>172</ele>
        <time>2016-08-26T09:24:38Z</time>
      </trkpt>
      <trkpt lat="45.88362" lon="4.83376">
        <ele>172</ele>
        <time>2016-08-26T09:24:39Z</time>
      </trkpt>
      <trkpt lat="45.88367" lon="4.83373">
        <ele>172</ele>
        <time>2016-08-26T09:24:40Z</time>
      </trkpt>
      <trkpt lat="45.88373" lon="4.83371">
        <ele>172</ele>
        <time>2016-08-26T09:24:41Z</time>
      </trkpt>
      <trkpt lat="45.88378" lon="4.83368">
        <ele>172</ele>
        <time>2016-08-26T09:24:42Z</time>
      </trkpt>
      <trkpt lat="45.88383" lon="4.83364">
        <ele>172</ele>
        <time>2016-08-26T09:24:43Z</time>
      </trkpt>
      <trkpt lat="45.88389" lon="4.83361">
        <ele>172</ele>
        <time>2016-08-26T09:24:44Z</time>
      </trkpt>
      <trkpt lat="45.88394" lon="4.83358">
        <ele>172</ele>
        <time>2016-08-26T09:24:45Z</time>
      </trkpt>
      <trkpt lat="45.88398" lon="4.83356">
        <ele>172</ele>
        <time>2016-08-26T09:24:46Z</time>
      </trkpt>
      <trkpt lat="45.88403" lon="4.83353">
        <ele>172</ele>
        <time>2016-08-26T09:24:47Z</time>
      </trkpt>
      <trkpt lat="45.88408" lon="4.8335">
        <ele>172</ele>
        <time>2016-08-26T09:24:48Z</time>
      </trkpt>
      <trkpt lat="45.88414" lon="4.83347">
        <ele>172</ele>
        <time>2016-08-26T09:24:49Z</time>
      </trkpt>
      <trkpt lat="45.88419" lon="4.83344">
        <ele>172</ele>
        <time>2016-08-26T09:24:50Z</time>
      </trkpt>
      <trkpt lat="45.88425" lon="4.8334">
        <ele>172</ele>
        <time>2016-08-26T09:24:51Z</time>
      </trkpt>
      <trkpt lat="45.88431" lon="4.83337">
        <ele>172</ele>
        <time>2016-08-26T09:24:52Z</time>
      </trkpt>
      <trkpt lat="45.88436" lon="4.83334">
        <ele>172</ele>
        <time>2016-08-26T09:24:53Z</time>
      </trkpt>
      <trkpt lat="45.88442" lon="4.83332">
        <ele>172</ele>
        <time>2016-08-26T09:24:54Z</time>
      </trkpt>
      <trkpt lat="45.88448" lon="4.83329">
        <ele>172</ele>
        <time>2016-08-26T09:24:55Z</time>
      </trkpt>
      <trkpt lat="45.88453" lon="4.83325">
        <ele>172</ele>
        <time>2016-08-26T09:24:56Z</time>
      </trkpt>
      <trkpt lat="45.88459" lon="4.83322">
        <ele>172</ele>
        <time>2016-08-26T09:24:57Z</time>
      </trkpt>
      <trkpt lat="45.88464" lon="4.83318">
        <ele>172</ele>
        <time>2016-08-26T09:24:58Z</time>
      </trkpt>
      <trkpt lat="45.8847" lon="4.83315">
        <ele>172</ele>
        <time>2016-08-26T09:24:59Z</time>
      </trkpt>
      <trkpt lat="45.88475" lon="4.83312">
        <ele>172</ele>
        <time>2016-08-26T09:25:00Z</time>
      </trkpt>
      <trkpt lat="45.88481" lon="4.83309">
        <ele>172</ele>
        <time>2016-08-26T09:25:01Z</time>
      </trkpt>
      <trkpt lat="45.88486" lon="4.83306">
        <ele>172</ele>
        <time>2016-08-26T09:25:02Z</time>
      </trkpt>
      <trkpt lat="45.88491" lon="4.83304">
        <ele>172</ele>
        <time>2016-08-26T09:25:03Z</time>
      </trkpt>
      <trkpt lat="45.88497" lon="4.83302">
        <ele>172</ele>
        <time>2016-08-26T09:25:04Z</time>
      </trkpt>
      <trkpt lat="45.88502" lon="4.83298">
        <ele>172</ele>
        <time>2016-08-26T09:25:05Z</time>
      </trkpt>
      <trkpt lat="45.88507" lon="4.83294">
        <ele>172</ele>
        <time>2016-08-26T09:25:06Z</time>
      </trkpt>
      <trkpt lat="45.88512" lon="4.83291">
        <ele>172</ele>
        <time>2016-08-26T09:25:07Z</time>
      </trkpt>
      <trkpt lat="45.88517" lon="4.83287">
        <ele>172</ele>
        <time>2016-08-26T09:25:08Z</time>
      </trkpt>
      <trkpt lat="45.88523" lon="4.83283">
        <ele>172</ele>
        <time>2016-08-26T09:25:09Z</time>
      </trkpt>
      <trkpt lat="45.88528" lon="4.83279">
        <ele>172</ele>
        <time>2016-08-26T09:25:10Z</time>
      </trkpt>
      <trkpt lat="45.88533" lon="4.83276">
        <ele>172</ele>
        <time>2016-08-26T09:25:11Z</time>
      </trkpt>
      <trkpt lat="45.88538" lon="4.83273">
        <ele>172</ele>
        <time>2016-08-26T09:25:12Z</time>
      </trkpt>
      <trkpt lat="45.88543" lon="4.83269">
        <ele>172</ele>
        <time>2016-08-26T09:25:13Z</time>
      </trkpt>
      <trkpt lat="45.88548" lon="4.83267">
        <ele>172</ele>
        <time>2016-08-26T09:25:14Z</time>
      </trkpt>
      <trkpt lat="45.88552" lon="4.83263">
        <ele>172</ele>
        <time>2016-08-26T09:25:15Z</time>
      </trkpt>
      <trkpt lat="45.88557" lon="4.83259">
        <ele>172</ele>
        <time>2016-08-26T09:25:16Z</time>
      </trkpt>
      <trkpt lat="45.88561" lon="4.83254">
        <ele>172</ele>
        <time>2016-08-26T09:25:17Z</time>
      </trkpt>
      <trkpt lat="45.88565" lon="4.83248">
        <ele>172</ele>
        <time>2016-08-26T09:25:18Z</time>
      </trkpt>
      <trkpt lat="45.8857" lon="4.83243">
        <ele>172</ele>
        <time>2016-08-26T09:25:19Z</time>
      </trkpt>
      <trkpt lat="45.88574" lon="4.83236">
        <ele>172</ele>
        <time>2016-08-26T09:25:20Z</time>
      </trkpt>
      <trkpt lat="45.88577" lon="4.8323">
        <ele>172</ele>
        <time>2016-08-26T09:25:21Z</time>
      </trkpt>
      <trkpt lat="45.88581" lon="4.83225">
        <ele>172</ele>
        <time>2016-08-26T09:25:22Z</time>
      </trkpt>
      <trkpt lat="45.88585" lon="4.83219">
        <ele>172</ele>
        <time>2016-08-26T09:25:23Z</time>
      </trkpt>
      <trkpt lat="45.88589" lon="4.83214">
        <ele>172</ele>
        <time>2016-08-26T09:25:24Z</time>
      </trkpt>
      <trkpt lat="45.88592" lon="4.83209">
        <ele>172</ele>
        <time>2016-08-26T09:25:25Z</time>
      </trkpt>
      <trkpt lat="45.88595" lon="4.83204">
        <ele>172</ele>
        <time>2016-08-26T09:25:26Z</time>
      </trkpt>
      <trkpt lat="45.88599" lon="4.832">
        <ele>172</ele>
        <time>2016-08-26T09:25:27Z</time>
      </trkpt>
      <trkpt lat="45.88602" lon="4.83195">
        <ele>172</ele>
        <time>2016-08-26T09:25:28Z</time>
      </trkpt>
      <trkpt lat="45.88606" lon="4.83191">
        <ele>172</ele>
        <time>2016-08-26T09:25:29Z</time>
      </trkpt>
      <trkpt lat="45.8861" lon="4.83187">
        <ele>172</ele>
        <time>2016-08-26T09:25:30Z</time>
      </trkpt>
      <trkpt lat="45.88615" lon="4.83182">
        <ele>172</ele>
        <time>2016-08-26T09:25:31Z</time>
      </trkpt>
      <trkpt lat="45.88619" lon="4.83177">
        <ele>172</ele>
        <time>2016-08-26T09:25:32Z</time>
      </trkpt>
      <trkpt lat="45.88624" lon="4.83172">
        <ele>172</ele>
        <time>2016-08-26T09:25:33Z</time>
      </trkpt>
      <trkpt lat="45.88629" lon="4.83167">
        <ele>172</ele>
        <time>2016-08-26T09:25:34Z</time>
      </trkpt>
      <trkpt lat="45.88633" lon="4.83161">
        <ele>173</ele>
        <time>2016-08-26T09:25:35Z</time>
      </trkpt>
      <trkpt lat="45.88637" lon="4.83155">
        <ele>173</ele>
        <time>2016-08-26T09:25:36Z</time>
      </trkpt>
      <trkpt lat="45.88641" lon="4.8315">
        <ele>173</ele>
        <time>2016-08-26T09:25:37Z</time>
      </trkpt>
      <trkpt lat="45.88645" lon="4.83146">
        <ele>173</ele>
        <time>2016-08-26T09:25:38Z</time>
      </trkpt>
      <trkpt lat="45.88649" lon="4.83141">
        <ele>173</ele>
        <time>2016-08-26T09:25:39Z</time>
      </trkpt>
      <trkpt lat="45.88653" lon="4.83136">
        <ele>173</ele>
        <time>2016-08-26T09:25:40Z</time>
      </trkpt>
      <trkpt lat="45.88656" lon="4.83131">
        <ele>173</ele>
        <time>2016-08-26T09:25:41Z</time>
      </trkpt>
      <trkpt lat="45.8866" lon="4.83126">
        <ele>173</ele>
        <time>2016-08-26T09:25:42Z</time>
      </trkpt>
      <trkpt lat="45.88664" lon="4.83122">
        <ele>173</ele>
        <time>2016-08-26T09:25:43Z</time>
      </trkpt>
      <trkpt lat="45.88667" lon="4.83117">
        <ele>174</ele>
        <time>2016-08-26T09:25:44Z</time>
      </trkpt>
      <trkpt lat="45.88671" lon="4.83111">
        <ele>174</ele>
        <time>2016-08-26T09:25:45Z</time>
      </trkpt>
      <trkpt lat="45.88675" lon="4.83105">
        <ele>174</ele>
        <time>2016-08-26T09:25:46Z</time>
      </trkpt>
      <trkpt lat="45.88679" lon="4.831">
        <ele>174</ele>
        <time>2016-08-26T09:25:47Z</time>
      </trkpt>
      <trkpt lat="45.88684" lon="4.83095">
        <ele>174</ele>
        <time>2016-08-26T09:25:48Z</time>
      </trkpt>
      <trkpt lat="45.88689" lon="4.8309">
        <ele>174</ele>
        <time>2016-08-26T09:25:49Z</time>
      </trkpt>
      <trkpt lat="45.88693" lon="4.83085">
        <ele>174</ele>
        <time>2016-08-26T09:25:50Z</time>
      </trkpt>
      <trkpt lat="45.88697" lon="4.83079">
        <ele>174</ele>
        <time>2016-08-26T09:25:51Z</time>
      </trkpt>
      <trkpt lat="45.88702" lon="4.83074">
        <ele>174</ele>
        <time>2016-08-26T09:25:52Z</time>
      </trkpt>
      <trkpt lat="45.88706" lon="4.8307">
        <ele>174</ele>
        <time>2016-08-26T09:25:53Z</time>
      </trkpt>
      <trkpt lat="45.8871" lon="4.83066">
        <ele>174</ele>
        <time>2016-08-26T09:25:54Z</time>
      </trkpt>
      <trkpt lat="45.88714" lon="4.83061">
        <ele>174</ele>
        <time>2016-08-26T09:25:55Z</time>
      </trkpt>
      <trkpt lat="45.88718" lon="4.83057">
        <ele>174</ele>
        <time>2016-08-26T09:25:56Z</time>
      </trkpt>
      <trkpt lat="45.88722" lon="4.83053">
        <ele>174</ele>
        <time>2016-08-26T09:25:57Z</time>
      </trkpt>
      <trkpt lat="45.88726" lon="4.83049">
        <ele>174</ele>
        <time>2016-08-26T09:25:58Z</time>
      </trkpt>
      <trkpt lat="45.8873" lon="4.83044">
        <ele>173</ele>
        <time>2016-08-26T09:25:59Z</time>
      </trkpt>
      <trkpt lat="45.88734" lon="4.83039">
        <ele>173</ele>
        <time>2016-08-26T09:26:00Z</time>
      </trkpt>
      <trkpt lat="45.88737" lon="4.83033">
        <ele>173</ele>
        <time>2016-08-26T09:26:01Z</time>
      </trkpt>
      <trkpt lat="45.88741" lon="4.83028">
        <ele>173</ele>
        <time>2016-08-26T09:26:02Z</time>
      </trkpt>
      <trkpt lat="45.88744" lon="4.83023">
        <ele>173</ele>
        <time>2016-08-26T09:26:03Z</time>
      </trkpt>
      <trkpt lat="45.88747" lon="4.83018">
        <ele>173</ele>
        <time>2016-08-26T09:26:04Z</time>
      </trkpt>
      <trkpt lat="45.88751" lon="4.83014">
        <ele>173</ele>
        <time>2016-08-26T09:26:05Z</time>
      </trkpt>
      <trkpt lat="45.88757" lon="4.83006">
        <ele>172</ele>
        <time>2016-08-26T09:26:07Z</time>
      </trkpt>
      <trkpt lat="45.88761" lon="4.83002">
        <ele>173</ele>
        <time>2016-08-26T09:26:08Z</time>
      </trkpt>
      <trkpt lat="45.88764" lon="4.82998">
        <ele>172</ele>
        <time>2016-08-26T09:26:09Z</time>
      </trkpt>
      <trkpt lat="45.88768" lon="4.82994">
        <ele>172</ele>
        <time>2016-08-26T09:26:10Z</time>
      </trkpt>
      <trkpt lat="45.88771" lon="4.82989">
        <ele>172</ele>
        <time>2016-08-26T09:26:11Z</time>
      </trkpt>
      <trkpt lat="45.88775" lon="4.82985">
        <ele>172</ele>
        <time>2016-08-26T09:26:12Z</time>
      </trkpt>
      <trkpt lat="45.88778" lon="4.82981">
        <ele>172</ele>
        <time>2016-08-26T09:26:13Z</time>
      </trkpt>
      <trkpt lat="45.88782" lon="4.82976">
        <ele>172</ele>
        <time>2016-08-26T09:26:14Z</time>
      </trkpt>
      <trkpt lat="45.88786" lon="4.82971">
        <ele>172</ele>
        <time>2016-08-26T09:26:15Z</time>
      </trkpt>
      <trkpt lat="45.88789" lon="4.82966">
        <ele>172</ele>
        <time>2016-08-26T09:26:16Z</time>
      </trkpt>
      <trkpt lat="45.88793" lon="4.82961">
        <ele>172</ele>
        <time>2016-08-26T09:26:17Z</time>
      </trkpt>
      <trkpt lat="45.88797" lon="4.82956">
        <ele>172</ele>
        <time>2016-08-26T09:26:18Z</time>
      </trkpt>
      <trkpt lat="45.88801" lon="4.82952">
        <ele>172</ele>
        <time>2016-08-26T09:26:19Z</time>
      </trkpt>
      <trkpt lat="45.88805" lon="4.82948">
        <ele>172</ele>
        <time>2016-08-26T09:26:20Z</time>
      </trkpt>
      <trkpt lat="45.88809" lon="4.82943">
        <ele>172</ele>
        <time>2016-08-26T09:26:21Z</time>
      </trkpt>
      <trkpt lat="45.88813" lon="4.82938">
        <ele>172</ele>
        <time>2016-08-26T09:26:22Z</time>
      </trkpt>
      <trkpt lat="45.88816" lon="4.82934">
        <ele>172</ele>
        <time>2016-08-26T09:26:23Z</time>
      </trkpt>
      <trkpt lat="45.8882" lon="4.82929">
        <ele>172</ele>
        <time>2016-08-26T09:26:24Z</time>
      </trkpt>
      <trkpt lat="45.88823" lon="4.82924">
        <ele>172</ele>
        <time>2016-08-26T09:26:25Z</time>
      </trkpt>
      <trkpt lat="45.88827" lon="4.82919">
        <ele>172</ele>
        <time>2016-08-26T09:26:26Z</time>
      </trkpt>
      <trkpt lat="45.8883" lon="4.82914">
        <ele>172</ele>
        <time>2016-08-26T09:26:27Z</time>
      </trkpt>
      <trkpt lat="45.88834" lon="4.82909">
        <ele>172</ele>
        <time>2016-08-26T09:26:28Z</time>
      </trkpt>
      <trkpt lat="45.88838" lon="4.82904">
        <ele>172</ele>
        <time>2016-08-26T09:26:29Z</time>
      </trkpt>
      <trkpt lat="45.88842" lon="4.82899">
        <ele>172</ele>
        <time>2016-08-26T09:26:30Z</time>
      </trkpt>
      <trkpt lat="45.88846" lon="4.82893">
        <ele>172</ele>
        <time>2016-08-26T09:26:31Z</time>
      </trkpt>
      <trkpt lat="45.8885" lon="4.82888">
        <ele>172</ele>
        <time>2016-08-26T09:26:32Z</time>
      </trkpt>
      <trkpt lat="45.88854" lon="4.82883">
        <ele>172</ele>
        <time>2016-08-26T09:26:33Z</time>
      </trkpt>
      <trkpt lat="45.88858" lon="4.82879">
        <ele>172</ele>
        <time>2016-08-26T09:26:34Z</time>
      </trkpt>
      <trkpt lat="45.88862" lon="4.82874">
        <ele>172</ele>
        <time>2016-08-26T09:26:35Z</time>
      </trkpt>
      <trkpt lat="45.88866" lon="4.82869">
        <ele>172</ele>
        <time>2016-08-26T09:26:36Z</time>
      </trkpt>
      <trkpt lat="45.8887" lon="4.82865">
        <ele>172</ele>
        <time>2016-08-26T09:26:37Z</time>
      </trkpt>
      <trkpt lat="45.88874" lon="4.8286">
        <ele>172</ele>
        <time>2016-08-26T09:26:38Z</time>
      </trkpt>
      <trkpt lat="45.88879" lon="4.82856">
        <ele>172</ele>
        <time>2016-08-26T09:26:39Z</time>
      </trkpt>
      <trkpt lat="45.88883" lon="4.82851">
        <ele>172</ele>
        <time>2016-08-26T09:26:40Z</time>
      </trkpt>
      <trkpt lat="45.88887" lon="4.82846">
        <ele>172</ele>
        <time>2016-08-26T09:26:41Z</time>
      </trkpt>
      <trkpt lat="45.88891" lon="4.82841">
        <ele>172</ele>
        <time>2016-08-26T09:26:42Z</time>
      </trkpt>
      <trkpt lat="45.88896" lon="4.82836">
        <ele>172</ele>
        <time>2016-08-26T09:26:43Z</time>
      </trkpt>
      <trkpt lat="45.88901" lon="4.8283">
        <ele>172</ele>
        <time>2016-08-26T09:26:44Z</time>
      </trkpt>
      <trkpt lat="45.88905" lon="4.82825">
        <ele>172</ele>
        <time>2016-08-26T09:26:45Z</time>
      </trkpt>
      <trkpt lat="45.8891" lon="4.82819">
        <ele>172</ele>
        <time>2016-08-26T09:26:46Z</time>
      </trkpt>
      <trkpt lat="45.88915" lon="4.82812">
        <ele>172</ele>
        <time>2016-08-26T09:26:47Z</time>
      </trkpt>
      <trkpt lat="45.88919" lon="4.82807">
        <ele>172</ele>
        <time>2016-08-26T09:26:48Z</time>
      </trkpt>
      <trkpt lat="45.88924" lon="4.82802">
        <ele>172</ele>
        <time>2016-08-26T09:26:49Z</time>
      </trkpt>
      <trkpt lat="45.88928" lon="4.82797">
        <ele>172</ele>
        <time>2016-08-26T09:26:50Z</time>
      </trkpt>
      <trkpt lat="45.88932" lon="4.82791">
        <ele>172</ele>
        <time>2016-08-26T09:26:51Z</time>
      </trkpt>
      <trkpt lat="45.88935" lon="4.82786">
        <ele>172</ele>
        <time>2016-08-26T09:26:52Z</time>
      </trkpt>
      <trkpt lat="45.8894" lon="4.82782">
        <ele>172</ele>
        <time>2016-08-26T09:26:53Z</time>
      </trkpt>
      <trkpt lat="45.88944" lon="4.82777">
        <ele>172</ele>
        <time>2016-08-26T09:26:54Z</time>
      </trkpt>
      <trkpt lat="45.88948" lon="4.82772">
        <ele>172</ele>
        <time>2016-08-26T09:26:55Z</time>
      </trkpt>
      <trkpt lat="45.88953" lon="4.82767">
        <ele>172</ele>
        <time>2016-08-26T09:26:56Z</time>
      </trkpt>
      <trkpt lat="45.88957" lon="4.82761">
        <ele>172</ele>
        <time>2016-08-26T09:26:57Z</time>
      </trkpt>
      <trkpt lat="45.88961" lon="4.82756">
        <ele>172</ele>
        <time>2016-08-26T09:26:58Z</time>
      </trkpt>
      <trkpt lat="45.88965" lon="4.8275">
        <ele>172</ele>
        <time>2016-08-26T09:26:59Z</time>
      </trkpt>
      <trkpt lat="45.88969" lon="4.82745">
        <ele>172</ele>
        <time>2016-08-26T09:27:00Z</time>
      </trkpt>
      <trkpt lat="45.88972" lon="4.82739">
        <ele>173</ele>
        <time>2016-08-26T09:27:01Z</time>
      </trkpt>
      <trkpt lat="45.88975" lon="4.82733">
        <ele>173</ele>
        <time>2016-08-26T09:27:02Z</time>
      </trkpt>
      <trkpt lat="45.88979" lon="4.82728">
        <ele>173</ele>
        <time>2016-08-26T09:27:03Z</time>
      </trkpt>
      <trkpt lat="45.88982" lon="4.82722">
        <ele>173</ele>
        <time>2016-08-26T09:27:04Z</time>
      </trkpt>
      <trkpt lat="45.88986" lon="4.82717">
        <ele>173</ele>
        <time>2016-08-26T09:27:05Z</time>
      </trkpt>
      <trkpt lat="45.88989" lon="4.82711">
        <ele>173</ele>
        <time>2016-08-26T09:27:06Z</time>
      </trkpt>
      <trkpt lat="45.88993" lon="4.82705">
        <ele>173</ele>
        <time>2016-08-26T09:27:07Z</time>
      </trkpt>
      <trkpt lat="45.88997" lon="4.82699">
        <ele>173</ele>
        <time>2016-08-26T09:27:08Z</time>
      </trkpt>
      <trkpt lat="45.89001" lon="4.82693">
        <ele>173</ele>
        <time>2016-08-26T09:27:09Z</time>
      </trkpt>
      <trkpt lat="45.89004" lon="4.82686">
        <ele>173</ele>
        <time>2016-08-26T09:27:10Z</time>
      </trkpt>
      <trkpt lat="45.89007" lon="4.8268">
        <ele>173</ele>
        <time>2016-08-26T09:27:11Z</time>
      </trkpt>
      <trkpt lat="45.89011" lon="4.82674">
        <ele>173</ele>
        <time>2016-08-26T09:27:12Z</time>
      </trkpt>
      <trkpt lat="45.89014" lon="4.82668">
        <ele>173</ele>
        <time>2016-08-26T09:27:13Z</time>
      </trkpt>
      <trkpt lat="45.89017" lon="4.82662">
        <ele>173</ele>
        <time>2016-08-26T09:27:14Z</time>
      </trkpt>
      <trkpt lat="45.8902" lon="4.82656">
        <ele>173</ele>
        <time>2016-08-26T09:27:15Z</time>
      </trkpt>
      <trkpt lat="45.89022" lon="4.8265">
        <ele>174</ele>
        <time>2016-08-26T09:27:16Z</time>
      </trkpt>
      <trkpt lat="45.89025" lon="4.82643">
        <ele>174</ele>
        <time>2016-08-26T09:27:17Z</time>
      </trkpt>
      <trkpt lat="45.89027" lon="4.82638">
        <ele>174</ele>
        <time>2016-08-26T09:27:18Z</time>
      </trkpt>
      <trkpt lat="45.8903" lon="4.8263">
        <ele>174</ele>
        <time>2016-08-26T09:27:19Z</time>
      </trkpt>
      <trkpt lat="45.89033" lon="4.82624">
        <ele>174</ele>
        <time>2016-08-26T09:27:20Z</time>
      </trkpt>
      <trkpt lat="45.89036" lon="4.82617">
        <ele>174</ele>
        <time>2016-08-26T09:27:21Z</time>
      </trkpt>
      <trkpt lat="45.89039" lon="4.82609">
        <ele>174</ele>
        <time>2016-08-26T09:27:22Z</time>
      </trkpt>
      <trkpt lat="45.89042" lon="4.82602">
        <ele>174</ele>
        <time>2016-08-26T09:27:23Z</time>
      </trkpt>
      <trkpt lat="45.89045" lon="4.82595">
        <ele>174</ele>
        <time>2016-08-26T09:27:24Z</time>
      </trkpt>
      <trkpt lat="45.89049" lon="4.8259">
        <ele>174</ele>
        <time>2016-08-26T09:27:25Z</time>
      </trkpt>
      <trkpt lat="45.89052" lon="4.82584">
        <ele>174</ele>
        <time>2016-08-26T09:27:26Z</time>
      </trkpt>
      <trkpt lat="45.89055" lon="4.82578">
        <ele>174</ele>
        <time>2016-08-26T09:27:27Z</time>
      </trkpt>
      <trkpt lat="45.89058" lon="4.82574">
        <ele>174</ele>
        <time>2016-08-26T09:27:28Z</time>
      </trkpt>
      <trkpt lat="45.89065" lon="4.8257">
        <ele>174</ele>
        <time>2016-08-26T09:27:30Z</time>
      </trkpt>
      <trkpt lat="45.89068" lon="4.8257">
        <ele>174</ele>
        <time>2016-08-26T09:27:31Z</time>
      </trkpt>
      <trkpt lat="45.89075" lon="4.82574">
        <ele>174</ele>
        <time>2016-08-26T09:27:33Z</time>
      </trkpt>
      <trkpt lat="45.89078" lon="4.82578">
        <ele>174</ele>
        <time>2016-08-26T09:27:34Z</time>
      </trkpt>
      <trkpt lat="45.89081" lon="4.82584">
        <ele>174</ele>
        <time>2016-08-26T09:27:35Z</time>
      </trkpt>
      <trkpt lat="45.89083" lon="4.8259">
        <ele>174</ele>
        <time>2016-08-26T09:27:36Z</time>
      </trkpt>
      <trkpt lat="45.89087" lon="4.82596">
        <ele>174</ele>
        <time>2016-08-26T09:27:37Z</time>
      </trkpt>
      <trkpt lat="45.89092" lon="4.826">
        <ele>174</ele>
        <time>2016-08-26T09:27:38Z</time>
      </trkpt>
      <trkpt lat="45.89097" lon="4.82603">
        <ele>174</ele>
        <time>2016-08-26T09:27:39Z</time>
      </trkpt>
      <trkpt lat="45.89103" lon="4.82604">
        <ele>174</ele>
        <time>2016-08-26T09:27:40Z</time>
      </trkpt>
      <trkpt lat="45.89108" lon="4.82604">
        <ele>174</ele>
        <time>2016-08-26T09:27:41Z</time>
      </trkpt>
      <trkpt lat="45.89114" lon="4.82603">
        <ele>174</ele>
        <time>2016-08-26T09:27:42Z</time>
      </trkpt>
      <trkpt lat="45.89119" lon="4.82601">
        <ele>174</ele>
        <time>2016-08-26T09:27:43Z</time>
      </trkpt>
      <trkpt lat="45.89124" lon="4.82597">
        <ele>174</ele>
        <time>2016-08-26T09:27:44Z</time>
      </trkpt>
      <trkpt lat="45.89128" lon="4.82592">
        <ele>174</ele>
        <time>2016-08-26T09:27:45Z</time>
      </trkpt>
      <trkpt lat="45.89131" lon="4.82587">
        <ele>174</ele>
        <time>2016-08-26T09:27:46Z</time>
      </trkpt>
      <trkpt lat="45.89134" lon="4.82581">
        <ele>173</ele>
        <time>2016-08-26T09:27:47Z</time>
      </trkpt>
      <trkpt lat="45.89137" lon="4.82574">
        <ele>173</ele>
        <time>2016-08-26T09:27:48Z</time>
      </trkpt>
      <trkpt lat="45.8914" lon="4.82568">
        <ele>173</ele>
        <time>2016-08-26T09:27:49Z</time>
      </trkpt>
      <trkpt lat="45.89143" lon="4.82561">
        <ele>173</ele>
        <time>2016-08-26T09:27:50Z</time>
      </trkpt>
      <trkpt lat="45.89146" lon="4.82554">
        <ele>173</ele>
        <time>2016-08-26T09:27:51Z</time>
      </trkpt>
      <trkpt lat="45.8915" lon="4.82549">
        <ele>173</ele>
        <time>2016-08-26T09:27:52Z</time>
      </trkpt>
      <trkpt lat="45.89155" lon="4.82543">
        <ele>173</ele>
        <time>2016-08-26T09:27:53Z</time>
      </trkpt>
      <trkpt lat="45.8916" lon="4.82538">
        <ele>173</ele>
        <time>2016-08-26T09:27:54Z</time>
      </trkpt>
      <trkpt lat="45.89165" lon="4.82532">
        <ele>173</ele>
        <time>2016-08-26T09:27:55Z</time>
      </trkpt>
      <trkpt lat="45.8917" lon="4.82527">
        <ele>172</ele>
        <time>2016-08-26T09:27:56Z</time>
      </trkpt>
      <trkpt lat="45.89175" lon="4.82522">
        <ele>172</ele>
        <time>2016-08-26T09:27:57Z</time>
      </trkpt>
      <trkpt lat="45.89181" lon="4.82518">
        <ele>172</ele>
        <time>2016-08-26T09:27:58Z</time>
      </trkpt>
      <trkpt lat="45.89186" lon="4.82512">
        <ele>172</ele>
        <time>2016-08-26T09:27:59Z</time>
      </trkpt>
      <trkpt lat="45.89191" lon="4.82507">
        <ele>172</ele>
        <time>2016-08-26T09:28:00Z</time>
      </trkpt>
      <trkpt lat="45.89196" lon="4.82501">
        <ele>172</ele>
        <time>2016-08-26T09:28:01Z</time>
      </trkpt>
      <trkpt lat="45.89201" lon="4.82496">
        <ele>172</ele>
        <time>2016-08-26T09:28:02Z</time>
      </trkpt>
      <trkpt lat="45.89206" lon="4.82491">
        <ele>172</ele>
        <time>2016-08-26T09:28:03Z</time>
      </trkpt>
      <trkpt lat="45.89211" lon="4.82486">
        <ele>173</ele>
        <time>2016-08-26T09:28:04Z</time>
      </trkpt>
      <trkpt lat="45.89215" lon="4.8248">
        <ele>173</ele>
        <time>2016-08-26T09:28:05Z</time>
      </trkpt>
      <trkpt lat="45.8922" lon="4.82475">
        <ele>173</ele>
        <time>2016-08-26T09:28:06Z</time>
      </trkpt>
      <trkpt lat="45.89224" lon="4.8247">
        <ele>173</ele>
        <time>2016-08-26T09:28:07Z</time>
      </trkpt>
      <trkpt lat="45.89229" lon="4.82465">
        <ele>173</ele>
        <time>2016-08-26T09:28:08Z</time>
      </trkpt>
      <trkpt lat="45.89234" lon="4.8246">
        <ele>173</ele>
        <time>2016-08-26T09:28:09Z</time>
      </trkpt>
      <trkpt lat="45.89239" lon="4.82454">
        <ele>173</ele>
        <time>2016-08-26T09:28:10Z</time>
      </trkpt>
      <trkpt lat="45.89244" lon="4.82449">
        <ele>173</ele>
        <time>2016-08-26T09:28:11Z</time>
      </trkpt>
      <trkpt lat="45.89249" lon="4.82443">
        <ele>173</ele>
        <time>2016-08-26T09:28:12Z</time>
      </trkpt>
      <trkpt lat="45.89254" lon="4.82437">
        <ele>173</ele>
        <time>2016-08-26T09:28:13Z</time>
      </trkpt>
      <trkpt lat="45.89259" lon="4.82432">
        <ele>173</ele>
        <time>2016-08-26T09:28:14Z</time>
      </trkpt>
      <trkpt lat="45.89264" lon="4.82426">
        <ele>173</ele>
        <time>2016-08-26T09:28:15Z</time>
      </trkpt>
      <trkpt lat="45.89269" lon="4.8242">
        <ele>173</ele>
        <time>2016-08-26T09:28:16Z</time>
      </trkpt>
      <trkpt lat="45.89274" lon="4.82415">
        <ele>173</ele>
        <time>2016-08-26T09:28:17Z</time>
      </trkpt>
      <trkpt lat="45.89279" lon="4.82409">
        <ele>173</ele>
        <time>2016-08-26T09:28:18Z</time>
      </trkpt>
      <trkpt lat="45.89283" lon="4.82404">
        <ele>173</ele>
        <time>2016-08-26T09:28:19Z</time>
      </trkpt>
      <trkpt lat="45.89287" lon="4.82398">
        <ele>173</ele>
        <time>2016-08-26T09:28:20Z</time>
      </trkpt>
      <trkpt lat="45.89291" lon="4.82392">
        <ele>173</ele>
        <time>2016-08-26T09:28:21Z</time>
      </trkpt>
      <trkpt lat="45.89296" lon="4.82386">
        <ele>173</ele>
        <time>2016-08-26T09:28:22Z</time>
      </trkpt>
      <trkpt lat="45.893" lon="4.82381">
        <ele>173</ele>
        <time>2016-08-26T09:28:23Z</time>
      </trkpt>
      <trkpt lat="45.89305" lon="4.82375">
        <ele>173</ele>
        <time>2016-08-26T09:28:24Z</time>
      </trkpt>
      <trkpt lat="45.8931" lon="4.8237">
        <ele>173</ele>
        <time>2016-08-26T09:28:25Z</time>
      </trkpt>
      <trkpt lat="45.89314" lon="4.82365">
        <ele>173</ele>
        <time>2016-08-26T09:28:26Z</time>
      </trkpt>
      <trkpt lat="45.89318" lon="4.82359">
        <ele>173</ele>
        <time>2016-08-26T09:28:27Z</time>
      </trkpt>
      <trkpt lat="45.89323" lon="4.82354">
        <ele>173</ele>
        <time>2016-08-26T09:28:28Z</time>
      </trkpt>
      <trkpt lat="45.89328" lon="4.82349">
        <ele>173</ele>
        <time>2016-08-26T09:28:29Z</time>
      </trkpt>
      <trkpt lat="45.89333" lon="4.82343">
        <ele>172</ele>
        <time>2016-08-26T09:28:30Z</time>
      </trkpt>
      <trkpt lat="45.89338" lon="4.82336">
        <ele>172</ele>
        <time>2016-08-26T09:28:31Z</time>
      </trkpt>
      <trkpt lat="45.89343" lon="4.8233">
        <ele>172</ele>
        <time>2016-08-26T09:28:32Z</time>
      </trkpt>
      <trkpt lat="45.89348" lon="4.82324">
        <ele>172</ele>
        <time>2016-08-26T09:28:33Z</time>
      </trkpt>
      <trkpt lat="45.89353" lon="4.82318">
        <ele>172</ele>
        <time>2016-08-26T09:28:34Z</time>
      </trkpt>
      <trkpt lat="45.89357" lon="4.82312">
        <ele>172</ele>
        <time>2016-08-26T09:28:35Z</time>
      </trkpt>
      <trkpt lat="45.89362" lon="4.82306">
        <ele>172</ele>
        <time>2016-08-26T09:28:36Z</time>
      </trkpt>
      <trkpt lat="45.89366" lon="4.823">
        <ele>172</ele>
        <time>2016-08-26T09:28:37Z</time>
      </trkpt>
      <trkpt lat="45.89371" lon="4.82295">
        <ele>172</ele>
        <time>2016-08-26T09:28:38Z</time>
      </trkpt>
      <trkpt lat="45.89375" lon="4.82289">
        <ele>172</ele>
        <time>2016-08-26T09:28:39Z</time>
      </trkpt>
      <trkpt lat="45.89379" lon="4.82284">
        <ele>172</ele>
        <time>2016-08-26T09:28:40Z</time>
      </trkpt>
      <trkpt lat="45.89383" lon="4.82279">
        <ele>172</ele>
        <time>2016-08-26T09:28:41Z</time>
      </trkpt>
      <trkpt lat="45.89388" lon="4.82274">
        <ele>172</ele>
        <time>2016-08-26T09:28:42Z</time>
      </trkpt>
      <trkpt lat="45.89392" lon="4.82268">
        <ele>172</ele>
        <time>2016-08-26T09:28:43Z</time>
      </trkpt>
      <trkpt lat="45.89397" lon="4.82263">
        <ele>172</ele>
        <time>2016-08-26T09:28:44Z</time>
      </trkpt>
      <trkpt lat="45.89402" lon="4.82257">
        <ele>172</ele>
        <time>2016-08-26T09:28:45Z</time>
      </trkpt>
      <trkpt lat="45.89407" lon="4.82251">
        <ele>171</ele>
        <time>2016-08-26T09:28:46Z</time>
      </trkpt>
      <trkpt lat="45.89412" lon="4.82244">
        <ele>171</ele>
        <time>2016-08-26T09:28:47Z</time>
      </trkpt>
      <trkpt lat="45.89416" lon="4.82238">
        <ele>171</ele>
        <time>2016-08-26T09:28:48Z</time>
      </trkpt>
      <trkpt lat="45.89421" lon="4.82232">
        <ele>171</ele>
        <time>2016-08-26T09:28:49Z</time>
      </trkpt>
      <trkpt lat="45.89426" lon="4.82226">
        <ele>171</ele>
        <time>2016-08-26T09:28:50Z</time>
      </trkpt>
      <trkpt lat="45.8943" lon="4.8222">
        <ele>171</ele>
        <time>2016-08-26T09:28:51Z</time>
      </trkpt>
      <trkpt lat="45.89434" lon="4.82214">
        <ele>171</ele>
        <time>2016-08-26T09:28:52Z</time>
      </trkpt>
      <trkpt lat="45.89438" lon="4.82209">
        <ele>171</ele>
        <time>2016-08-26T09:28:53Z</time>
      </trkpt>
      <trkpt lat="45.89443" lon="4.82205">
        <ele>171</ele>
        <time>2016-08-26T09:28:54Z</time>
      </trkpt>
      <trkpt lat="45.89448" lon="4.822">
        <ele>171</ele>
        <time>2016-08-26T09:28:55Z</time>
      </trkpt>
      <trkpt lat="45.89453" lon="4.82195">
        <ele>171</ele>
        <time>2016-08-26T09:28:56Z</time>
      </trkpt>
      <trkpt lat="45.89458" lon="4.82191">
        <ele>171</ele>
        <time>2016-08-26T09:28:57Z</time>
      </trkpt>
      <trkpt lat="45.89464" lon="4.82186">
        <ele>171</ele>
        <time>2016-08-26T09:28:58Z</time>
      </trkpt>
      <trkpt lat="45.89469" lon="4.82182">
        <ele>171</ele>
        <time>2016-08-26T09:28:59Z</time>
      </trkpt>
      <trkpt lat="45.89474" lon="4.82177">
        <ele>171</ele>
        <time>2016-08-26T09:29:00Z</time>
      </trkpt>
      <trkpt lat="45.89479" lon="4.82172">
        <ele>171</ele>
        <time>2016-08-26T09:29:01Z</time>
      </trkpt>
      <trkpt lat="45.89484" lon="4.82168">
        <ele>171</ele>
        <time>2016-08-26T09:29:02Z</time>
      </trkpt>
      <trkpt lat="45.8949" lon="4.82163">
        <ele>171</ele>
        <time>2016-08-26T09:29:03Z</time>
      </trkpt>
      <trkpt lat="45.89495" lon="4.82159">
        <ele>171</ele>
        <time>2016-08-26T09:29:04Z</time>
      </trkpt>
      <trkpt lat="45.895" lon="4.82155">
        <ele>171</ele>
        <time>2016-08-26T09:29:05Z</time>
      </trkpt>
      <trkpt lat="45.89504" lon="4.82151">
        <ele>172</ele>
        <time>2016-08-26T09:29:06Z</time>
      </trkpt>
      <trkpt lat="45.89509" lon="4.82147">
        <ele>172</ele>
        <time>2016-08-26T09:29:07Z</time>
      </trkpt>
      <trkpt lat="45.89514" lon="4.82143">
        <ele>172</ele>
        <time>2016-08-26T09:29:08Z</time>
      </trkpt>
      <trkpt lat="45.89518" lon="4.8214">
        <ele>172</ele>
        <time>2016-08-26T09:29:09Z</time>
      </trkpt>
      <trkpt lat="45.89523" lon="4.82137">
        <ele>172</ele>
        <time>2016-08-26T09:29:10Z</time>
      </trkpt>
      <trkpt lat="45.89529" lon="4.82136">
        <ele>172</ele>
        <time>2016-08-26T09:29:11Z</time>
      </trkpt>
      <trkpt lat="45.89534" lon="4.82134">
        <ele>172</ele>
        <time>2016-08-26T09:29:12Z</time>
      </trkpt>
      <trkpt lat="45.8954" lon="4.82132">
        <ele>172</ele>
        <time>2016-08-26T09:29:13Z</time>
      </trkpt>
      <trkpt lat="45.89544" lon="4.82127">
        <ele>173</ele>
        <time>2016-08-26T09:29:14Z</time>
      </trkpt>
      <trkpt lat="45.89548" lon="4.82121">
        <ele>173</ele>
        <time>2016-08-26T09:29:15Z</time>
      </trkpt>
      <trkpt lat="45.89551" lon="4.82115">
        <ele>173</ele>
        <time>2016-08-26T09:29:16Z</time>
      </trkpt>
      <trkpt lat="45.89554" lon="4.82108">
        <ele>173</ele>
        <time>2016-08-26T09:29:17Z</time>
      </trkpt>
      <trkpt lat="45.89557" lon="4.82101">
        <ele>173</ele>
        <time>2016-08-26T09:29:18Z</time>
      </trkpt>
      <trkpt lat="45.8956" lon="4.82094">
        <ele>173</ele>
        <time>2016-08-26T09:29:19Z</time>
      </trkpt>
      <trkpt lat="45.89564" lon="4.82087">
        <ele>173</ele>
        <time>2016-08-26T09:29:20Z</time>
      </trkpt>
      <trkpt lat="45.89568" lon="4.82082">
        <ele>172</ele>
        <time>2016-08-26T09:29:21Z</time>
      </trkpt>
      <trkpt lat="45.89572" lon="4.82076">
        <ele>172</ele>
        <time>2016-08-26T09:29:22Z</time>
      </trkpt>
      <trkpt lat="45.89575" lon="4.82071">
        <ele>172</ele>
        <time>2016-08-26T09:29:23Z</time>
      </trkpt>
      <trkpt lat="45.8958" lon="4.82067">
        <ele>172</ele>
        <time>2016-08-26T09:29:24Z</time>
      </trkpt>
      <trkpt lat="45.89585" lon="4.82063">
        <ele>173</ele>
        <time>2016-08-26T09:29:25Z</time>
      </trkpt>
      <trkpt lat="45.89591" lon="4.82058">
        <ele>173</ele>
        <time>2016-08-26T09:29:26Z</time>
      </trkpt>
      <trkpt lat="45.89596" lon="4.82053">
        <ele>173</ele>
        <time>2016-08-26T09:29:27Z</time>
      </trkpt>
      <trkpt lat="45.89602" lon="4.82048">
        <ele>173</ele>
        <time>2016-08-26T09:29:28Z</time>
      </trkpt>
      <trkpt lat="45.89607" lon="4.82044">
        <ele>173</ele>
        <time>2016-08-26T09:29:29Z</time>
      </trkpt>
      <trkpt lat="45.89613" lon="4.82039">
        <ele>173</ele>
        <time>2016-08-26T09:29:30Z</time>
      </trkpt>
      <trkpt lat="45.89619" lon="4.82035">
        <ele>173</ele>
        <time>2016-08-26T09:29:31Z</time>
      </trkpt>
      <trkpt lat="45.89625" lon="4.8203">
        <ele>173</ele>
        <time>2016-08-26T09:29:32Z</time>
      </trkpt>
      <trkpt lat="45.8963" lon="4.82026">
        <ele>173</ele>
        <time>2016-08-26T09:29:33Z</time>
      </trkpt>
      <trkpt lat="45.89635" lon="4.82021">
        <ele>173</ele>
        <time>2016-08-26T09:29:34Z</time>
      </trkpt>
      <trkpt lat="45.8964" lon="4.82016">
        <ele>173</ele>
        <time>2016-08-26T09:29:35Z</time>
      </trkpt>
      <trkpt lat="45.89646" lon="4.82011">
        <ele>173</ele>
        <time>2016-08-26T09:29:36Z</time>
      </trkpt>
      <trkpt lat="45.89651" lon="4.82007">
        <ele>174</ele>
        <time>2016-08-26T09:29:37Z</time>
      </trkpt>
      <trkpt lat="45.89656" lon="4.82003">
        <ele>174</ele>
        <time>2016-08-26T09:29:38Z</time>
      </trkpt>
      <trkpt lat="45.89661" lon="4.81998">
        <ele>173</ele>
        <time>2016-08-26T09:29:39Z</time>
      </trkpt>
      <trkpt lat="45.89666" lon="4.81994">
        <ele>173</ele>
        <time>2016-08-26T09:29:40Z</time>
      </trkpt>
      <trkpt lat="45.89671" lon="4.8199">
        <ele>174</ele>
        <time>2016-08-26T09:29:41Z</time>
      </trkpt>
      <trkpt lat="45.89676" lon="4.81985">
        <ele>174</ele>
        <time>2016-08-26T09:29:42Z</time>
      </trkpt>
      <trkpt lat="45.89681" lon="4.8198">
        <ele>173</ele>
        <time>2016-08-26T09:29:43Z</time>
      </trkpt>
      <trkpt lat="45.89686" lon="4.81976">
        <ele>173</ele>
        <time>2016-08-26T09:29:44Z</time>
      </trkpt>
      <trkpt lat="45.89692" lon="4.81971">
        <ele>173</ele>
        <time>2016-08-26T09:29:45Z</time>
      </trkpt>
      <trkpt lat="45.89697" lon="4.81967">
        <ele>173</ele>
        <time>2016-08-26T09:29:46Z</time>
      </trkpt>
      <trkpt lat="45.89702" lon="4.81963">
        <ele>173</ele>
        <time>2016-08-26T09:29:47Z</time>
      </trkpt>
      <trkpt lat="45.89707" lon="4.81959">
        <ele>173</ele>
        <time>2016-08-26T09:29:48Z</time>
      </trkpt>
      <trkpt lat="45.89711" lon="4.81955">
        <ele>173</ele>
        <time>2016-08-26T09:29:49Z</time>
      </trkpt>
      <trkpt lat="45.89716" lon="4.81952">
        <ele>173</ele>
        <time>2016-08-26T09:29:50Z</time>
      </trkpt>
      <trkpt lat="45.89721" lon="4.81949">
        <ele>173</ele>
        <time>2016-08-26T09:29:51Z</time>
      </trkpt>
      <trkpt lat="45.89725" lon="4.81946">
        <ele>173</ele>
        <time>2016-08-26T09:29:52Z</time>
      </trkpt>
      <trkpt lat="45.89728" lon="4.81941">
        <ele>173</ele>
        <time>2016-08-26T09:29:53Z</time>
      </trkpt>
      <trkpt lat="45.89732" lon="4.81938">
        <ele>173</ele>
        <time>2016-08-26T09:29:54Z</time>
      </trkpt>
      <trkpt lat="45.8974" lon="4.81933">
        <ele>174</ele>
        <time>2016-08-26T09:29:56Z</time>
      </trkpt>
      <trkpt lat="45.89744" lon="4.81933">
        <ele>174</ele>
        <time>2016-08-26T09:29:57Z</time>
      </trkpt>
      <trkpt lat="45.89752" lon="4.81936">
        <ele>174</ele>
        <time>2016-08-26T09:29:59Z</time>
      </trkpt>
      <trkpt lat="45.89754" lon="4.81941">
        <ele>175</ele>
        <time>2016-08-26T09:30:00Z</time>
      </trkpt>
      <trkpt lat="45.89758" lon="4.81951">
        <ele>175</ele>
        <time>2016-08-26T09:30:02Z</time>
      </trkpt>
      <trkpt lat="45.8976" lon="4.81957">
        <ele>175</ele>
        <time>2016-08-26T09:30:03Z</time>
      </trkpt>
      <trkpt lat="45.89761" lon="4.81963">
        <ele>175</ele>
        <time>2016-08-26T09:30:04Z</time>
      </trkpt>
      <trkpt lat="45.89764" lon="4.8197">
        <ele>175</ele>
        <time>2016-08-26T09:30:05Z</time>
      </trkpt>
      <trkpt lat="45.89765" lon="4.81978">
        <ele>175</ele>
        <time>2016-08-26T09:30:06Z</time>
      </trkpt>
      <trkpt lat="45.89766" lon="4.81985">
        <ele>175</ele>
        <time>2016-08-26T09:30:07Z</time>
      </trkpt>
      <trkpt lat="45.89767" lon="4.81993">
        <ele>175</ele>
        <time>2016-08-26T09:30:08Z</time>
      </trkpt>
      <trkpt lat="45.89769" lon="4.82">
        <ele>175</ele>
        <time>2016-08-26T09:30:09Z</time>
      </trkpt>
      <trkpt lat="45.89771" lon="4.82007">
        <ele>174</ele>
        <time>2016-08-26T09:30:10Z</time>
      </trkpt>
      <trkpt lat="45.89772" lon="4.82014">
        <ele>175</ele>
        <time>2016-08-26T09:30:11Z</time>
      </trkpt>
      <trkpt lat="45.89774" lon="4.82021">
        <ele>175</ele>
        <time>2016-08-26T09:30:12Z</time>
      </trkpt>
      <trkpt lat="45.89775" lon="4.82028">
        <ele>175</ele>
        <time>2016-08-26T09:30:13Z</time>
      </trkpt>
      <trkpt lat="45.89777" lon="4.82034">
        <ele>175</ele>
        <time>2016-08-26T09:30:14Z</time>
      </trkpt>
      <trkpt lat="45.89779" lon="4.8204">
        <ele>175</ele>
        <time>2016-08-26T09:30:15Z</time>
      </trkpt>
      <trkpt lat="45.89781" lon="4.82046">
        <ele>175</ele>
        <time>2016-08-26T09:30:16Z</time>
      </trkpt>
      <trkpt lat="45.89782" lon="4.82052">
        <ele>175</ele>
        <time>2016-08-26T09:30:17Z</time>
      </trkpt>
      <trkpt lat="45.89784" lon="4.82059">
        <ele>175</ele>
        <time>2016-08-26T09:30:18Z</time>
      </trkpt>
      <trkpt lat="45.89785" lon="4.82065">
        <ele>175</ele>
        <time>2016-08-26T09:30:19Z</time>
      </trkpt>
      <trkpt lat="45.89789" lon="4.82077">
        <ele>175</ele>
        <time>2016-08-26T09:30:21Z</time>
      </trkpt>
      <trkpt lat="45.8979" lon="4.82082">
        <ele>175</ele>
        <time>2016-08-26T09:30:22Z</time>
      </trkpt>
      <trkpt lat="45.89791" lon="4.82089">
        <ele>175</ele>
        <time>2016-08-26T09:30:23Z</time>
      </trkpt>
      <trkpt lat="45.89792" lon="4.82095">
        <ele>175</ele>
        <time>2016-08-26T09:30:24Z</time>
      </trkpt>
      <trkpt lat="45.89793" lon="4.82102">
        <ele>175</ele>
        <time>2016-08-26T09:30:25Z</time>
      </trkpt>
      <trkpt lat="45.89794" lon="4.82108">
        <ele>175</ele>
        <time>2016-08-26T09:30:26Z</time>
      </trkpt>
      <trkpt lat="45.89795" lon="4.82114">
        <ele>175</ele>
        <time>2016-08-26T09:30:27Z</time>
      </trkpt>
      <trkpt lat="45.89797" lon="4.82121">
        <ele>175</ele>
        <time>2016-08-26T09:30:28Z</time>
      </trkpt>
      <trkpt lat="45.89798" lon="4.82127">
        <ele>175</ele>
        <time>2016-08-26T09:30:29Z</time>
      </trkpt>
      <trkpt lat="45.898" lon="4.82134">
        <ele>175</ele>
        <time>2016-08-26T09:30:30Z</time>
      </trkpt>
      <trkpt lat="45.89803" lon="4.8214">
        <ele>176</ele>
        <time>2016-08-26T09:30:31Z</time>
      </trkpt>
      <trkpt lat="45.89805" lon="4.82147">
        <ele>176</ele>
        <time>2016-08-26T09:30:32Z</time>
      </trkpt>
      <trkpt lat="45.89807" lon="4.82154">
        <ele>176</ele>
        <time>2016-08-26T09:30:33Z</time>
      </trkpt>
      <trkpt lat="45.89809" lon="4.82161">
        <ele>176</ele>
        <time>2016-08-26T09:30:34Z</time>
      </trkpt>
      <trkpt lat="45.89811" lon="4.82168">
        <ele>177</ele>
        <time>2016-08-26T09:30:35Z</time>
      </trkpt>
      <trkpt lat="45.89813" lon="4.82175">
        <ele>177</ele>
        <time>2016-08-26T09:30:36Z</time>
      </trkpt>
      <trkpt lat="45.89815" lon="4.82181">
        <ele>177</ele>
        <time>2016-08-26T09:30:37Z</time>
      </trkpt>
      <trkpt lat="45.89817" lon="4.82188">
        <ele>177</ele>
        <time>2016-08-26T09:30:38Z</time>
      </trkpt>
      <trkpt lat="45.8982" lon="4.82195">
        <ele>177</ele>
        <time>2016-08-26T09:30:39Z</time>
      </trkpt>
      <trkpt lat="45.89821" lon="4.82202">
        <ele>177</ele>
        <time>2016-08-26T09:30:40Z</time>
      </trkpt>
      <trkpt lat="45.89823" lon="4.82208">
        <ele>177</ele>
        <time>2016-08-26T09:30:41Z</time>
      </trkpt>
      <trkpt lat="45.89824" lon="4.82215">
        <ele>177</ele>
        <time>2016-08-26T09:30:42Z</time>
      </trkpt>
      <trkpt lat="45.89827" lon="4.82226">
        <ele>178</ele>
        <time>2016-08-26T09:30:44Z</time>
      </trkpt>
      <trkpt lat="45.89829" lon="4.82232">
        <ele>178</ele>
        <time>2016-08-26T09:30:45Z</time>
      </trkpt>
      <trkpt lat="45.89832" lon="4.82244">
        <ele>179</ele>
        <time>2016-08-26T09:30:47Z</time>
      </trkpt>
      <trkpt lat="45.89832" lon="4.8225">
        <ele>179</ele>
        <time>2016-08-26T09:30:48Z</time>
      </trkpt>
      <trkpt lat="45.89833" lon="4.82263">
        <ele>179</ele>
        <time>2016-08-26T09:30:50Z</time>
      </trkpt>
      <trkpt lat="45.89833" lon="4.82269">
        <ele>178</ele>
        <time>2016-08-26T09:30:51Z</time>
      </trkpt>
      <trkpt lat="45.89832" lon="4.82282">
        <ele>178</ele>
        <time>2016-08-26T09:30:53Z</time>
      </trkpt>
      <trkpt lat="45.89832" lon="4.82288">
        <ele>178</ele>
        <time>2016-08-26T09:30:54Z</time>
      </trkpt>
      <trkpt lat="45.89832" lon="4.823">
        <ele>178</ele>
        <time>2016-08-26T09:30:56Z</time>
      </trkpt>
      <trkpt lat="45.89832" lon="4.82307">
        <ele>178</ele>
        <time>2016-08-26T09:30:57Z</time>
      </trkpt>
      <trkpt lat="45.89828" lon="4.82317">
        <ele>178</ele>
        <time>2016-08-26T09:30:59Z</time>
      </trkpt>
      <trkpt lat="45.89827" lon="4.82323">
        <ele>179</ele>
        <time>2016-08-26T09:31:00Z</time>
      </trkpt>
      <trkpt lat="45.89824" lon="4.82335">
        <ele>179</ele>
        <time>2016-08-26T09:31:02Z</time>
      </trkpt>
      <trkpt lat="45.89823" lon="4.82342">
        <ele>179</ele>
        <time>2016-08-26T09:31:03Z</time>
      </trkpt>
      <trkpt lat="45.89822" lon="4.82348">
        <ele>179</ele>
        <time>2016-08-26T09:31:04Z</time>
      </trkpt>
      <trkpt lat="45.89821" lon="4.82354">
        <ele>179</ele>
        <time>2016-08-26T09:31:05Z</time>
      </trkpt>
      <trkpt lat="45.89821" lon="4.8236">
        <ele>179</ele>
        <time>2016-08-26T09:31:06Z</time>
      </trkpt>
      <trkpt lat="45.89819" lon="4.82367">
        <ele>179</ele>
        <time>2016-08-26T09:31:07Z</time>
      </trkpt>
      <trkpt lat="45.89818" lon="4.8238">
        <ele>179</ele>
        <time>2016-08-26T09:31:09Z</time>
      </trkpt>
      <trkpt lat="45.89817" lon="4.82386">
        <ele>179</ele>
        <time>2016-08-26T09:31:10Z</time>
      </trkpt>
      <trkpt lat="45.89816" lon="4.82398">
        <ele>180</ele>
        <time>2016-08-26T09:31:12Z</time>
      </trkpt>
      <trkpt lat="45.89815" lon="4.82404">
        <ele>180</ele>
        <time>2016-08-26T09:31:13Z</time>
      </trkpt>
      <trkpt lat="45.89814" lon="4.82411">
        <ele>180</ele>
        <time>2016-08-26T09:31:14Z</time>
      </trkpt>
      <trkpt lat="45.89814" lon="4.82417">
        <ele>180</ele>
        <time>2016-08-26T09:31:15Z</time>
      </trkpt>
      <trkpt lat="45.89813" lon="4.82424">
        <ele>180</ele>
        <time>2016-08-26T09:31:16Z</time>
      </trkpt>
      <trkpt lat="45.89812" lon="4.8243">
        <ele>180</ele>
        <time>2016-08-26T09:31:17Z</time>
      </trkpt>
      <trkpt lat="45.89812" lon="4.82443">
        <ele>180</ele>
        <time>2016-08-26T09:31:19Z</time>
      </trkpt>
      <trkpt lat="45.8981" lon="4.82449">
        <ele>180</ele>
        <time>2016-08-26T09:31:20Z</time>
      </trkpt>
      <trkpt lat="45.89809" lon="4.82455">
        <ele>180</ele>
        <time>2016-08-26T09:31:21Z</time>
      </trkpt>
      <trkpt lat="45.89809" lon="4.82462">
        <ele>180</ele>
        <time>2016-08-26T09:31:22Z</time>
      </trkpt>
      <trkpt lat="45.89807" lon="4.82468">
        <ele>180</ele>
        <time>2016-08-26T09:31:23Z</time>
      </trkpt>
      <trkpt lat="45.89806" lon="4.82475">
        <ele>180</ele>
        <time>2016-08-26T09:31:24Z</time>
      </trkpt>
      <trkpt lat="45.89805" lon="4.82481">
        <ele>180</ele>
        <time>2016-08-26T09:31:25Z</time>
      </trkpt>
      <trkpt lat="45.89804" lon="4.82489">
        <ele>180</ele>
        <time>2016-08-26T09:31:26Z</time>
      </trkpt>
      <trkpt lat="45.89803" lon="4.82496">
        <ele>180</ele>
        <time>2016-08-26T09:31:27Z</time>
      </trkpt>
      <trkpt lat="45.89802" lon="4.82502">
        <ele>181</ele>
        <time>2016-08-26T09:31:28Z</time>
      </trkpt>
      <trkpt lat="45.89799" lon="4.82514">
        <ele>181</ele>
        <time>2016-08-26T09:31:30Z</time>
      </trkpt>
      <trkpt lat="45.89799" lon="4.82521">
        <ele>181</ele>
        <time>2016-08-26T09:31:31Z</time>
      </trkpt>
      <trkpt lat="45.89798" lon="4.82534">
        <ele>181</ele>
        <time>2016-08-26T09:31:33Z</time>
      </trkpt>
      <trkpt lat="45.89797" lon="4.82541">
        <ele>181</ele>
        <time>2016-08-26T09:31:34Z</time>
      </trkpt>
      <trkpt lat="45.89796" lon="4.82547">
        <ele>181</ele>
        <time>2016-08-26T09:31:35Z</time>
      </trkpt>
      <trkpt lat="45.89795" lon="4.82554">
        <ele>181</ele>
        <time>2016-08-26T09:31:36Z</time>
      </trkpt>
      <trkpt lat="45.89794" lon="4.8256">
        <ele>181</ele>
        <time>2016-08-26T09:31:37Z</time>
      </trkpt>
      <trkpt lat="45.89794" lon="4.82567">
        <ele>181</ele>
        <time>2016-08-26T09:31:38Z</time>
      </trkpt>
      <trkpt lat="45.89793" lon="4.82573">
        <ele>181</ele>
        <time>2016-08-26T09:31:39Z</time>
      </trkpt>
      <trkpt lat="45.89792" lon="4.8258">
        <ele>181</ele>
        <time>2016-08-26T09:31:40Z</time>
      </trkpt>
      <trkpt lat="45.8979" lon="4.82586">
        <ele>182</ele>
        <time>2016-08-26T09:31:41Z</time>
      </trkpt>
      <trkpt lat="45.89789" lon="4.82593">
        <ele>182</ele>
        <time>2016-08-26T09:31:42Z</time>
      </trkpt>
      <trkpt lat="45.89787" lon="4.82599">
        <ele>182</ele>
        <time>2016-08-26T09:31:43Z</time>
      </trkpt>
      <trkpt lat="45.89785" lon="4.82605">
        <ele>182</ele>
        <time>2016-08-26T09:31:44Z</time>
      </trkpt>
      <trkpt lat="45.89783" lon="4.82611">
        <ele>182</ele>
        <time>2016-08-26T09:31:45Z</time>
      </trkpt>
      <trkpt lat="45.89781" lon="4.82617">
        <ele>182</ele>
        <time>2016-08-26T09:31:46Z</time>
      </trkpt>
      <trkpt lat="45.89779" lon="4.8263">
        <ele>182</ele>
        <time>2016-08-26T09:31:48Z</time>
      </trkpt>
      <trkpt lat="45.89778" lon="4.82637">
        <ele>182</ele>
        <time>2016-08-26T09:31:49Z</time>
      </trkpt>
      <trkpt lat="45.89778" lon="4.82644">
        <ele>182</ele>
        <time>2016-08-26T09:31:50Z</time>
      </trkpt>
      <trkpt lat="45.8978" lon="4.82652">
        <ele>182</ele>
        <time>2016-08-26T09:31:51Z</time>
      </trkpt>
      <trkpt lat="45.89781" lon="4.82659">
        <ele>182</ele>
        <time>2016-08-26T09:31:52Z</time>
      </trkpt>
      <trkpt lat="45.8978" lon="4.82667">
        <ele>182</ele>
        <time>2016-08-26T09:31:53Z</time>
      </trkpt>
      <trkpt lat="45.89779" lon="4.82679">
        <ele>182</ele>
        <time>2016-08-26T09:31:55Z</time>
      </trkpt>
      <trkpt lat="45.89779" lon="4.82686">
        <ele>182</ele>
        <time>2016-08-26T09:31:56Z</time>
      </trkpt>
      <trkpt lat="45.89779" lon="4.82693">
        <ele>182</ele>
        <time>2016-08-26T09:31:57Z</time>
      </trkpt>
      <trkpt lat="45.89776" lon="4.827">
        <ele>182</ele>
        <time>2016-08-26T09:31:58Z</time>
      </trkpt>
      <trkpt lat="45.89778" lon="4.82709">
        <ele>182</ele>
        <time>2016-08-26T09:31:59Z</time>
      </trkpt>
      <trkpt lat="45.89778" lon="4.82716">
        <ele>182</ele>
        <time>2016-08-26T09:32:00Z</time>
      </trkpt>
      <trkpt lat="45.89777" lon="4.82723">
        <ele>182</ele>
        <time>2016-08-26T09:32:01Z</time>
      </trkpt>
      <trkpt lat="45.89776" lon="4.82729">
        <ele>182</ele>
        <time>2016-08-26T09:32:02Z</time>
      </trkpt>
      <trkpt lat="45.89774" lon="4.82735">
        <ele>182</ele>
        <time>2016-08-26T09:32:03Z</time>
      </trkpt>
      <trkpt lat="45.89773" lon="4.82741">
        <ele>182</ele>
        <time>2016-08-26T09:32:04Z</time>
      </trkpt>
      <trkpt lat="45.89772" lon="4.82747">
        <ele>182</ele>
        <time>2016-08-26T09:32:05Z</time>
      </trkpt>
      <trkpt lat="45.89771" lon="4.82754">
        <ele>182</ele>
        <time>2016-08-26T09:32:06Z</time>
      </trkpt>
      <trkpt lat="45.8977" lon="4.8276">
        <ele>182</ele>
        <time>2016-08-26T09:32:07Z</time>
      </trkpt>
      <trkpt lat="45.89768" lon="4.82767">
        <ele>182</ele>
        <time>2016-08-26T09:32:08Z</time>
      </trkpt>
      <trkpt lat="45.89767" lon="4.82775">
        <ele>183</ele>
        <time>2016-08-26T09:32:09Z</time>
      </trkpt>
      <trkpt lat="45.89765" lon="4.82782">
        <ele>183</ele>
        <time>2016-08-26T09:32:10Z</time>
      </trkpt>
      <trkpt lat="45.89764" lon="4.82789">
        <ele>183</ele>
        <time>2016-08-26T09:32:11Z</time>
      </trkpt>
      <trkpt lat="45.89763" lon="4.82795">
        <ele>183</ele>
        <time>2016-08-26T09:32:12Z</time>
      </trkpt>
      <trkpt lat="45.89761" lon="4.82801">
        <ele>183</ele>
        <time>2016-08-26T09:32:13Z</time>
      </trkpt>
      <trkpt lat="45.8976" lon="4.82807">
        <ele>183</ele>
        <time>2016-08-26T09:32:14Z</time>
      </trkpt>
      <trkpt lat="45.89759" lon="4.82814">
        <ele>183</ele>
        <time>2016-08-26T09:32:15Z</time>
      </trkpt>
      <trkpt lat="45.89758" lon="4.82821">
        <ele>183</ele>
        <time>2016-08-26T09:32:16Z</time>
      </trkpt>
      <trkpt lat="45.89756" lon="4.82828">
        <ele>182</ele>
        <time>2016-08-26T09:32:17Z</time>
      </trkpt>
      <trkpt lat="45.89754" lon="4.82835">
        <ele>182</ele>
        <time>2016-08-26T09:32:18Z</time>
      </trkpt>
      <trkpt lat="45.89752" lon="4.82841">
        <ele>182</ele>
        <time>2016-08-26T09:32:19Z</time>
      </trkpt>
      <trkpt lat="45.89749" lon="4.82847">
        <ele>182</ele>
        <time>2016-08-26T09:32:20Z</time>
      </trkpt>
      <trkpt lat="45.89746" lon="4.82852">
        <ele>182</ele>
        <time>2016-08-26T09:32:21Z</time>
      </trkpt>
      <trkpt lat="45.89743" lon="4.82858">
        <ele>182</ele>
        <time>2016-08-26T09:32:22Z</time>
      </trkpt>
      <trkpt lat="45.89738" lon="4.82867">
        <ele>182</ele>
        <time>2016-08-26T09:32:24Z</time>
      </trkpt>
      <trkpt lat="45.89736" lon="4.82872">
        <ele>182</ele>
        <time>2016-08-26T09:32:25Z</time>
      </trkpt>
      <trkpt lat="45.89737" lon="4.82884">
        <ele>182</ele>
        <time>2016-08-26T09:32:27Z</time>
      </trkpt>
      <trkpt lat="45.89741" lon="4.82889">
        <ele>182</ele>
        <time>2016-08-26T09:32:28Z</time>
      </trkpt>
      <trkpt lat="45.89745" lon="4.82892">
        <ele>182</ele>
        <time>2016-08-26T09:32:29Z</time>
      </trkpt>
      <trkpt lat="45.8975" lon="4.82893">
        <ele>183</ele>
        <time>2016-08-26T09:32:30Z</time>
      </trkpt>
      <trkpt lat="45.89756" lon="4.82893">
        <ele>183</ele>
        <time>2016-08-26T09:32:31Z</time>
      </trkpt>
      <trkpt lat="45.89761" lon="4.82893">
        <ele>183</ele>
        <time>2016-08-26T09:32:32Z</time>
      </trkpt>
      <trkpt lat="45.89766" lon="4.82892">
        <ele>183</ele>
        <time>2016-08-26T09:32:33Z</time>
      </trkpt>
      <trkpt lat="45.89771" lon="4.82889">
        <ele>183</ele>
        <time>2016-08-26T09:32:34Z</time>
      </trkpt>
      <trkpt lat="45.89775" lon="4.82885">
        <ele>183</ele>
        <time>2016-08-26T09:32:35Z</time>
      </trkpt>
      <trkpt lat="45.89778" lon="4.8288">
        <ele>183</ele>
        <time>2016-08-26T09:32:36Z</time>
      </trkpt>
      <trkpt lat="45.89781" lon="4.82874">
        <ele>183</ele>
        <time>2016-08-26T09:32:37Z</time>
      </trkpt>
      <trkpt lat="45.89784" lon="4.8287">
        <ele>183</ele>
        <time>2016-08-26T09:32:38Z</time>
      </trkpt>
      <trkpt lat="45.8979" lon="4.82861">
        <ele>183</ele>
        <time>2016-08-26T09:32:40Z</time>
      </trkpt>
      <trkpt lat="45.89794" lon="4.82857">
        <ele>183</ele>
        <time>2016-08-26T09:32:41Z</time>
      </trkpt>
      <trkpt lat="45.89797" lon="4.82853">
        <ele>183</ele>
        <time>2016-08-26T09:32:42Z</time>
      </trkpt>
      <trkpt lat="45.89802" lon="4.8285">
        <ele>184</ele>
        <time>2016-08-26T09:32:43Z</time>
      </trkpt>
      <trkpt lat="45.89807" lon="4.82847">
        <ele>184</ele>
        <time>2016-08-26T09:32:44Z</time>
      </trkpt>
      <trkpt lat="45.89812" lon="4.82844">
        <ele>184</ele>
        <time>2016-08-26T09:32:45Z</time>
      </trkpt>
      <trkpt lat="45.89817" lon="4.82841">
        <ele>184</ele>
        <time>2016-08-26T09:32:46Z</time>
      </trkpt>
      <trkpt lat="45.89822" lon="4.82838">
        <ele>184</ele>
        <time>2016-08-26T09:32:47Z</time>
      </trkpt>
      <trkpt lat="45.89826" lon="4.82835">
        <ele>185</ele>
        <time>2016-08-26T09:32:48Z</time>
      </trkpt>
      <trkpt lat="45.89831" lon="4.82833">
        <ele>185</ele>
        <time>2016-08-26T09:32:49Z</time>
      </trkpt>
      <trkpt lat="45.89835" lon="4.82831">
        <ele>185</ele>
        <time>2016-08-26T09:32:50Z</time>
      </trkpt>
      <trkpt lat="45.8984" lon="4.82828">
        <ele>185</ele>
        <time>2016-08-26T09:32:51Z</time>
      </trkpt>
      <trkpt lat="45.89845" lon="4.82825">
        <ele>185</ele>
        <time>2016-08-26T09:32:52Z</time>
      </trkpt>
      <trkpt lat="45.8985" lon="4.82824">
        <ele>186</ele>
        <time>2016-08-26T09:32:53Z</time>
      </trkpt>
      <trkpt lat="45.89855" lon="4.82821">
        <ele>186</ele>
        <time>2016-08-26T09:32:54Z</time>
      </trkpt>
      <trkpt lat="45.89859" lon="4.82818">
        <ele>186</ele>
        <time>2016-08-26T09:32:55Z</time>
      </trkpt>
      <trkpt lat="45.89864" lon="4.82816">
        <ele>186</ele>
        <time>2016-08-26T09:32:56Z</time>
      </trkpt>
      <trkpt lat="45.89868" lon="4.82813">
        <ele>186</ele>
        <time>2016-08-26T09:32:57Z</time>
      </trkpt>
      <trkpt lat="45.89873" lon="4.8281">
        <ele>186</ele>
        <time>2016-08-26T09:32:58Z</time>
      </trkpt>
      <trkpt lat="45.89879" lon="4.82807">
        <ele>186</ele>
        <time>2016-08-26T09:32:59Z</time>
      </trkpt>
      <trkpt lat="45.89884" lon="4.82805">
        <ele>186</ele>
        <time>2016-08-26T09:33:00Z</time>
      </trkpt>
      <trkpt lat="45.89888" lon="4.82803">
        <ele>186</ele>
        <time>2016-08-26T09:33:01Z</time>
      </trkpt>
      <trkpt lat="45.89893" lon="4.828">
        <ele>186</ele>
        <time>2016-08-26T09:33:02Z</time>
      </trkpt>
      <trkpt lat="45.89898" lon="4.82798">
        <ele>186</ele>
        <time>2016-08-26T09:33:03Z</time>
      </trkpt>
      <trkpt lat="45.89903" lon="4.82796">
        <ele>186</ele>
        <time>2016-08-26T09:33:04Z</time>
      </trkpt>
      <trkpt lat="45.89907" lon="4.82795">
        <ele>186</ele>
        <time>2016-08-26T09:33:05Z</time>
      </trkpt>
      <trkpt lat="45.89916" lon="4.82792">
        <ele>186</ele>
        <time>2016-08-26T09:33:07Z</time>
      </trkpt>
      <trkpt lat="45.8992" lon="4.8279">
        <ele>188</ele>
        <time>2016-08-26T09:33:08Z</time>
      </trkpt>
      <trkpt lat="45.89928" lon="4.82785">
        <ele>188</ele>
        <time>2016-08-26T09:33:10Z</time>
      </trkpt>
      <trkpt lat="45.89933" lon="4.82782">
        <ele>188</ele>
        <time>2016-08-26T09:33:11Z</time>
      </trkpt>
      <trkpt lat="45.89937" lon="4.82779">
        <ele>188</ele>
        <time>2016-08-26T09:33:12Z</time>
      </trkpt>
      <trkpt lat="45.89942" lon="4.82776">
        <ele>188</ele>
        <time>2016-08-26T09:33:13Z</time>
      </trkpt>
      <trkpt lat="45.89946" lon="4.82773">
        <ele>188</ele>
        <time>2016-08-26T09:33:14Z</time>
      </trkpt>
      <trkpt lat="45.89951" lon="4.8277">
        <ele>188</ele>
        <time>2016-08-26T09:33:15Z</time>
      </trkpt>
      <trkpt lat="45.89956" lon="4.82768">
        <ele>188</ele>
        <time>2016-08-26T09:33:16Z</time>
      </trkpt>
      <trkpt lat="45.89961" lon="4.82765">
        <ele>188</ele>
        <time>2016-08-26T09:33:17Z</time>
      </trkpt>
      <trkpt lat="45.89966" lon="4.82763">
        <ele>188</ele>
        <time>2016-08-26T09:33:18Z</time>
      </trkpt>
      <trkpt lat="45.8997" lon="4.8276">
        <ele>188</ele>
        <time>2016-08-26T09:33:19Z</time>
      </trkpt>
      <trkpt lat="45.89974" lon="4.82759">
        <ele>188</ele>
        <time>2016-08-26T09:33:20Z</time>
      </trkpt>
      <trkpt lat="45.89979" lon="4.82757">
        <ele>188</ele>
        <time>2016-08-26T09:33:21Z</time>
      </trkpt>
      <trkpt lat="45.89987" lon="4.82755">
        <ele>188</ele>
        <time>2016-08-26T09:33:23Z</time>
      </trkpt>
      <trkpt lat="45.89991" lon="4.82757">
        <ele>188</ele>
        <time>2016-08-26T09:33:24Z</time>
      </trkpt>
      <trkpt lat="45.89998" lon="4.82761">
        <ele>188</ele>
        <time>2016-08-26T09:33:26Z</time>
      </trkpt>
      <trkpt lat="45.9" lon="4.82765">
        <ele>188</ele>
        <time>2016-08-26T09:33:27Z</time>
      </trkpt>
      <trkpt lat="45.89999" lon="4.82776">
        <ele>188</ele>
        <time>2016-08-26T09:33:29Z</time>
      </trkpt>
      <trkpt lat="45.89994" lon="4.82779">
        <ele>188</ele>
        <time>2016-08-26T09:33:30Z</time>
      </trkpt>
      <trkpt lat="45.89988" lon="4.82781">
        <ele>188</ele>
        <time>2016-08-26T09:33:31Z</time>
      </trkpt>
      <trkpt lat="45.89984" lon="4.82783">
        <ele>188</ele>
        <time>2016-08-26T09:33:32Z</time>
      </trkpt>
      <trkpt lat="45.89979" lon="4.82785">
        <ele>188</ele>
        <time>2016-08-26T09:33:33Z</time>
      </trkpt>
      <trkpt lat="45.89975" lon="4.82788">
        <ele>188</ele>
        <time>2016-08-26T09:33:34Z</time>
      </trkpt>
      <trkpt lat="45.8997" lon="4.82798">
        <ele>188</ele>
        <time>2016-08-26T09:33:36Z</time>
      </trkpt>
      <trkpt lat="45.89969" lon="4.82804">
        <ele>188</ele>
        <time>2016-08-26T09:33:37Z</time>
      </trkpt>
      <trkpt lat="45.89969" lon="4.82816">
        <ele>188</ele>
        <time>2016-08-26T09:33:39Z</time>
      </trkpt>
      <trkpt lat="45.8997" lon="4.82821">
        <ele>188</ele>
        <time>2016-08-26T09:33:40Z</time>
      </trkpt>
      <trkpt lat="45.89971" lon="4.82832">
        <ele>188</ele>
        <time>2016-08-26T09:33:42Z</time>
      </trkpt>
      <trkpt lat="45.89971" lon="4.82837">
        <ele>188</ele>
        <time>2016-08-26T09:33:43Z</time>
      </trkpt>
      <trkpt lat="45.89972" lon="4.82847">
        <ele>188</ele>
        <time>2016-08-26T09:33:45Z</time>
      </trkpt>
      <trkpt lat="45.89973" lon="4.82852">
        <ele>188</ele>
        <time>2016-08-26T09:33:46Z</time>
      </trkpt>
      <trkpt lat="45.89974" lon="4.82861">
        <ele>188</ele>
        <time>2016-08-26T09:33:48Z</time>
      </trkpt>
      <trkpt lat="45.89975" lon="4.82865">
        <ele>188</ele>
        <time>2016-08-26T09:33:49Z</time>
      </trkpt>
      <trkpt lat="45.89978" lon="4.82877">
        <ele>188</ele>
        <time>2016-08-26T09:33:52Z</time>
      </trkpt>
      <trkpt lat="45.89979" lon="4.82881">
        <ele>189</ele>
        <time>2016-08-26T09:33:53Z</time>
      </trkpt>
      <trkpt lat="45.8998" lon="4.82891">
        <ele>189</ele>
        <time>2016-08-26T09:33:56Z</time>
      </trkpt>
      <trkpt lat="45.89981" lon="4.82894">
        <ele>189</ele>
        <time>2016-08-26T09:33:57Z</time>
      </trkpt>
      <trkpt lat="45.89982" lon="4.82905">
        <ele>189</ele>
        <time>2016-08-26T09:34:00Z</time>
      </trkpt>
      <trkpt lat="45.89983" lon="4.82909">
        <ele>189</ele>
        <time>2016-08-26T09:34:01Z</time>
      </trkpt>
      <trkpt lat="45.89984" lon="4.8292">
        <ele>191</ele>
        <time>2016-08-26T09:34:04Z</time>
      </trkpt>
      <trkpt lat="45.89984" lon="4.82923">
        <ele>191</ele>
        <time>2016-08-26T09:34:05Z</time>
      </trkpt>
      <trkpt lat="45.89986" lon="4.82933">
        <ele>191</ele>
        <time>2016-08-26T09:34:08Z</time>
      </trkpt>
      <trkpt lat="45.89986" lon="4.82936">
        <ele>191</ele>
        <time>2016-08-26T09:34:09Z</time>
      </trkpt>
      <trkpt lat="45.89989" lon="4.82947">
        <ele>192</ele>
        <time>2016-08-26T09:34:13Z</time>
      </trkpt>
      <trkpt lat="45.8999" lon="4.8295">
        <ele>192</ele>
        <time>2016-08-26T09:34:14Z</time>
      </trkpt>
      <trkpt lat="45.89991" lon="4.82961">
        <ele>192</ele>
        <time>2016-08-26T09:34:18Z</time>
      </trkpt>
      <trkpt lat="45.89992" lon="4.82963">
        <ele>192</ele>
        <time>2016-08-26T09:34:19Z</time>
      </trkpt>
      <trkpt lat="45.89993" lon="4.82975">
        <ele>193</ele>
        <time>2016-08-26T09:34:23Z</time>
      </trkpt>
      <trkpt lat="45.89993" lon="4.82977">
        <ele>193</ele>
        <time>2016-08-26T09:34:24Z</time>
      </trkpt>
      <trkpt lat="45.89995" lon="4.82988">
        <ele>195</ele>
        <time>2016-08-26T09:34:28Z</time>
      </trkpt>
      <trkpt lat="45.89996" lon="4.8299">
        <ele>195</ele>
        <time>2016-08-26T09:34:29Z</time>
      </trkpt>
      <trkpt lat="45.89999" lon="4.83">
        <ele>197</ele>
        <time>2016-08-26T09:34:33Z</time>
      </trkpt>
      <trkpt lat="45.9" lon="4.83003">
        <ele>197</ele>
        <time>2016-08-26T09:34:34Z</time>
      </trkpt>
      <trkpt lat="45.90002" lon="4.83014">
        <ele>200</ele>
        <time>2016-08-26T09:34:38Z</time>
      </trkpt>
      <trkpt lat="45.90002" lon="4.83016">
        <ele>200</ele>
        <time>2016-08-26T09:34:39Z</time>
      </trkpt>
      <trkpt lat="45.90005" lon="4.83026">
        <ele>201</ele>
        <time>2016-08-26T09:34:43Z</time>
      </trkpt>
      <trkpt lat="45.90007" lon="4.83028">
        <ele>201</ele>
        <time>2016-08-26T09:34:44Z</time>
      </trkpt>
      <trkpt lat="45.90011" lon="4.83037">
        <ele>202</ele>
        <time>2016-08-26T09:34:48Z</time>
      </trkpt>
      <trkpt lat="45.90012" lon="4.83039">
        <ele>202</ele>
        <time>2016-08-26T09:34:49Z</time>
      </trkpt>
      <trkpt lat="45.90014" lon="4.8305">
        <ele>203</ele>
        <time>2016-08-26T09:34:54Z</time>
      </trkpt>
      <trkpt lat="45.90015" lon="4.83052">
        <ele>203</ele>
        <time>2016-08-26T09:34:55Z</time>
      </trkpt>
      <trkpt lat="45.90018" lon="4.83062">
        <ele>203</ele>
        <time>2016-08-26T09:34:59Z</time>
      </trkpt>
      <trkpt lat="45.90018" lon="4.83064">
        <ele>203</ele>
        <time>2016-08-26T09:35:00Z</time>
      </trkpt>
      <trkpt lat="45.90022" lon="4.83075">
        <ele>203</ele>
        <time>2016-08-26T09:35:05Z</time>
      </trkpt>
      <trkpt lat="45.90022" lon="4.83077">
        <ele>204</ele>
        <time>2016-08-26T09:35:06Z</time>
      </trkpt>
      <trkpt lat="45.90026" lon="4.83087">
        <ele>207</ele>
        <time>2016-08-26T09:35:11Z</time>
      </trkpt>
      <trkpt lat="45.90027" lon="4.83089">
        <ele>207</ele>
        <time>2016-08-26T09:35:12Z</time>
      </trkpt>
      <trkpt lat="45.90031" lon="4.83098">
        <ele>208</ele>
        <time>2016-08-26T09:35:17Z</time>
      </trkpt>
      <trkpt lat="45.90032" lon="4.83101">
        <ele>208</ele>
        <time>2016-08-26T09:35:18Z</time>
      </trkpt>
      <trkpt lat="45.90037" lon="4.8311">
        <ele>208</ele>
        <time>2016-08-26T09:35:23Z</time>
      </trkpt>
      <trkpt lat="45.90039" lon="4.83111">
        <ele>208</ele>
        <time>2016-08-26T09:35:24Z</time>
      </trkpt>
      <trkpt lat="45.90045" lon="4.83118">
        <ele>209</ele>
        <time>2016-08-26T09:35:28Z</time>
      </trkpt>
      <trkpt lat="45.90047" lon="4.8312">
        <ele>209</ele>
        <time>2016-08-26T09:35:29Z</time>
      </trkpt>
      <trkpt lat="45.90052" lon="4.8313">
        <ele>210</ele>
        <time>2016-08-26T09:35:33Z</time>
      </trkpt>
      <trkpt lat="45.90054" lon="4.83131">
        <ele>210</ele>
        <time>2016-08-26T09:35:34Z</time>
      </trkpt>
      <trkpt lat="45.90061" lon="4.83138">
        <ele>210</ele>
        <time>2016-08-26T09:35:38Z</time>
      </trkpt>
      <trkpt lat="45.90061" lon="4.8314">
        <ele>210</ele>
        <time>2016-08-26T09:35:39Z</time>
      </trkpt>
      <trkpt lat="45.90063" lon="4.83151">
        <ele>211</ele>
        <time>2016-08-26T09:35:44Z</time>
      </trkpt>
      <trkpt lat="45.90064" lon="4.83154">
        <ele>211</ele>
        <time>2016-08-26T09:35:45Z</time>
      </trkpt>
      <trkpt lat="45.90065" lon="4.83165">
        <ele>212</ele>
        <time>2016-08-26T09:35:50Z</time>
      </trkpt>
      <trkpt lat="45.90065" lon="4.83168">
        <ele>214</ele>
        <time>2016-08-26T09:35:51Z</time>
      </trkpt>
      <trkpt lat="45.90066" lon="4.83178">
        <ele>214</ele>
        <time>2016-08-26T09:35:56Z</time>
      </trkpt>
      <trkpt lat="45.90067" lon="4.8318">
        <ele>214</ele>
        <time>2016-08-26T09:35:57Z</time>
      </trkpt>
      <trkpt lat="45.90068" lon="4.83193">
        <ele>214</ele>
        <time>2016-08-26T09:36:03Z</time>
      </trkpt>
      <trkpt lat="45.90068" lon="4.83195">
        <ele>214</ele>
        <time>2016-08-26T09:36:04Z</time>
      </trkpt>
      <trkpt lat="45.90069" lon="4.83206">
        <ele>215</ele>
        <time>2016-08-26T09:36:08Z</time>
      </trkpt>
      <trkpt lat="45.90069" lon="4.83209">
        <ele>215</ele>
        <time>2016-08-26T09:36:09Z</time>
      </trkpt>
      <trkpt lat="45.90075" lon="4.83217">
        <ele>215</ele>
        <time>2016-08-26T09:36:15Z</time>
      </trkpt>
      <trkpt lat="45.90076" lon="4.83218">
        <ele>215</ele>
        <time>2016-08-26T09:36:16Z</time>
      </trkpt>
      <trkpt lat="45.90081" lon="4.83228">
        <ele>216</ele>
        <time>2016-08-26T09:36:22Z</time>
      </trkpt>
      <trkpt lat="45.90082" lon="4.8323">
        <ele>216</ele>
        <time>2016-08-26T09:36:23Z</time>
      </trkpt>
      <trkpt lat="45.90088" lon="4.83237">
        <ele>218</ele>
        <time>2016-08-26T09:36:28Z</time>
      </trkpt>
      <trkpt lat="45.9009" lon="4.83238">
        <ele>218</ele>
        <time>2016-08-26T09:36:29Z</time>
      </trkpt>
      <trkpt lat="45.90096" lon="4.83243">
        <ele>218</ele>
        <time>2016-08-26T09:36:33Z</time>
      </trkpt>
      <trkpt lat="45.90098" lon="4.83245">
        <ele>218</ele>
        <time>2016-08-26T09:36:34Z</time>
      </trkpt>
      <trkpt lat="45.90103" lon="4.83255">
        <ele>220</ele>
        <time>2016-08-26T09:36:40Z</time>
      </trkpt>
      <trkpt lat="45.90104" lon="4.83257">
        <ele>220</ele>
        <time>2016-08-26T09:36:41Z</time>
      </trkpt>
      <trkpt lat="45.901" lon="4.83268">
        <ele>220</ele>
        <time>2016-08-26T09:38:09Z</time>
      </trkpt>
      <trkpt lat="45.90099" lon="4.83269">
        <ele>220</ele>
        <time>2016-08-26T09:38:10Z</time>
      </trkpt>
      <trkpt lat="45.90102" lon="4.83281">
        <ele>221</ele>
        <time>2016-08-26T09:38:23Z</time>
      </trkpt>
      <trkpt lat="45.90102" lon="4.83282">
        <ele>221</ele>
        <time>2016-08-26T09:38:24Z</time>
      </trkpt>
      <trkpt lat="45.90098" lon="4.83293">
        <ele>221</ele>
        <time>2016-08-26T09:38:39Z</time>
      </trkpt>
      <trkpt lat="45.90098" lon="4.83293">
        <ele>221</ele>
        <time>2016-08-26T09:38:40Z</time>
      </trkpt>
      <trkpt lat="45.90097" lon="4.83298">
        <ele>221</ele>
        <time>2016-08-26T09:40:21Z</time>
      </trkpt>
      <trkpt lat="45.90102" lon="4.83307">
        <ele>221</ele>
        <time>2016-08-26T09:40:22Z</time>
      </trkpt>
      <trkpt lat="45.90098" lon="4.83306">
        <ele>221</ele>
        <time>2016-08-26T09:44:00Z</time>
      </trkpt>
      <trkpt lat="45.9009" lon="4.833">
        <ele>221</ele>
        <time>2016-08-26T09:44:01Z</time>
      </trkpt>
      <trkpt lat="45.90099" lon="4.83302">
        <ele>221</ele>
        <time>2016-08-26T09:48:32Z</time>
      </trkpt>
      <trkpt lat="45.90099" lon="4.83302">
        <ele>221</ele>
        <time>2016-08-26T09:48:33Z</time>
      </trkpt>
      <trkpt lat="45.90099" lon="4.83289">
        <ele>221</ele>
        <time>2016-08-26T10:24:18Z</time>
      </trkpt>
      <trkpt lat="45.901" lon="4.83289">
        <ele>221</ele>
        <time>2016-08-26T10:24:19Z</time>
      </trkpt>
      <trkpt lat="45.90101" lon="4.83277">
        <ele>220</ele>
        <time>2016-08-26T10:24:28Z</time>
      </trkpt>
      <trkpt lat="45.90102" lon="4.83273">
        <ele>220</ele>
        <time>2016-08-26T10:24:29Z</time>
      </trkpt>
      <trkpt lat="45.90103" lon="4.83262">
        <ele>220</ele>
        <time>2016-08-26T10:24:32Z</time>
      </trkpt>
      <trkpt lat="45.90103" lon="4.83259">
        <ele>220</ele>
        <time>2016-08-26T10:24:33Z</time>
      </trkpt>
      <trkpt lat="45.90101" lon="4.83252">
        <ele>220</ele>
        <time>2016-08-26T10:24:35Z</time>
      </trkpt>
      <trkpt lat="45.90097" lon="4.83248">
        <ele>218</ele>
        <time>2016-08-26T10:24:36Z</time>
      </trkpt>
      <trkpt lat="45.90093" lon="4.83244">
        <ele>218</ele>
        <time>2016-08-26T10:24:37Z</time>
      </trkpt>
      <trkpt lat="45.90089" lon="4.83238">
        <ele>218</ele>
        <time>2016-08-26T10:24:38Z</time>
      </trkpt>
      <trkpt lat="45.90085" lon="4.83233">
        <ele>218</ele>
        <time>2016-08-26T10:24:39Z</time>
      </trkpt>
      <trkpt lat="45.90081" lon="4.83227">
        <ele>216</ele>
        <time>2016-08-26T10:24:40Z</time>
      </trkpt>
      <trkpt lat="45.90077" lon="4.83221">
        <ele>215</ele>
        <time>2016-08-26T10:24:41Z</time>
      </trkpt>
      <trkpt lat="45.90074" lon="4.83215">
        <ele>215</ele>
        <time>2016-08-26T10:24:42Z</time>
      </trkpt>
      <trkpt lat="45.90072" lon="4.83207">
        <ele>215</ele>
        <time>2016-08-26T10:24:43Z</time>
      </trkpt>
      <trkpt lat="45.90071" lon="4.83199">
        <ele>215</ele>
        <time>2016-08-26T10:24:44Z</time>
      </trkpt>
      <trkpt lat="45.90069" lon="4.83189">
        <ele>214</ele>
        <time>2016-08-26T10:24:45Z</time>
      </trkpt>
      <trkpt lat="45.90068" lon="4.83179">
        <ele>214</ele>
        <time>2016-08-26T10:24:46Z</time>
      </trkpt>
      <trkpt lat="45.90066" lon="4.83169">
        <ele>214</ele>
        <time>2016-08-26T10:24:47Z</time>
      </trkpt>
      <trkpt lat="45.90064" lon="4.83159">
        <ele>212</ele>
        <time>2016-08-26T10:24:48Z</time>
      </trkpt>
      <trkpt lat="45.90062" lon="4.8315">
        <ele>211</ele>
        <time>2016-08-26T10:24:49Z</time>
      </trkpt>
      <trkpt lat="45.9006" lon="4.83141">
        <ele>210</ele>
        <time>2016-08-26T10:24:50Z</time>
      </trkpt>
      <trkpt lat="45.90056" lon="4.83133">
        <ele>210</ele>
        <time>2016-08-26T10:24:51Z</time>
      </trkpt>
      <trkpt lat="45.90052" lon="4.83124">
        <ele>209</ele>
        <time>2016-08-26T10:24:52Z</time>
      </trkpt>
      <trkpt lat="45.90047" lon="4.83117">
        <ele>209</ele>
        <time>2016-08-26T10:24:53Z</time>
      </trkpt>
      <trkpt lat="45.90041" lon="4.8311">
        <ele>208</ele>
        <time>2016-08-26T10:24:54Z</time>
      </trkpt>
      <trkpt lat="45.90036" lon="4.83103">
        <ele>208</ele>
        <time>2016-08-26T10:24:55Z</time>
      </trkpt>
      <trkpt lat="45.90031" lon="4.83095">
        <ele>207</ele>
        <time>2016-08-26T10:24:56Z</time>
      </trkpt>
      <trkpt lat="45.90028" lon="4.83086">
        <ele>207</ele>
        <time>2016-08-26T10:24:57Z</time>
      </trkpt>
      <trkpt lat="45.90025" lon="4.83076">
        <ele>204</ele>
        <time>2016-08-26T10:24:58Z</time>
      </trkpt>
      <trkpt lat="45.90023" lon="4.83066">
        <ele>203</ele>
        <time>2016-08-26T10:24:59Z</time>
      </trkpt>
      <trkpt lat="45.9002" lon="4.83056">
        <ele>203</ele>
        <time>2016-08-26T10:25:00Z</time>
      </trkpt>
      <trkpt lat="45.90017" lon="4.83045">
        <ele>203</ele>
        <time>2016-08-26T10:25:01Z</time>
      </trkpt>
      <trkpt lat="45.90013" lon="4.83034">
        <ele>202</ele>
        <time>2016-08-26T10:25:02Z</time>
      </trkpt>
      <trkpt lat="45.9001" lon="4.83023">
        <ele>201</ele>
        <time>2016-08-26T10:25:03Z</time>
      </trkpt>
      <trkpt lat="45.90007" lon="4.83013">
        <ele>200</ele>
        <time>2016-08-26T10:25:04Z</time>
      </trkpt>
      <trkpt lat="45.90004" lon="4.83004">
        <ele>198</ele>
        <time>2016-08-26T10:25:05Z</time>
      </trkpt>
      <trkpt lat="45.90001" lon="4.82993">
        <ele>197</ele>
        <time>2016-08-26T10:25:06Z</time>
      </trkpt>
      <trkpt lat="45.89998" lon="4.82983">
        <ele>194</ele>
        <time>2016-08-26T10:25:07Z</time>
      </trkpt>
      <trkpt lat="45.89996" lon="4.82972">
        <ele>193</ele>
        <time>2016-08-26T10:25:08Z</time>
      </trkpt>
      <trkpt lat="45.89994" lon="4.8296">
        <ele>192</ele>
        <time>2016-08-26T10:25:09Z</time>
      </trkpt>
      <trkpt lat="45.89993" lon="4.82949">
        <ele>192</ele>
        <time>2016-08-26T10:25:10Z</time>
      </trkpt>
      <trkpt lat="45.89991" lon="4.82937">
        <ele>191</ele>
        <time>2016-08-26T10:25:11Z</time>
      </trkpt>
      <trkpt lat="45.8999" lon="4.82926">
        <ele>191</ele>
        <time>2016-08-26T10:25:12Z</time>
      </trkpt>
      <trkpt lat="45.89988" lon="4.82914">
        <ele>190</ele>
        <time>2016-08-26T10:25:13Z</time>
      </trkpt>
      <trkpt lat="45.89987" lon="4.82902">
        <ele>189</ele>
        <time>2016-08-26T10:25:14Z</time>
      </trkpt>
      <trkpt lat="45.89984" lon="4.8289">
        <ele>189</ele>
        <time>2016-08-26T10:25:15Z</time>
      </trkpt>
      <trkpt lat="45.89982" lon="4.82878">
        <ele>189</ele>
        <time>2016-08-26T10:25:16Z</time>
      </trkpt>
      <trkpt lat="45.8998" lon="4.82866">
        <ele>188</ele>
        <time>2016-08-26T10:25:17Z</time>
      </trkpt>
      <trkpt lat="45.89979" lon="4.82855">
        <ele>188</ele>
        <time>2016-08-26T10:25:18Z</time>
      </trkpt>
      <trkpt lat="45.89977" lon="4.82844">
        <ele>188</ele>
        <time>2016-08-26T10:25:19Z</time>
      </trkpt>
      <trkpt lat="45.89975" lon="4.82834">
        <ele>188</ele>
        <time>2016-08-26T10:25:20Z</time>
      </trkpt>
      <trkpt lat="45.89974" lon="4.82825">
        <ele>188</ele>
        <time>2016-08-26T10:25:21Z</time>
      </trkpt>
      <trkpt lat="45.89973" lon="4.82816">
        <ele>188</ele>
        <time>2016-08-26T10:25:22Z</time>
      </trkpt>
      <trkpt lat="45.89972" lon="4.82809">
        <ele>188</ele>
        <time>2016-08-26T10:25:23Z</time>
      </trkpt>
      <trkpt lat="45.89973" lon="4.82802">
        <ele>188</ele>
        <time>2016-08-26T10:25:24Z</time>
      </trkpt>
      <trkpt lat="45.89974" lon="4.82796">
        <ele>188</ele>
        <time>2016-08-26T10:25:25Z</time>
      </trkpt>
      <trkpt lat="45.89978" lon="4.82791">
        <ele>188</ele>
        <time>2016-08-26T10:25:26Z</time>
      </trkpt>
      <trkpt lat="45.89982" lon="4.82786">
        <ele>188</ele>
        <time>2016-08-26T10:25:27Z</time>
      </trkpt>
      <trkpt lat="45.89986" lon="4.82783">
        <ele>188</ele>
        <time>2016-08-26T10:25:28Z</time>
      </trkpt>
      <trkpt lat="45.8999" lon="4.82779">
        <ele>188</ele>
        <time>2016-08-26T10:25:29Z</time>
      </trkpt>
      <trkpt lat="45.89994" lon="4.82776">
        <ele>188</ele>
        <time>2016-08-26T10:25:30Z</time>
      </trkpt>
      <trkpt lat="45.89999" lon="4.82772">
        <ele>188</ele>
        <time>2016-08-26T10:25:31Z</time>
      </trkpt>
      <trkpt lat="45.90003" lon="4.8277">
        <ele>188</ele>
        <time>2016-08-26T10:25:32Z</time>
      </trkpt>
      <trkpt lat="45.90011" lon="4.82766">
        <ele>188</ele>
        <time>2016-08-26T10:25:34Z</time>
      </trkpt>
      <trkpt lat="45.90015" lon="4.82765">
        <ele>188</ele>
        <time>2016-08-26T10:25:35Z</time>
      </trkpt>
      <trkpt lat="45.90022" lon="4.8276">
        <ele>188</ele>
        <time>2016-08-26T10:25:37Z</time>
      </trkpt>
      <trkpt lat="45.90026" lon="4.82757">
        <ele>188</ele>
        <time>2016-08-26T10:25:38Z</time>
      </trkpt>
      <trkpt lat="45.90033" lon="4.82752">
        <ele>188</ele>
        <time>2016-08-26T10:25:40Z</time>
      </trkpt>
      <trkpt lat="45.90037" lon="4.82749">
        <ele>188</ele>
        <time>2016-08-26T10:25:41Z</time>
      </trkpt>
      <trkpt lat="45.90042" lon="4.82747">
        <ele>188</ele>
        <time>2016-08-26T10:25:42Z</time>
      </trkpt>
      <trkpt lat="45.90046" lon="4.82746">
        <ele>188</ele>
        <time>2016-08-26T10:25:43Z</time>
      </trkpt>
      <trkpt lat="45.90054" lon="4.82743">
        <ele>188</ele>
        <time>2016-08-26T10:25:45Z</time>
      </trkpt>
      <trkpt lat="45.90058" lon="4.82741">
        <ele>188</ele>
        <time>2016-08-26T10:25:46Z</time>
      </trkpt>
      <trkpt lat="45.90063" lon="4.82739">
        <ele>188</ele>
        <time>2016-08-26T10:25:47Z</time>
      </trkpt>
      <trkpt lat="45.90067" lon="4.82737">
        <ele>188</ele>
        <time>2016-08-26T10:25:48Z</time>
      </trkpt>
      <trkpt lat="45.90071" lon="4.82735">
        <ele>188</ele>
        <time>2016-08-26T10:25:49Z</time>
      </trkpt>
      <trkpt lat="45.90076" lon="4.82733">
        <ele>188</ele>
        <time>2016-08-26T10:25:50Z</time>
      </trkpt>
      <trkpt lat="45.9008" lon="4.82731">
        <ele>188</ele>
        <time>2016-08-26T10:25:51Z</time>
      </trkpt>
      <trkpt lat="45.90085" lon="4.82729">
        <ele>189</ele>
        <time>2016-08-26T10:25:52Z</time>
      </trkpt>
      <trkpt lat="45.90089" lon="4.82726">
        <ele>189</ele>
        <time>2016-08-26T10:25:53Z</time>
      </trkpt>
      <trkpt lat="45.90094" lon="4.82724">
        <ele>189</ele>
        <time>2016-08-26T10:25:54Z</time>
      </trkpt>
      <trkpt lat="45.90099" lon="4.82722">
        <ele>189</ele>
        <time>2016-08-26T10:25:55Z</time>
      </trkpt>
      <trkpt lat="45.90104" lon="4.8272">
        <ele>189</ele>
        <time>2016-08-26T10:25:56Z</time>
      </trkpt>
      <trkpt lat="45.90109" lon="4.82717">
        <ele>189</ele>
        <time>2016-08-26T10:25:57Z</time>
      </trkpt>
      <trkpt lat="45.90113" lon="4.82714">
        <ele>189</ele>
        <time>2016-08-26T10:25:58Z</time>
      </trkpt>
      <trkpt lat="45.90121" lon="4.8271">
        <ele>190</ele>
        <time>2016-08-26T10:26:00Z</time>
      </trkpt>
      <trkpt lat="45.90125" lon="4.82707">
        <ele>190</ele>
        <time>2016-08-26T10:26:01Z</time>
      </trkpt>
      <trkpt lat="45.90132" lon="4.82703">
        <ele>190</ele>
        <time>2016-08-26T10:26:03Z</time>
      </trkpt>
      <trkpt lat="45.90136" lon="4.827">
        <ele>190</ele>
        <time>2016-08-26T10:26:04Z</time>
      </trkpt>
      <trkpt lat="45.90141" lon="4.82697">
        <ele>190</ele>
        <time>2016-08-26T10:26:05Z</time>
      </trkpt>
      <trkpt lat="45.90145" lon="4.82694">
        <ele>190</ele>
        <time>2016-08-26T10:26:06Z</time>
      </trkpt>
      <trkpt lat="45.90153" lon="4.82688">
        <ele>190</ele>
        <time>2016-08-26T10:26:08Z</time>
      </trkpt>
      <trkpt lat="45.90157" lon="4.82686">
        <ele>190</ele>
        <time>2016-08-26T10:26:09Z</time>
      </trkpt>
      <trkpt lat="45.90165" lon="4.8268">
        <ele>190</ele>
        <time>2016-08-26T10:26:11Z</time>
      </trkpt>
      <trkpt lat="45.90168" lon="4.82677">
        <ele>191</ele>
        <time>2016-08-26T10:26:12Z</time>
      </trkpt>
      <trkpt lat="45.90173" lon="4.82675">
        <ele>191</ele>
        <time>2016-08-26T10:26:13Z</time>
      </trkpt>
      <trkpt lat="45.90177" lon="4.82673">
        <ele>191</ele>
        <time>2016-08-26T10:26:14Z</time>
      </trkpt>
      <trkpt lat="45.90182" lon="4.82671">
        <ele>191</ele>
        <time>2016-08-26T10:26:15Z</time>
      </trkpt>
      <trkpt lat="45.90187" lon="4.82669">
        <ele>191</ele>
        <time>2016-08-26T10:26:16Z</time>
      </trkpt>
      <trkpt lat="45.90192" lon="4.82667">
        <ele>190</ele>
        <time>2016-08-26T10:26:17Z</time>
      </trkpt>
      <trkpt lat="45.90196" lon="4.82664">
        <ele>190</ele>
        <time>2016-08-26T10:26:18Z</time>
      </trkpt>
      <trkpt lat="45.90201" lon="4.82661">
        <ele>190</ele>
        <time>2016-08-26T10:26:19Z</time>
      </trkpt>
      <trkpt lat="45.90205" lon="4.82659">
        <ele>190</ele>
        <time>2016-08-26T10:26:20Z</time>
      </trkpt>
      <trkpt lat="45.9021" lon="4.82656">
        <ele>190</ele>
        <time>2016-08-26T10:26:21Z</time>
      </trkpt>
      <trkpt lat="45.90214" lon="4.82653">
        <ele>190</ele>
        <time>2016-08-26T10:26:22Z</time>
      </trkpt>
      <trkpt lat="45.90222" lon="4.8265">
        <ele>190</ele>
        <time>2016-08-26T10:26:24Z</time>
      </trkpt>
      <trkpt lat="45.90226" lon="4.82648">
        <ele>190</ele>
        <time>2016-08-26T10:26:25Z</time>
      </trkpt>
      <trkpt lat="45.90234" lon="4.82645">
        <ele>191</ele>
        <time>2016-08-26T10:26:27Z</time>
      </trkpt>
      <trkpt lat="45.90238" lon="4.82644">
        <ele>191</ele>
        <time>2016-08-26T10:26:28Z</time>
      </trkpt>
      <trkpt lat="45.90243" lon="4.82643">
        <ele>191</ele>
        <time>2016-08-26T10:26:29Z</time>
      </trkpt>
      <trkpt lat="45.90248" lon="4.82643">
        <ele>191</ele>
        <time>2016-08-26T10:26:30Z</time>
      </trkpt>
      <trkpt lat="45.90254" lon="4.82645">
        <ele>192</ele>
        <time>2016-08-26T10:26:31Z</time>
      </trkpt>
      <trkpt lat="45.90259" lon="4.82646">
        <ele>192</ele>
        <time>2016-08-26T10:26:32Z</time>
      </trkpt>
      <trkpt lat="45.90268" lon="4.82648">
        <ele>192</ele>
        <time>2016-08-26T10:26:34Z</time>
      </trkpt>
      <trkpt lat="45.90272" lon="4.82648">
        <ele>192</ele>
        <time>2016-08-26T10:26:35Z</time>
      </trkpt>
      <trkpt lat="45.9028" lon="4.8265">
        <ele>192</ele>
        <time>2016-08-26T10:26:37Z</time>
      </trkpt>
      <trkpt lat="45.90286" lon="4.8265">
        <ele>192</ele>
        <time>2016-08-26T10:26:38Z</time>
      </trkpt>
      <trkpt lat="45.9029" lon="4.8265">
        <ele>192</ele>
        <time>2016-08-26T10:26:39Z</time>
      </trkpt>
      <trkpt lat="45.90296" lon="4.8265">
        <ele>192</ele>
        <time>2016-08-26T10:26:40Z</time>
      </trkpt>
      <trkpt lat="45.90301" lon="4.82649">
        <ele>192</ele>
        <time>2016-08-26T10:26:41Z</time>
      </trkpt>
      <trkpt lat="45.90306" lon="4.82648">
        <ele>192</ele>
        <time>2016-08-26T10:26:42Z</time>
      </trkpt>
      <trkpt lat="45.90312" lon="4.82646">
        <ele>192</ele>
        <time>2016-08-26T10:26:43Z</time>
      </trkpt>
      <trkpt lat="45.90316" lon="4.82645">
        <ele>193</ele>
        <time>2016-08-26T10:26:44Z</time>
      </trkpt>
      <trkpt lat="45.90322" lon="4.82643">
        <ele>193</ele>
        <time>2016-08-26T10:26:45Z</time>
      </trkpt>
      <trkpt lat="45.90327" lon="4.8264">
        <ele>193</ele>
        <time>2016-08-26T10:26:46Z</time>
      </trkpt>
      <trkpt lat="45.90332" lon="4.82638">
        <ele>193</ele>
        <time>2016-08-26T10:26:47Z</time>
      </trkpt>
      <trkpt lat="45.90337" lon="4.82636">
        <ele>193</ele>
        <time>2016-08-26T10:26:48Z</time>
      </trkpt>
      <trkpt lat="45.90342" lon="4.82634">
        <ele>193</ele>
        <time>2016-08-26T10:26:49Z</time>
      </trkpt>
      <trkpt lat="45.90346" lon="4.82632">
        <ele>193</ele>
        <time>2016-08-26T10:26:50Z</time>
      </trkpt>
      <trkpt lat="45.90351" lon="4.8263">
        <ele>193</ele>
        <time>2016-08-26T10:26:51Z</time>
      </trkpt>
      <trkpt lat="45.90356" lon="4.82627">
        <ele>193</ele>
        <time>2016-08-26T10:26:52Z</time>
      </trkpt>
      <trkpt lat="45.90361" lon="4.82624">
        <ele>193</ele>
        <time>2016-08-26T10:26:53Z</time>
      </trkpt>
      <trkpt lat="45.90366" lon="4.8262">
        <ele>193</ele>
        <time>2016-08-26T10:26:54Z</time>
      </trkpt>
      <trkpt lat="45.90371" lon="4.82617">
        <ele>192</ele>
        <time>2016-08-26T10:26:55Z</time>
      </trkpt>
      <trkpt lat="45.90376" lon="4.82612">
        <ele>192</ele>
        <time>2016-08-26T10:26:56Z</time>
      </trkpt>
      <trkpt lat="45.90384" lon="4.82611">
        <ele>192</ele>
        <time>2016-08-26T10:26:57Z</time>
      </trkpt>
      <trkpt lat="45.90389" lon="4.82608">
        <ele>192</ele>
        <time>2016-08-26T10:26:58Z</time>
      </trkpt>
      <trkpt lat="45.90393" lon="4.82605">
        <ele>192</ele>
        <time>2016-08-26T10:26:59Z</time>
      </trkpt>
      <trkpt lat="45.90398" lon="4.82603">
        <ele>192</ele>
        <time>2016-08-26T10:27:00Z</time>
      </trkpt>
      <trkpt lat="45.90402" lon="4.826">
        <ele>192</ele>
        <time>2016-08-26T10:27:01Z</time>
      </trkpt>
      <trkpt lat="45.90407" lon="4.82597">
        <ele>192</ele>
        <time>2016-08-26T10:27:02Z</time>
      </trkpt>
      <trkpt lat="45.90411" lon="4.82594">
        <ele>192</ele>
        <time>2016-08-26T10:27:03Z</time>
      </trkpt>
      <trkpt lat="45.90416" lon="4.8259">
        <ele>191</ele>
        <time>2016-08-26T10:27:04Z</time>
      </trkpt>
      <trkpt lat="45.90422" lon="4.82587">
        <ele>191</ele>
        <time>2016-08-26T10:27:05Z</time>
      </trkpt>
      <trkpt lat="45.90426" lon="4.82583">
        <ele>191</ele>
        <time>2016-08-26T10:27:06Z</time>
      </trkpt>
      <trkpt lat="45.90431" lon="4.8258">
        <ele>191</ele>
        <time>2016-08-26T10:27:07Z</time>
      </trkpt>
      <trkpt lat="45.90436" lon="4.82577">
        <ele>192</ele>
        <time>2016-08-26T10:27:08Z</time>
      </trkpt>
      <trkpt lat="45.90441" lon="4.82574">
        <ele>192</ele>
        <time>2016-08-26T10:27:09Z</time>
      </trkpt>
      <trkpt lat="45.90445" lon="4.82571">
        <ele>192</ele>
        <time>2016-08-26T10:27:10Z</time>
      </trkpt>
      <trkpt lat="45.9045" lon="4.82568">
        <ele>192</ele>
        <time>2016-08-26T10:27:11Z</time>
      </trkpt>
      <trkpt lat="45.90454" lon="4.82564">
        <ele>192</ele>
        <time>2016-08-26T10:27:12Z</time>
      </trkpt>
      <trkpt lat="45.90458" lon="4.82562">
        <ele>192</ele>
        <time>2016-08-26T10:27:13Z</time>
      </trkpt>
      <trkpt lat="45.90462" lon="4.82559">
        <ele>192</ele>
        <time>2016-08-26T10:27:14Z</time>
      </trkpt>
      <trkpt lat="45.90467" lon="4.82555">
        <ele>192</ele>
        <time>2016-08-26T10:27:15Z</time>
      </trkpt>
      <trkpt lat="45.90471" lon="4.82552">
        <ele>192</ele>
        <time>2016-08-26T10:27:16Z</time>
      </trkpt>
      <trkpt lat="45.90476" lon="4.82549">
        <ele>192</ele>
        <time>2016-08-26T10:27:17Z</time>
      </trkpt>
      <trkpt lat="45.9048" lon="4.82546">
        <ele>192</ele>
        <time>2016-08-26T10:27:18Z</time>
      </trkpt>
      <trkpt lat="45.90484" lon="4.82543">
        <ele>192</ele>
        <time>2016-08-26T10:27:19Z</time>
      </trkpt>
      <trkpt lat="45.90488" lon="4.8254">
        <ele>192</ele>
        <time>2016-08-26T10:27:20Z</time>
      </trkpt>
      <trkpt lat="45.90492" lon="4.82537">
        <ele>192</ele>
        <time>2016-08-26T10:27:21Z</time>
      </trkpt>
      <trkpt lat="45.90497" lon="4.82534">
        <ele>192</ele>
        <time>2016-08-26T10:27:22Z</time>
      </trkpt>
      <trkpt lat="45.90501" lon="4.82531">
        <ele>193</ele>
        <time>2016-08-26T10:27:23Z</time>
      </trkpt>
      <trkpt lat="45.90505" lon="4.82528">
        <ele>193</ele>
        <time>2016-08-26T10:27:24Z</time>
      </trkpt>
      <trkpt lat="45.90509" lon="4.82525">
        <ele>193</ele>
        <time>2016-08-26T10:27:25Z</time>
      </trkpt>
      <trkpt lat="45.90514" lon="4.82522">
        <ele>193</ele>
        <time>2016-08-26T10:27:26Z</time>
      </trkpt>
      <trkpt lat="45.90518" lon="4.82519">
        <ele>193</ele>
        <time>2016-08-26T10:27:27Z</time>
      </trkpt>
      <trkpt lat="45.90522" lon="4.82516">
        <ele>193</ele>
        <time>2016-08-26T10:27:28Z</time>
      </trkpt>
      <trkpt lat="45.9053" lon="4.82512">
        <ele>193</ele>
        <time>2016-08-26T10:27:30Z</time>
      </trkpt>
      <trkpt lat="45.90534" lon="4.82509">
        <ele>193</ele>
        <time>2016-08-26T10:27:31Z</time>
      </trkpt>
      <trkpt lat="45.90538" lon="4.82506">
        <ele>193</ele>
        <time>2016-08-26T10:27:32Z</time>
      </trkpt>
      <trkpt lat="45.90542" lon="4.82503">
        <ele>194</ele>
        <time>2016-08-26T10:27:33Z</time>
      </trkpt>
      <trkpt lat="45.90546" lon="4.825">
        <ele>193</ele>
        <time>2016-08-26T10:27:34Z</time>
      </trkpt>
      <trkpt lat="45.90551" lon="4.82497">
        <ele>193</ele>
        <time>2016-08-26T10:27:35Z</time>
      </trkpt>
      <trkpt lat="45.90555" lon="4.82494">
        <ele>193</ele>
        <time>2016-08-26T10:27:36Z</time>
      </trkpt>
      <trkpt lat="45.9056" lon="4.82491">
        <ele>194</ele>
        <time>2016-08-26T10:27:37Z</time>
      </trkpt>
      <trkpt lat="45.90564" lon="4.82488">
        <ele>194</ele>
        <time>2016-08-26T10:27:38Z</time>
      </trkpt>
      <trkpt lat="45.90569" lon="4.82485">
        <ele>194</ele>
        <time>2016-08-26T10:27:39Z</time>
      </trkpt>
      <trkpt lat="45.90573" lon="4.82482">
        <ele>194</ele>
        <time>2016-08-26T10:27:40Z</time>
      </trkpt>
      <trkpt lat="45.90578" lon="4.82479">
        <ele>194</ele>
        <time>2016-08-26T10:27:41Z</time>
      </trkpt>
      <trkpt lat="45.90586" lon="4.82474">
        <ele>195</ele>
        <time>2016-08-26T10:27:43Z</time>
      </trkpt>
      <trkpt lat="45.9059" lon="4.82472">
        <ele>196</ele>
        <time>2016-08-26T10:27:44Z</time>
      </trkpt>
      <trkpt lat="45.90597" lon="4.82467">
        <ele>196</ele>
        <time>2016-08-26T10:27:46Z</time>
      </trkpt>
      <trkpt lat="45.90601" lon="4.82464">
        <ele>196</ele>
        <time>2016-08-26T10:27:47Z</time>
      </trkpt>
      <trkpt lat="45.90609" lon="4.82458">
        <ele>196</ele>
        <time>2016-08-26T10:27:49Z</time>
      </trkpt>
      <trkpt lat="45.90613" lon="4.82456">
        <ele>196</ele>
        <time>2016-08-26T10:27:50Z</time>
      </trkpt>
      <trkpt lat="45.9062" lon="4.8245">
        <ele>196</ele>
        <time>2016-08-26T10:27:52Z</time>
      </trkpt>
      <trkpt lat="45.90624" lon="4.82447">
        <ele>196</ele>
        <time>2016-08-26T10:27:53Z</time>
      </trkpt>
      <trkpt lat="45.90632" lon="4.82442">
        <ele>197</ele>
        <time>2016-08-26T10:27:55Z</time>
      </trkpt>
      <trkpt lat="45.90636" lon="4.82439">
        <ele>197</ele>
        <time>2016-08-26T10:27:56Z</time>
      </trkpt>
      <trkpt lat="45.90644" lon="4.82434">
        <ele>197</ele>
        <time>2016-08-26T10:27:58Z</time>
      </trkpt>
      <trkpt lat="45.90648" lon="4.82431">
        <ele>197</ele>
        <time>2016-08-26T10:27:59Z</time>
      </trkpt>
      <trkpt lat="45.90652" lon="4.82428">
        <ele>198</ele>
        <time>2016-08-26T10:28:00Z</time>
      </trkpt>
      <trkpt lat="45.90656" lon="4.82425">
        <ele>198</ele>
        <time>2016-08-26T10:28:01Z</time>
      </trkpt>
      <trkpt lat="45.9066" lon="4.82423">
        <ele>198</ele>
        <time>2016-08-26T10:28:02Z</time>
      </trkpt>
      <trkpt lat="45.90664" lon="4.82419">
        <ele>199</ele>
        <time>2016-08-26T10:28:03Z</time>
      </trkpt>
      <trkpt lat="45.90672" lon="4.82413">
        <ele>199</ele>
        <time>2016-08-26T10:28:05Z</time>
      </trkpt>
      <trkpt lat="45.90676" lon="4.82411">
        <ele>199</ele>
        <time>2016-08-26T10:28:06Z</time>
      </trkpt>
      <trkpt lat="45.90681" lon="4.82408">
        <ele>199</ele>
        <time>2016-08-26T10:28:07Z</time>
      </trkpt>
      <trkpt lat="45.90685" lon="4.82405">
        <ele>199</ele>
        <time>2016-08-26T10:28:08Z</time>
      </trkpt>
      <trkpt lat="45.9069" lon="4.82402">
        <ele>199</ele>
        <time>2016-08-26T10:28:09Z</time>
      </trkpt>
      <trkpt lat="45.90694" lon="4.82399">
        <ele>199</ele>
        <time>2016-08-26T10:28:10Z</time>
      </trkpt>
      <trkpt lat="45.90698" lon="4.82396">
        <ele>199</ele>
        <time>2016-08-26T10:28:11Z</time>
      </trkpt>
      <trkpt lat="45.90703" lon="4.82394">
        <ele>199</ele>
        <time>2016-08-26T10:28:12Z</time>
      </trkpt>
      <trkpt lat="45.90708" lon="4.82391">
        <ele>199</ele>
        <time>2016-08-26T10:28:13Z</time>
      </trkpt>
      <trkpt lat="45.90712" lon="4.82388">
        <ele>199</ele>
        <time>2016-08-26T10:28:14Z</time>
      </trkpt>
      <trkpt lat="45.90718" lon="4.82386">
        <ele>199</ele>
        <time>2016-08-26T10:28:15Z</time>
      </trkpt>
      <trkpt lat="45.90723" lon="4.82384">
        <ele>199</ele>
        <time>2016-08-26T10:28:16Z</time>
      </trkpt>
      <trkpt lat="45.90728" lon="4.82381">
        <ele>199</ele>
        <time>2016-08-26T10:28:17Z</time>
      </trkpt>
      <trkpt lat="45.90732" lon="4.82379">
        <ele>199</ele>
        <time>2016-08-26T10:28:18Z</time>
      </trkpt>
      <trkpt lat="45.90741" lon="4.82377">
        <ele>199</ele>
        <time>2016-08-26T10:28:20Z</time>
      </trkpt>
      <trkpt lat="45.90745" lon="4.82376">
        <ele>199</ele>
        <time>2016-08-26T10:28:21Z</time>
      </trkpt>
      <trkpt lat="45.90754" lon="4.82373">
        <ele>200</ele>
        <time>2016-08-26T10:28:23Z</time>
      </trkpt>
      <trkpt lat="45.90758" lon="4.82371">
        <ele>200</ele>
        <time>2016-08-26T10:28:24Z</time>
      </trkpt>
      <trkpt lat="45.90763" lon="4.82369">
        <ele>200</ele>
        <time>2016-08-26T10:28:25Z</time>
      </trkpt>
      <trkpt lat="45.90767" lon="4.82368">
        <ele>200</ele>
        <time>2016-08-26T10:28:26Z</time>
      </trkpt>
      <trkpt lat="45.90772" lon="4.82366">
        <ele>200</ele>
        <time>2016-08-26T10:28:27Z</time>
      </trkpt>
      <trkpt lat="45.90778" lon="4.82364">
        <ele>200</ele>
        <time>2016-08-26T10:28:28Z</time>
      </trkpt>
      <trkpt lat="45.90784" lon="4.82363">
        <ele>200</ele>
        <time>2016-08-26T10:28:29Z</time>
      </trkpt>
      <trkpt lat="45.90789" lon="4.82361">
        <ele>200</ele>
        <time>2016-08-26T10:28:30Z</time>
      </trkpt>
      <trkpt lat="45.90795" lon="4.82359">
        <ele>200</ele>
        <time>2016-08-26T10:28:31Z</time>
      </trkpt>
      <trkpt lat="45.90801" lon="4.82357">
        <ele>200</ele>
        <time>2016-08-26T10:28:32Z</time>
      </trkpt>
      <trkpt lat="45.90806" lon="4.82355">
        <ele>200</ele>
        <time>2016-08-26T10:28:33Z</time>
      </trkpt>
      <trkpt lat="45.90811" lon="4.82353">
        <ele>200</ele>
        <time>2016-08-26T10:28:34Z</time>
      </trkpt>
      <trkpt lat="45.90817" lon="4.82351">
        <ele>199</ele>
        <time>2016-08-26T10:28:35Z</time>
      </trkpt>
      <trkpt lat="45.90822" lon="4.82349">
        <ele>199</ele>
        <time>2016-08-26T10:28:36Z</time>
      </trkpt>
      <trkpt lat="45.90827" lon="4.82348">
        <ele>199</ele>
        <time>2016-08-26T10:28:37Z</time>
      </trkpt>
      <trkpt lat="45.90833" lon="4.82345">
        <ele>199</ele>
        <time>2016-08-26T10:28:38Z</time>
      </trkpt>
      <trkpt lat="45.90838" lon="4.82343">
        <ele>200</ele>
        <time>2016-08-26T10:28:39Z</time>
      </trkpt>
      <trkpt lat="45.90843" lon="4.8234">
        <ele>200</ele>
        <time>2016-08-26T10:28:40Z</time>
      </trkpt>
      <trkpt lat="45.90849" lon="4.82338">
        <ele>201</ele>
        <time>2016-08-26T10:28:41Z</time>
      </trkpt>
      <trkpt lat="45.90854" lon="4.82337">
        <ele>201</ele>
        <time>2016-08-26T10:28:42Z</time>
      </trkpt>
      <trkpt lat="45.90859" lon="4.82334">
        <ele>202</ele>
        <time>2016-08-26T10:28:43Z</time>
      </trkpt>
      <trkpt lat="45.90864" lon="4.82332">
        <ele>197</ele>
        <time>2016-08-26T10:28:44Z</time>
      </trkpt>
      <trkpt lat="45.90869" lon="4.8233">
        <ele>197</ele>
        <time>2016-08-26T10:28:45Z</time>
      </trkpt>
      <trkpt lat="45.90874" lon="4.82327">
        <ele>197</ele>
        <time>2016-08-26T10:28:46Z</time>
      </trkpt>
      <trkpt lat="45.9088" lon="4.82326">
        <ele>197</ele>
        <time>2016-08-26T10:28:47Z</time>
      </trkpt>
      <trkpt lat="45.90885" lon="4.82324">
        <ele>197</ele>
        <time>2016-08-26T10:28:48Z</time>
      </trkpt>
      <trkpt lat="45.90891" lon="4.82323">
        <ele>197</ele>
        <time>2016-08-26T10:28:49Z</time>
      </trkpt>
      <trkpt lat="45.90897" lon="4.8232">
        <ele>198</ele>
        <time>2016-08-26T10:28:50Z</time>
      </trkpt>
      <trkpt lat="45.90903" lon="4.82318">
        <ele>198</ele>
        <time>2016-08-26T10:28:51Z</time>
      </trkpt>
      <trkpt lat="45.90909" lon="4.82316">
        <ele>198</ele>
        <time>2016-08-26T10:28:52Z</time>
      </trkpt>
      <trkpt lat="45.90915" lon="4.82313">
        <ele>198</ele>
        <time>2016-08-26T10:28:53Z</time>
      </trkpt>
      <trkpt lat="45.90921" lon="4.82311">
        <ele>198</ele>
        <time>2016-08-26T10:28:54Z</time>
      </trkpt>
      <trkpt lat="45.90927" lon="4.82309">
        <ele>198</ele>
        <time>2016-08-26T10:28:55Z</time>
      </trkpt>
      <trkpt lat="45.90933" lon="4.82306">
        <ele>198</ele>
        <time>2016-08-26T10:28:56Z</time>
      </trkpt>
      <trkpt lat="45.9094" lon="4.82305">
        <ele>198</ele>
        <time>2016-08-26T10:28:57Z</time>
      </trkpt>
      <trkpt lat="45.90945" lon="4.82303">
        <ele>198</ele>
        <time>2016-08-26T10:28:58Z</time>
      </trkpt>
      <trkpt lat="45.90951" lon="4.82302">
        <ele>198</ele>
        <time>2016-08-26T10:28:59Z</time>
      </trkpt>
      <trkpt lat="45.90957" lon="4.82301">
        <ele>198</ele>
        <time>2016-08-26T10:29:00Z</time>
      </trkpt>
      <trkpt lat="45.90963" lon="4.823">
        <ele>198</ele>
        <time>2016-08-26T10:29:01Z</time>
      </trkpt>
      <trkpt lat="45.90968" lon="4.82299">
        <ele>198</ele>
        <time>2016-08-26T10:29:02Z</time>
      </trkpt>
      <trkpt lat="45.90974" lon="4.82298">
        <ele>198</ele>
        <time>2016-08-26T10:29:03Z</time>
      </trkpt>
      <trkpt lat="45.9098" lon="4.82297">
        <ele>199</ele>
        <time>2016-08-26T10:29:04Z</time>
      </trkpt>
      <trkpt lat="45.90986" lon="4.82297">
        <ele>199</ele>
        <time>2016-08-26T10:29:05Z</time>
      </trkpt>
      <trkpt lat="45.90991" lon="4.82297">
        <ele>199</ele>
        <time>2016-08-26T10:29:06Z</time>
      </trkpt>
      <trkpt lat="45.90996" lon="4.82296">
        <ele>199</ele>
        <time>2016-08-26T10:29:07Z</time>
      </trkpt>
      <trkpt lat="45.91" lon="4.82295">
        <ele>199</ele>
        <time>2016-08-26T10:29:08Z</time>
      </trkpt>
      <trkpt lat="45.91005" lon="4.82295">
        <ele>199</ele>
        <time>2016-08-26T10:29:09Z</time>
      </trkpt>
      <trkpt lat="45.9101" lon="4.82295">
        <ele>199</ele>
        <time>2016-08-26T10:29:10Z</time>
      </trkpt>
      <trkpt lat="45.91016" lon="4.82295">
        <ele>199</ele>
        <time>2016-08-26T10:29:11Z</time>
      </trkpt>
      <trkpt lat="45.91022" lon="4.82295">
        <ele>199</ele>
        <time>2016-08-26T10:29:12Z</time>
      </trkpt>
      <trkpt lat="45.91028" lon="4.82295">
        <ele>199</ele>
        <time>2016-08-26T10:29:13Z</time>
      </trkpt>
      <trkpt lat="45.91034" lon="4.82296">
        <ele>199</ele>
        <time>2016-08-26T10:29:14Z</time>
      </trkpt>
      <trkpt lat="45.91042" lon="4.82295">
        <ele>199</ele>
        <time>2016-08-26T10:29:15Z</time>
      </trkpt>
      <trkpt lat="45.91049" lon="4.82295">
        <ele>199</ele>
        <time>2016-08-26T10:29:16Z</time>
      </trkpt>
      <trkpt lat="45.91056" lon="4.82294">
        <ele>199</ele>
        <time>2016-08-26T10:29:17Z</time>
      </trkpt>
      <trkpt lat="45.91062" lon="4.82294">
        <ele>199</ele>
        <time>2016-08-26T10:29:18Z</time>
      </trkpt>
      <trkpt lat="45.91068" lon="4.82293">
        <ele>199</ele>
        <time>2016-08-26T10:29:19Z</time>
      </trkpt>
      <trkpt lat="45.91075" lon="4.82294">
        <ele>199</ele>
        <time>2016-08-26T10:29:20Z</time>
      </trkpt>
      <trkpt lat="45.91082" lon="4.82293">
        <ele>199</ele>
        <time>2016-08-26T10:29:21Z</time>
      </trkpt>
      <trkpt lat="45.91089" lon="4.82293">
        <ele>197</ele>
        <time>2016-08-26T10:29:22Z</time>
      </trkpt>
      <trkpt lat="45.91095" lon="4.82293">
        <ele>197</ele>
        <time>2016-08-26T10:29:23Z</time>
      </trkpt>
      <trkpt lat="45.91102" lon="4.82293">
        <ele>197</ele>
        <time>2016-08-26T10:29:24Z</time>
      </trkpt>
      <trkpt lat="45.91108" lon="4.82293">
        <ele>197</ele>
        <time>2016-08-26T10:29:25Z</time>
      </trkpt>
      <trkpt lat="45.91114" lon="4.82293">
        <ele>197</ele>
        <time>2016-08-26T10:29:26Z</time>
      </trkpt>
      <trkpt lat="45.91121" lon="4.82293">
        <ele>197</ele>
        <time>2016-08-26T10:29:27Z</time>
      </trkpt>
      <trkpt lat="45.91128" lon="4.82293">
        <ele>197</ele>
        <time>2016-08-26T10:29:28Z</time>
      </trkpt>
      <trkpt lat="45.91135" lon="4.82293">
        <ele>197</ele>
        <time>2016-08-26T10:29:29Z</time>
      </trkpt>
      <trkpt lat="45.91142" lon="4.82292">
        <ele>197</ele>
        <time>2016-08-26T10:29:30Z</time>
      </trkpt>
      <trkpt lat="45.91149" lon="4.82292">
        <ele>196</ele>
        <time>2016-08-26T10:29:31Z</time>
      </trkpt>
      <trkpt lat="45.91156" lon="4.82291">
        <ele>196</ele>
        <time>2016-08-26T10:29:32Z</time>
      </trkpt>
      <trkpt lat="45.91162" lon="4.82289">
        <ele>196</ele>
        <time>2016-08-26T10:29:33Z</time>
      </trkpt>
      <trkpt lat="45.91168" lon="4.82288">
        <ele>196</ele>
        <time>2016-08-26T10:29:34Z</time>
      </trkpt>
      <trkpt lat="45.91174" lon="4.82285">
        <ele>195</ele>
        <time>2016-08-26T10:29:35Z</time>
      </trkpt>
      <trkpt lat="45.91181" lon="4.82283">
        <ele>195</ele>
        <time>2016-08-26T10:29:36Z</time>
      </trkpt>
      <trkpt lat="45.91187" lon="4.82283">
        <ele>195</ele>
        <time>2016-08-26T10:29:37Z</time>
      </trkpt>
      <trkpt lat="45.91193" lon="4.82283">
        <ele>196</ele>
        <time>2016-08-26T10:29:38Z</time>
      </trkpt>
      <trkpt lat="45.91199" lon="4.82282">
        <ele>196</ele>
        <time>2016-08-26T10:29:39Z</time>
      </trkpt>
      <trkpt lat="45.91204" lon="4.82284">
        <ele>196</ele>
        <time>2016-08-26T10:29:40Z</time>
      </trkpt>
      <trkpt lat="45.91209" lon="4.82285">
        <ele>196</ele>
        <time>2016-08-26T10:29:41Z</time>
      </trkpt>
      <trkpt lat="45.91215" lon="4.82287">
        <ele>196</ele>
        <time>2016-08-26T10:29:42Z</time>
      </trkpt>
      <trkpt lat="45.9122" lon="4.82289">
        <ele>196</ele>
        <time>2016-08-26T10:29:43Z</time>
      </trkpt>
      <trkpt lat="45.91225" lon="4.82291">
        <ele>196</ele>
        <time>2016-08-26T10:29:44Z</time>
      </trkpt>
      <trkpt lat="45.91229" lon="4.82294">
        <ele>196</ele>
        <time>2016-08-26T10:29:45Z</time>
      </trkpt>
      <trkpt lat="45.91234" lon="4.82297">
        <ele>196</ele>
        <time>2016-08-26T10:29:46Z</time>
      </trkpt>
      <trkpt lat="45.91242" lon="4.82302">
        <ele>196</ele>
        <time>2016-08-26T10:29:48Z</time>
      </trkpt>
      <trkpt lat="45.91246" lon="4.82305">
        <ele>197</ele>
        <time>2016-08-26T10:29:49Z</time>
      </trkpt>
      <trkpt lat="45.9125" lon="4.82308">
        <ele>196</ele>
        <time>2016-08-26T10:29:50Z</time>
      </trkpt>
      <trkpt lat="45.91254" lon="4.82311">
        <ele>196</ele>
        <time>2016-08-26T10:29:51Z</time>
      </trkpt>
      <trkpt lat="45.91261" lon="4.82318">
        <ele>197</ele>
        <time>2016-08-26T10:29:53Z</time>
      </trkpt>
      <trkpt lat="45.91264" lon="4.82321">
        <ele>197</ele>
        <time>2016-08-26T10:29:54Z</time>
      </trkpt>
      <trkpt lat="45.91272" lon="4.82327">
        <ele>196</ele>
        <time>2016-08-26T10:29:56Z</time>
      </trkpt>
      <trkpt lat="45.91276" lon="4.8233">
        <ele>196</ele>
        <time>2016-08-26T10:29:57Z</time>
      </trkpt>
      <trkpt lat="45.91282" lon="4.82334">
        <ele>200</ele>
        <time>2016-08-26T10:29:59Z</time>
      </trkpt>
      <trkpt lat="45.91285" lon="4.82337">
        <ele>200</ele>
        <time>2016-08-26T10:30:00Z</time>
      </trkpt>
      <trkpt lat="45.91292" lon="4.82341">
        <ele>200</ele>
        <time>2016-08-26T10:30:02Z</time>
      </trkpt>
      <trkpt lat="45.91295" lon="4.82342">
        <ele>200</ele>
        <time>2016-08-26T10:30:03Z</time>
      </trkpt>
      <trkpt lat="45.91302" lon="4.82344">
        <ele>200</ele>
        <time>2016-08-26T10:30:05Z</time>
      </trkpt>
      <trkpt lat="45.91306" lon="4.82345">
        <ele>200</ele>
        <time>2016-08-26T10:30:06Z</time>
      </trkpt>
      <trkpt lat="45.91314" lon="4.82347">
        <ele>200</ele>
        <time>2016-08-26T10:30:08Z</time>
      </trkpt>
      <trkpt lat="45.91319" lon="4.82348">
        <ele>200</ele>
        <time>2016-08-26T10:30:09Z</time>
      </trkpt>
      <trkpt lat="45.91324" lon="4.82349">
        <ele>199</ele>
        <time>2016-08-26T10:30:10Z</time>
      </trkpt>
      <trkpt lat="45.91329" lon="4.82351">
        <ele>199</ele>
        <time>2016-08-26T10:30:11Z</time>
      </trkpt>
      <trkpt lat="45.91338" lon="4.82354">
        <ele>198</ele>
        <time>2016-08-26T10:30:13Z</time>
      </trkpt>
      <trkpt lat="45.91342" lon="4.82358">
        <ele>198</ele>
        <time>2016-08-26T10:30:14Z</time>
      </trkpt>
      <trkpt lat="45.91346" lon="4.82361">
        <ele>198</ele>
        <time>2016-08-26T10:30:15Z</time>
      </trkpt>
      <trkpt lat="45.91352" lon="4.82362">
        <ele>198</ele>
        <time>2016-08-26T10:30:16Z</time>
      </trkpt>
      <trkpt lat="45.91358" lon="4.82362">
        <ele>198</ele>
        <time>2016-08-26T10:30:17Z</time>
      </trkpt>
      <trkpt lat="45.91364" lon="4.82362">
        <ele>198</ele>
        <time>2016-08-26T10:30:18Z</time>
      </trkpt>
      <trkpt lat="45.91369" lon="4.82363">
        <ele>197</ele>
        <time>2016-08-26T10:30:19Z</time>
      </trkpt>
      <trkpt lat="45.91375" lon="4.82364">
        <ele>197</ele>
        <time>2016-08-26T10:30:20Z</time>
      </trkpt>
      <trkpt lat="45.91382" lon="4.82365">
        <ele>197</ele>
        <time>2016-08-26T10:30:21Z</time>
      </trkpt>
      <trkpt lat="45.91388" lon="4.82367">
        <ele>197</ele>
        <time>2016-08-26T10:30:22Z</time>
      </trkpt>
      <trkpt lat="45.91395" lon="4.82368">
        <ele>197</ele>
        <time>2016-08-26T10:30:23Z</time>
      </trkpt>
      <trkpt lat="45.91401" lon="4.8237">
        <ele>197</ele>
        <time>2016-08-26T10:30:24Z</time>
      </trkpt>
      <trkpt lat="45.91407" lon="4.82371">
        <ele>197</ele>
        <time>2016-08-26T10:30:25Z</time>
      </trkpt>
      <trkpt lat="45.91414" lon="4.82373">
        <ele>197</ele>
        <time>2016-08-26T10:30:26Z</time>
      </trkpt>
      <trkpt lat="45.91421" lon="4.82375">
        <ele>194</ele>
        <time>2016-08-26T10:30:27Z</time>
      </trkpt>
      <trkpt lat="45.91428" lon="4.82375">
        <ele>194</ele>
        <time>2016-08-26T10:30:28Z</time>
      </trkpt>
      <trkpt lat="45.91436" lon="4.82379">
        <ele>194</ele>
        <time>2016-08-26T10:30:29Z</time>
      </trkpt>
      <trkpt lat="45.91443" lon="4.82381">
        <ele>194</ele>
        <time>2016-08-26T10:30:30Z</time>
      </trkpt>
      <trkpt lat="45.9145" lon="4.82387">
        <ele>194</ele>
        <time>2016-08-26T10:30:31Z</time>
      </trkpt>
      <trkpt lat="45.91458" lon="4.8239">
        <ele>194</ele>
        <time>2016-08-26T10:30:32Z</time>
      </trkpt>
      <trkpt lat="45.91467" lon="4.82395">
        <ele>194</ele>
        <time>2016-08-26T10:30:33Z</time>
      </trkpt>
      <trkpt lat="45.91474" lon="4.82398">
        <ele>194</ele>
        <time>2016-08-26T10:30:34Z</time>
      </trkpt>
      <trkpt lat="45.91481" lon="4.82401">
        <ele>194</ele>
        <time>2016-08-26T10:30:35Z</time>
      </trkpt>
      <trkpt lat="45.91487" lon="4.82404">
        <ele>194</ele>
        <time>2016-08-26T10:30:36Z</time>
      </trkpt>
      <trkpt lat="45.91493" lon="4.82408">
        <ele>194</ele>
        <time>2016-08-26T10:30:37Z</time>
      </trkpt>
      <trkpt lat="45.91499" lon="4.82412">
        <ele>195</ele>
        <time>2016-08-26T10:30:38Z</time>
      </trkpt>
      <trkpt lat="45.91504" lon="4.82418">
        <ele>195</ele>
        <time>2016-08-26T10:30:39Z</time>
      </trkpt>
      <trkpt lat="45.9151" lon="4.8242">
        <ele>195</ele>
        <time>2016-08-26T10:30:40Z</time>
      </trkpt>
      <trkpt lat="45.91515" lon="4.82423">
        <ele>196</ele>
        <time>2016-08-26T10:30:41Z</time>
      </trkpt>
      <trkpt lat="45.91521" lon="4.82425">
        <ele>196</ele>
        <time>2016-08-26T10:30:42Z</time>
      </trkpt>
      <trkpt lat="45.91527" lon="4.82427">
        <ele>196</ele>
        <time>2016-08-26T10:30:43Z</time>
      </trkpt>
      <trkpt lat="45.91533" lon="4.82428">
        <ele>196</ele>
        <time>2016-08-26T10:30:44Z</time>
      </trkpt>
      <trkpt lat="45.91538" lon="4.8243">
        <ele>196</ele>
        <time>2016-08-26T10:30:45Z</time>
      </trkpt>
      <trkpt lat="45.91547" lon="4.82432">
        <ele>196</ele>
        <time>2016-08-26T10:30:47Z</time>
      </trkpt>
      <trkpt lat="45.91552" lon="4.82433">
        <ele>196</ele>
        <time>2016-08-26T10:30:48Z</time>
      </trkpt>
      <trkpt lat="45.91557" lon="4.82432">
        <ele>196</ele>
        <time>2016-08-26T10:30:49Z</time>
      </trkpt>
      <trkpt lat="45.91562" lon="4.82428">
        <ele>195</ele>
        <time>2016-08-26T10:30:50Z</time>
      </trkpt>
      <trkpt lat="45.91567" lon="4.82422">
        <ele>195</ele>
        <time>2016-08-26T10:30:51Z</time>
      </trkpt>
      <trkpt lat="45.91573" lon="4.82417">
        <ele>193</ele>
        <time>2016-08-26T10:30:52Z</time>
      </trkpt>
      <trkpt lat="45.9158" lon="4.82411">
        <ele>193</ele>
        <time>2016-08-26T10:30:53Z</time>
      </trkpt>
      <trkpt lat="45.91586" lon="4.82405">
        <ele>192</ele>
        <time>2016-08-26T10:30:54Z</time>
      </trkpt>
      <trkpt lat="45.91593" lon="4.824">
        <ele>191</ele>
        <time>2016-08-26T10:30:55Z</time>
      </trkpt>
      <trkpt lat="45.91601" lon="4.82394">
        <ele>190</ele>
        <time>2016-08-26T10:30:56Z</time>
      </trkpt>
      <trkpt lat="45.91609" lon="4.82389">
        <ele>189</ele>
        <time>2016-08-26T10:30:57Z</time>
      </trkpt>
      <trkpt lat="45.91617" lon="4.82385">
        <ele>189</ele>
        <time>2016-08-26T10:30:58Z</time>
      </trkpt>
      <trkpt lat="45.91627" lon="4.82381">
        <ele>188</ele>
        <time>2016-08-26T10:30:59Z</time>
      </trkpt>
      <trkpt lat="45.91636" lon="4.82377">
        <ele>188</ele>
        <time>2016-08-26T10:31:00Z</time>
      </trkpt>
      <trkpt lat="45.91646" lon="4.82374">
        <ele>187</ele>
        <time>2016-08-26T10:31:01Z</time>
      </trkpt>
      <trkpt lat="45.91655" lon="4.82371">
        <ele>187</ele>
        <time>2016-08-26T10:31:02Z</time>
      </trkpt>
      <trkpt lat="45.91663" lon="4.82368">
        <ele>186</ele>
        <time>2016-08-26T10:31:03Z</time>
      </trkpt>
      <trkpt lat="45.91673" lon="4.82365">
        <ele>184</ele>
        <time>2016-08-26T10:31:04Z</time>
      </trkpt>
      <trkpt lat="45.91682" lon="4.82361">
        <ele>184</ele>
        <time>2016-08-26T10:31:05Z</time>
      </trkpt>
      <trkpt lat="45.91692" lon="4.82358">
        <ele>183</ele>
        <time>2016-08-26T10:31:06Z</time>
      </trkpt>
      <trkpt lat="45.91701" lon="4.82354">
        <ele>183</ele>
        <time>2016-08-26T10:31:07Z</time>
      </trkpt>
      <trkpt lat="45.9171" lon="4.82351">
        <ele>183</ele>
        <time>2016-08-26T10:31:08Z</time>
      </trkpt>
      <trkpt lat="45.91719" lon="4.82347">
        <ele>183</ele>
        <time>2016-08-26T10:31:09Z</time>
      </trkpt>
      <trkpt lat="45.91727" lon="4.82345">
        <ele>182</ele>
        <time>2016-08-26T10:31:10Z</time>
      </trkpt>
      <trkpt lat="45.91735" lon="4.82342">
        <ele>182</ele>
        <time>2016-08-26T10:31:11Z</time>
      </trkpt>
      <trkpt lat="45.91742" lon="4.82341">
        <ele>181</ele>
        <time>2016-08-26T10:31:12Z</time>
      </trkpt>
      <trkpt lat="45.91748" lon="4.8234">
        <ele>181</ele>
        <time>2016-08-26T10:31:13Z</time>
      </trkpt>
      <trkpt lat="45.91753" lon="4.82338">
        <ele>180</ele>
        <time>2016-08-26T10:31:14Z</time>
      </trkpt>
      <trkpt lat="45.91758" lon="4.82333">
        <ele>179</ele>
        <time>2016-08-26T10:31:15Z</time>
      </trkpt>
      <trkpt lat="45.9176" lon="4.82326">
        <ele>179</ele>
        <time>2016-08-26T10:31:16Z</time>
      </trkpt>
      <trkpt lat="45.91761" lon="4.82318">
        <ele>179</ele>
        <time>2016-08-26T10:31:17Z</time>
      </trkpt>
      <trkpt lat="45.91761" lon="4.8231">
        <ele>178</ele>
        <time>2016-08-26T10:31:18Z</time>
      </trkpt>
      <trkpt lat="45.91762" lon="4.82303">
        <ele>178</ele>
        <time>2016-08-26T10:31:19Z</time>
      </trkpt>
      <trkpt lat="45.91763" lon="4.82294">
        <ele>178</ele>
        <time>2016-08-26T10:31:20Z</time>
      </trkpt>
      <trkpt lat="45.91764" lon="4.82285">
        <ele>177</ele>
        <time>2016-08-26T10:31:21Z</time>
      </trkpt>
      <trkpt lat="45.91764" lon="4.82277">
        <ele>177</ele>
        <time>2016-08-26T10:31:22Z</time>
      </trkpt>
      <trkpt lat="45.91765" lon="4.82269">
        <ele>177</ele>
        <time>2016-08-26T10:31:23Z</time>
      </trkpt>
      <trkpt lat="45.91766" lon="4.82263">
        <ele>177</ele>
        <time>2016-08-26T10:31:24Z</time>
      </trkpt>
      <trkpt lat="45.9177" lon="4.82257">
        <ele>177</ele>
        <time>2016-08-26T10:31:25Z</time>
      </trkpt>
      <trkpt lat="45.91772" lon="4.82249">
        <ele>176</ele>
        <time>2016-08-26T10:31:26Z</time>
      </trkpt>
      <trkpt lat="45.91773" lon="4.8224">
        <ele>176</ele>
        <time>2016-08-26T10:31:27Z</time>
      </trkpt>
      <trkpt lat="45.91774" lon="4.82231">
        <ele>176</ele>
        <time>2016-08-26T10:31:28Z</time>
      </trkpt>
      <trkpt lat="45.91776" lon="4.82221">
        <ele>176</ele>
        <time>2016-08-26T10:31:29Z</time>
      </trkpt>
      <trkpt lat="45.91777" lon="4.82211">
        <ele>175</ele>
        <time>2016-08-26T10:31:30Z</time>
      </trkpt>
      <trkpt lat="45.9178" lon="4.82201">
        <ele>175</ele>
        <time>2016-08-26T10:31:31Z</time>
      </trkpt>
      <trkpt lat="45.91782" lon="4.82191">
        <ele>175</ele>
        <time>2016-08-26T10:31:32Z</time>
      </trkpt>
      <trkpt lat="45.91784" lon="4.8218">
        <ele>175</ele>
        <time>2016-08-26T10:31:33Z</time>
      </trkpt>
      <trkpt lat="45.91787" lon="4.82169">
        <ele>175</ele>
        <time>2016-08-26T10:31:34Z</time>
      </trkpt>
      <trkpt lat="45.9179" lon="4.82158">
        <ele>174</ele>
        <time>2016-08-26T10:31:35Z</time>
      </trkpt>
      <trkpt lat="45.91792" lon="4.82146">
        <ele>174</ele>
        <time>2016-08-26T10:31:36Z</time>
      </trkpt>
      <trkpt lat="45.91795" lon="4.82134">
        <ele>174</ele>
        <time>2016-08-26T10:31:37Z</time>
      </trkpt>
      <trkpt lat="45.91799" lon="4.82124">
        <ele>174</ele>
        <time>2016-08-26T10:31:38Z</time>
      </trkpt>
      <trkpt lat="45.91802" lon="4.82113">
        <ele>174</ele>
        <time>2016-08-26T10:31:39Z</time>
      </trkpt>
      <trkpt lat="45.91806" lon="4.82103">
        <ele>174</ele>
        <time>2016-08-26T10:31:40Z</time>
      </trkpt>
      <trkpt lat="45.91809" lon="4.82092">
        <ele>173</ele>
        <time>2016-08-26T10:31:41Z</time>
      </trkpt>
      <trkpt lat="45.91812" lon="4.82082">
        <ele>172</ele>
        <time>2016-08-26T10:31:42Z</time>
      </trkpt>
      <trkpt lat="45.91816" lon="4.82073">
        <ele>172</ele>
        <time>2016-08-26T10:31:43Z</time>
      </trkpt>
      <trkpt lat="45.91818" lon="4.82063">
        <ele>172</ele>
        <time>2016-08-26T10:31:44Z</time>
      </trkpt>
      <trkpt lat="45.91822" lon="4.82054">
        <ele>172</ele>
        <time>2016-08-26T10:31:45Z</time>
      </trkpt>
      <trkpt lat="45.91826" lon="4.82045">
        <ele>172</ele>
        <time>2016-08-26T10:31:46Z</time>
      </trkpt>
      <trkpt lat="45.9183" lon="4.82035">
        <ele>172</ele>
        <time>2016-08-26T10:31:47Z</time>
      </trkpt>
      <trkpt lat="45.91834" lon="4.82026">
        <ele>172</ele>
        <time>2016-08-26T10:31:48Z</time>
      </trkpt>
      <trkpt lat="45.91838" lon="4.82017">
        <ele>171</ele>
        <time>2016-08-26T10:31:49Z</time>
      </trkpt>
      <trkpt lat="45.91842" lon="4.82007">
        <ele>171</ele>
        <time>2016-08-26T10:31:50Z</time>
      </trkpt>
      <trkpt lat="45.91845" lon="4.81998">
        <ele>171</ele>
        <time>2016-08-26T10:31:51Z</time>
      </trkpt>
      <trkpt lat="45.91849" lon="4.81988">
        <ele>171</ele>
        <time>2016-08-26T10:31:52Z</time>
      </trkpt>
      <trkpt lat="45.91853" lon="4.81979">
        <ele>171</ele>
        <time>2016-08-26T10:31:53Z</time>
      </trkpt>
      <trkpt lat="45.91857" lon="4.8197">
        <ele>171</ele>
        <time>2016-08-26T10:31:54Z</time>
      </trkpt>
      <trkpt lat="45.91862" lon="4.81961">
        <ele>171</ele>
        <time>2016-08-26T10:31:55Z</time>
      </trkpt>
      <trkpt lat="45.91867" lon="4.81952">
        <ele>170</ele>
        <time>2016-08-26T10:31:56Z</time>
      </trkpt>
      <trkpt lat="45.91872" lon="4.81943">
        <ele>170</ele>
        <time>2016-08-26T10:31:57Z</time>
      </trkpt>
      <trkpt lat="45.91876" lon="4.81935">
        <ele>170</ele>
        <time>2016-08-26T10:31:58Z</time>
      </trkpt>
      <trkpt lat="45.9188" lon="4.81926">
        <ele>170</ele>
        <time>2016-08-26T10:31:59Z</time>
      </trkpt>
      <trkpt lat="45.91884" lon="4.81917">
        <ele>170</ele>
        <time>2016-08-26T10:32:00Z</time>
      </trkpt>
      <trkpt lat="45.91888" lon="4.81909">
        <ele>170</ele>
        <time>2016-08-26T10:32:01Z</time>
      </trkpt>
      <trkpt lat="45.91892" lon="4.81901">
        <ele>170</ele>
        <time>2016-08-26T10:32:02Z</time>
      </trkpt>
      <trkpt lat="45.91896" lon="4.81894">
        <ele>170</ele>
        <time>2016-08-26T10:32:03Z</time>
      </trkpt>
      <trkpt lat="45.91901" lon="4.81886">
        <ele>170</ele>
        <time>2016-08-26T10:32:04Z</time>
      </trkpt>
      <trkpt lat="45.91906" lon="4.81878">
        <ele>170</ele>
        <time>2016-08-26T10:32:05Z</time>
      </trkpt>
      <trkpt lat="45.9191" lon="4.81871">
        <ele>170</ele>
        <time>2016-08-26T10:32:06Z</time>
      </trkpt>
      <trkpt lat="45.91914" lon="4.81863">
        <ele>170</ele>
        <time>2016-08-26T10:32:07Z</time>
      </trkpt>
      <trkpt lat="45.91918" lon="4.81856">
        <ele>170</ele>
        <time>2016-08-26T10:32:08Z</time>
      </trkpt>
      <trkpt lat="45.91923" lon="4.81849">
        <ele>170</ele>
        <time>2016-08-26T10:32:09Z</time>
      </trkpt>
      <trkpt lat="45.91928" lon="4.81842">
        <ele>170</ele>
        <time>2016-08-26T10:32:10Z</time>
      </trkpt>
      <trkpt lat="45.91933" lon="4.81834">
        <ele>170</ele>
        <time>2016-08-26T10:32:11Z</time>
      </trkpt>
      <trkpt lat="45.91937" lon="4.81827">
        <ele>170</ele>
        <time>2016-08-26T10:32:12Z</time>
      </trkpt>
      <trkpt lat="45.91942" lon="4.81819">
        <ele>170</ele>
        <time>2016-08-26T10:32:13Z</time>
      </trkpt>
      <trkpt lat="45.91947" lon="4.81811">
        <ele>170</ele>
        <time>2016-08-26T10:32:14Z</time>
      </trkpt>
      <trkpt lat="45.9195" lon="4.81803">
        <ele>170</ele>
        <time>2016-08-26T10:32:15Z</time>
      </trkpt>
      <trkpt lat="45.91955" lon="4.81795">
        <ele>170</ele>
        <time>2016-08-26T10:32:16Z</time>
      </trkpt>
      <trkpt lat="45.9196" lon="4.81788">
        <ele>170</ele>
        <time>2016-08-26T10:32:17Z</time>
      </trkpt>
      <trkpt lat="45.91965" lon="4.8178">
        <ele>170</ele>
        <time>2016-08-26T10:32:18Z</time>
      </trkpt>
      <trkpt lat="45.91969" lon="4.81772">
        <ele>170</ele>
        <time>2016-08-26T10:32:19Z</time>
      </trkpt>
      <trkpt lat="45.91974" lon="4.81764">
        <ele>170</ele>
        <time>2016-08-26T10:32:20Z</time>
      </trkpt>
      <trkpt lat="45.91979" lon="4.81756">
        <ele>170</ele>
        <time>2016-08-26T10:32:21Z</time>
      </trkpt>
      <trkpt lat="45.91984" lon="4.81749">
        <ele>170</ele>
        <time>2016-08-26T10:32:22Z</time>
      </trkpt>
      <trkpt lat="45.91989" lon="4.81742">
        <ele>170</ele>
        <time>2016-08-26T10:32:23Z</time>
      </trkpt>
      <trkpt lat="45.91993" lon="4.81734">
        <ele>170</ele>
        <time>2016-08-26T10:32:24Z</time>
      </trkpt>
      <trkpt lat="45.91998" lon="4.81726">
        <ele>170</ele>
        <time>2016-08-26T10:32:25Z</time>
      </trkpt>
      <trkpt lat="45.92003" lon="4.81718">
        <ele>170</ele>
        <time>2016-08-26T10:32:26Z</time>
      </trkpt>
      <trkpt lat="45.92008" lon="4.81711">
        <ele>170</ele>
        <time>2016-08-26T10:32:27Z</time>
      </trkpt>
      <trkpt lat="45.92013" lon="4.81702">
        <ele>170</ele>
        <time>2016-08-26T10:32:28Z</time>
      </trkpt>
      <trkpt lat="45.92018" lon="4.81693">
        <ele>170</ele>
        <time>2016-08-26T10:32:29Z</time>
      </trkpt>
      <trkpt lat="45.92022" lon="4.81685">
        <ele>170</ele>
        <time>2016-08-26T10:32:30Z</time>
      </trkpt>
      <trkpt lat="45.92026" lon="4.81676">
        <ele>170</ele>
        <time>2016-08-26T10:32:31Z</time>
      </trkpt>
      <trkpt lat="45.9203" lon="4.81667">
        <ele>170</ele>
        <time>2016-08-26T10:32:32Z</time>
      </trkpt>
      <trkpt lat="45.92033" lon="4.81658">
        <ele>170</ele>
        <time>2016-08-26T10:32:33Z</time>
      </trkpt>
      <trkpt lat="45.92037" lon="4.8165">
        <ele>170</ele>
        <time>2016-08-26T10:32:34Z</time>
      </trkpt>
      <trkpt lat="45.9204" lon="4.81641">
        <ele>170</ele>
        <time>2016-08-26T10:32:35Z</time>
      </trkpt>
      <trkpt lat="45.92043" lon="4.81633">
        <ele>170</ele>
        <time>2016-08-26T10:32:36Z</time>
      </trkpt>
      <trkpt lat="45.92046" lon="4.81625">
        <ele>170</ele>
        <time>2016-08-26T10:32:37Z</time>
      </trkpt>
      <trkpt lat="45.92049" lon="4.81617">
        <ele>170</ele>
        <time>2016-08-26T10:32:38Z</time>
      </trkpt>
      <trkpt lat="45.92051" lon="4.81609">
        <ele>170</ele>
        <time>2016-08-26T10:32:39Z</time>
      </trkpt>
      <trkpt lat="45.92054" lon="4.81601">
        <ele>170</ele>
        <time>2016-08-26T10:32:40Z</time>
      </trkpt>
      <trkpt lat="45.92056" lon="4.81594">
        <ele>170</ele>
        <time>2016-08-26T10:32:41Z</time>
      </trkpt>
      <trkpt lat="45.92058" lon="4.81587">
        <ele>170</ele>
        <time>2016-08-26T10:32:42Z</time>
      </trkpt>
      <trkpt lat="45.92061" lon="4.8158">
        <ele>170</ele>
        <time>2016-08-26T10:32:43Z</time>
      </trkpt>
      <trkpt lat="45.92063" lon="4.81572">
        <ele>170</ele>
        <time>2016-08-26T10:32:44Z</time>
      </trkpt>
      <trkpt lat="45.92065" lon="4.81565">
        <ele>171</ele>
        <time>2016-08-26T10:32:45Z</time>
      </trkpt>
      <trkpt lat="45.92068" lon="4.81559">
        <ele>171</ele>
        <time>2016-08-26T10:32:46Z</time>
      </trkpt>
      <trkpt lat="45.9207" lon="4.81551">
        <ele>171</ele>
        <time>2016-08-26T10:32:47Z</time>
      </trkpt>
      <trkpt lat="45.92073" lon="4.81544">
        <ele>171</ele>
        <time>2016-08-26T10:32:48Z</time>
      </trkpt>
      <trkpt lat="45.92075" lon="4.81537">
        <ele>171</ele>
        <time>2016-08-26T10:32:49Z</time>
      </trkpt>
      <trkpt lat="45.92078" lon="4.8153">
        <ele>171</ele>
        <time>2016-08-26T10:32:50Z</time>
      </trkpt>
      <trkpt lat="45.92081" lon="4.81523">
        <ele>171</ele>
        <time>2016-08-26T10:32:51Z</time>
      </trkpt>
      <trkpt lat="45.92084" lon="4.81516">
        <ele>171</ele>
        <time>2016-08-26T10:32:52Z</time>
      </trkpt>
      <trkpt lat="45.92087" lon="4.8151">
        <ele>171</ele>
        <time>2016-08-26T10:32:53Z</time>
      </trkpt>
      <trkpt lat="45.92092" lon="4.81505">
        <ele>171</ele>
        <time>2016-08-26T10:32:54Z</time>
      </trkpt>
      <trkpt lat="45.92097" lon="4.815">
        <ele>171</ele>
        <time>2016-08-26T10:32:55Z</time>
      </trkpt>
      <trkpt lat="45.92103" lon="4.81497">
        <ele>171</ele>
        <time>2016-08-26T10:32:56Z</time>
      </trkpt>
      <trkpt lat="45.92109" lon="4.81495">
        <ele>170</ele>
        <time>2016-08-26T10:32:57Z</time>
      </trkpt>
      <trkpt lat="45.92116" lon="4.81494">
        <ele>170</ele>
        <time>2016-08-26T10:32:58Z</time>
      </trkpt>
      <trkpt lat="45.92122" lon="4.81493">
        <ele>170</ele>
        <time>2016-08-26T10:32:59Z</time>
      </trkpt>
      <trkpt lat="45.92128" lon="4.81493">
        <ele>170</ele>
        <time>2016-08-26T10:33:00Z</time>
      </trkpt>
      <trkpt lat="45.92134" lon="4.81493">
        <ele>170</ele>
        <time>2016-08-26T10:33:01Z</time>
      </trkpt>
      <trkpt lat="45.9214" lon="4.81493">
        <ele>170</ele>
        <time>2016-08-26T10:33:02Z</time>
      </trkpt>
      <trkpt lat="45.92145" lon="4.81493">
        <ele>170</ele>
        <time>2016-08-26T10:33:03Z</time>
      </trkpt>
      <trkpt lat="45.92151" lon="4.81493">
        <ele>170</ele>
        <time>2016-08-26T10:33:04Z</time>
      </trkpt>
      <trkpt lat="45.92156" lon="4.81492">
        <ele>170</ele>
        <time>2016-08-26T10:33:05Z</time>
      </trkpt>
      <trkpt lat="45.92162" lon="4.8149">
        <ele>170</ele>
        <time>2016-08-26T10:33:06Z</time>
      </trkpt>
      <trkpt lat="45.92167" lon="4.81487">
        <ele>170</ele>
        <time>2016-08-26T10:33:07Z</time>
      </trkpt>
      <trkpt lat="45.92172" lon="4.81482">
        <ele>170</ele>
        <time>2016-08-26T10:33:08Z</time>
      </trkpt>
      <trkpt lat="45.92176" lon="4.81476">
        <ele>170</ele>
        <time>2016-08-26T10:33:09Z</time>
      </trkpt>
      <trkpt lat="45.9218" lon="4.81469">
        <ele>170</ele>
        <time>2016-08-26T10:33:10Z</time>
      </trkpt>
      <trkpt lat="45.92183" lon="4.81461">
        <ele>170</ele>
        <time>2016-08-26T10:33:11Z</time>
      </trkpt>
      <trkpt lat="45.92186" lon="4.81453">
        <ele>170</ele>
        <time>2016-08-26T10:33:12Z</time>
      </trkpt>
      <trkpt lat="45.92188" lon="4.81444">
        <ele>170</ele>
        <time>2016-08-26T10:33:13Z</time>
      </trkpt>
      <trkpt lat="45.92189" lon="4.81435">
        <ele>170</ele>
        <time>2016-08-26T10:33:14Z</time>
      </trkpt>
      <trkpt lat="45.9219" lon="4.81426">
        <ele>170</ele>
        <time>2016-08-26T10:33:15Z</time>
      </trkpt>
      <trkpt lat="45.92191" lon="4.81416">
        <ele>170</ele>
        <time>2016-08-26T10:33:16Z</time>
      </trkpt>
      <trkpt lat="45.92193" lon="4.81407">
        <ele>170</ele>
        <time>2016-08-26T10:33:17Z</time>
      </trkpt>
      <trkpt lat="45.92195" lon="4.81399">
        <ele>170</ele>
        <time>2016-08-26T10:33:18Z</time>
      </trkpt>
      <trkpt lat="45.92197" lon="4.8139">
        <ele>170</ele>
        <time>2016-08-26T10:33:19Z</time>
      </trkpt>
      <trkpt lat="45.922" lon="4.81382">
        <ele>170</ele>
        <time>2016-08-26T10:33:20Z</time>
      </trkpt>
      <trkpt lat="45.92203" lon="4.81373">
        <ele>170</ele>
        <time>2016-08-26T10:33:21Z</time>
      </trkpt>
      <trkpt lat="45.92206" lon="4.81364">
        <ele>170</ele>
        <time>2016-08-26T10:33:22Z</time>
      </trkpt>
      <trkpt lat="45.9221" lon="4.81356">
        <ele>171</ele>
        <time>2016-08-26T10:33:23Z</time>
      </trkpt>
      <trkpt lat="45.92214" lon="4.81349">
        <ele>171</ele>
        <time>2016-08-26T10:33:24Z</time>
      </trkpt>
      <trkpt lat="45.92219" lon="4.81343">
        <ele>171</ele>
        <time>2016-08-26T10:33:25Z</time>
      </trkpt>
      <trkpt lat="45.92224" lon="4.81338">
        <ele>171</ele>
        <time>2016-08-26T10:33:26Z</time>
      </trkpt>
      <trkpt lat="45.92229" lon="4.81332">
        <ele>171</ele>
        <time>2016-08-26T10:33:27Z</time>
      </trkpt>
      <trkpt lat="45.92234" lon="4.81326">
        <ele>171</ele>
        <time>2016-08-26T10:33:28Z</time>
      </trkpt>
      <trkpt lat="45.92239" lon="4.8132">
        <ele>171</ele>
        <time>2016-08-26T10:33:29Z</time>
      </trkpt>
      <trkpt lat="45.92244" lon="4.81315">
        <ele>171</ele>
        <time>2016-08-26T10:33:30Z</time>
      </trkpt>
      <trkpt lat="45.9225" lon="4.8131">
        <ele>171</ele>
        <time>2016-08-26T10:33:31Z</time>
      </trkpt>
      <trkpt lat="45.92256" lon="4.81305">
        <ele>171</ele>
        <time>2016-08-26T10:33:32Z</time>
      </trkpt>
      <trkpt lat="45.92262" lon="4.81301">
        <ele>171</ele>
        <time>2016-08-26T10:33:33Z</time>
      </trkpt>
      <trkpt lat="45.92269" lon="4.81296">
        <ele>170</ele>
        <time>2016-08-26T10:33:34Z</time>
      </trkpt>
      <trkpt lat="45.92275" lon="4.81292">
        <ele>170</ele>
        <time>2016-08-26T10:33:35Z</time>
      </trkpt>
      <trkpt lat="45.92281" lon="4.81288">
        <ele>170</ele>
        <time>2016-08-26T10:33:36Z</time>
      </trkpt>
      <trkpt lat="45.92287" lon="4.81284">
        <ele>170</ele>
        <time>2016-08-26T10:33:37Z</time>
      </trkpt>
      <trkpt lat="45.92293" lon="4.8128">
        <ele>170</ele>
        <time>2016-08-26T10:33:38Z</time>
      </trkpt>
      <trkpt lat="45.92299" lon="4.81276">
        <ele>170</ele>
        <time>2016-08-26T10:33:39Z</time>
      </trkpt>
      <trkpt lat="45.92304" lon="4.81273">
        <ele>170</ele>
        <time>2016-08-26T10:33:40Z</time>
      </trkpt>
      <trkpt lat="45.92309" lon="4.81269">
        <ele>170</ele>
        <time>2016-08-26T10:33:41Z</time>
      </trkpt>
      <trkpt lat="45.92315" lon="4.81266">
        <ele>170</ele>
        <time>2016-08-26T10:33:42Z</time>
      </trkpt>
      <trkpt lat="45.9232" lon="4.81262">
        <ele>170</ele>
        <time>2016-08-26T10:33:43Z</time>
      </trkpt>
      <trkpt lat="45.92325" lon="4.81258">
        <ele>169</ele>
        <time>2016-08-26T10:33:44Z</time>
      </trkpt>
      <trkpt lat="45.9233" lon="4.81255">
        <ele>169</ele>
        <time>2016-08-26T10:33:45Z</time>
      </trkpt>
      <trkpt lat="45.92335" lon="4.81251">
        <ele>169</ele>
        <time>2016-08-26T10:33:46Z</time>
      </trkpt>
      <trkpt lat="45.92341" lon="4.81247">
        <ele>169</ele>
        <time>2016-08-26T10:33:47Z</time>
      </trkpt>
      <trkpt lat="45.92346" lon="4.81244">
        <ele>169</ele>
        <time>2016-08-26T10:33:48Z</time>
      </trkpt>
      <trkpt lat="45.92351" lon="4.8124">
        <ele>169</ele>
        <time>2016-08-26T10:33:49Z</time>
      </trkpt>
      <trkpt lat="45.92357" lon="4.81236">
        <ele>169</ele>
        <time>2016-08-26T10:33:50Z</time>
      </trkpt>
      <trkpt lat="45.92362" lon="4.81232">
        <ele>170</ele>
        <time>2016-08-26T10:33:51Z</time>
      </trkpt>
      <trkpt lat="45.92368" lon="4.81229">
        <ele>170</ele>
        <time>2016-08-26T10:33:52Z</time>
      </trkpt>
      <trkpt lat="45.92374" lon="4.81226">
        <ele>170</ele>
        <time>2016-08-26T10:33:53Z</time>
      </trkpt>
      <trkpt lat="45.9238" lon="4.81223">
        <ele>170</ele>
        <time>2016-08-26T10:33:54Z</time>
      </trkpt>
      <trkpt lat="45.92385" lon="4.81219">
        <ele>170</ele>
        <time>2016-08-26T10:33:55Z</time>
      </trkpt>
      <trkpt lat="45.92391" lon="4.81216">
        <ele>170</ele>
        <time>2016-08-26T10:33:56Z</time>
      </trkpt>
      <trkpt lat="45.92397" lon="4.81213">
        <ele>170</ele>
        <time>2016-08-26T10:33:57Z</time>
      </trkpt>
      <trkpt lat="45.92403" lon="4.8121">
        <ele>170</ele>
        <time>2016-08-26T10:33:58Z</time>
      </trkpt>
      <trkpt lat="45.92408" lon="4.81208">
        <ele>170</ele>
        <time>2016-08-26T10:33:59Z</time>
      </trkpt>
      <trkpt lat="45.92414" lon="4.81205">
        <ele>170</ele>
        <time>2016-08-26T10:34:00Z</time>
      </trkpt>
      <trkpt lat="45.9242" lon="4.81203">
        <ele>171</ele>
        <time>2016-08-26T10:34:01Z</time>
      </trkpt>
      <trkpt lat="45.92425" lon="4.81202">
        <ele>171</ele>
        <time>2016-08-26T10:34:02Z</time>
      </trkpt>
      <trkpt lat="45.9243" lon="4.812">
        <ele>171</ele>
        <time>2016-08-26T10:34:03Z</time>
      </trkpt>
      <trkpt lat="45.92436" lon="4.81199">
        <ele>171</ele>
        <time>2016-08-26T10:34:04Z</time>
      </trkpt>
      <trkpt lat="45.92442" lon="4.81198">
        <ele>171</ele>
        <time>2016-08-26T10:34:05Z</time>
      </trkpt>
      <trkpt lat="45.92449" lon="4.81198">
        <ele>171</ele>
        <time>2016-08-26T10:34:06Z</time>
      </trkpt>
      <trkpt lat="45.92455" lon="4.81198">
        <ele>171</ele>
        <time>2016-08-26T10:34:07Z</time>
      </trkpt>
      <trkpt lat="45.92462" lon="4.81198">
        <ele>171</ele>
        <time>2016-08-26T10:34:08Z</time>
      </trkpt>
      <trkpt lat="45.92469" lon="4.81197">
        <ele>171</ele>
        <time>2016-08-26T10:34:09Z</time>
      </trkpt>
      <trkpt lat="45.92475" lon="4.81197">
        <ele>171</ele>
        <time>2016-08-26T10:34:10Z</time>
      </trkpt>
      <trkpt lat="45.92481" lon="4.81196">
        <ele>171</ele>
        <time>2016-08-26T10:34:11Z</time>
      </trkpt>
      <trkpt lat="45.92487" lon="4.81196">
        <ele>171</ele>
        <time>2016-08-26T10:34:12Z</time>
      </trkpt>
      <trkpt lat="45.92493" lon="4.81195">
        <ele>171</ele>
        <time>2016-08-26T10:34:13Z</time>
      </trkpt>
      <trkpt lat="45.92499" lon="4.81195">
        <ele>171</ele>
        <time>2016-08-26T10:34:14Z</time>
      </trkpt>
      <trkpt lat="45.92505" lon="4.81194">
        <ele>171</ele>
        <time>2016-08-26T10:34:15Z</time>
      </trkpt>
      <trkpt lat="45.92512" lon="4.81193">
        <ele>171</ele>
        <time>2016-08-26T10:34:16Z</time>
      </trkpt>
      <trkpt lat="45.92518" lon="4.81193">
        <ele>171</ele>
        <time>2016-08-26T10:34:17Z</time>
      </trkpt>
      <trkpt lat="45.92524" lon="4.81193">
        <ele>171</ele>
        <time>2016-08-26T10:34:18Z</time>
      </trkpt>
      <trkpt lat="45.9253" lon="4.81192">
        <ele>171</ele>
        <time>2016-08-26T10:34:19Z</time>
      </trkpt>
      <trkpt lat="45.92537" lon="4.81192">
        <ele>171</ele>
        <time>2016-08-26T10:34:20Z</time>
      </trkpt>
      <trkpt lat="45.92544" lon="4.81191">
        <ele>170</ele>
        <time>2016-08-26T10:34:21Z</time>
      </trkpt>
      <trkpt lat="45.9255" lon="4.81191">
        <ele>170</ele>
        <time>2016-08-26T10:34:22Z</time>
      </trkpt>
      <trkpt lat="45.92557" lon="4.81191">
        <ele>170</ele>
        <time>2016-08-26T10:34:23Z</time>
      </trkpt>
      <trkpt lat="45.92563" lon="4.81191">
        <ele>170</ele>
        <time>2016-08-26T10:34:24Z</time>
      </trkpt>
      <trkpt lat="45.9257" lon="4.81191">
        <ele>170</ele>
        <time>2016-08-26T10:34:25Z</time>
      </trkpt>
      <trkpt lat="45.92576" lon="4.8119">
        <ele>170</ele>
        <time>2016-08-26T10:34:26Z</time>
      </trkpt>
      <trkpt lat="45.92582" lon="4.8119">
        <ele>170</ele>
        <time>2016-08-26T10:34:27Z</time>
      </trkpt>
      <trkpt lat="45.92589" lon="4.8119">
        <ele>170</ele>
        <time>2016-08-26T10:34:28Z</time>
      </trkpt>
      <trkpt lat="45.92596" lon="4.81189">
        <ele>170</ele>
        <time>2016-08-26T10:34:29Z</time>
      </trkpt>
      <trkpt lat="45.92603" lon="4.81189">
        <ele>170</ele>
        <time>2016-08-26T10:34:30Z</time>
      </trkpt>
      <trkpt lat="45.9261" lon="4.81188">
        <ele>170</ele>
        <time>2016-08-26T10:34:31Z</time>
      </trkpt>
      <trkpt lat="45.92617" lon="4.81188">
        <ele>170</ele>
        <time>2016-08-26T10:34:32Z</time>
      </trkpt>
      <trkpt lat="45.92624" lon="4.81187">
        <ele>170</ele>
        <time>2016-08-26T10:34:33Z</time>
      </trkpt>
      <trkpt lat="45.92631" lon="4.81186">
        <ele>171</ele>
        <time>2016-08-26T10:34:34Z</time>
      </trkpt>
      <trkpt lat="45.92638" lon="4.81185">
        <ele>171</ele>
        <time>2016-08-26T10:34:35Z</time>
      </trkpt>
      <trkpt lat="45.92645" lon="4.81184">
        <ele>171</ele>
        <time>2016-08-26T10:34:36Z</time>
      </trkpt>
      <trkpt lat="45.92652" lon="4.81182">
        <ele>171</ele>
        <time>2016-08-26T10:34:37Z</time>
      </trkpt>
      <trkpt lat="45.92659" lon="4.81181">
        <ele>171</ele>
        <time>2016-08-26T10:34:38Z</time>
      </trkpt>
      <trkpt lat="45.92666" lon="4.8118">
        <ele>171</ele>
        <time>2016-08-26T10:34:39Z</time>
      </trkpt>
      <trkpt lat="45.92672" lon="4.81179">
        <ele>171</ele>
        <time>2016-08-26T10:34:40Z</time>
      </trkpt>
      <trkpt lat="45.92679" lon="4.81177">
        <ele>171</ele>
        <time>2016-08-26T10:34:41Z</time>
      </trkpt>
      <trkpt lat="45.92685" lon="4.81176">
        <ele>171</ele>
        <time>2016-08-26T10:34:42Z</time>
      </trkpt>
      <trkpt lat="45.92691" lon="4.81175">
        <ele>170</ele>
        <time>2016-08-26T10:34:43Z</time>
      </trkpt>
      <trkpt lat="45.92698" lon="4.81174">
        <ele>170</ele>
        <time>2016-08-26T10:34:44Z</time>
      </trkpt>
      <trkpt lat="45.92704" lon="4.81172">
        <ele>170</ele>
        <time>2016-08-26T10:34:45Z</time>
      </trkpt>
      <trkpt lat="45.9271" lon="4.81171">
        <ele>170</ele>
        <time>2016-08-26T10:34:46Z</time>
      </trkpt>
      <trkpt lat="45.92717" lon="4.8117">
        <ele>170</ele>
        <time>2016-08-26T10:34:47Z</time>
      </trkpt>
      <trkpt lat="45.92724" lon="4.81169">
        <ele>170</ele>
        <time>2016-08-26T10:34:48Z</time>
      </trkpt>
      <trkpt lat="45.9273" lon="4.81169">
        <ele>170</ele>
        <time>2016-08-26T10:34:49Z</time>
      </trkpt>
      <trkpt lat="45.92737" lon="4.81169">
        <ele>170</ele>
        <time>2016-08-26T10:34:50Z</time>
      </trkpt>
      <trkpt lat="45.92743" lon="4.8117">
        <ele>170</ele>
        <time>2016-08-26T10:34:51Z</time>
      </trkpt>
      <trkpt lat="45.92749" lon="4.81172">
        <ele>170</ele>
        <time>2016-08-26T10:34:52Z</time>
      </trkpt>
      <trkpt lat="45.92754" lon="4.81176">
        <ele>170</ele>
        <time>2016-08-26T10:34:53Z</time>
      </trkpt>
      <trkpt lat="45.92759" lon="4.8118">
        <ele>170</ele>
        <time>2016-08-26T10:34:54Z</time>
      </trkpt>
      <trkpt lat="45.92765" lon="4.81181">
        <ele>170</ele>
        <time>2016-08-26T10:34:55Z</time>
      </trkpt>
      <trkpt lat="45.9277" lon="4.8118">
        <ele>170</ele>
        <time>2016-08-26T10:34:56Z</time>
      </trkpt>
      <trkpt lat="45.92775" lon="4.81177">
        <ele>170</ele>
        <time>2016-08-26T10:34:57Z</time>
      </trkpt>
      <trkpt lat="45.92779" lon="4.8117">
        <ele>170</ele>
        <time>2016-08-26T10:34:58Z</time>
      </trkpt>
      <trkpt lat="45.92782" lon="4.81163">
        <ele>170</ele>
        <time>2016-08-26T10:34:59Z</time>
      </trkpt>
      <trkpt lat="45.92785" lon="4.81154">
        <ele>170</ele>
        <time>2016-08-26T10:35:00Z</time>
      </trkpt>
      <trkpt lat="45.92788" lon="4.81145">
        <ele>170</ele>
        <time>2016-08-26T10:35:01Z</time>
      </trkpt>
      <trkpt lat="45.92791" lon="4.81137">
        <ele>170</ele>
        <time>2016-08-26T10:35:02Z</time>
      </trkpt>
      <trkpt lat="45.92796" lon="4.81128">
        <ele>170</ele>
        <time>2016-08-26T10:35:03Z</time>
      </trkpt>
      <trkpt lat="45.928" lon="4.81121">
        <ele>170</ele>
        <time>2016-08-26T10:35:04Z</time>
      </trkpt>
      <trkpt lat="45.92804" lon="4.81113">
        <ele>170</ele>
        <time>2016-08-26T10:35:05Z</time>
      </trkpt>
      <trkpt lat="45.92809" lon="4.81105">
        <ele>170</ele>
        <time>2016-08-26T10:35:06Z</time>
      </trkpt>
      <trkpt lat="45.92814" lon="4.81098">
        <ele>170</ele>
        <time>2016-08-26T10:35:07Z</time>
      </trkpt>
      <trkpt lat="45.92818" lon="4.8109">
        <ele>170</ele>
        <time>2016-08-26T10:35:08Z</time>
      </trkpt>
      <trkpt lat="45.92822" lon="4.81083">
        <ele>170</ele>
        <time>2016-08-26T10:35:09Z</time>
      </trkpt>
      <trkpt lat="45.92826" lon="4.81077">
        <ele>170</ele>
        <time>2016-08-26T10:35:10Z</time>
      </trkpt>
      <trkpt lat="45.9283" lon="4.8107">
        <ele>170</ele>
        <time>2016-08-26T10:35:11Z</time>
      </trkpt>
      <trkpt lat="45.92834" lon="4.81063">
        <ele>169</ele>
        <time>2016-08-26T10:35:12Z</time>
      </trkpt>
      <trkpt lat="45.92837" lon="4.81056">
        <ele>169</ele>
        <time>2016-08-26T10:35:13Z</time>
      </trkpt>
      <trkpt lat="45.92841" lon="4.81048">
        <ele>169</ele>
        <time>2016-08-26T10:35:14Z</time>
      </trkpt>
      <trkpt lat="45.92845" lon="4.81041">
        <ele>169</ele>
        <time>2016-08-26T10:35:15Z</time>
      </trkpt>
      <trkpt lat="45.92849" lon="4.81033">
        <ele>169</ele>
        <time>2016-08-26T10:35:16Z</time>
      </trkpt>
      <trkpt lat="45.92852" lon="4.81025">
        <ele>169</ele>
        <time>2016-08-26T10:35:17Z</time>
      </trkpt>
      <trkpt lat="45.92856" lon="4.81017">
        <ele>169</ele>
        <time>2016-08-26T10:35:18Z</time>
      </trkpt>
      <trkpt lat="45.9286" lon="4.81008">
        <ele>169</ele>
        <time>2016-08-26T10:35:19Z</time>
      </trkpt>
      <trkpt lat="45.92863" lon="4.80999">
        <ele>169</ele>
        <time>2016-08-26T10:35:20Z</time>
      </trkpt>
      <trkpt lat="45.92866" lon="4.8099">
        <ele>169</ele>
        <time>2016-08-26T10:35:21Z</time>
      </trkpt>
      <trkpt lat="45.92869" lon="4.80981">
        <ele>169</ele>
        <time>2016-08-26T10:35:22Z</time>
      </trkpt>
      <trkpt lat="45.92872" lon="4.80972">
        <ele>169</ele>
        <time>2016-08-26T10:35:23Z</time>
      </trkpt>
      <trkpt lat="45.92875" lon="4.80964">
        <ele>169</ele>
        <time>2016-08-26T10:35:24Z</time>
      </trkpt>
      <trkpt lat="45.92878" lon="4.80956">
        <ele>170</ele>
        <time>2016-08-26T10:35:25Z</time>
      </trkpt>
      <trkpt lat="45.92881" lon="4.80947">
        <ele>170</ele>
        <time>2016-08-26T10:35:26Z</time>
      </trkpt>
      <trkpt lat="45.92883" lon="4.80939">
        <ele>170</ele>
        <time>2016-08-26T10:35:27Z</time>
      </trkpt>
      <trkpt lat="45.92886" lon="4.8093">
        <ele>170</ele>
        <time>2016-08-26T10:35:28Z</time>
      </trkpt>
      <trkpt lat="45.92889" lon="4.80922">
        <ele>170</ele>
        <time>2016-08-26T10:35:29Z</time>
      </trkpt>
      <trkpt lat="45.92892" lon="4.80914">
        <ele>170</ele>
        <time>2016-08-26T10:35:30Z</time>
      </trkpt>
      <trkpt lat="45.92894" lon="4.80906">
        <ele>170</ele>
        <time>2016-08-26T10:35:31Z</time>
      </trkpt>
      <trkpt lat="45.92897" lon="4.80898">
        <ele>170</ele>
        <time>2016-08-26T10:35:32Z</time>
      </trkpt>
      <trkpt lat="45.929" lon="4.8089">
        <ele>170</ele>
        <time>2016-08-26T10:35:33Z</time>
      </trkpt>
      <trkpt lat="45.92902" lon="4.80882">
        <ele>171</ele>
        <time>2016-08-26T10:35:34Z</time>
      </trkpt>
      <trkpt lat="45.92905" lon="4.80874">
        <ele>171</ele>
        <time>2016-08-26T10:35:35Z</time>
      </trkpt>
      <trkpt lat="45.92908" lon="4.80865">
        <ele>171</ele>
        <time>2016-08-26T10:35:36Z</time>
      </trkpt>
      <trkpt lat="45.92911" lon="4.80857">
        <ele>171</ele>
        <time>2016-08-26T10:35:37Z</time>
      </trkpt>
      <trkpt lat="45.92913" lon="4.80849">
        <ele>171</ele>
        <time>2016-08-26T10:35:38Z</time>
      </trkpt>
      <trkpt lat="45.92916" lon="4.8084">
        <ele>172</ele>
        <time>2016-08-26T10:35:39Z</time>
      </trkpt>
      <trkpt lat="45.92919" lon="4.80832">
        <ele>172</ele>
        <time>2016-08-26T10:35:40Z</time>
      </trkpt>
      <trkpt lat="45.92921" lon="4.80824">
        <ele>172</ele>
        <time>2016-08-26T10:35:41Z</time>
      </trkpt>
      <trkpt lat="45.92924" lon="4.80816">
        <ele>172</ele>
        <time>2016-08-26T10:35:42Z</time>
      </trkpt>
      <trkpt lat="45.92927" lon="4.80808">
        <ele>172</ele>
        <time>2016-08-26T10:35:43Z</time>
      </trkpt>
      <trkpt lat="45.9293" lon="4.808">
        <ele>172</ele>
        <time>2016-08-26T10:35:44Z</time>
      </trkpt>
      <trkpt lat="45.92932" lon="4.80793">
        <ele>172</ele>
        <time>2016-08-26T10:35:45Z</time>
      </trkpt>
      <trkpt lat="45.92935" lon="4.80785">
        <ele>172</ele>
        <time>2016-08-26T10:35:46Z</time>
      </trkpt>
      <trkpt lat="45.92937" lon="4.80777">
        <ele>172</ele>
        <time>2016-08-26T10:35:47Z</time>
      </trkpt>
      <trkpt lat="45.9294" lon="4.80769">
        <ele>172</ele>
        <time>2016-08-26T10:35:48Z</time>
      </trkpt>
      <trkpt lat="45.92943" lon="4.80761">
        <ele>172</ele>
        <time>2016-08-26T10:35:49Z</time>
      </trkpt>
      <trkpt lat="45.92946" lon="4.80752">
        <ele>172</ele>
        <time>2016-08-26T10:35:50Z</time>
      </trkpt>
      <trkpt lat="45.92949" lon="4.80744">
        <ele>172</ele>
        <time>2016-08-26T10:35:51Z</time>
      </trkpt>
      <trkpt lat="45.92953" lon="4.80734">
        <ele>172</ele>
        <time>2016-08-26T10:35:52Z</time>
      </trkpt>
      <trkpt lat="45.92955" lon="4.80725">
        <ele>172</ele>
        <time>2016-08-26T10:35:53Z</time>
      </trkpt>
      <trkpt lat="45.92958" lon="4.80716">
        <ele>172</ele>
        <time>2016-08-26T10:35:54Z</time>
      </trkpt>
      <trkpt lat="45.92961" lon="4.80708">
        <ele>172</ele>
        <time>2016-08-26T10:35:55Z</time>
      </trkpt>
      <trkpt lat="45.92964" lon="4.80699">
        <ele>172</ele>
        <time>2016-08-26T10:35:56Z</time>
      </trkpt>
      <trkpt lat="45.92966" lon="4.80691">
        <ele>172</ele>
        <time>2016-08-26T10:35:57Z</time>
      </trkpt>
      <trkpt lat="45.92969" lon="4.80682">
        <ele>172</ele>
        <time>2016-08-26T10:35:58Z</time>
      </trkpt>
      <trkpt lat="45.92971" lon="4.80674">
        <ele>172</ele>
        <time>2016-08-26T10:35:59Z</time>
      </trkpt>
      <trkpt lat="45.92973" lon="4.80665">
        <ele>172</ele>
        <time>2016-08-26T10:36:00Z</time>
      </trkpt>
      <trkpt lat="45.92976" lon="4.80658">
        <ele>172</ele>
        <time>2016-08-26T10:36:01Z</time>
      </trkpt>
      <trkpt lat="45.92979" lon="4.8065">
        <ele>172</ele>
        <time>2016-08-26T10:36:02Z</time>
      </trkpt>
      <trkpt lat="45.92982" lon="4.80643">
        <ele>172</ele>
        <time>2016-08-26T10:36:03Z</time>
      </trkpt>
      <trkpt lat="45.92984" lon="4.80635">
        <ele>172</ele>
        <time>2016-08-26T10:36:04Z</time>
      </trkpt>
      <trkpt lat="45.92987" lon="4.80628">
        <ele>172</ele>
        <time>2016-08-26T10:36:05Z</time>
      </trkpt>
      <trkpt lat="45.9299" lon="4.8062">
        <ele>172</ele>
        <time>2016-08-26T10:36:06Z</time>
      </trkpt>
      <trkpt lat="45.92992" lon="4.80611">
        <ele>172</ele>
        <time>2016-08-26T10:36:07Z</time>
      </trkpt>
      <trkpt lat="45.92995" lon="4.80603">
        <ele>172</ele>
        <time>2016-08-26T10:36:08Z</time>
      </trkpt>
      <trkpt lat="45.92998" lon="4.80595">
        <ele>172</ele>
        <time>2016-08-26T10:36:09Z</time>
      </trkpt>
      <trkpt lat="45.93" lon="4.80587">
        <ele>172</ele>
        <time>2016-08-26T10:36:10Z</time>
      </trkpt>
      <trkpt lat="45.93002" lon="4.80579">
        <ele>172</ele>
        <time>2016-08-26T10:36:11Z</time>
      </trkpt>
      <trkpt lat="45.93005" lon="4.80571">
        <ele>172</ele>
        <time>2016-08-26T10:36:12Z</time>
      </trkpt>
      <trkpt lat="45.93007" lon="4.80563">
        <ele>172</ele>
        <time>2016-08-26T10:36:13Z</time>
      </trkpt>
      <trkpt lat="45.9301" lon="4.80556">
        <ele>172</ele>
        <time>2016-08-26T10:36:14Z</time>
      </trkpt>
      <trkpt lat="45.93013" lon="4.80548">
        <ele>172</ele>
        <time>2016-08-26T10:36:15Z</time>
      </trkpt>
      <trkpt lat="45.93015" lon="4.80541">
        <ele>172</ele>
        <time>2016-08-26T10:36:16Z</time>
      </trkpt>
      <trkpt lat="45.93017" lon="4.80533">
        <ele>172</ele>
        <time>2016-08-26T10:36:17Z</time>
      </trkpt>
      <trkpt lat="45.9302" lon="4.80525">
        <ele>172</ele>
        <time>2016-08-26T10:36:18Z</time>
      </trkpt>
      <trkpt lat="45.93022" lon="4.80518">
        <ele>172</ele>
        <time>2016-08-26T10:36:19Z</time>
      </trkpt>
      <trkpt lat="45.93025" lon="4.8051">
        <ele>172</ele>
        <time>2016-08-26T10:36:20Z</time>
      </trkpt>
      <trkpt lat="45.93027" lon="4.80503">
        <ele>172</ele>
        <time>2016-08-26T10:36:21Z</time>
      </trkpt>
      <trkpt lat="45.9303" lon="4.80496">
        <ele>171</ele>
        <time>2016-08-26T10:36:22Z</time>
      </trkpt>
      <trkpt lat="45.93032" lon="4.80488">
        <ele>171</ele>
        <time>2016-08-26T10:36:23Z</time>
      </trkpt>
      <trkpt lat="45.93034" lon="4.80481">
        <ele>171</ele>
        <time>2016-08-26T10:36:24Z</time>
      </trkpt>
      <trkpt lat="45.93037" lon="4.80474">
        <ele>171</ele>
        <time>2016-08-26T10:36:25Z</time>
      </trkpt>
      <trkpt lat="45.9304" lon="4.80466">
        <ele>171</ele>
        <time>2016-08-26T10:36:26Z</time>
      </trkpt>
      <trkpt lat="45.93043" lon="4.80459">
        <ele>171</ele>
        <time>2016-08-26T10:36:27Z</time>
      </trkpt>
      <trkpt lat="45.93045" lon="4.80452">
        <ele>171</ele>
        <time>2016-08-26T10:36:28Z</time>
      </trkpt>
      <trkpt lat="45.93048" lon="4.80444">
        <ele>171</ele>
        <time>2016-08-26T10:36:29Z</time>
      </trkpt>
      <trkpt lat="45.9305" lon="4.80437">
        <ele>171</ele>
        <time>2016-08-26T10:36:30Z</time>
      </trkpt>
      <trkpt lat="45.93052" lon="4.8043">
        <ele>171</ele>
        <time>2016-08-26T10:36:31Z</time>
      </trkpt>
      <trkpt lat="45.93054" lon="4.80423">
        <ele>171</ele>
        <time>2016-08-26T10:36:32Z</time>
      </trkpt>
      <trkpt lat="45.93057" lon="4.80416">
        <ele>170</ele>
        <time>2016-08-26T10:36:33Z</time>
      </trkpt>
      <trkpt lat="45.93059" lon="4.80409">
        <ele>170</ele>
        <time>2016-08-26T10:36:34Z</time>
      </trkpt>
      <trkpt lat="45.93062" lon="4.80402">
        <ele>170</ele>
        <time>2016-08-26T10:36:35Z</time>
      </trkpt>
      <trkpt lat="45.93064" lon="4.80394">
        <ele>170</ele>
        <time>2016-08-26T10:36:36Z</time>
      </trkpt>
      <trkpt lat="45.93067" lon="4.80388">
        <ele>170</ele>
        <time>2016-08-26T10:36:37Z</time>
      </trkpt>
      <trkpt lat="45.93069" lon="4.80381">
        <ele>170</ele>
        <time>2016-08-26T10:36:38Z</time>
      </trkpt>
      <trkpt lat="45.93071" lon="4.80374">
        <ele>170</ele>
        <time>2016-08-26T10:36:39Z</time>
      </trkpt>
      <trkpt lat="45.93074" lon="4.80368">
        <ele>170</ele>
        <time>2016-08-26T10:36:40Z</time>
      </trkpt>
      <trkpt lat="45.93076" lon="4.80361">
        <ele>170</ele>
        <time>2016-08-26T10:36:41Z</time>
      </trkpt>
      <trkpt lat="45.93078" lon="4.80354">
        <ele>170</ele>
        <time>2016-08-26T10:36:42Z</time>
      </trkpt>
      <trkpt lat="45.93082" lon="4.80346">
        <ele>169</ele>
        <time>2016-08-26T10:36:43Z</time>
      </trkpt>
      <trkpt lat="45.93084" lon="4.80338">
        <ele>169</ele>
        <time>2016-08-26T10:36:44Z</time>
      </trkpt>
      <trkpt lat="45.93087" lon="4.80331">
        <ele>169</ele>
        <time>2016-08-26T10:36:45Z</time>
      </trkpt>
      <trkpt lat="45.93089" lon="4.80323">
        <ele>169</ele>
        <time>2016-08-26T10:36:46Z</time>
      </trkpt>
      <trkpt lat="45.93092" lon="4.80315">
        <ele>169</ele>
        <time>2016-08-26T10:36:47Z</time>
      </trkpt>
      <trkpt lat="45.93094" lon="4.80307">
        <ele>169</ele>
        <time>2016-08-26T10:36:48Z</time>
      </trkpt>
      <trkpt lat="45.93097" lon="4.80299">
        <ele>169</ele>
        <time>2016-08-26T10:36:49Z</time>
      </trkpt>
      <trkpt lat="45.93099" lon="4.80292">
        <ele>169</ele>
        <time>2016-08-26T10:36:50Z</time>
      </trkpt>
      <trkpt lat="45.93102" lon="4.80284">
        <ele>169</ele>
        <time>2016-08-26T10:36:51Z</time>
      </trkpt>
      <trkpt lat="45.93104" lon="4.80275">
        <ele>169</ele>
        <time>2016-08-26T10:36:52Z</time>
      </trkpt>
      <trkpt lat="45.93107" lon="4.80266">
        <ele>169</ele>
        <time>2016-08-26T10:36:53Z</time>
      </trkpt>
      <trkpt lat="45.9311" lon="4.80258">
        <ele>169</ele>
        <time>2016-08-26T10:36:54Z</time>
      </trkpt>
      <trkpt lat="45.93112" lon="4.80249">
        <ele>169</ele>
        <time>2016-08-26T10:36:55Z</time>
      </trkpt>
      <trkpt lat="45.93115" lon="4.80239">
        <ele>169</ele>
        <time>2016-08-26T10:36:56Z</time>
      </trkpt>
      <trkpt lat="45.93118" lon="4.80231">
        <ele>169</ele>
        <time>2016-08-26T10:36:57Z</time>
      </trkpt>
      <trkpt lat="45.93121" lon="4.80223">
        <ele>169</ele>
        <time>2016-08-26T10:36:58Z</time>
      </trkpt>
      <trkpt lat="45.93123" lon="4.80215">
        <ele>169</ele>
        <time>2016-08-26T10:36:59Z</time>
      </trkpt>
      <trkpt lat="45.93126" lon="4.80207">
        <ele>169</ele>
        <time>2016-08-26T10:37:00Z</time>
      </trkpt>
      <trkpt lat="45.93129" lon="4.80199">
        <ele>169</ele>
        <time>2016-08-26T10:37:01Z</time>
      </trkpt>
      <trkpt lat="45.93131" lon="4.80191">
        <ele>169</ele>
        <time>2016-08-26T10:37:02Z</time>
      </trkpt>
      <trkpt lat="45.93134" lon="4.80184">
        <ele>169</ele>
        <time>2016-08-26T10:37:03Z</time>
      </trkpt>
      <trkpt lat="45.93136" lon="4.80176">
        <ele>169</ele>
        <time>2016-08-26T10:37:04Z</time>
      </trkpt>
      <trkpt lat="45.93139" lon="4.80168">
        <ele>169</ele>
        <time>2016-08-26T10:37:05Z</time>
      </trkpt>
      <trkpt lat="45.93142" lon="4.80161">
        <ele>169</ele>
        <time>2016-08-26T10:37:06Z</time>
      </trkpt>
      <trkpt lat="45.93145" lon="4.80153">
        <ele>169</ele>
        <time>2016-08-26T10:37:07Z</time>
      </trkpt>
      <trkpt lat="45.93147" lon="4.80145">
        <ele>169</ele>
        <time>2016-08-26T10:37:08Z</time>
      </trkpt>
      <trkpt lat="45.9315" lon="4.80137">
        <ele>169</ele>
        <time>2016-08-26T10:37:09Z</time>
      </trkpt>
      <trkpt lat="45.93153" lon="4.8013">
        <ele>169</ele>
        <time>2016-08-26T10:37:10Z</time>
      </trkpt>
      <trkpt lat="45.93156" lon="4.80121">
        <ele>169</ele>
        <time>2016-08-26T10:37:11Z</time>
      </trkpt>
      <trkpt lat="45.93159" lon="4.80113">
        <ele>169</ele>
        <time>2016-08-26T10:37:12Z</time>
      </trkpt>
      <trkpt lat="45.93161" lon="4.80105">
        <ele>170</ele>
        <time>2016-08-26T10:37:13Z</time>
      </trkpt>
      <trkpt lat="45.93164" lon="4.80097">
        <ele>170</ele>
        <time>2016-08-26T10:37:14Z</time>
      </trkpt>
      <trkpt lat="45.93166" lon="4.8009">
        <ele>170</ele>
        <time>2016-08-26T10:37:15Z</time>
      </trkpt>
      <trkpt lat="45.9317" lon="4.80083">
        <ele>170</ele>
        <time>2016-08-26T10:37:16Z</time>
      </trkpt>
      <trkpt lat="45.93173" lon="4.80077">
        <ele>170</ele>
        <time>2016-08-26T10:37:17Z</time>
      </trkpt>
      <trkpt lat="45.93178" lon="4.80073">
        <ele>170</ele>
        <time>2016-08-26T10:37:18Z</time>
      </trkpt>
      <trkpt lat="45.93184" lon="4.80072">
        <ele>170</ele>
        <time>2016-08-26T10:37:19Z</time>
      </trkpt>
      <trkpt lat="45.9319" lon="4.80069">
        <ele>170</ele>
        <time>2016-08-26T10:37:20Z</time>
      </trkpt>
      <trkpt lat="45.93195" lon="4.80066">
        <ele>170</ele>
        <time>2016-08-26T10:37:21Z</time>
      </trkpt>
      <trkpt lat="45.93199" lon="4.80059">
        <ele>170</ele>
        <time>2016-08-26T10:37:22Z</time>
      </trkpt>
      <trkpt lat="45.93202" lon="4.80051">
        <ele>170</ele>
        <time>2016-08-26T10:37:23Z</time>
      </trkpt>
      <trkpt lat="45.93204" lon="4.80042">
        <ele>170</ele>
        <time>2016-08-26T10:37:24Z</time>
      </trkpt>
      <trkpt lat="45.93203" lon="4.80034">
        <ele>170</ele>
        <time>2016-08-26T10:37:25Z</time>
      </trkpt>
      <trkpt lat="45.93201" lon="4.80027">
        <ele>170</ele>
        <time>2016-08-26T10:37:26Z</time>
      </trkpt>
      <trkpt lat="45.93198" lon="4.80019">
        <ele>170</ele>
        <time>2016-08-26T10:37:27Z</time>
      </trkpt>
      <trkpt lat="45.93194" lon="4.80012">
        <ele>170</ele>
        <time>2016-08-26T10:37:28Z</time>
      </trkpt>
      <trkpt lat="45.93191" lon="4.80004">
        <ele>170</ele>
        <time>2016-08-26T10:37:29Z</time>
      </trkpt>
      <trkpt lat="45.93189" lon="4.79995">
        <ele>170</ele>
        <time>2016-08-26T10:37:30Z</time>
      </trkpt>
      <trkpt lat="45.93188" lon="4.79986">
        <ele>170</ele>
        <time>2016-08-26T10:37:31Z</time>
      </trkpt>
      <trkpt lat="45.93189" lon="4.79978">
        <ele>170</ele>
        <time>2016-08-26T10:37:32Z</time>
      </trkpt>
      <trkpt lat="45.93191" lon="4.7997">
        <ele>170</ele>
        <time>2016-08-26T10:37:33Z</time>
      </trkpt>
      <trkpt lat="45.93193" lon="4.79961">
        <ele>170</ele>
        <time>2016-08-26T10:37:34Z</time>
      </trkpt>
      <trkpt lat="45.93196" lon="4.79952">
        <ele>170</ele>
        <time>2016-08-26T10:37:35Z</time>
      </trkpt>
      <trkpt lat="45.93199" lon="4.79944">
        <ele>171</ele>
        <time>2016-08-26T10:37:36Z</time>
      </trkpt>
      <trkpt lat="45.93203" lon="4.79937">
        <ele>171</ele>
        <time>2016-08-26T10:37:37Z</time>
      </trkpt>
      <trkpt lat="45.93206" lon="4.79929">
        <ele>171</ele>
        <time>2016-08-26T10:37:38Z</time>
      </trkpt>
      <trkpt lat="45.9321" lon="4.79921">
        <ele>171</ele>
        <time>2016-08-26T10:37:39Z</time>
      </trkpt>
      <trkpt lat="45.93214" lon="4.79914">
        <ele>172</ele>
        <time>2016-08-26T10:37:40Z</time>
      </trkpt>
      <trkpt lat="45.93218" lon="4.79907">
        <ele>172</ele>
        <time>2016-08-26T10:37:41Z</time>
      </trkpt>
      <trkpt lat="45.93222" lon="4.79899">
        <ele>172</ele>
        <time>2016-08-26T10:37:42Z</time>
      </trkpt>
      <trkpt lat="45.93225" lon="4.79891">
        <ele>172</ele>
        <time>2016-08-26T10:37:43Z</time>
      </trkpt>
      <trkpt lat="45.93229" lon="4.79883">
        <ele>172</ele>
        <time>2016-08-26T10:37:44Z</time>
      </trkpt>
      <trkpt lat="45.93232" lon="4.79876">
        <ele>172</ele>
        <time>2016-08-26T10:37:45Z</time>
      </trkpt>
      <trkpt lat="45.93236" lon="4.79867">
        <ele>172</ele>
        <time>2016-08-26T10:37:46Z</time>
      </trkpt>
      <trkpt lat="45.9324" lon="4.79858">
        <ele>173</ele>
        <time>2016-08-26T10:37:47Z</time>
      </trkpt>
      <trkpt lat="45.93243" lon="4.7985">
        <ele>173</ele>
        <time>2016-08-26T10:37:48Z</time>
      </trkpt>
      <trkpt lat="45.93246" lon="4.79842">
        <ele>173</ele>
        <time>2016-08-26T10:37:49Z</time>
      </trkpt>
      <trkpt lat="45.93249" lon="4.79833">
        <ele>174</ele>
        <time>2016-08-26T10:37:50Z</time>
      </trkpt>
      <trkpt lat="45.93252" lon="4.79825">
        <ele>174</ele>
        <time>2016-08-26T10:37:51Z</time>
      </trkpt>
      <trkpt lat="45.93255" lon="4.79817">
        <ele>174</ele>
        <time>2016-08-26T10:37:52Z</time>
      </trkpt>
      <trkpt lat="45.93257" lon="4.79808">
        <ele>174</ele>
        <time>2016-08-26T10:37:53Z</time>
      </trkpt>
      <trkpt lat="45.9326" lon="4.79801">
        <ele>175</ele>
        <time>2016-08-26T10:37:54Z</time>
      </trkpt>
      <trkpt lat="45.93262" lon="4.79794">
        <ele>175</ele>
        <time>2016-08-26T10:37:55Z</time>
      </trkpt>
      <trkpt lat="45.93265" lon="4.79787">
        <ele>175</ele>
        <time>2016-08-26T10:37:56Z</time>
      </trkpt>
      <trkpt lat="45.93267" lon="4.7978">
        <ele>175</ele>
        <time>2016-08-26T10:37:57Z</time>
      </trkpt>
      <trkpt lat="45.93269" lon="4.79772">
        <ele>175</ele>
        <time>2016-08-26T10:37:58Z</time>
      </trkpt>
      <trkpt lat="45.93272" lon="4.79765">
        <ele>175</ele>
        <time>2016-08-26T10:37:59Z</time>
      </trkpt>
      <trkpt lat="45.93275" lon="4.79757">
        <ele>176</ele>
        <time>2016-08-26T10:38:00Z</time>
      </trkpt>
      <trkpt lat="45.93277" lon="4.79749">
        <ele>177</ele>
        <time>2016-08-26T10:38:01Z</time>
      </trkpt>
      <trkpt lat="45.93279" lon="4.79743">
        <ele>177</ele>
        <time>2016-08-26T10:38:02Z</time>
      </trkpt>
      <trkpt lat="45.93281" lon="4.79735">
        <ele>177</ele>
        <time>2016-08-26T10:38:03Z</time>
      </trkpt>
      <trkpt lat="45.93284" lon="4.79728">
        <ele>177</ele>
        <time>2016-08-26T10:38:04Z</time>
      </trkpt>
      <trkpt lat="45.93286" lon="4.79721">
        <ele>177</ele>
        <time>2016-08-26T10:38:05Z</time>
      </trkpt>
      <trkpt lat="45.93289" lon="4.79714">
        <ele>177</ele>
        <time>2016-08-26T10:38:06Z</time>
      </trkpt>
      <trkpt lat="45.93291" lon="4.79707">
        <ele>177</ele>
        <time>2016-08-26T10:38:07Z</time>
      </trkpt>
      <trkpt lat="45.93294" lon="4.79699">
        <ele>177</ele>
        <time>2016-08-26T10:38:08Z</time>
      </trkpt>
      <trkpt lat="45.93297" lon="4.79692">
        <ele>177</ele>
        <time>2016-08-26T10:38:09Z</time>
      </trkpt>
      <trkpt lat="45.93299" lon="4.79685">
        <ele>177</ele>
        <time>2016-08-26T10:38:10Z</time>
      </trkpt>
      <trkpt lat="45.93301" lon="4.79678">
        <ele>177</ele>
        <time>2016-08-26T10:38:11Z</time>
      </trkpt>
      <trkpt lat="45.93304" lon="4.79671">
        <ele>177</ele>
        <time>2016-08-26T10:38:12Z</time>
      </trkpt>
      <trkpt lat="45.93306" lon="4.79664">
        <ele>177</ele>
        <time>2016-08-26T10:38:13Z</time>
      </trkpt>
      <trkpt lat="45.93308" lon="4.79658">
        <ele>177</ele>
        <time>2016-08-26T10:38:14Z</time>
      </trkpt>
      <trkpt lat="45.9331" lon="4.79651">
        <ele>177</ele>
        <time>2016-08-26T10:38:15Z</time>
      </trkpt>
      <trkpt lat="45.93312" lon="4.79644">
        <ele>177</ele>
        <time>2016-08-26T10:38:16Z</time>
      </trkpt>
      <trkpt lat="45.93314" lon="4.79638">
        <ele>177</ele>
        <time>2016-08-26T10:38:17Z</time>
      </trkpt>
      <trkpt lat="45.93316" lon="4.79631">
        <ele>177</ele>
        <time>2016-08-26T10:38:18Z</time>
      </trkpt>
      <trkpt lat="45.93318" lon="4.79624">
        <ele>177</ele>
        <time>2016-08-26T10:38:19Z</time>
      </trkpt>
      <trkpt lat="45.93321" lon="4.79618">
        <ele>177</ele>
        <time>2016-08-26T10:38:20Z</time>
      </trkpt>
      <trkpt lat="45.93323" lon="4.79611">
        <ele>177</ele>
        <time>2016-08-26T10:38:21Z</time>
      </trkpt>
      <trkpt lat="45.93325" lon="4.79605">
        <ele>177</ele>
        <time>2016-08-26T10:38:22Z</time>
      </trkpt>
      <trkpt lat="45.93327" lon="4.79598">
        <ele>177</ele>
        <time>2016-08-26T10:38:23Z</time>
      </trkpt>
      <trkpt lat="45.9333" lon="4.79592">
        <ele>177</ele>
        <time>2016-08-26T10:38:24Z</time>
      </trkpt>
      <trkpt lat="45.93332" lon="4.79585">
        <ele>177</ele>
        <time>2016-08-26T10:38:25Z</time>
      </trkpt>
      <trkpt lat="45.93334" lon="4.79578">
        <ele>177</ele>
        <time>2016-08-26T10:38:26Z</time>
      </trkpt>
      <trkpt lat="45.93337" lon="4.79571">
        <ele>177</ele>
        <time>2016-08-26T10:38:27Z</time>
      </trkpt>
      <trkpt lat="45.93339" lon="4.79564">
        <ele>177</ele>
        <time>2016-08-26T10:38:28Z</time>
      </trkpt>
      <trkpt lat="45.93342" lon="4.79556">
        <ele>177</ele>
        <time>2016-08-26T10:38:29Z</time>
      </trkpt>
      <trkpt lat="45.93345" lon="4.79548">
        <ele>177</ele>
        <time>2016-08-26T10:38:30Z</time>
      </trkpt>
      <trkpt lat="45.93347" lon="4.7954">
        <ele>177</ele>
        <time>2016-08-26T10:38:31Z</time>
      </trkpt>
      <trkpt lat="45.93351" lon="4.79532">
        <ele>177</ele>
        <time>2016-08-26T10:38:32Z</time>
      </trkpt>
      <trkpt lat="45.93354" lon="4.79525">
        <ele>177</ele>
        <time>2016-08-26T10:38:33Z</time>
      </trkpt>
      <trkpt lat="45.93357" lon="4.79517">
        <ele>177</ele>
        <time>2016-08-26T10:38:34Z</time>
      </trkpt>
      <trkpt lat="45.93359" lon="4.7951">
        <ele>177</ele>
        <time>2016-08-26T10:38:35Z</time>
      </trkpt>
      <trkpt lat="45.93362" lon="4.79502">
        <ele>177</ele>
        <time>2016-08-26T10:38:36Z</time>
      </trkpt>
      <trkpt lat="45.93364" lon="4.79493">
        <ele>176</ele>
        <time>2016-08-26T10:38:37Z</time>
      </trkpt>
      <trkpt lat="45.93368" lon="4.79484">
        <ele>175</ele>
        <time>2016-08-26T10:38:38Z</time>
      </trkpt>
      <trkpt lat="45.93371" lon="4.79476">
        <ele>175</ele>
        <time>2016-08-26T10:38:39Z</time>
      </trkpt>
      <trkpt lat="45.93373" lon="4.79467">
        <ele>175</ele>
        <time>2016-08-26T10:38:40Z</time>
      </trkpt>
      <trkpt lat="45.93377" lon="4.79459">
        <ele>175</ele>
        <time>2016-08-26T10:38:41Z</time>
      </trkpt>
      <trkpt lat="45.9338" lon="4.7945">
        <ele>175</ele>
        <time>2016-08-26T10:38:42Z</time>
      </trkpt>
      <trkpt lat="45.93382" lon="4.79441">
        <ele>175</ele>
        <time>2016-08-26T10:38:43Z</time>
      </trkpt>
      <trkpt lat="45.93385" lon="4.79432">
        <ele>175</ele>
        <time>2016-08-26T10:38:44Z</time>
      </trkpt>
      <trkpt lat="45.93388" lon="4.79423">
        <ele>174</ele>
        <time>2016-08-26T10:38:45Z</time>
      </trkpt>
      <trkpt lat="45.93391" lon="4.79414">
        <ele>173</ele>
        <time>2016-08-26T10:38:46Z</time>
      </trkpt>
      <trkpt lat="45.93393" lon="4.79404">
        <ele>173</ele>
        <time>2016-08-26T10:38:47Z</time>
      </trkpt>
      <trkpt lat="45.93397" lon="4.79395">
        <ele>172</ele>
        <time>2016-08-26T10:38:48Z</time>
      </trkpt>
      <trkpt lat="45.93401" lon="4.79385">
        <ele>172</ele>
        <time>2016-08-26T10:38:49Z</time>
      </trkpt>
      <trkpt lat="45.93405" lon="4.79376">
        <ele>172</ele>
        <time>2016-08-26T10:38:50Z</time>
      </trkpt>
      <trkpt lat="45.93408" lon="4.79366">
        <ele>172</ele>
        <time>2016-08-26T10:38:51Z</time>
      </trkpt>
      <trkpt lat="45.93411" lon="4.79356">
        <ele>172</ele>
        <time>2016-08-26T10:38:52Z</time>
      </trkpt>
      <trkpt lat="45.93414" lon="4.79346">
        <ele>172</ele>
        <time>2016-08-26T10:38:53Z</time>
      </trkpt>
      <trkpt lat="45.93418" lon="4.79337">
        <ele>172</ele>
        <time>2016-08-26T10:38:54Z</time>
      </trkpt>
      <trkpt lat="45.93421" lon="4.79327">
        <ele>172</ele>
        <time>2016-08-26T10:38:55Z</time>
      </trkpt>
      <trkpt lat="45.93423" lon="4.79318">
        <ele>172</ele>
        <time>2016-08-26T10:38:56Z</time>
      </trkpt>
      <trkpt lat="45.93426" lon="4.7931">
        <ele>172</ele>
        <time>2016-08-26T10:38:57Z</time>
      </trkpt>
      <trkpt lat="45.9343" lon="4.79302">
        <ele>173</ele>
        <time>2016-08-26T10:38:58Z</time>
      </trkpt>
      <trkpt lat="45.93432" lon="4.79294">
        <ele>173</ele>
        <time>2016-08-26T10:38:59Z</time>
      </trkpt>
      <trkpt lat="45.93436" lon="4.79286">
        <ele>173</ele>
        <time>2016-08-26T10:39:00Z</time>
      </trkpt>
      <trkpt lat="45.93439" lon="4.79277">
        <ele>172</ele>
        <time>2016-08-26T10:39:01Z</time>
      </trkpt>
      <trkpt lat="45.93441" lon="4.79269">
        <ele>172</ele>
        <time>2016-08-26T10:39:02Z</time>
      </trkpt>
      <trkpt lat="45.93445" lon="4.7926">
        <ele>172</ele>
        <time>2016-08-26T10:39:03Z</time>
      </trkpt>
      <trkpt lat="45.93447" lon="4.7925">
        <ele>172</ele>
        <time>2016-08-26T10:39:04Z</time>
      </trkpt>
      <trkpt lat="45.9345" lon="4.79241">
        <ele>172</ele>
        <time>2016-08-26T10:39:05Z</time>
      </trkpt>
      <trkpt lat="45.93454" lon="4.79232">
        <ele>172</ele>
        <time>2016-08-26T10:39:06Z</time>
      </trkpt>
      <trkpt lat="45.93457" lon="4.79224">
        <ele>172</ele>
        <time>2016-08-26T10:39:07Z</time>
      </trkpt>
      <trkpt lat="45.9346" lon="4.79215">
        <ele>172</ele>
        <time>2016-08-26T10:39:08Z</time>
      </trkpt>
      <trkpt lat="45.93463" lon="4.79206">
        <ele>172</ele>
        <time>2016-08-26T10:39:09Z</time>
      </trkpt>
      <trkpt lat="45.93466" lon="4.79197">
        <ele>172</ele>
        <time>2016-08-26T10:39:10Z</time>
      </trkpt>
      <trkpt lat="45.93469" lon="4.79189">
        <ele>172</ele>
        <time>2016-08-26T10:39:11Z</time>
      </trkpt>
      <trkpt lat="45.93472" lon="4.79181">
        <ele>172</ele>
        <time>2016-08-26T10:39:12Z</time>
      </trkpt>
      <trkpt lat="45.93474" lon="4.79172">
        <ele>172</ele>
        <time>2016-08-26T10:39:13Z</time>
      </trkpt>
      <trkpt lat="45.93477" lon="4.79164">
        <ele>172</ele>
        <time>2016-08-26T10:39:14Z</time>
      </trkpt>
      <trkpt lat="45.9348" lon="4.79156">
        <ele>172</ele>
        <time>2016-08-26T10:39:15Z</time>
      </trkpt>
      <trkpt lat="45.93484" lon="4.79147">
        <ele>172</ele>
        <time>2016-08-26T10:39:16Z</time>
      </trkpt>
      <trkpt lat="45.93487" lon="4.79138">
        <ele>172</ele>
        <time>2016-08-26T10:39:17Z</time>
      </trkpt>
      <trkpt lat="45.93491" lon="4.7913">
        <ele>172</ele>
        <time>2016-08-26T10:39:18Z</time>
      </trkpt>
      <trkpt lat="45.93494" lon="4.79121">
        <ele>172</ele>
        <time>2016-08-26T10:39:19Z</time>
      </trkpt>
      <trkpt lat="45.93497" lon="4.79112">
        <ele>172</ele>
        <time>2016-08-26T10:39:20Z</time>
      </trkpt>
      <trkpt lat="45.935" lon="4.79104">
        <ele>173</ele>
        <time>2016-08-26T10:39:21Z</time>
      </trkpt>
      <trkpt lat="45.93503" lon="4.79095">
        <ele>173</ele>
        <time>2016-08-26T10:39:22Z</time>
      </trkpt>
      <trkpt lat="45.93506" lon="4.79087">
        <ele>173</ele>
        <time>2016-08-26T10:39:23Z</time>
      </trkpt>
      <trkpt lat="45.93509" lon="4.7908">
        <ele>173</ele>
        <time>2016-08-26T10:39:24Z</time>
      </trkpt>
      <trkpt lat="45.93512" lon="4.79072">
        <ele>173</ele>
        <time>2016-08-26T10:39:25Z</time>
      </trkpt>
      <trkpt lat="45.93515" lon="4.79064">
        <ele>173</ele>
        <time>2016-08-26T10:39:26Z</time>
      </trkpt>
      <trkpt lat="45.93518" lon="4.79057">
        <ele>173</ele>
        <time>2016-08-26T10:39:27Z</time>
      </trkpt>
      <trkpt lat="45.93521" lon="4.7905">
        <ele>173</ele>
        <time>2016-08-26T10:39:28Z</time>
      </trkpt>
      <trkpt lat="45.93525" lon="4.79042">
        <ele>173</ele>
        <time>2016-08-26T10:39:29Z</time>
      </trkpt>
      <trkpt lat="45.93528" lon="4.79035">
        <ele>173</ele>
        <time>2016-08-26T10:39:30Z</time>
      </trkpt>
      <trkpt lat="45.9353" lon="4.79027">
        <ele>173</ele>
        <time>2016-08-26T10:39:31Z</time>
      </trkpt>
      <trkpt lat="45.93534" lon="4.7902">
        <ele>173</ele>
        <time>2016-08-26T10:39:32Z</time>
      </trkpt>
      <trkpt lat="45.93536" lon="4.79012">
        <ele>173</ele>
        <time>2016-08-26T10:39:33Z</time>
      </trkpt>
      <trkpt lat="45.9354" lon="4.79004">
        <ele>173</ele>
        <time>2016-08-26T10:39:34Z</time>
      </trkpt>
      <trkpt lat="45.93543" lon="4.78997">
        <ele>172</ele>
        <time>2016-08-26T10:39:35Z</time>
      </trkpt>
      <trkpt lat="45.93547" lon="4.78989">
        <ele>172</ele>
        <time>2016-08-26T10:39:36Z</time>
      </trkpt>
      <trkpt lat="45.93551" lon="4.78981">
        <ele>172</ele>
        <time>2016-08-26T10:39:37Z</time>
      </trkpt>
      <trkpt lat="45.93554" lon="4.78973">
        <ele>172</ele>
        <time>2016-08-26T10:39:38Z</time>
      </trkpt>
      <trkpt lat="45.93556" lon="4.78964">
        <ele>172</ele>
        <time>2016-08-26T10:39:39Z</time>
      </trkpt>
      <trkpt lat="45.93559" lon="4.78954">
        <ele>172</ele>
        <time>2016-08-26T10:39:40Z</time>
      </trkpt>
      <trkpt lat="45.93562" lon="4.78946">
        <ele>172</ele>
        <time>2016-08-26T10:39:41Z</time>
      </trkpt>
      <trkpt lat="45.93566" lon="4.78938">
        <ele>172</ele>
        <time>2016-08-26T10:39:42Z</time>
      </trkpt>
      <trkpt lat="45.9357" lon="4.7893">
        <ele>172</ele>
        <time>2016-08-26T10:39:43Z</time>
      </trkpt>
      <trkpt lat="45.93573" lon="4.78923">
        <ele>172</ele>
        <time>2016-08-26T10:39:44Z</time>
      </trkpt>
      <trkpt lat="45.93576" lon="4.78916">
        <ele>172</ele>
        <time>2016-08-26T10:39:45Z</time>
      </trkpt>
      <trkpt lat="45.93579" lon="4.78909">
        <ele>172</ele>
        <time>2016-08-26T10:39:46Z</time>
      </trkpt>
      <trkpt lat="45.93582" lon="4.78901">
        <ele>172</ele>
        <time>2016-08-26T10:39:47Z</time>
      </trkpt>
      <trkpt lat="45.93585" lon="4.78894">
        <ele>173</ele>
        <time>2016-08-26T10:39:48Z</time>
      </trkpt>
      <trkpt lat="45.93588" lon="4.78887">
        <ele>173</ele>
        <time>2016-08-26T10:39:49Z</time>
      </trkpt>
      <trkpt lat="45.93591" lon="4.7888">
        <ele>173</ele>
        <time>2016-08-26T10:39:50Z</time>
      </trkpt>
      <trkpt lat="45.93594" lon="4.78873">
        <ele>174</ele>
        <time>2016-08-26T10:39:51Z</time>
      </trkpt>
      <trkpt lat="45.93597" lon="4.78866">
        <ele>174</ele>
        <time>2016-08-26T10:39:52Z</time>
      </trkpt>
      <trkpt lat="45.936" lon="4.78859">
        <ele>174</ele>
        <time>2016-08-26T10:39:53Z</time>
      </trkpt>
      <trkpt lat="45.93604" lon="4.78852">
        <ele>174</ele>
        <time>2016-08-26T10:39:54Z</time>
      </trkpt>
      <trkpt lat="45.93607" lon="4.78846">
        <ele>174</ele>
        <time>2016-08-26T10:39:55Z</time>
      </trkpt>
      <trkpt lat="45.93611" lon="4.78839">
        <ele>174</ele>
        <time>2016-08-26T10:39:56Z</time>
      </trkpt>
      <trkpt lat="45.93614" lon="4.78832">
        <ele>173</ele>
        <time>2016-08-26T10:39:57Z</time>
      </trkpt>
      <trkpt lat="45.93618" lon="4.78825">
        <ele>174</ele>
        <time>2016-08-26T10:39:58Z</time>
      </trkpt>
      <trkpt lat="45.93621" lon="4.78818">
        <ele>174</ele>
        <time>2016-08-26T10:39:59Z</time>
      </trkpt>
      <trkpt lat="45.93624" lon="4.7881">
        <ele>174</ele>
        <time>2016-08-26T10:40:00Z</time>
      </trkpt>
      <trkpt lat="45.93627" lon="4.78802">
        <ele>174</ele>
        <time>2016-08-26T10:40:01Z</time>
      </trkpt>
      <trkpt lat="45.9363" lon="4.78795">
        <ele>174</ele>
        <time>2016-08-26T10:40:02Z</time>
      </trkpt>
      <trkpt lat="45.93633" lon="4.78788">
        <ele>174</ele>
        <time>2016-08-26T10:40:03Z</time>
      </trkpt>
      <trkpt lat="45.93636" lon="4.78781">
        <ele>174</ele>
        <time>2016-08-26T10:40:04Z</time>
      </trkpt>
      <trkpt lat="45.93639" lon="4.78774">
        <ele>174</ele>
        <time>2016-08-26T10:40:05Z</time>
      </trkpt>
      <trkpt lat="45.93642" lon="4.78767">
        <ele>174</ele>
        <time>2016-08-26T10:40:06Z</time>
      </trkpt>
      <trkpt lat="45.93645" lon="4.7876">
        <ele>174</ele>
        <time>2016-08-26T10:40:07Z</time>
      </trkpt>
      <trkpt lat="45.93647" lon="4.78753">
        <ele>174</ele>
        <time>2016-08-26T10:40:08Z</time>
      </trkpt>
      <trkpt lat="45.93651" lon="4.78746">
        <ele>174</ele>
        <time>2016-08-26T10:40:09Z</time>
      </trkpt>
      <trkpt lat="45.93654" lon="4.78739">
        <ele>174</ele>
        <time>2016-08-26T10:40:10Z</time>
      </trkpt>
      <trkpt lat="45.93657" lon="4.78732">
        <ele>174</ele>
        <time>2016-08-26T10:40:11Z</time>
      </trkpt>
      <trkpt lat="45.9366" lon="4.78724">
        <ele>174</ele>
        <time>2016-08-26T10:40:12Z</time>
      </trkpt>
      <trkpt lat="45.93663" lon="4.78717">
        <ele>173</ele>
        <time>2016-08-26T10:40:13Z</time>
      </trkpt>
      <trkpt lat="45.93666" lon="4.7871">
        <ele>173</ele>
        <time>2016-08-26T10:40:14Z</time>
      </trkpt>
      <trkpt lat="45.9367" lon="4.78703">
        <ele>175</ele>
        <time>2016-08-26T10:40:15Z</time>
      </trkpt>
      <trkpt lat="45.93673" lon="4.78697">
        <ele>175</ele>
        <time>2016-08-26T10:40:16Z</time>
      </trkpt>
      <trkpt lat="45.93675" lon="4.7869">
        <ele>175</ele>
        <time>2016-08-26T10:40:17Z</time>
      </trkpt>
      <trkpt lat="45.93679" lon="4.78684">
        <ele>175</ele>
        <time>2016-08-26T10:40:18Z</time>
      </trkpt>
      <trkpt lat="45.93681" lon="4.78677">
        <ele>175</ele>
        <time>2016-08-26T10:40:19Z</time>
      </trkpt>
      <trkpt lat="45.93684" lon="4.78671">
        <ele>175</ele>
        <time>2016-08-26T10:40:20Z</time>
      </trkpt>
      <trkpt lat="45.93687" lon="4.78665">
        <ele>175</ele>
        <time>2016-08-26T10:40:21Z</time>
      </trkpt>
      <trkpt lat="45.9369" lon="4.78659">
        <ele>175</ele>
        <time>2016-08-26T10:40:22Z</time>
      </trkpt>
      <trkpt lat="45.93693" lon="4.78652">
        <ele>176</ele>
        <time>2016-08-26T10:40:23Z</time>
      </trkpt>
      <trkpt lat="45.93696" lon="4.78646">
        <ele>176</ele>
        <time>2016-08-26T10:40:24Z</time>
      </trkpt>
      <trkpt lat="45.93699" lon="4.7864">
        <ele>176</ele>
        <time>2016-08-26T10:40:25Z</time>
      </trkpt>
      <trkpt lat="45.93703" lon="4.78635">
        <ele>176</ele>
        <time>2016-08-26T10:40:26Z</time>
      </trkpt>
      <trkpt lat="45.93707" lon="4.7863">
        <ele>176</ele>
        <time>2016-08-26T10:40:27Z</time>
      </trkpt>
      <trkpt lat="45.9371" lon="4.78624">
        <ele>176</ele>
        <time>2016-08-26T10:40:28Z</time>
      </trkpt>
      <trkpt lat="45.93712" lon="4.78618">
        <ele>176</ele>
        <time>2016-08-26T10:40:29Z</time>
      </trkpt>
      <trkpt lat="45.93712" lon="4.78611">
        <ele>176</ele>
        <time>2016-08-26T10:40:30Z</time>
      </trkpt>
      <trkpt lat="45.93713" lon="4.78604">
        <ele>176</ele>
        <time>2016-08-26T10:40:31Z</time>
      </trkpt>
      <trkpt lat="45.93714" lon="4.78597">
        <ele>177</ele>
        <time>2016-08-26T10:40:32Z</time>
      </trkpt>
      <trkpt lat="45.93716" lon="4.7859">
        <ele>177</ele>
        <time>2016-08-26T10:40:33Z</time>
      </trkpt>
      <trkpt lat="45.93718" lon="4.78583">
        <ele>178</ele>
        <time>2016-08-26T10:40:34Z</time>
      </trkpt>
      <trkpt lat="45.93719" lon="4.78577">
        <ele>178</ele>
        <time>2016-08-26T10:40:35Z</time>
      </trkpt>
      <trkpt lat="45.93721" lon="4.7857">
        <ele>178</ele>
        <time>2016-08-26T10:40:36Z</time>
      </trkpt>
      <trkpt lat="45.93724" lon="4.78564">
        <ele>178</ele>
        <time>2016-08-26T10:40:37Z</time>
      </trkpt>
      <trkpt lat="45.93725" lon="4.78556">
        <ele>178</ele>
        <time>2016-08-26T10:40:38Z</time>
      </trkpt>
      <trkpt lat="45.93727" lon="4.78549">
        <ele>178</ele>
        <time>2016-08-26T10:40:39Z</time>
      </trkpt>
      <trkpt lat="45.93729" lon="4.78542">
        <ele>178</ele>
        <time>2016-08-26T10:40:40Z</time>
      </trkpt>
      <trkpt lat="45.93731" lon="4.78535">
        <ele>178</ele>
        <time>2016-08-26T10:40:41Z</time>
      </trkpt>
      <trkpt lat="45.93733" lon="4.78527">
        <ele>179</ele>
        <time>2016-08-26T10:40:42Z</time>
      </trkpt>
      <trkpt lat="45.93736" lon="4.7852">
        <ele>179</ele>
        <time>2016-08-26T10:40:43Z</time>
      </trkpt>
      <trkpt lat="45.93738" lon="4.78513">
        <ele>179</ele>
        <time>2016-08-26T10:40:44Z</time>
      </trkpt>
      <trkpt lat="45.93741" lon="4.78506">
        <ele>180</ele>
        <time>2016-08-26T10:40:45Z</time>
      </trkpt>
      <trkpt lat="45.93743" lon="4.78498">
        <ele>181</ele>
        <time>2016-08-26T10:40:46Z</time>
      </trkpt>
      <trkpt lat="45.93744" lon="4.78491">
        <ele>180</ele>
        <time>2016-08-26T10:40:47Z</time>
      </trkpt>
      <trkpt lat="45.93745" lon="4.78484">
        <ele>180</ele>
        <time>2016-08-26T10:40:48Z</time>
      </trkpt>
      <trkpt lat="45.93747" lon="4.78477">
        <ele>180</ele>
        <time>2016-08-26T10:40:49Z</time>
      </trkpt>
      <trkpt lat="45.93749" lon="4.7847">
        <ele>180</ele>
        <time>2016-08-26T10:40:50Z</time>
      </trkpt>
      <trkpt lat="45.93751" lon="4.78463">
        <ele>184</ele>
        <time>2016-08-26T10:40:51Z</time>
      </trkpt>
      <trkpt lat="45.93753" lon="4.78456">
        <ele>184</ele>
        <time>2016-08-26T10:40:52Z</time>
      </trkpt>
      <trkpt lat="45.93755" lon="4.78449">
        <ele>184</ele>
        <time>2016-08-26T10:40:53Z</time>
      </trkpt>
      <trkpt lat="45.93757" lon="4.78442">
        <ele>183</ele>
        <time>2016-08-26T10:40:54Z</time>
      </trkpt>
      <trkpt lat="45.93759" lon="4.78435">
        <ele>183</ele>
        <time>2016-08-26T10:40:55Z</time>
      </trkpt>
      <trkpt lat="45.93761" lon="4.78428">
        <ele>183</ele>
        <time>2016-08-26T10:40:56Z</time>
      </trkpt>
      <trkpt lat="45.93762" lon="4.78422">
        <ele>183</ele>
        <time>2016-08-26T10:40:57Z</time>
      </trkpt>
      <trkpt lat="45.93764" lon="4.78416">
        <ele>182</ele>
        <time>2016-08-26T10:40:58Z</time>
      </trkpt>
      <trkpt lat="45.93766" lon="4.78409">
        <ele>183</ele>
        <time>2016-08-26T10:40:59Z</time>
      </trkpt>
      <trkpt lat="45.93768" lon="4.78402">
        <ele>183</ele>
        <time>2016-08-26T10:41:00Z</time>
      </trkpt>
      <trkpt lat="45.93769" lon="4.78394">
        <ele>183</ele>
        <time>2016-08-26T10:41:01Z</time>
      </trkpt>
      <trkpt lat="45.93772" lon="4.78387">
        <ele>183</ele>
        <time>2016-08-26T10:41:02Z</time>
      </trkpt>
      <trkpt lat="45.93774" lon="4.78381">
        <ele>183</ele>
        <time>2016-08-26T10:41:03Z</time>
      </trkpt>
      <trkpt lat="45.93776" lon="4.78374">
        <ele>184</ele>
        <time>2016-08-26T10:41:04Z</time>
      </trkpt>
      <trkpt lat="45.93778" lon="4.78366">
        <ele>184</ele>
        <time>2016-08-26T10:41:05Z</time>
      </trkpt>
      <trkpt lat="45.93779" lon="4.78359">
        <ele>184</ele>
        <time>2016-08-26T10:41:06Z</time>
      </trkpt>
      <trkpt lat="45.9378" lon="4.78351">
        <ele>184</ele>
        <time>2016-08-26T10:41:07Z</time>
      </trkpt>
      <trkpt lat="45.93782" lon="4.78344">
        <ele>184</ele>
        <time>2016-08-26T10:41:08Z</time>
      </trkpt>
      <trkpt lat="45.93785" lon="4.78338">
        <ele>184</ele>
        <time>2016-08-26T10:41:09Z</time>
      </trkpt>
      <trkpt lat="45.93787" lon="4.78332">
        <ele>183</ele>
        <time>2016-08-26T10:41:10Z</time>
      </trkpt>
      <trkpt lat="45.93789" lon="4.78325">
        <ele>183</ele>
        <time>2016-08-26T10:41:11Z</time>
      </trkpt>
      <trkpt lat="45.93791" lon="4.78318">
        <ele>183</ele>
        <time>2016-08-26T10:41:12Z</time>
      </trkpt>
      <trkpt lat="45.93793" lon="4.78311">
        <ele>183</ele>
        <time>2016-08-26T10:41:13Z</time>
      </trkpt>
      <trkpt lat="45.93795" lon="4.78304">
        <ele>183</ele>
        <time>2016-08-26T10:41:14Z</time>
      </trkpt>
      <trkpt lat="45.93797" lon="4.78296">
        <ele>183</ele>
        <time>2016-08-26T10:41:15Z</time>
      </trkpt>
      <trkpt lat="45.938" lon="4.78289">
        <ele>183</ele>
        <time>2016-08-26T10:41:16Z</time>
      </trkpt>
      <trkpt lat="45.93803" lon="4.78282">
        <ele>183</ele>
        <time>2016-08-26T10:41:17Z</time>
      </trkpt>
      <trkpt lat="45.93807" lon="4.78276">
        <ele>183</ele>
        <time>2016-08-26T10:41:18Z</time>
      </trkpt>
      <trkpt lat="45.9381" lon="4.78268">
        <ele>183</ele>
        <time>2016-08-26T10:41:19Z</time>
      </trkpt>
      <trkpt lat="45.93812" lon="4.7826">
        <ele>184</ele>
        <time>2016-08-26T10:41:20Z</time>
      </trkpt>
      <trkpt lat="45.93814" lon="4.78253">
        <ele>184</ele>
        <time>2016-08-26T10:41:21Z</time>
      </trkpt>
      <trkpt lat="45.93816" lon="4.78245">
        <ele>183</ele>
        <time>2016-08-26T10:41:22Z</time>
      </trkpt>
      <trkpt lat="45.93818" lon="4.78238">
        <ele>183</ele>
        <time>2016-08-26T10:41:23Z</time>
      </trkpt>
      <trkpt lat="45.93819" lon="4.78231">
        <ele>183</ele>
        <time>2016-08-26T10:41:24Z</time>
      </trkpt>
      <trkpt lat="45.93821" lon="4.78224">
        <ele>182</ele>
        <time>2016-08-26T10:41:25Z</time>
      </trkpt>
      <trkpt lat="45.93824" lon="4.78216">
        <ele>182</ele>
        <time>2016-08-26T10:41:26Z</time>
      </trkpt>
      <trkpt lat="45.93827" lon="4.7821">
        <ele>182</ele>
        <time>2016-08-26T10:41:27Z</time>
      </trkpt>
      <trkpt lat="45.93829" lon="4.78203">
        <ele>182</ele>
        <time>2016-08-26T10:41:28Z</time>
      </trkpt>
      <trkpt lat="45.93831" lon="4.78196">
        <ele>182</ele>
        <time>2016-08-26T10:41:29Z</time>
      </trkpt>
      <trkpt lat="45.93833" lon="4.78189">
        <ele>182</ele>
        <time>2016-08-26T10:41:30Z</time>
      </trkpt>
      <trkpt lat="45.93835" lon="4.78181">
        <ele>184</ele>
        <time>2016-08-26T10:41:31Z</time>
      </trkpt>
      <trkpt lat="45.93837" lon="4.78174">
        <ele>184</ele>
        <time>2016-08-26T10:41:32Z</time>
      </trkpt>
      <trkpt lat="45.93838" lon="4.78166">
        <ele>183</ele>
        <time>2016-08-26T10:41:33Z</time>
      </trkpt>
      <trkpt lat="45.9384" lon="4.78158">
        <ele>183</ele>
        <time>2016-08-26T10:41:34Z</time>
      </trkpt>
      <trkpt lat="45.93842" lon="4.7815">
        <ele>184</ele>
        <time>2016-08-26T10:41:35Z</time>
      </trkpt>
      <trkpt lat="45.93844" lon="4.78143">
        <ele>185</ele>
        <time>2016-08-26T10:41:36Z</time>
      </trkpt>
      <trkpt lat="45.93847" lon="4.78135">
        <ele>185</ele>
        <time>2016-08-26T10:41:37Z</time>
      </trkpt>
      <trkpt lat="45.93849" lon="4.78127">
        <ele>185</ele>
        <time>2016-08-26T10:41:38Z</time>
      </trkpt>
      <trkpt lat="45.93852" lon="4.78119">
        <ele>185</ele>
        <time>2016-08-26T10:41:39Z</time>
      </trkpt>
      <trkpt lat="45.93854" lon="4.7811">
        <ele>185</ele>
        <time>2016-08-26T10:41:40Z</time>
      </trkpt>
      <trkpt lat="45.93856" lon="4.78102">
        <ele>184</ele>
        <time>2016-08-26T10:41:41Z</time>
      </trkpt>
      <trkpt lat="45.93857" lon="4.78094">
        <ele>184</ele>
        <time>2016-08-26T10:41:42Z</time>
      </trkpt>
      <trkpt lat="45.93859" lon="4.78086">
        <ele>184</ele>
        <time>2016-08-26T10:41:43Z</time>
      </trkpt>
      <trkpt lat="45.9386" lon="4.78078">
        <ele>183</ele>
        <time>2016-08-26T10:41:44Z</time>
      </trkpt>
      <trkpt lat="45.93861" lon="4.7807">
        <ele>183</ele>
        <time>2016-08-26T10:41:45Z</time>
      </trkpt>
      <trkpt lat="45.93863" lon="4.78062">
        <ele>183</ele>
        <time>2016-08-26T10:41:46Z</time>
      </trkpt>
      <trkpt lat="45.93863" lon="4.78054">
        <ele>183</ele>
        <time>2016-08-26T10:41:47Z</time>
      </trkpt>
      <trkpt lat="45.93865" lon="4.78047">
        <ele>183</ele>
        <time>2016-08-26T10:41:48Z</time>
      </trkpt>
      <trkpt lat="45.93868" lon="4.78039">
        <ele>183</ele>
        <time>2016-08-26T10:41:49Z</time>
      </trkpt>
      <trkpt lat="45.93871" lon="4.78032">
        <ele>183</ele>
        <time>2016-08-26T10:41:50Z</time>
      </trkpt>
      <trkpt lat="45.93873" lon="4.78024">
        <ele>183</ele>
        <time>2016-08-26T10:41:51Z</time>
      </trkpt>
      <trkpt lat="45.93875" lon="4.78016">
        <ele>183</ele>
        <time>2016-08-26T10:41:52Z</time>
      </trkpt>
      <trkpt lat="45.93875" lon="4.78007">
        <ele>183</ele>
        <time>2016-08-26T10:41:53Z</time>
      </trkpt>
      <trkpt lat="45.93875" lon="4.77999">
        <ele>180</ele>
        <time>2016-08-26T10:41:54Z</time>
      </trkpt>
      <trkpt lat="45.93876" lon="4.7799">
        <ele>180</ele>
        <time>2016-08-26T10:41:55Z</time>
      </trkpt>
      <trkpt lat="45.93878" lon="4.77981">
        <ele>180</ele>
        <time>2016-08-26T10:41:56Z</time>
      </trkpt>
      <trkpt lat="45.93881" lon="4.77973">
        <ele>180</ele>
        <time>2016-08-26T10:41:57Z</time>
      </trkpt>
      <trkpt lat="45.93883" lon="4.77964">
        <ele>180</ele>
        <time>2016-08-26T10:41:58Z</time>
      </trkpt>
      <trkpt lat="45.93885" lon="4.77955">
        <ele>179</ele>
        <time>2016-08-26T10:41:59Z</time>
      </trkpt>
      <trkpt lat="45.93888" lon="4.77946">
        <ele>179</ele>
        <time>2016-08-26T10:42:00Z</time>
      </trkpt>
      <trkpt lat="45.93891" lon="4.77935">
        <ele>180</ele>
        <time>2016-08-26T10:42:01Z</time>
      </trkpt>
      <trkpt lat="45.93893" lon="4.77925">
        <ele>180</ele>
        <time>2016-08-26T10:42:02Z</time>
      </trkpt>
      <trkpt lat="45.93895" lon="4.77916">
        <ele>178</ele>
        <time>2016-08-26T10:42:03Z</time>
      </trkpt>
      <trkpt lat="45.93899" lon="4.77906">
        <ele>178</ele>
        <time>2016-08-26T10:42:04Z</time>
      </trkpt>
      <trkpt lat="45.93902" lon="4.77896">
        <ele>177</ele>
        <time>2016-08-26T10:42:05Z</time>
      </trkpt>
      <trkpt lat="45.93905" lon="4.77886">
        <ele>177</ele>
        <time>2016-08-26T10:42:06Z</time>
      </trkpt>
      <trkpt lat="45.93907" lon="4.77877">
        <ele>176</ele>
        <time>2016-08-26T10:42:07Z</time>
      </trkpt>
      <trkpt lat="45.93909" lon="4.77867">
        <ele>176</ele>
        <time>2016-08-26T10:42:08Z</time>
      </trkpt>
      <trkpt lat="45.93912" lon="4.77857">
        <ele>176</ele>
        <time>2016-08-26T10:42:09Z</time>
      </trkpt>
      <trkpt lat="45.93915" lon="4.77846">
        <ele>176</ele>
        <time>2016-08-26T10:42:10Z</time>
      </trkpt>
      <trkpt lat="45.93917" lon="4.77836">
        <ele>179</ele>
        <time>2016-08-26T10:42:11Z</time>
      </trkpt>
      <trkpt lat="45.9392" lon="4.77825">
        <ele>179</ele>
        <time>2016-08-26T10:42:12Z</time>
      </trkpt>
      <trkpt lat="45.93923" lon="4.77814">
        <ele>180</ele>
        <time>2016-08-26T10:42:13Z</time>
      </trkpt>
      <trkpt lat="45.93926" lon="4.77803">
        <ele>180</ele>
        <time>2016-08-26T10:42:14Z</time>
      </trkpt>
      <trkpt lat="45.9393" lon="4.77792">
        <ele>179</ele>
        <time>2016-08-26T10:42:15Z</time>
      </trkpt>
      <trkpt lat="45.93933" lon="4.77782">
        <ele>179</ele>
        <time>2016-08-26T10:42:16Z</time>
      </trkpt>
      <trkpt lat="45.93936" lon="4.77772">
        <ele>178</ele>
        <time>2016-08-26T10:42:17Z</time>
      </trkpt>
      <trkpt lat="45.9394" lon="4.77762">
        <ele>177</ele>
        <time>2016-08-26T10:42:18Z</time>
      </trkpt>
      <trkpt lat="45.93943" lon="4.77752">
        <ele>177</ele>
        <time>2016-08-26T10:42:19Z</time>
      </trkpt>
      <trkpt lat="45.93947" lon="4.77743">
        <ele>176</ele>
        <time>2016-08-26T10:42:20Z</time>
      </trkpt>
      <trkpt lat="45.93951" lon="4.77735">
        <ele>177</ele>
        <time>2016-08-26T10:42:21Z</time>
      </trkpt>
      <trkpt lat="45.93954" lon="4.77726">
        <ele>177</ele>
        <time>2016-08-26T10:42:22Z</time>
      </trkpt>
      <trkpt lat="45.93956" lon="4.77717">
        <ele>178</ele>
        <time>2016-08-26T10:42:23Z</time>
      </trkpt>
      <trkpt lat="45.93959" lon="4.77708">
        <ele>178</ele>
        <time>2016-08-26T10:42:24Z</time>
      </trkpt>
      <trkpt lat="45.93961" lon="4.77699">
        <ele>178</ele>
        <time>2016-08-26T10:42:25Z</time>
      </trkpt>
      <trkpt lat="45.93964" lon="4.77691">
        <ele>179</ele>
        <time>2016-08-26T10:42:26Z</time>
      </trkpt>
      <trkpt lat="45.93966" lon="4.77683">
        <ele>179</ele>
        <time>2016-08-26T10:42:27Z</time>
      </trkpt>
      <trkpt lat="45.93969" lon="4.77674">
        <ele>180</ele>
        <time>2016-08-26T10:42:28Z</time>
      </trkpt>
      <trkpt lat="45.93971" lon="4.77665">
        <ele>180</ele>
        <time>2016-08-26T10:42:29Z</time>
      </trkpt>
      <trkpt lat="45.93973" lon="4.77656">
        <ele>180</ele>
        <time>2016-08-26T10:42:30Z</time>
      </trkpt>
      <trkpt lat="45.93975" lon="4.77647">
        <ele>180</ele>
        <time>2016-08-26T10:42:31Z</time>
      </trkpt>
      <trkpt lat="45.93977" lon="4.77637">
        <ele>180</ele>
        <time>2016-08-26T10:42:32Z</time>
      </trkpt>
      <trkpt lat="45.9398" lon="4.77628">
        <ele>180</ele>
        <time>2016-08-26T10:42:33Z</time>
      </trkpt>
      <trkpt lat="45.93981" lon="4.77619">
        <ele>180</ele>
        <time>2016-08-26T10:42:34Z</time>
      </trkpt>
      <trkpt lat="45.93982" lon="4.7761">
        <ele>180</ele>
        <time>2016-08-26T10:42:35Z</time>
      </trkpt>
      <trkpt lat="45.93983" lon="4.77601">
        <ele>181</ele>
        <time>2016-08-26T10:42:36Z</time>
      </trkpt>
      <trkpt lat="45.93985" lon="4.77592">
        <ele>182</ele>
        <time>2016-08-26T10:42:37Z</time>
      </trkpt>
      <trkpt lat="45.93986" lon="4.77583">
        <ele>182</ele>
        <time>2016-08-26T10:42:38Z</time>
      </trkpt>
      <trkpt lat="45.93988" lon="4.77574">
        <ele>182</ele>
        <time>2016-08-26T10:42:39Z</time>
      </trkpt>
      <trkpt lat="45.9399" lon="4.77566">
        <ele>181</ele>
        <time>2016-08-26T10:42:40Z</time>
      </trkpt>
      <trkpt lat="45.93991" lon="4.77558">
        <ele>180</ele>
        <time>2016-08-26T10:42:41Z</time>
      </trkpt>
      <trkpt lat="45.93993" lon="4.77549">
        <ele>179</ele>
        <time>2016-08-26T10:42:42Z</time>
      </trkpt>
      <trkpt lat="45.93995" lon="4.77541">
        <ele>179</ele>
        <time>2016-08-26T10:42:43Z</time>
      </trkpt>
      <trkpt lat="45.93997" lon="4.77532">
        <ele>179</ele>
        <time>2016-08-26T10:42:44Z</time>
      </trkpt>
      <trkpt lat="45.93998" lon="4.77523">
        <ele>179</ele>
        <time>2016-08-26T10:42:45Z</time>
      </trkpt>
      <trkpt lat="45.93999" lon="4.77515">
        <ele>180</ele>
        <time>2016-08-26T10:42:46Z</time>
      </trkpt>
      <trkpt lat="45.94001" lon="4.77506">
        <ele>185</ele>
        <time>2016-08-26T10:42:47Z</time>
      </trkpt>
      <trkpt lat="45.94003" lon="4.77497">
        <ele>184</ele>
        <time>2016-08-26T10:42:48Z</time>
      </trkpt>
      <trkpt lat="45.94004" lon="4.77488">
        <ele>185</ele>
        <time>2016-08-26T10:42:49Z</time>
      </trkpt>
      <trkpt lat="45.94006" lon="4.77479">
        <ele>185</ele>
        <time>2016-08-26T10:42:50Z</time>
      </trkpt>
      <trkpt lat="45.94007" lon="4.77469">
        <ele>185</ele>
        <time>2016-08-26T10:42:51Z</time>
      </trkpt>
      <trkpt lat="45.94008" lon="4.77459">
        <ele>185</ele>
        <time>2016-08-26T10:42:52Z</time>
      </trkpt>
      <trkpt lat="45.9401" lon="4.7745">
        <ele>184</ele>
        <time>2016-08-26T10:42:53Z</time>
      </trkpt>
      <trkpt lat="45.94012" lon="4.77441">
        <ele>184</ele>
        <time>2016-08-26T10:42:54Z</time>
      </trkpt>
      <trkpt lat="45.94014" lon="4.77432">
        <ele>183</ele>
        <time>2016-08-26T10:42:55Z</time>
      </trkpt>
      <trkpt lat="45.94016" lon="4.77424">
        <ele>182</ele>
        <time>2016-08-26T10:42:56Z</time>
      </trkpt>
      <trkpt lat="45.94017" lon="4.77415">
        <ele>179</ele>
        <time>2016-08-26T10:42:57Z</time>
      </trkpt>
      <trkpt lat="45.94018" lon="4.77407">
        <ele>179</ele>
        <time>2016-08-26T10:42:58Z</time>
      </trkpt>
      <trkpt lat="45.94019" lon="4.77399">
        <ele>180</ele>
        <time>2016-08-26T10:42:59Z</time>
      </trkpt>
      <trkpt lat="45.9402" lon="4.7739">
        <ele>180</ele>
        <time>2016-08-26T10:43:00Z</time>
      </trkpt>
      <trkpt lat="45.9402" lon="4.77382">
        <ele>180</ele>
        <time>2016-08-26T10:43:01Z</time>
      </trkpt>
      <trkpt lat="45.94021" lon="4.77373">
        <ele>180</ele>
        <time>2016-08-26T10:43:02Z</time>
      </trkpt>
      <trkpt lat="45.94022" lon="4.77364">
        <ele>179</ele>
        <time>2016-08-26T10:43:03Z</time>
      </trkpt>
      <trkpt lat="45.94024" lon="4.77355">
        <ele>179</ele>
        <time>2016-08-26T10:43:04Z</time>
      </trkpt>
      <trkpt lat="45.94024" lon="4.77345">
        <ele>178</ele>
        <time>2016-08-26T10:43:05Z</time>
      </trkpt>
      <trkpt lat="45.94024" lon="4.77336">
        <ele>178</ele>
        <time>2016-08-26T10:43:06Z</time>
      </trkpt>
      <trkpt lat="45.94025" lon="4.77327">
        <ele>176</ele>
        <time>2016-08-26T10:43:07Z</time>
      </trkpt>
      <trkpt lat="45.94025" lon="4.77319">
        <ele>176</ele>
        <time>2016-08-26T10:43:08Z</time>
      </trkpt>
      <trkpt lat="45.94026" lon="4.7731">
        <ele>176</ele>
        <time>2016-08-26T10:43:09Z</time>
      </trkpt>
      <trkpt lat="45.94026" lon="4.77302">
        <ele>176</ele>
        <time>2016-08-26T10:43:10Z</time>
      </trkpt>
      <trkpt lat="45.94026" lon="4.77295">
        <ele>176</ele>
        <time>2016-08-26T10:43:11Z</time>
      </trkpt>
      <trkpt lat="45.94026" lon="4.77288">
        <ele>176</ele>
        <time>2016-08-26T10:43:12Z</time>
      </trkpt>
      <trkpt lat="45.94027" lon="4.7728">
        <ele>176</ele>
        <time>2016-08-26T10:43:13Z</time>
      </trkpt>
      <trkpt lat="45.94027" lon="4.77273">
        <ele>176</ele>
        <time>2016-08-26T10:43:14Z</time>
      </trkpt>
      <trkpt lat="45.94027" lon="4.77267">
        <ele>175</ele>
        <time>2016-08-26T10:43:15Z</time>
      </trkpt>
      <trkpt lat="45.94028" lon="4.77261">
        <ele>175</ele>
        <time>2016-08-26T10:43:16Z</time>
      </trkpt>
      <trkpt lat="45.94029" lon="4.77254">
        <ele>175</ele>
        <time>2016-08-26T10:43:17Z</time>
      </trkpt>
      <trkpt lat="45.94029" lon="4.77247">
        <ele>174</ele>
        <time>2016-08-26T10:43:18Z</time>
      </trkpt>
      <trkpt lat="45.9403" lon="4.7724">
        <ele>174</ele>
        <time>2016-08-26T10:43:19Z</time>
      </trkpt>
      <trkpt lat="45.94031" lon="4.77233">
        <ele>174</ele>
        <time>2016-08-26T10:43:20Z</time>
      </trkpt>
      <trkpt lat="45.94033" lon="4.77226">
        <ele>175</ele>
        <time>2016-08-26T10:43:21Z</time>
      </trkpt>
      <trkpt lat="45.94033" lon="4.77218">
        <ele>175</ele>
        <time>2016-08-26T10:43:22Z</time>
      </trkpt>
      <trkpt lat="45.94034" lon="4.77211">
        <ele>175</ele>
        <time>2016-08-26T10:43:23Z</time>
      </trkpt>
      <trkpt lat="45.94035" lon="4.77203">
        <ele>175</ele>
        <time>2016-08-26T10:43:24Z</time>
      </trkpt>
      <trkpt lat="45.94036" lon="4.77195">
        <ele>175</ele>
        <time>2016-08-26T10:43:25Z</time>
      </trkpt>
      <trkpt lat="45.94038" lon="4.77188">
        <ele>175</ele>
        <time>2016-08-26T10:43:26Z</time>
      </trkpt>
      <trkpt lat="45.94039" lon="4.7718">
        <ele>175</ele>
        <time>2016-08-26T10:43:27Z</time>
      </trkpt>
      <trkpt lat="45.94039" lon="4.77172">
        <ele>175</ele>
        <time>2016-08-26T10:43:28Z</time>
      </trkpt>
      <trkpt lat="45.9404" lon="4.77165">
        <ele>175</ele>
        <time>2016-08-26T10:43:29Z</time>
      </trkpt>
      <trkpt lat="45.94042" lon="4.77157">
        <ele>175</ele>
        <time>2016-08-26T10:43:30Z</time>
      </trkpt>
      <trkpt lat="45.94042" lon="4.77148">
        <ele>175</ele>
        <time>2016-08-26T10:43:31Z</time>
      </trkpt>
      <trkpt lat="45.94043" lon="4.7714">
        <ele>175</ele>
        <time>2016-08-26T10:43:32Z</time>
      </trkpt>
      <trkpt lat="45.94045" lon="4.77132">
        <ele>175</ele>
        <time>2016-08-26T10:43:33Z</time>
      </trkpt>
      <trkpt lat="45.94046" lon="4.77123">
        <ele>175</ele>
        <time>2016-08-26T10:43:34Z</time>
      </trkpt>
      <trkpt lat="45.94046" lon="4.77115">
        <ele>175</ele>
        <time>2016-08-26T10:43:35Z</time>
      </trkpt>
      <trkpt lat="45.94047" lon="4.77106">
        <ele>175</ele>
        <time>2016-08-26T10:43:36Z</time>
      </trkpt>
      <trkpt lat="45.94049" lon="4.77095">
        <ele>175</ele>
        <time>2016-08-26T10:43:37Z</time>
      </trkpt>
      <trkpt lat="45.94049" lon="4.77085">
        <ele>175</ele>
        <time>2016-08-26T10:43:38Z</time>
      </trkpt>
      <trkpt lat="45.94051" lon="4.77077">
        <ele>175</ele>
        <time>2016-08-26T10:43:39Z</time>
      </trkpt>
      <trkpt lat="45.94052" lon="4.77068">
        <ele>175</ele>
        <time>2016-08-26T10:43:40Z</time>
      </trkpt>
      <trkpt lat="45.94054" lon="4.77059">
        <ele>175</ele>
        <time>2016-08-26T10:43:41Z</time>
      </trkpt>
      <trkpt lat="45.94055" lon="4.77049">
        <ele>175</ele>
        <time>2016-08-26T10:43:42Z</time>
      </trkpt>
      <trkpt lat="45.94056" lon="4.7704">
        <ele>175</ele>
        <time>2016-08-26T10:43:43Z</time>
      </trkpt>
      <trkpt lat="45.94057" lon="4.77031">
        <ele>175</ele>
        <time>2016-08-26T10:43:44Z</time>
      </trkpt>
      <trkpt lat="45.94058" lon="4.77023">
        <ele>175</ele>
        <time>2016-08-26T10:43:45Z</time>
      </trkpt>
      <trkpt lat="45.94059" lon="4.77015">
        <ele>175</ele>
        <time>2016-08-26T10:43:46Z</time>
      </trkpt>
      <trkpt lat="45.9406" lon="4.77007">
        <ele>175</ele>
        <time>2016-08-26T10:43:47Z</time>
      </trkpt>
      <trkpt lat="45.94063" lon="4.77">
        <ele>175</ele>
        <time>2016-08-26T10:43:48Z</time>
      </trkpt>
      <trkpt lat="45.94065" lon="4.76993">
        <ele>175</ele>
        <time>2016-08-26T10:43:49Z</time>
      </trkpt>
      <trkpt lat="45.94067" lon="4.76986">
        <ele>175</ele>
        <time>2016-08-26T10:43:50Z</time>
      </trkpt>
      <trkpt lat="45.94069" lon="4.76981">
        <ele>175</ele>
        <time>2016-08-26T10:43:51Z</time>
      </trkpt>
      <trkpt lat="45.9407" lon="4.76974">
        <ele>175</ele>
        <time>2016-08-26T10:43:52Z</time>
      </trkpt>
      <trkpt lat="45.9407" lon="4.76967">
        <ele>175</ele>
        <time>2016-08-26T10:43:53Z</time>
      </trkpt>
      <trkpt lat="45.94068" lon="4.7696">
        <ele>174</ele>
        <time>2016-08-26T10:43:54Z</time>
      </trkpt>
      <trkpt lat="45.94065" lon="4.76955">
        <ele>174</ele>
        <time>2016-08-26T10:43:55Z</time>
      </trkpt>
      <trkpt lat="45.94061" lon="4.76951">
        <ele>174</ele>
        <time>2016-08-26T10:43:56Z</time>
      </trkpt>
      <trkpt lat="45.94056" lon="4.76946">
        <ele>174</ele>
        <time>2016-08-26T10:43:57Z</time>
      </trkpt>
      <trkpt lat="45.94053" lon="4.7694">
        <ele>174</ele>
        <time>2016-08-26T10:43:58Z</time>
      </trkpt>
      <trkpt lat="45.94049" lon="4.76933">
        <ele>174</ele>
        <time>2016-08-26T10:43:59Z</time>
      </trkpt>
      <trkpt lat="45.94047" lon="4.76926">
        <ele>174</ele>
        <time>2016-08-26T10:44:00Z</time>
      </trkpt>
      <trkpt lat="45.94045" lon="4.76918">
        <ele>174</ele>
        <time>2016-08-26T10:44:01Z</time>
      </trkpt>
      <trkpt lat="45.94043" lon="4.7691">
        <ele>173</ele>
        <time>2016-08-26T10:44:02Z</time>
      </trkpt>
      <trkpt lat="45.9404" lon="4.76903">
        <ele>173</ele>
        <time>2016-08-26T10:44:03Z</time>
      </trkpt>
      <trkpt lat="45.94038" lon="4.76895">
        <ele>173</ele>
        <time>2016-08-26T10:44:04Z</time>
      </trkpt>
      <trkpt lat="45.94035" lon="4.76887">
        <ele>173</ele>
        <time>2016-08-26T10:44:05Z</time>
      </trkpt>
      <trkpt lat="45.94031" lon="4.7688">
        <ele>173</ele>
        <time>2016-08-26T10:44:06Z</time>
      </trkpt>
      <trkpt lat="45.94028" lon="4.76874">
        <ele>173</ele>
        <time>2016-08-26T10:44:07Z</time>
      </trkpt>
      <trkpt lat="45.94024" lon="4.76867">
        <ele>173</ele>
        <time>2016-08-26T10:44:08Z</time>
      </trkpt>
      <trkpt lat="45.94021" lon="4.7686">
        <ele>172</ele>
        <time>2016-08-26T10:44:09Z</time>
      </trkpt>
      <trkpt lat="45.94017" lon="4.76854">
        <ele>172</ele>
        <time>2016-08-26T10:44:10Z</time>
      </trkpt>
      <trkpt lat="45.94014" lon="4.76848">
        <ele>172</ele>
        <time>2016-08-26T10:44:11Z</time>
      </trkpt>
      <trkpt lat="45.94012" lon="4.76841">
        <ele>172</ele>
        <time>2016-08-26T10:44:12Z</time>
      </trkpt>
      <trkpt lat="45.9401" lon="4.76833">
        <ele>172</ele>
        <time>2016-08-26T10:44:13Z</time>
      </trkpt>
      <trkpt lat="45.94009" lon="4.76825">
        <ele>172</ele>
        <time>2016-08-26T10:44:14Z</time>
      </trkpt>
      <trkpt lat="45.94007" lon="4.76817">
        <ele>172</ele>
        <time>2016-08-26T10:44:15Z</time>
      </trkpt>
      <trkpt lat="45.94006" lon="4.76808">
        <ele>172</ele>
        <time>2016-08-26T10:44:16Z</time>
      </trkpt>
      <trkpt lat="45.94005" lon="4.76799">
        <ele>173</ele>
        <time>2016-08-26T10:44:17Z</time>
      </trkpt>
      <trkpt lat="45.94005" lon="4.7679">
        <ele>173</ele>
        <time>2016-08-26T10:44:18Z</time>
      </trkpt>
      <trkpt lat="45.94006" lon="4.76781">
        <ele>173</ele>
        <time>2016-08-26T10:44:19Z</time>
      </trkpt>
      <trkpt lat="45.94007" lon="4.76773">
        <ele>173</ele>
        <time>2016-08-26T10:44:20Z</time>
      </trkpt>
      <trkpt lat="45.94009" lon="4.76764">
        <ele>173</ele>
        <time>2016-08-26T10:44:21Z</time>
      </trkpt>
      <trkpt lat="45.94011" lon="4.76756">
        <ele>173</ele>
        <time>2016-08-26T10:44:22Z</time>
      </trkpt>
      <trkpt lat="45.94011" lon="4.76749">
        <ele>173</ele>
        <time>2016-08-26T10:44:23Z</time>
      </trkpt>
      <trkpt lat="45.94012" lon="4.76742">
        <ele>173</ele>
        <time>2016-08-26T10:44:24Z</time>
      </trkpt>
      <trkpt lat="45.94014" lon="4.76735">
        <ele>173</ele>
        <time>2016-08-26T10:44:25Z</time>
      </trkpt>
      <trkpt lat="45.94017" lon="4.76728">
        <ele>173</ele>
        <time>2016-08-26T10:44:26Z</time>
      </trkpt>
      <trkpt lat="45.94018" lon="4.7672">
        <ele>173</ele>
        <time>2016-08-26T10:44:27Z</time>
      </trkpt>
      <trkpt lat="45.9402" lon="4.76712">
        <ele>173</ele>
        <time>2016-08-26T10:44:28Z</time>
      </trkpt>
      <trkpt lat="45.94022" lon="4.76704">
        <ele>173</ele>
        <time>2016-08-26T10:44:29Z</time>
      </trkpt>
      <trkpt lat="45.94024" lon="4.76695">
        <ele>173</ele>
        <time>2016-08-26T10:44:30Z</time>
      </trkpt>
      <trkpt lat="45.94025" lon="4.76686">
        <ele>173</ele>
        <time>2016-08-26T10:44:31Z</time>
      </trkpt>
      <trkpt lat="45.94025" lon="4.76676">
        <ele>173</ele>
        <time>2016-08-26T10:44:32Z</time>
      </trkpt>
      <trkpt lat="45.94024" lon="4.76668">
        <ele>173</ele>
        <time>2016-08-26T10:44:33Z</time>
      </trkpt>
      <trkpt lat="45.94023" lon="4.7666">
        <ele>172</ele>
        <time>2016-08-26T10:44:34Z</time>
      </trkpt>
      <trkpt lat="45.94022" lon="4.76651">
        <ele>172</ele>
        <time>2016-08-26T10:44:35Z</time>
      </trkpt>
      <trkpt lat="45.94021" lon="4.76643">
        <ele>172</ele>
        <time>2016-08-26T10:44:36Z</time>
      </trkpt>
      <trkpt lat="45.94019" lon="4.76634">
        <ele>172</ele>
        <time>2016-08-26T10:44:37Z</time>
      </trkpt>
      <trkpt lat="45.94016" lon="4.76625">
        <ele>172</ele>
        <time>2016-08-26T10:44:38Z</time>
      </trkpt>
      <trkpt lat="45.94014" lon="4.76616">
        <ele>172</ele>
        <time>2016-08-26T10:44:39Z</time>
      </trkpt>
      <trkpt lat="45.94012" lon="4.76608">
        <ele>172</ele>
        <time>2016-08-26T10:44:40Z</time>
      </trkpt>
      <trkpt lat="45.94009" lon="4.76599">
        <ele>172</ele>
        <time>2016-08-26T10:44:41Z</time>
      </trkpt>
      <trkpt lat="45.94006" lon="4.76591">
        <ele>172</ele>
        <time>2016-08-26T10:44:42Z</time>
      </trkpt>
      <trkpt lat="45.94003" lon="4.76582">
        <ele>172</ele>
        <time>2016-08-26T10:44:43Z</time>
      </trkpt>
      <trkpt lat="45.94002" lon="4.76574">
        <ele>172</ele>
        <time>2016-08-26T10:44:44Z</time>
      </trkpt>
      <trkpt lat="45.94" lon="4.76565">
        <ele>172</ele>
        <time>2016-08-26T10:44:45Z</time>
      </trkpt>
      <trkpt lat="45.93999" lon="4.76556">
        <ele>172</ele>
        <time>2016-08-26T10:44:46Z</time>
      </trkpt>
      <trkpt lat="45.93998" lon="4.76547">
        <ele>172</ele>
        <time>2016-08-26T10:44:47Z</time>
      </trkpt>
      <trkpt lat="45.93998" lon="4.76537">
        <ele>171</ele>
        <time>2016-08-26T10:44:48Z</time>
      </trkpt>
      <trkpt lat="45.93998" lon="4.76527">
        <ele>171</ele>
        <time>2016-08-26T10:44:49Z</time>
      </trkpt>
      <trkpt lat="45.93997" lon="4.76517">
        <ele>171</ele>
        <time>2016-08-26T10:44:50Z</time>
      </trkpt>
      <trkpt lat="45.93996" lon="4.76508">
        <ele>171</ele>
        <time>2016-08-26T10:44:51Z</time>
      </trkpt>
      <trkpt lat="45.93996" lon="4.76498">
        <ele>171</ele>
        <time>2016-08-26T10:44:52Z</time>
      </trkpt>
      <trkpt lat="45.93996" lon="4.76488">
        <ele>171</ele>
        <time>2016-08-26T10:44:53Z</time>
      </trkpt>
      <trkpt lat="45.93995" lon="4.76479">
        <ele>170</ele>
        <time>2016-08-26T10:44:54Z</time>
      </trkpt>
      <trkpt lat="45.93995" lon="4.7647">
        <ele>170</ele>
        <time>2016-08-26T10:44:55Z</time>
      </trkpt>
      <trkpt lat="45.93995" lon="4.76462">
        <ele>170</ele>
        <time>2016-08-26T10:44:56Z</time>
      </trkpt>
      <trkpt lat="45.93995" lon="4.76453">
        <ele>170</ele>
        <time>2016-08-26T10:44:57Z</time>
      </trkpt>
      <trkpt lat="45.93996" lon="4.76445">
        <ele>169</ele>
        <time>2016-08-26T10:44:58Z</time>
      </trkpt>
      <trkpt lat="45.93998" lon="4.76436">
        <ele>169</ele>
        <time>2016-08-26T10:44:59Z</time>
      </trkpt>
      <trkpt lat="45.94" lon="4.76429">
        <ele>169</ele>
        <time>2016-08-26T10:45:00Z</time>
      </trkpt>
      <trkpt lat="45.94003" lon="4.76422">
        <ele>169</ele>
        <time>2016-08-26T10:45:01Z</time>
      </trkpt>
      <trkpt lat="45.94006" lon="4.76415">
        <ele>168</ele>
        <time>2016-08-26T10:45:02Z</time>
      </trkpt>
      <trkpt lat="45.94009" lon="4.76408">
        <ele>169</ele>
        <time>2016-08-26T10:45:03Z</time>
      </trkpt>
      <trkpt lat="45.94013" lon="4.76403">
        <ele>169</ele>
        <time>2016-08-26T10:45:04Z</time>
      </trkpt>
      <trkpt lat="45.94018" lon="4.76398">
        <ele>169</ele>
        <time>2016-08-26T10:45:05Z</time>
      </trkpt>
      <trkpt lat="45.94023" lon="4.76393">
        <ele>170</ele>
        <time>2016-08-26T10:45:06Z</time>
      </trkpt>
      <trkpt lat="45.94026" lon="4.76388">
        <ele>170</ele>
        <time>2016-08-26T10:45:07Z</time>
      </trkpt>
      <trkpt lat="45.94031" lon="4.76383">
        <ele>170</ele>
        <time>2016-08-26T10:45:08Z</time>
      </trkpt>
      <trkpt lat="45.94034" lon="4.76378">
        <ele>170</ele>
        <time>2016-08-26T10:45:09Z</time>
      </trkpt>
      <trkpt lat="45.94037" lon="4.76372">
        <ele>170</ele>
        <time>2016-08-26T10:45:10Z</time>
      </trkpt>
      <trkpt lat="45.94039" lon="4.76366">
        <ele>170</ele>
        <time>2016-08-26T10:45:11Z</time>
      </trkpt>
      <trkpt lat="45.94041" lon="4.7636">
        <ele>170</ele>
        <time>2016-08-26T10:45:12Z</time>
      </trkpt>
      <trkpt lat="45.94042" lon="4.76353">
        <ele>170</ele>
        <time>2016-08-26T10:45:13Z</time>
      </trkpt>
      <trkpt lat="45.94044" lon="4.76346">
        <ele>170</ele>
        <time>2016-08-26T10:45:14Z</time>
      </trkpt>
      <trkpt lat="45.94045" lon="4.76339">
        <ele>170</ele>
        <time>2016-08-26T10:45:15Z</time>
      </trkpt>
      <trkpt lat="45.94047" lon="4.76332">
        <ele>170</ele>
        <time>2016-08-26T10:45:16Z</time>
      </trkpt>
      <trkpt lat="45.9405" lon="4.76325">
        <ele>171</ele>
        <time>2016-08-26T10:45:17Z</time>
      </trkpt>
      <trkpt lat="45.94053" lon="4.76319">
        <ele>171</ele>
        <time>2016-08-26T10:45:18Z</time>
      </trkpt>
      <trkpt lat="45.94056" lon="4.76313">
        <ele>171</ele>
        <time>2016-08-26T10:45:19Z</time>
      </trkpt>
      <trkpt lat="45.94059" lon="4.76309">
        <ele>171</ele>
        <time>2016-08-26T10:45:20Z</time>
      </trkpt>
      <trkpt lat="45.94063" lon="4.76304">
        <ele>171</ele>
        <time>2016-08-26T10:45:21Z</time>
      </trkpt>
      <trkpt lat="45.94069" lon="4.76296">
        <ele>171</ele>
        <time>2016-08-26T10:45:23Z</time>
      </trkpt>
      <trkpt lat="45.94072" lon="4.76292">
        <ele>171</ele>
        <time>2016-08-26T10:45:24Z</time>
      </trkpt>
      <trkpt lat="45.94076" lon="4.76287">
        <ele>172</ele>
        <time>2016-08-26T10:45:25Z</time>
      </trkpt>
      <trkpt lat="45.94079" lon="4.76282">
        <ele>172</ele>
        <time>2016-08-26T10:45:26Z</time>
      </trkpt>
      <trkpt lat="45.94083" lon="4.76278">
        <ele>172</ele>
        <time>2016-08-26T10:45:27Z</time>
      </trkpt>
      <trkpt lat="45.94087" lon="4.76274">
        <ele>176</ele>
        <time>2016-08-26T10:45:28Z</time>
      </trkpt>
      <trkpt lat="45.94092" lon="4.76271">
        <ele>176</ele>
        <time>2016-08-26T10:45:29Z</time>
      </trkpt>
      <trkpt lat="45.94097" lon="4.7627">
        <ele>176</ele>
        <time>2016-08-26T10:45:30Z</time>
      </trkpt>
      <trkpt lat="45.94101" lon="4.76269">
        <ele>176</ele>
        <time>2016-08-26T10:45:31Z</time>
      </trkpt>
      <trkpt lat="45.94106" lon="4.76268">
        <ele>176</ele>
        <time>2016-08-26T10:45:32Z</time>
      </trkpt>
      <trkpt lat="45.94115" lon="4.76267">
        <ele>177</ele>
        <time>2016-08-26T10:45:34Z</time>
      </trkpt>
      <trkpt lat="45.94119" lon="4.76266">
        <ele>177</ele>
        <time>2016-08-26T10:45:35Z</time>
      </trkpt>
      <trkpt lat="45.94128" lon="4.76265">
        <ele>177</ele>
        <time>2016-08-26T10:45:37Z</time>
      </trkpt>
      <trkpt lat="45.94132" lon="4.76265">
        <ele>178</ele>
        <time>2016-08-26T10:45:38Z</time>
      </trkpt>
      <trkpt lat="45.9414" lon="4.76263">
        <ele>178</ele>
        <time>2016-08-26T10:45:40Z</time>
      </trkpt>
      <trkpt lat="45.94145" lon="4.76263">
        <ele>178</ele>
        <time>2016-08-26T10:45:41Z</time>
      </trkpt>
      <trkpt lat="45.94153" lon="4.76261">
        <ele>179</ele>
        <time>2016-08-26T10:45:43Z</time>
      </trkpt>
      <trkpt lat="45.94158" lon="4.76262">
        <ele>179</ele>
        <time>2016-08-26T10:45:44Z</time>
      </trkpt>
      <trkpt lat="45.94163" lon="4.76261">
        <ele>180</ele>
        <time>2016-08-26T10:45:45Z</time>
      </trkpt>
      <trkpt lat="45.94167" lon="4.76258">
        <ele>180</ele>
        <time>2016-08-26T10:45:46Z</time>
      </trkpt>
      <trkpt lat="45.94169" lon="4.76253">
        <ele>182</ele>
        <time>2016-08-26T10:45:47Z</time>
      </trkpt>
      <trkpt lat="45.94171" lon="4.76246">
        <ele>181</ele>
        <time>2016-08-26T10:45:48Z</time>
      </trkpt>
      <trkpt lat="45.94172" lon="4.76239">
        <ele>182</ele>
        <time>2016-08-26T10:45:49Z</time>
      </trkpt>
      <trkpt lat="45.94173" lon="4.76233">
        <ele>182</ele>
        <time>2016-08-26T10:45:50Z</time>
      </trkpt>
      <trkpt lat="45.94174" lon="4.76225">
        <ele>182</ele>
        <time>2016-08-26T10:45:51Z</time>
      </trkpt>
      <trkpt lat="45.94176" lon="4.76218">
        <ele>182</ele>
        <time>2016-08-26T10:45:52Z</time>
      </trkpt>
      <trkpt lat="45.94176" lon="4.7621">
        <ele>182</ele>
        <time>2016-08-26T10:45:53Z</time>
      </trkpt>
      <trkpt lat="45.94177" lon="4.76203">
        <ele>182</ele>
        <time>2016-08-26T10:45:54Z</time>
      </trkpt>
      <trkpt lat="45.94179" lon="4.76197">
        <ele>182</ele>
        <time>2016-08-26T10:45:55Z</time>
      </trkpt>
      <trkpt lat="45.9418" lon="4.76189">
        <ele>182</ele>
        <time>2016-08-26T10:45:56Z</time>
      </trkpt>
      <trkpt lat="45.94182" lon="4.76182">
        <ele>182</ele>
        <time>2016-08-26T10:45:57Z</time>
      </trkpt>
      <trkpt lat="45.94183" lon="4.76175">
        <ele>182</ele>
        <time>2016-08-26T10:45:58Z</time>
      </trkpt>
      <trkpt lat="45.94185" lon="4.76167">
        <ele>182</ele>
        <time>2016-08-26T10:45:59Z</time>
      </trkpt>
      <trkpt lat="45.94186" lon="4.7616">
        <ele>181</ele>
        <time>2016-08-26T10:46:00Z</time>
      </trkpt>
      <trkpt lat="45.94188" lon="4.76153">
        <ele>181</ele>
        <time>2016-08-26T10:46:01Z</time>
      </trkpt>
      <trkpt lat="45.9419" lon="4.76147">
        <ele>181</ele>
        <time>2016-08-26T10:46:02Z</time>
      </trkpt>
      <trkpt lat="45.9419" lon="4.7614">
        <ele>181</ele>
        <time>2016-08-26T10:46:03Z</time>
      </trkpt>
      <trkpt lat="45.9419" lon="4.76132">
        <ele>181</ele>
        <time>2016-08-26T10:46:04Z</time>
      </trkpt>
      <trkpt lat="45.94189" lon="4.76124">
        <ele>181</ele>
        <time>2016-08-26T10:46:05Z</time>
      </trkpt>
      <trkpt lat="45.94188" lon="4.76117">
        <ele>180</ele>
        <time>2016-08-26T10:46:06Z</time>
      </trkpt>
      <trkpt lat="45.94188" lon="4.7611">
        <ele>180</ele>
        <time>2016-08-26T10:46:07Z</time>
      </trkpt>
      <trkpt lat="45.94189" lon="4.76103">
        <ele>180</ele>
        <time>2016-08-26T10:46:08Z</time>
      </trkpt>
      <trkpt lat="45.94189" lon="4.76096">
        <ele>180</ele>
        <time>2016-08-26T10:46:09Z</time>
      </trkpt>
      <trkpt lat="45.9419" lon="4.76087">
        <ele>180</ele>
        <time>2016-08-26T10:46:10Z</time>
      </trkpt>
      <trkpt lat="45.94189" lon="4.76078">
        <ele>179</ele>
        <time>2016-08-26T10:46:11Z</time>
      </trkpt>
      <trkpt lat="45.9419" lon="4.76068">
        <ele>179</ele>
        <time>2016-08-26T10:46:12Z</time>
      </trkpt>
      <trkpt lat="45.94189" lon="4.76058">
        <ele>179</ele>
        <time>2016-08-26T10:46:13Z</time>
      </trkpt>
      <trkpt lat="45.94189" lon="4.76048">
        <ele>179</ele>
        <time>2016-08-26T10:46:14Z</time>
      </trkpt>
      <trkpt lat="45.94189" lon="4.76039">
        <ele>179</ele>
        <time>2016-08-26T10:46:15Z</time>
      </trkpt>
      <trkpt lat="45.94189" lon="4.76029">
        <ele>179</ele>
        <time>2016-08-26T10:46:16Z</time>
      </trkpt>
      <trkpt lat="45.94188" lon="4.76019">
        <ele>179</ele>
        <time>2016-08-26T10:46:17Z</time>
      </trkpt>
      <trkpt lat="45.94188" lon="4.76009">
        <ele>179</ele>
        <time>2016-08-26T10:46:18Z</time>
      </trkpt>
      <trkpt lat="45.94188" lon="4.75999">
        <ele>178</ele>
        <time>2016-08-26T10:46:19Z</time>
      </trkpt>
      <trkpt lat="45.94185" lon="4.75988">
        <ele>178</ele>
        <time>2016-08-26T10:46:20Z</time>
      </trkpt>
      <trkpt lat="45.94185" lon="4.75979">
        <ele>177</ele>
        <time>2016-08-26T10:46:21Z</time>
      </trkpt>
      <trkpt lat="45.94185" lon="4.75969">
        <ele>177</ele>
        <time>2016-08-26T10:46:22Z</time>
      </trkpt>
      <trkpt lat="45.94184" lon="4.7596">
        <ele>177</ele>
        <time>2016-08-26T10:46:23Z</time>
      </trkpt>
      <trkpt lat="45.94183" lon="4.75951">
        <ele>177</ele>
        <time>2016-08-26T10:46:24Z</time>
      </trkpt>
      <trkpt lat="45.94183" lon="4.75943">
        <ele>177</ele>
        <time>2016-08-26T10:46:25Z</time>
      </trkpt>
      <trkpt lat="45.94182" lon="4.75934">
        <ele>176</ele>
        <time>2016-08-26T10:46:26Z</time>
      </trkpt>
      <trkpt lat="45.94182" lon="4.75925">
        <ele>176</ele>
        <time>2016-08-26T10:46:27Z</time>
      </trkpt>
      <trkpt lat="45.94181" lon="4.75917">
        <ele>176</ele>
        <time>2016-08-26T10:46:28Z</time>
      </trkpt>
      <trkpt lat="45.94181" lon="4.75909">
        <ele>175</ele>
        <time>2016-08-26T10:46:29Z</time>
      </trkpt>
      <trkpt lat="45.94181" lon="4.75901">
        <ele>175</ele>
        <time>2016-08-26T10:46:30Z</time>
      </trkpt>
      <trkpt lat="45.9418" lon="4.75893">
        <ele>175</ele>
        <time>2016-08-26T10:46:31Z</time>
      </trkpt>
      <trkpt lat="45.94179" lon="4.75885">
        <ele>175</ele>
        <time>2016-08-26T10:46:32Z</time>
      </trkpt>
      <trkpt lat="45.94179" lon="4.75876">
        <ele>175</ele>
        <time>2016-08-26T10:46:33Z</time>
      </trkpt>
      <trkpt lat="45.94178" lon="4.75868">
        <ele>175</ele>
        <time>2016-08-26T10:46:34Z</time>
      </trkpt>
      <trkpt lat="45.94178" lon="4.75859">
        <ele>175</ele>
        <time>2016-08-26T10:46:35Z</time>
      </trkpt>
      <trkpt lat="45.94177" lon="4.75851">
        <ele>174</ele>
        <time>2016-08-26T10:46:36Z</time>
      </trkpt>
      <trkpt lat="45.94176" lon="4.75842">
        <ele>174</ele>
        <time>2016-08-26T10:46:37Z</time>
      </trkpt>
      <trkpt lat="45.94176" lon="4.75834">
        <ele>174</ele>
        <time>2016-08-26T10:46:38Z</time>
      </trkpt>
      <trkpt lat="45.94176" lon="4.75825">
        <ele>174</ele>
        <time>2016-08-26T10:46:39Z</time>
      </trkpt>
      <trkpt lat="45.94176" lon="4.75816">
        <ele>174</ele>
        <time>2016-08-26T10:46:40Z</time>
      </trkpt>
      <trkpt lat="45.94175" lon="4.75807">
        <ele>174</ele>
        <time>2016-08-26T10:46:41Z</time>
      </trkpt>
      <trkpt lat="45.94175" lon="4.75797">
        <ele>174</ele>
        <time>2016-08-26T10:46:42Z</time>
      </trkpt>
      <trkpt lat="45.94174" lon="4.75788">
        <ele>174</ele>
        <time>2016-08-26T10:46:43Z</time>
      </trkpt>
      <trkpt lat="45.94172" lon="4.75778">
        <ele>174</ele>
        <time>2016-08-26T10:46:44Z</time>
      </trkpt>
      <trkpt lat="45.94172" lon="4.75768">
        <ele>174</ele>
        <time>2016-08-26T10:46:45Z</time>
      </trkpt>
      <trkpt lat="45.94172" lon="4.75758">
        <ele>174</ele>
        <time>2016-08-26T10:46:46Z</time>
      </trkpt>
      <trkpt lat="45.94171" lon="4.75748">
        <ele>174</ele>
        <time>2016-08-26T10:46:47Z</time>
      </trkpt>
      <trkpt lat="45.94171" lon="4.75738">
        <ele>174</ele>
        <time>2016-08-26T10:46:48Z</time>
      </trkpt>
      <trkpt lat="45.9417" lon="4.75728">
        <ele>173</ele>
        <time>2016-08-26T10:46:49Z</time>
      </trkpt>
      <trkpt lat="45.9417" lon="4.75718">
        <ele>173</ele>
        <time>2016-08-26T10:46:50Z</time>
      </trkpt>
      <trkpt lat="45.9417" lon="4.75709">
        <ele>173</ele>
        <time>2016-08-26T10:46:51Z</time>
      </trkpt>
      <trkpt lat="45.9417" lon="4.75701">
        <ele>173</ele>
        <time>2016-08-26T10:46:52Z</time>
      </trkpt>
      <trkpt lat="45.94171" lon="4.75693">
        <ele>173</ele>
        <time>2016-08-26T10:46:53Z</time>
      </trkpt>
      <trkpt lat="45.94171" lon="4.75685">
        <ele>173</ele>
        <time>2016-08-26T10:46:54Z</time>
      </trkpt>
      <trkpt lat="45.94171" lon="4.75677">
        <ele>173</ele>
        <time>2016-08-26T10:46:55Z</time>
      </trkpt>
      <trkpt lat="45.94172" lon="4.75668">
        <ele>173</ele>
        <time>2016-08-26T10:46:56Z</time>
      </trkpt>
      <trkpt lat="45.94172" lon="4.7566">
        <ele>173</ele>
        <time>2016-08-26T10:46:57Z</time>
      </trkpt>
      <trkpt lat="45.94172" lon="4.75651">
        <ele>173</ele>
        <time>2016-08-26T10:46:58Z</time>
      </trkpt>
      <trkpt lat="45.94172" lon="4.75641">
        <ele>173</ele>
        <time>2016-08-26T10:46:59Z</time>
      </trkpt>
      <trkpt lat="45.94173" lon="4.75631">
        <ele>173</ele>
        <time>2016-08-26T10:47:00Z</time>
      </trkpt>
      <trkpt lat="45.94173" lon="4.75622">
        <ele>173</ele>
        <time>2016-08-26T10:47:01Z</time>
      </trkpt>
      <trkpt lat="45.94174" lon="4.75612">
        <ele>173</ele>
        <time>2016-08-26T10:47:02Z</time>
      </trkpt>
      <trkpt lat="45.94175" lon="4.75603">
        <ele>173</ele>
        <time>2016-08-26T10:47:03Z</time>
      </trkpt>
      <trkpt lat="45.94175" lon="4.75594">
        <ele>173</ele>
        <time>2016-08-26T10:47:04Z</time>
      </trkpt>
      <trkpt lat="45.94176" lon="4.75586">
        <ele>173</ele>
        <time>2016-08-26T10:47:05Z</time>
      </trkpt>
      <trkpt lat="45.94177" lon="4.75577">
        <ele>173</ele>
        <time>2016-08-26T10:47:06Z</time>
      </trkpt>
      <trkpt lat="45.94177" lon="4.75569">
        <ele>173</ele>
        <time>2016-08-26T10:47:07Z</time>
      </trkpt>
      <trkpt lat="45.94179" lon="4.75561">
        <ele>173</ele>
        <time>2016-08-26T10:47:08Z</time>
      </trkpt>
      <trkpt lat="45.9418" lon="4.75553">
        <ele>173</ele>
        <time>2016-08-26T10:47:09Z</time>
      </trkpt>
      <trkpt lat="45.94181" lon="4.75545">
        <ele>173</ele>
        <time>2016-08-26T10:47:10Z</time>
      </trkpt>
      <trkpt lat="45.94182" lon="4.75537">
        <ele>173</ele>
        <time>2016-08-26T10:47:11Z</time>
      </trkpt>
      <trkpt lat="45.94183" lon="4.75528">
        <ele>173</ele>
        <time>2016-08-26T10:47:12Z</time>
      </trkpt>
      <trkpt lat="45.94184" lon="4.75521">
        <ele>173</ele>
        <time>2016-08-26T10:47:13Z</time>
      </trkpt>
      <trkpt lat="45.94184" lon="4.75513">
        <ele>173</ele>
        <time>2016-08-26T10:47:14Z</time>
      </trkpt>
      <trkpt lat="45.94185" lon="4.75505">
        <ele>173</ele>
        <time>2016-08-26T10:47:15Z</time>
      </trkpt>
      <trkpt lat="45.94186" lon="4.75497">
        <ele>172</ele>
        <time>2016-08-26T10:47:16Z</time>
      </trkpt>
      <trkpt lat="45.94187" lon="4.7549">
        <ele>172</ele>
        <time>2016-08-26T10:47:17Z</time>
      </trkpt>
      <trkpt lat="45.94188" lon="4.75481">
        <ele>172</ele>
        <time>2016-08-26T10:47:18Z</time>
      </trkpt>
      <trkpt lat="45.94189" lon="4.75473">
        <ele>172</ele>
        <time>2016-08-26T10:47:19Z</time>
      </trkpt>
      <trkpt lat="45.94191" lon="4.75466">
        <ele>172</ele>
        <time>2016-08-26T10:47:20Z</time>
      </trkpt>
      <trkpt lat="45.94193" lon="4.75458">
        <ele>172</ele>
        <time>2016-08-26T10:47:21Z</time>
      </trkpt>
      <trkpt lat="45.94194" lon="4.7545">
        <ele>172</ele>
        <time>2016-08-26T10:47:22Z</time>
      </trkpt>
      <trkpt lat="45.94195" lon="4.75442">
        <ele>171</ele>
        <time>2016-08-26T10:47:23Z</time>
      </trkpt>
      <trkpt lat="45.94194" lon="4.75433">
        <ele>171</ele>
        <time>2016-08-26T10:47:24Z</time>
      </trkpt>
      <trkpt lat="45.94194" lon="4.75425">
        <ele>171</ele>
        <time>2016-08-26T10:47:25Z</time>
      </trkpt>
      <trkpt lat="45.94193" lon="4.75417">
        <ele>171</ele>
        <time>2016-08-26T10:47:26Z</time>
      </trkpt>
      <trkpt lat="45.94193" lon="4.75408">
        <ele>171</ele>
        <time>2016-08-26T10:47:27Z</time>
      </trkpt>
      <trkpt lat="45.94193" lon="4.754">
        <ele>171</ele>
        <time>2016-08-26T10:47:28Z</time>
      </trkpt>
      <trkpt lat="45.94194" lon="4.75393">
        <ele>171</ele>
        <time>2016-08-26T10:47:29Z</time>
      </trkpt>
      <trkpt lat="45.94195" lon="4.75385">
        <ele>171</ele>
        <time>2016-08-26T10:47:30Z</time>
      </trkpt>
      <trkpt lat="45.94196" lon="4.75377">
        <ele>171</ele>
        <time>2016-08-26T10:47:31Z</time>
      </trkpt>
      <trkpt lat="45.94197" lon="4.75369">
        <ele>171</ele>
        <time>2016-08-26T10:47:32Z</time>
      </trkpt>
      <trkpt lat="45.94198" lon="4.75362">
        <ele>171</ele>
        <time>2016-08-26T10:47:33Z</time>
      </trkpt>
      <trkpt lat="45.94198" lon="4.75354">
        <ele>171</ele>
        <time>2016-08-26T10:47:34Z</time>
      </trkpt>
      <trkpt lat="45.94199" lon="4.75346">
        <ele>171</ele>
        <time>2016-08-26T10:47:35Z</time>
      </trkpt>
      <trkpt lat="45.942" lon="4.75337">
        <ele>171</ele>
        <time>2016-08-26T10:47:36Z</time>
      </trkpt>
      <trkpt lat="45.94201" lon="4.75329">
        <ele>171</ele>
        <time>2016-08-26T10:47:37Z</time>
      </trkpt>
      <trkpt lat="45.94203" lon="4.75321">
        <ele>171</ele>
        <time>2016-08-26T10:47:38Z</time>
      </trkpt>
      <trkpt lat="45.94204" lon="4.75312">
        <ele>171</ele>
        <time>2016-08-26T10:47:39Z</time>
      </trkpt>
      <trkpt lat="45.94206" lon="4.75304">
        <ele>171</ele>
        <time>2016-08-26T10:47:40Z</time>
      </trkpt>
      <trkpt lat="45.94207" lon="4.75295">
        <ele>171</ele>
        <time>2016-08-26T10:47:41Z</time>
      </trkpt>
      <trkpt lat="45.94208" lon="4.75286">
        <ele>171</ele>
        <time>2016-08-26T10:47:42Z</time>
      </trkpt>
      <trkpt lat="45.94209" lon="4.75277">
        <ele>172</ele>
        <time>2016-08-26T10:47:43Z</time>
      </trkpt>
      <trkpt lat="45.94211" lon="4.75269">
        <ele>172</ele>
        <time>2016-08-26T10:47:44Z</time>
      </trkpt>
      <trkpt lat="45.94213" lon="4.7526">
        <ele>172</ele>
        <time>2016-08-26T10:47:45Z</time>
      </trkpt>
      <trkpt lat="45.94214" lon="4.75251">
        <ele>172</ele>
        <time>2016-08-26T10:47:46Z</time>
      </trkpt>
      <trkpt lat="45.94216" lon="4.75243">
        <ele>171</ele>
        <time>2016-08-26T10:47:47Z</time>
      </trkpt>
      <trkpt lat="45.94217" lon="4.75235">
        <ele>171</ele>
        <time>2016-08-26T10:47:48Z</time>
      </trkpt>
      <trkpt lat="45.94218" lon="4.75227">
        <ele>171</ele>
        <time>2016-08-26T10:47:49Z</time>
      </trkpt>
      <trkpt lat="45.9422" lon="4.75219">
        <ele>171</ele>
        <time>2016-08-26T10:47:50Z</time>
      </trkpt>
      <trkpt lat="45.94222" lon="4.75212">
        <ele>171</ele>
        <time>2016-08-26T10:47:51Z</time>
      </trkpt>
      <trkpt lat="45.94224" lon="4.75204">
        <ele>171</ele>
        <time>2016-08-26T10:47:52Z</time>
      </trkpt>
      <trkpt lat="45.94225" lon="4.75197">
        <ele>171</ele>
        <time>2016-08-26T10:47:53Z</time>
      </trkpt>
      <trkpt lat="45.94227" lon="4.7519">
        <ele>171</ele>
        <time>2016-08-26T10:47:54Z</time>
      </trkpt>
      <trkpt lat="45.94228" lon="4.75182">
        <ele>171</ele>
        <time>2016-08-26T10:47:55Z</time>
      </trkpt>
      <trkpt lat="45.94229" lon="4.75174">
        <ele>171</ele>
        <time>2016-08-26T10:47:56Z</time>
      </trkpt>
      <trkpt lat="45.94231" lon="4.75166">
        <ele>171</ele>
        <time>2016-08-26T10:47:57Z</time>
      </trkpt>
      <trkpt lat="45.94233" lon="4.75158">
        <ele>171</ele>
        <time>2016-08-26T10:47:58Z</time>
      </trkpt>
      <trkpt lat="45.94235" lon="4.75149">
        <ele>171</ele>
        <time>2016-08-26T10:47:59Z</time>
      </trkpt>
      <trkpt lat="45.94237" lon="4.75141">
        <ele>171</ele>
        <time>2016-08-26T10:48:00Z</time>
      </trkpt>
      <trkpt lat="45.94239" lon="4.75133">
        <ele>171</ele>
        <time>2016-08-26T10:48:01Z</time>
      </trkpt>
      <trkpt lat="45.94241" lon="4.75125">
        <ele>171</ele>
        <time>2016-08-26T10:48:02Z</time>
      </trkpt>
      <trkpt lat="45.94243" lon="4.75117">
        <ele>172</ele>
        <time>2016-08-26T10:48:03Z</time>
      </trkpt>
      <trkpt lat="45.94246" lon="4.7511">
        <ele>172</ele>
        <time>2016-08-26T10:48:04Z</time>
      </trkpt>
      <trkpt lat="45.94248" lon="4.75103">
        <ele>172</ele>
        <time>2016-08-26T10:48:05Z</time>
      </trkpt>
      <trkpt lat="45.9425" lon="4.75095">
        <ele>173</ele>
        <time>2016-08-26T10:48:06Z</time>
      </trkpt>
      <trkpt lat="45.94252" lon="4.75088">
        <ele>173</ele>
        <time>2016-08-26T10:48:07Z</time>
      </trkpt>
      <trkpt lat="45.94254" lon="4.75081">
        <ele>173</ele>
        <time>2016-08-26T10:48:08Z</time>
      </trkpt>
      <trkpt lat="45.94256" lon="4.75074">
        <ele>174</ele>
        <time>2016-08-26T10:48:09Z</time>
      </trkpt>
      <trkpt lat="45.94258" lon="4.75067">
        <ele>174</ele>
        <time>2016-08-26T10:48:10Z</time>
      </trkpt>
      <trkpt lat="45.9426" lon="4.7506">
        <ele>174</ele>
        <time>2016-08-26T10:48:11Z</time>
      </trkpt>
      <trkpt lat="45.94262" lon="4.75052">
        <ele>174</ele>
        <time>2016-08-26T10:48:12Z</time>
      </trkpt>
      <trkpt lat="45.94264" lon="4.75044">
        <ele>174</ele>
        <time>2016-08-26T10:48:13Z</time>
      </trkpt>
      <trkpt lat="45.94266" lon="4.75037">
        <ele>174</ele>
        <time>2016-08-26T10:48:14Z</time>
      </trkpt>
      <trkpt lat="45.94269" lon="4.75029">
        <ele>174</ele>
        <time>2016-08-26T10:48:15Z</time>
      </trkpt>
      <trkpt lat="45.94271" lon="4.75023">
        <ele>175</ele>
        <time>2016-08-26T10:48:16Z</time>
      </trkpt>
      <trkpt lat="45.94274" lon="4.75015">
        <ele>175</ele>
        <time>2016-08-26T10:48:17Z</time>
      </trkpt>
      <trkpt lat="45.94277" lon="4.75007">
        <ele>175</ele>
        <time>2016-08-26T10:48:18Z</time>
      </trkpt>
      <trkpt lat="45.9428" lon="4.74998">
        <ele>175</ele>
        <time>2016-08-26T10:48:19Z</time>
      </trkpt>
      <trkpt lat="45.94282" lon="4.7499">
        <ele>175</ele>
        <time>2016-08-26T10:48:20Z</time>
      </trkpt>
      <trkpt lat="45.94285" lon="4.74983">
        <ele>175</ele>
        <time>2016-08-26T10:48:21Z</time>
      </trkpt>
      <trkpt lat="45.94287" lon="4.74976">
        <ele>175</ele>
        <time>2016-08-26T10:48:22Z</time>
      </trkpt>
      <trkpt lat="45.94289" lon="4.74968">
        <ele>175</ele>
        <time>2016-08-26T10:48:23Z</time>
      </trkpt>
      <trkpt lat="45.94291" lon="4.74961">
        <ele>175</ele>
        <time>2016-08-26T10:48:24Z</time>
      </trkpt>
      <trkpt lat="45.94294" lon="4.74955">
        <ele>175</ele>
        <time>2016-08-26T10:48:25Z</time>
      </trkpt>
      <trkpt lat="45.94297" lon="4.74949">
        <ele>175</ele>
        <time>2016-08-26T10:48:26Z</time>
      </trkpt>
      <trkpt lat="45.943" lon="4.74942">
        <ele>175</ele>
        <time>2016-08-26T10:48:27Z</time>
      </trkpt>
      <trkpt lat="45.94302" lon="4.74935">
        <ele>175</ele>
        <time>2016-08-26T10:48:28Z</time>
      </trkpt>
      <trkpt lat="45.94304" lon="4.74926">
        <ele>175</ele>
        <time>2016-08-26T10:48:29Z</time>
      </trkpt>
      <trkpt lat="45.94306" lon="4.74917">
        <ele>176</ele>
        <time>2016-08-26T10:48:30Z</time>
      </trkpt>
      <trkpt lat="45.94308" lon="4.74909">
        <ele>175</ele>
        <time>2016-08-26T10:48:31Z</time>
      </trkpt>
      <trkpt lat="45.9431" lon="4.749">
        <ele>175</ele>
        <time>2016-08-26T10:48:32Z</time>
      </trkpt>
      <trkpt lat="45.94312" lon="4.74892">
        <ele>174</ele>
        <time>2016-08-26T10:48:33Z</time>
      </trkpt>
      <trkpt lat="45.94313" lon="4.74884">
        <ele>174</ele>
        <time>2016-08-26T10:48:34Z</time>
      </trkpt>
      <trkpt lat="45.94315" lon="4.74876">
        <ele>174</ele>
        <time>2016-08-26T10:48:35Z</time>
      </trkpt>
      <trkpt lat="45.94316" lon="4.74869">
        <ele>174</ele>
        <time>2016-08-26T10:48:36Z</time>
      </trkpt>
      <trkpt lat="45.94317" lon="4.74861">
        <ele>174</ele>
        <time>2016-08-26T10:48:37Z</time>
      </trkpt>
      <trkpt lat="45.94318" lon="4.74854">
        <ele>174</ele>
        <time>2016-08-26T10:48:38Z</time>
      </trkpt>
      <trkpt lat="45.94319" lon="4.74847">
        <ele>174</ele>
        <time>2016-08-26T10:48:39Z</time>
      </trkpt>
      <trkpt lat="45.9432" lon="4.7484">
        <ele>174</ele>
        <time>2016-08-26T10:48:40Z</time>
      </trkpt>
      <trkpt lat="45.94321" lon="4.74833">
        <ele>173</ele>
        <time>2016-08-26T10:48:41Z</time>
      </trkpt>
      <trkpt lat="45.94323" lon="4.74826">
        <ele>173</ele>
        <time>2016-08-26T10:48:42Z</time>
      </trkpt>
      <trkpt lat="45.94326" lon="4.74815">
        <ele>172</ele>
        <time>2016-08-26T10:48:44Z</time>
      </trkpt>
      <trkpt lat="45.94327" lon="4.74808">
        <ele>172</ele>
        <time>2016-08-26T10:48:45Z</time>
      </trkpt>
      <trkpt lat="45.94328" lon="4.74802">
        <ele>172</ele>
        <time>2016-08-26T10:48:46Z</time>
      </trkpt>
      <trkpt lat="45.9433" lon="4.74795">
        <ele>172</ele>
        <time>2016-08-26T10:48:47Z</time>
      </trkpt>
      <trkpt lat="45.94333" lon="4.74788">
        <ele>172</ele>
        <time>2016-08-26T10:48:48Z</time>
      </trkpt>
      <trkpt lat="45.94336" lon="4.74781">
        <ele>173</ele>
        <time>2016-08-26T10:48:49Z</time>
      </trkpt>
      <trkpt lat="45.94338" lon="4.74774">
        <ele>173</ele>
        <time>2016-08-26T10:48:50Z</time>
      </trkpt>
      <trkpt lat="45.94339" lon="4.74767">
        <ele>173</ele>
        <time>2016-08-26T10:48:51Z</time>
      </trkpt>
      <trkpt lat="45.94341" lon="4.74759">
        <ele>172</ele>
        <time>2016-08-26T10:48:52Z</time>
      </trkpt>
      <trkpt lat="45.94343" lon="4.74752">
        <ele>172</ele>
        <time>2016-08-26T10:48:53Z</time>
      </trkpt>
      <trkpt lat="45.94345" lon="4.74744">
        <ele>171</ele>
        <time>2016-08-26T10:48:54Z</time>
      </trkpt>
      <trkpt lat="45.94346" lon="4.74737">
        <ele>171</ele>
        <time>2016-08-26T10:48:55Z</time>
      </trkpt>
      <trkpt lat="45.94348" lon="4.74729">
        <ele>171</ele>
        <time>2016-08-26T10:48:56Z</time>
      </trkpt>
      <trkpt lat="45.94349" lon="4.74721">
        <ele>171</ele>
        <time>2016-08-26T10:48:57Z</time>
      </trkpt>
      <trkpt lat="45.9435" lon="4.74712">
        <ele>171</ele>
        <time>2016-08-26T10:48:58Z</time>
      </trkpt>
      <trkpt lat="45.94351" lon="4.74703">
        <ele>172</ele>
        <time>2016-08-26T10:48:59Z</time>
      </trkpt>
      <trkpt lat="45.94352" lon="4.74695">
        <ele>172</ele>
        <time>2016-08-26T10:49:00Z</time>
      </trkpt>
      <trkpt lat="45.94352" lon="4.74688">
        <ele>172</ele>
        <time>2016-08-26T10:49:01Z</time>
      </trkpt>
      <trkpt lat="45.94353" lon="4.7468">
        <ele>172</ele>
        <time>2016-08-26T10:49:02Z</time>
      </trkpt>
      <trkpt lat="45.94354" lon="4.74673">
        <ele>172</ele>
        <time>2016-08-26T10:49:03Z</time>
      </trkpt>
      <trkpt lat="45.94355" lon="4.74665">
        <ele>171</ele>
        <time>2016-08-26T10:49:04Z</time>
      </trkpt>
      <trkpt lat="45.94355" lon="4.74658">
        <ele>171</ele>
        <time>2016-08-26T10:49:05Z</time>
      </trkpt>
      <trkpt lat="45.94355" lon="4.74651">
        <ele>171</ele>
        <time>2016-08-26T10:49:06Z</time>
      </trkpt>
      <trkpt lat="45.94356" lon="4.74644">
        <ele>171</ele>
        <time>2016-08-26T10:49:07Z</time>
      </trkpt>
      <trkpt lat="45.94356" lon="4.74636">
        <ele>171</ele>
        <time>2016-08-26T10:49:08Z</time>
      </trkpt>
      <trkpt lat="45.94356" lon="4.74629">
        <ele>171</ele>
        <time>2016-08-26T10:49:09Z</time>
      </trkpt>
      <trkpt lat="45.94357" lon="4.74621">
        <ele>171</ele>
        <time>2016-08-26T10:49:10Z</time>
      </trkpt>
      <trkpt lat="45.94357" lon="4.74613">
        <ele>171</ele>
        <time>2016-08-26T10:49:11Z</time>
      </trkpt>
      <trkpt lat="45.94357" lon="4.74604">
        <ele>171</ele>
        <time>2016-08-26T10:49:12Z</time>
      </trkpt>
      <trkpt lat="45.94358" lon="4.74596">
        <ele>171</ele>
        <time>2016-08-26T10:49:13Z</time>
      </trkpt>
      <trkpt lat="45.94358" lon="4.74588">
        <ele>171</ele>
        <time>2016-08-26T10:49:14Z</time>
      </trkpt>
      <trkpt lat="45.94359" lon="4.7458">
        <ele>171</ele>
        <time>2016-08-26T10:49:15Z</time>
      </trkpt>
      <trkpt lat="45.94359" lon="4.74573">
        <ele>171</ele>
        <time>2016-08-26T10:49:16Z</time>
      </trkpt>
      <trkpt lat="45.94359" lon="4.74565">
        <ele>171</ele>
        <time>2016-08-26T10:49:17Z</time>
      </trkpt>
      <trkpt lat="45.94358" lon="4.74555">
        <ele>171</ele>
        <time>2016-08-26T10:49:18Z</time>
      </trkpt>
      <trkpt lat="45.94358" lon="4.74547">
        <ele>171</ele>
        <time>2016-08-26T10:49:19Z</time>
      </trkpt>
      <trkpt lat="45.94359" lon="4.74538">
        <ele>171</ele>
        <time>2016-08-26T10:49:20Z</time>
      </trkpt>
      <trkpt lat="45.94359" lon="4.7453">
        <ele>171</ele>
        <time>2016-08-26T10:49:21Z</time>
      </trkpt>
      <trkpt lat="45.9436" lon="4.74523">
        <ele>171</ele>
        <time>2016-08-26T10:49:22Z</time>
      </trkpt>
      <trkpt lat="45.94361" lon="4.74515">
        <ele>171</ele>
        <time>2016-08-26T10:49:23Z</time>
      </trkpt>
      <trkpt lat="45.94362" lon="4.74507">
        <ele>171</ele>
        <time>2016-08-26T10:49:24Z</time>
      </trkpt>
      <trkpt lat="45.94363" lon="4.74498">
        <ele>170</ele>
        <time>2016-08-26T10:49:25Z</time>
      </trkpt>
      <trkpt lat="45.94364" lon="4.7449">
        <ele>170</ele>
        <time>2016-08-26T10:49:26Z</time>
      </trkpt>
      <trkpt lat="45.94365" lon="4.74481">
        <ele>171</ele>
        <time>2016-08-26T10:49:27Z</time>
      </trkpt>
      <trkpt lat="45.94366" lon="4.74472">
        <ele>171</ele>
        <time>2016-08-26T10:49:28Z</time>
      </trkpt>
      <trkpt lat="45.94367" lon="4.74464">
        <ele>171</ele>
        <time>2016-08-26T10:49:29Z</time>
      </trkpt>
      <trkpt lat="45.94368" lon="4.74456">
        <ele>171</ele>
        <time>2016-08-26T10:49:30Z</time>
      </trkpt>
      <trkpt lat="45.94369" lon="4.74448">
        <ele>171</ele>
        <time>2016-08-26T10:49:31Z</time>
      </trkpt>
      <trkpt lat="45.94369" lon="4.7444">
        <ele>171</ele>
        <time>2016-08-26T10:49:32Z</time>
      </trkpt>
      <trkpt lat="45.94369" lon="4.74432">
        <ele>171</ele>
        <time>2016-08-26T10:49:33Z</time>
      </trkpt>
      <trkpt lat="45.9437" lon="4.74425">
        <ele>171</ele>
        <time>2016-08-26T10:49:34Z</time>
      </trkpt>
      <trkpt lat="45.94371" lon="4.74417">
        <ele>171</ele>
        <time>2016-08-26T10:49:35Z</time>
      </trkpt>
      <trkpt lat="45.94371" lon="4.74409">
        <ele>170</ele>
        <time>2016-08-26T10:49:36Z</time>
      </trkpt>
      <trkpt lat="45.94372" lon="4.74402">
        <ele>170</ele>
        <time>2016-08-26T10:49:37Z</time>
      </trkpt>
      <trkpt lat="45.94372" lon="4.74394">
        <ele>170</ele>
        <time>2016-08-26T10:49:38Z</time>
      </trkpt>
      <trkpt lat="45.94373" lon="4.74386">
        <ele>170</ele>
        <time>2016-08-26T10:49:39Z</time>
      </trkpt>
      <trkpt lat="45.94375" lon="4.74378">
        <ele>170</ele>
        <time>2016-08-26T10:49:40Z</time>
      </trkpt>
      <trkpt lat="45.94375" lon="4.7437">
        <ele>171</ele>
        <time>2016-08-26T10:49:41Z</time>
      </trkpt>
      <trkpt lat="45.94376" lon="4.74362">
        <ele>171</ele>
        <time>2016-08-26T10:49:42Z</time>
      </trkpt>
      <trkpt lat="45.94377" lon="4.74353">
        <ele>171</ele>
        <time>2016-08-26T10:49:43Z</time>
      </trkpt>
      <trkpt lat="45.94378" lon="4.74345">
        <ele>171</ele>
        <time>2016-08-26T10:49:44Z</time>
      </trkpt>
      <trkpt lat="45.94379" lon="4.74336">
        <ele>171</ele>
        <time>2016-08-26T10:49:45Z</time>
      </trkpt>
      <trkpt lat="45.9438" lon="4.74327">
        <ele>170</ele>
        <time>2016-08-26T10:49:46Z</time>
      </trkpt>
      <trkpt lat="45.94381" lon="4.74319">
        <ele>170</ele>
        <time>2016-08-26T10:49:47Z</time>
      </trkpt>
      <trkpt lat="45.94382" lon="4.74311">
        <ele>170</ele>
        <time>2016-08-26T10:49:48Z</time>
      </trkpt>
      <trkpt lat="45.94385" lon="4.74303">
        <ele>170</ele>
        <time>2016-08-26T10:49:49Z</time>
      </trkpt>
      <trkpt lat="45.94386" lon="4.74295">
        <ele>170</ele>
        <time>2016-08-26T10:49:50Z</time>
      </trkpt>
      <trkpt lat="45.94388" lon="4.74287">
        <ele>170</ele>
        <time>2016-08-26T10:49:51Z</time>
      </trkpt>
      <trkpt lat="45.94389" lon="4.7428">
        <ele>170</ele>
        <time>2016-08-26T10:49:52Z</time>
      </trkpt>
      <trkpt lat="45.94391" lon="4.74274">
        <ele>170</ele>
        <time>2016-08-26T10:49:53Z</time>
      </trkpt>
      <trkpt lat="45.94393" lon="4.74268">
        <ele>170</ele>
        <time>2016-08-26T10:49:54Z</time>
      </trkpt>
      <trkpt lat="45.94395" lon="4.74261">
        <ele>170</ele>
        <time>2016-08-26T10:49:55Z</time>
      </trkpt>
      <trkpt lat="45.94397" lon="4.74254">
        <ele>171</ele>
        <time>2016-08-26T10:49:56Z</time>
      </trkpt>
      <trkpt lat="45.94399" lon="4.74246">
        <ele>171</ele>
        <time>2016-08-26T10:49:57Z</time>
      </trkpt>
      <trkpt lat="45.944" lon="4.74239">
        <ele>171</ele>
        <time>2016-08-26T10:49:58Z</time>
      </trkpt>
      <trkpt lat="45.94402" lon="4.74231">
        <ele>171</ele>
        <time>2016-08-26T10:49:59Z</time>
      </trkpt>
      <trkpt lat="45.94404" lon="4.74224">
        <ele>171</ele>
        <time>2016-08-26T10:50:00Z</time>
      </trkpt>
      <trkpt lat="45.94405" lon="4.74216">
        <ele>171</ele>
        <time>2016-08-26T10:50:01Z</time>
      </trkpt>
      <trkpt lat="45.94406" lon="4.74208">
        <ele>171</ele>
        <time>2016-08-26T10:50:02Z</time>
      </trkpt>
      <trkpt lat="45.94407" lon="4.742">
        <ele>172</ele>
        <time>2016-08-26T10:50:03Z</time>
      </trkpt>
      <trkpt lat="45.94408" lon="4.74191">
        <ele>172</ele>
        <time>2016-08-26T10:50:04Z</time>
      </trkpt>
      <trkpt lat="45.94408" lon="4.74183">
        <ele>172</ele>
        <time>2016-08-26T10:50:05Z</time>
      </trkpt>
      <trkpt lat="45.94409" lon="4.74175">
        <ele>173</ele>
        <time>2016-08-26T10:50:06Z</time>
      </trkpt>
      <trkpt lat="45.94409" lon="4.74167">
        <ele>173</ele>
        <time>2016-08-26T10:50:07Z</time>
      </trkpt>
      <trkpt lat="45.9441" lon="4.7416">
        <ele>174</ele>
        <time>2016-08-26T10:50:08Z</time>
      </trkpt>
      <trkpt lat="45.9441" lon="4.74152">
        <ele>174</ele>
        <time>2016-08-26T10:50:09Z</time>
      </trkpt>
      <trkpt lat="45.9441" lon="4.74145">
        <ele>174</ele>
        <time>2016-08-26T10:50:10Z</time>
      </trkpt>
      <trkpt lat="45.94411" lon="4.74138">
        <ele>174</ele>
        <time>2016-08-26T10:50:11Z</time>
      </trkpt>
      <trkpt lat="45.94411" lon="4.74132">
        <ele>174</ele>
        <time>2016-08-26T10:50:12Z</time>
      </trkpt>
      <trkpt lat="45.94412" lon="4.74125">
        <ele>174</ele>
        <time>2016-08-26T10:50:13Z</time>
      </trkpt>
      <trkpt lat="45.94414" lon="4.74113">
        <ele>175</ele>
        <time>2016-08-26T10:50:15Z</time>
      </trkpt>
      <trkpt lat="45.94416" lon="4.74107">
        <ele>175</ele>
        <time>2016-08-26T10:50:16Z</time>
      </trkpt>
      <trkpt lat="45.94418" lon="4.74096">
        <ele>177</ele>
        <time>2016-08-26T10:50:18Z</time>
      </trkpt>
      <trkpt lat="45.94419" lon="4.7409">
        <ele>177</ele>
        <time>2016-08-26T10:50:19Z</time>
      </trkpt>
      <trkpt lat="45.9442" lon="4.74078">
        <ele>178</ele>
        <time>2016-08-26T10:50:21Z</time>
      </trkpt>
      <trkpt lat="45.9442" lon="4.74072">
        <ele>178</ele>
        <time>2016-08-26T10:50:22Z</time>
      </trkpt>
      <trkpt lat="45.94422" lon="4.74059">
        <ele>178</ele>
        <time>2016-08-26T10:50:24Z</time>
      </trkpt>
      <trkpt lat="45.94423" lon="4.74053">
        <ele>179</ele>
        <time>2016-08-26T10:50:25Z</time>
      </trkpt>
      <trkpt lat="45.94425" lon="4.74042">
        <ele>179</ele>
        <time>2016-08-26T10:50:27Z</time>
      </trkpt>
      <trkpt lat="45.94426" lon="4.74037">
        <ele>179</ele>
        <time>2016-08-26T10:50:28Z</time>
      </trkpt>
      <trkpt lat="45.94428" lon="4.74027">
        <ele>179</ele>
        <time>2016-08-26T10:50:30Z</time>
      </trkpt>
      <trkpt lat="45.94429" lon="4.74022">
        <ele>179</ele>
        <time>2016-08-26T10:50:31Z</time>
      </trkpt>
      <trkpt lat="45.94432" lon="4.74013">
        <ele>179</ele>
        <time>2016-08-26T10:50:33Z</time>
      </trkpt>
      <trkpt lat="45.94433" lon="4.74008">
        <ele>179</ele>
        <time>2016-08-26T10:50:34Z</time>
      </trkpt>
      <trkpt lat="45.94436" lon="4.74">
        <ele>180</ele>
        <time>2016-08-26T10:50:36Z</time>
      </trkpt>
      <trkpt lat="45.94437" lon="4.73996">
        <ele>180</ele>
        <time>2016-08-26T10:50:37Z</time>
      </trkpt>
      <trkpt lat="45.94438" lon="4.73988">
        <ele>180</ele>
        <time>2016-08-26T10:50:39Z</time>
      </trkpt>
      <trkpt lat="45.9444" lon="4.73984">
        <ele>180</ele>
        <time>2016-08-26T10:50:40Z</time>
      </trkpt>
      <trkpt lat="45.94441" lon="4.73975">
        <ele>180</ele>
        <time>2016-08-26T10:50:42Z</time>
      </trkpt>
      <trkpt lat="45.94442" lon="4.73971">
        <ele>180</ele>
        <time>2016-08-26T10:50:43Z</time>
      </trkpt>
      <trkpt lat="45.94444" lon="4.73962">
        <ele>181</ele>
        <time>2016-08-26T10:50:45Z</time>
      </trkpt>
      <trkpt lat="45.94445" lon="4.73956">
        <ele>181</ele>
        <time>2016-08-26T10:50:46Z</time>
      </trkpt>
      <trkpt lat="45.94447" lon="4.73947">
        <ele>181</ele>
        <time>2016-08-26T10:50:48Z</time>
      </trkpt>
      <trkpt lat="45.94448" lon="4.73942">
        <ele>181</ele>
        <time>2016-08-26T10:50:49Z</time>
      </trkpt>
      <trkpt lat="45.9445" lon="4.73932">
        <ele>181</ele>
        <time>2016-08-26T10:50:51Z</time>
      </trkpt>
      <trkpt lat="45.94451" lon="4.73927">
        <ele>181</ele>
        <time>2016-08-26T10:50:52Z</time>
      </trkpt>
      <trkpt lat="45.94454" lon="4.73918">
        <ele>181</ele>
        <time>2016-08-26T10:50:54Z</time>
      </trkpt>
      <trkpt lat="45.94455" lon="4.73913">
        <ele>183</ele>
        <time>2016-08-26T10:50:55Z</time>
      </trkpt>
      <trkpt lat="45.94456" lon="4.73902">
        <ele>183</ele>
        <time>2016-08-26T10:50:57Z</time>
      </trkpt>
      <trkpt lat="45.94457" lon="4.73897">
        <ele>183</ele>
        <time>2016-08-26T10:50:58Z</time>
      </trkpt>
      <trkpt lat="45.94458" lon="4.73888">
        <ele>183</ele>
        <time>2016-08-26T10:51:00Z</time>
      </trkpt>
      <trkpt lat="45.94459" lon="4.73883">
        <ele>183</ele>
        <time>2016-08-26T10:51:01Z</time>
      </trkpt>
      <trkpt lat="45.94461" lon="4.73875">
        <ele>184</ele>
        <time>2016-08-26T10:51:03Z</time>
      </trkpt>
      <trkpt lat="45.94462" lon="4.7387">
        <ele>184</ele>
        <time>2016-08-26T10:51:04Z</time>
      </trkpt>
      <trkpt lat="45.94465" lon="4.7386">
        <ele>184</ele>
        <time>2016-08-26T10:51:06Z</time>
      </trkpt>
      <trkpt lat="45.94466" lon="4.73855">
        <ele>184</ele>
        <time>2016-08-26T10:51:07Z</time>
      </trkpt>
      <trkpt lat="45.94468" lon="4.73846">
        <ele>184</ele>
        <time>2016-08-26T10:51:09Z</time>
      </trkpt>
      <trkpt lat="45.94468" lon="4.73841">
        <ele>184</ele>
        <time>2016-08-26T10:51:10Z</time>
      </trkpt>
      <trkpt lat="45.9447" lon="4.73832">
        <ele>185</ele>
        <time>2016-08-26T10:51:12Z</time>
      </trkpt>
      <trkpt lat="45.94471" lon="4.73827">
        <ele>185</ele>
        <time>2016-08-26T10:51:13Z</time>
      </trkpt>
      <trkpt lat="45.94473" lon="4.73817">
        <ele>185</ele>
        <time>2016-08-26T10:51:15Z</time>
      </trkpt>
      <trkpt lat="45.94474" lon="4.73812">
        <ele>185</ele>
        <time>2016-08-26T10:51:16Z</time>
      </trkpt>
      <trkpt lat="45.94476" lon="4.73802">
        <ele>185</ele>
        <time>2016-08-26T10:51:18Z</time>
      </trkpt>
      <trkpt lat="45.94476" lon="4.73798">
        <ele>185</ele>
        <time>2016-08-26T10:51:19Z</time>
      </trkpt>
      <trkpt lat="45.94474" lon="4.73788">
        <ele>186</ele>
        <time>2016-08-26T10:51:23Z</time>
      </trkpt>
      <trkpt lat="45.94476" lon="4.73785">
        <ele>186</ele>
        <time>2016-08-26T10:51:24Z</time>
      </trkpt>
      <trkpt lat="45.94482" lon="4.73781">
        <ele>186</ele>
        <time>2016-08-26T10:51:26Z</time>
      </trkpt>
      <trkpt lat="45.94485" lon="4.73778">
        <ele>186</ele>
        <time>2016-08-26T10:51:27Z</time>
      </trkpt>
      <trkpt lat="45.9449" lon="4.73768">
        <ele>186</ele>
        <time>2016-08-26T10:51:29Z</time>
      </trkpt>
      <trkpt lat="45.94491" lon="4.73761">
        <ele>186</ele>
        <time>2016-08-26T10:51:30Z</time>
      </trkpt>
      <trkpt lat="45.94489" lon="4.73754">
        <ele>186</ele>
        <time>2016-08-26T10:51:31Z</time>
      </trkpt>
      <trkpt lat="45.94489" lon="4.73747">
        <ele>186</ele>
        <time>2016-08-26T10:51:32Z</time>
      </trkpt>
      <trkpt lat="45.9449" lon="4.73739">
        <ele>186</ele>
        <time>2016-08-26T10:51:33Z</time>
      </trkpt>
      <trkpt lat="45.94491" lon="4.73731">
        <ele>186</ele>
        <time>2016-08-26T10:51:34Z</time>
      </trkpt>
      <trkpt lat="45.94492" lon="4.73724">
        <ele>186</ele>
        <time>2016-08-26T10:51:35Z</time>
      </trkpt>
      <trkpt lat="45.94492" lon="4.73717">
        <ele>186</ele>
        <time>2016-08-26T10:51:36Z</time>
      </trkpt>
      <trkpt lat="45.94494" lon="4.73709">
        <ele>186</ele>
        <time>2016-08-26T10:51:37Z</time>
      </trkpt>
      <trkpt lat="45.94495" lon="4.73701">
        <ele>186</ele>
        <time>2016-08-26T10:51:38Z</time>
      </trkpt>
      <trkpt lat="45.94496" lon="4.73694">
        <ele>186</ele>
        <time>2016-08-26T10:51:39Z</time>
      </trkpt>
      <trkpt lat="45.94498" lon="4.73686">
        <ele>186</ele>
        <time>2016-08-26T10:51:40Z</time>
      </trkpt>
      <trkpt lat="45.94499" lon="4.73678">
        <ele>185</ele>
        <time>2016-08-26T10:51:41Z</time>
      </trkpt>
      <trkpt lat="45.945" lon="4.7367">
        <ele>185</ele>
        <time>2016-08-26T10:51:42Z</time>
      </trkpt>
      <trkpt lat="45.94502" lon="4.73662">
        <ele>185</ele>
        <time>2016-08-26T10:51:43Z</time>
      </trkpt>
      <trkpt lat="45.94503" lon="4.73654">
        <ele>184</ele>
        <time>2016-08-26T10:51:44Z</time>
      </trkpt>
      <trkpt lat="45.94505" lon="4.73646">
        <ele>184</ele>
        <time>2016-08-26T10:51:45Z</time>
      </trkpt>
      <trkpt lat="45.94506" lon="4.73639">
        <ele>184</ele>
        <time>2016-08-26T10:51:46Z</time>
      </trkpt>
      <trkpt lat="45.94507" lon="4.73631">
        <ele>184</ele>
        <time>2016-08-26T10:51:47Z</time>
      </trkpt>
      <trkpt lat="45.94508" lon="4.73624">
        <ele>184</ele>
        <time>2016-08-26T10:51:48Z</time>
      </trkpt>
      <trkpt lat="45.94508" lon="4.73616">
        <ele>184</ele>
        <time>2016-08-26T10:51:49Z</time>
      </trkpt>
      <trkpt lat="45.94509" lon="4.73609">
        <ele>184</ele>
        <time>2016-08-26T10:51:50Z</time>
      </trkpt>
      <trkpt lat="45.94509" lon="4.73602">
        <ele>184</ele>
        <time>2016-08-26T10:51:51Z</time>
      </trkpt>
      <trkpt lat="45.9451" lon="4.73595">
        <ele>184</ele>
        <time>2016-08-26T10:51:52Z</time>
      </trkpt>
      <trkpt lat="45.94509" lon="4.73587">
        <ele>184</ele>
        <time>2016-08-26T10:51:53Z</time>
      </trkpt>
      <trkpt lat="45.94509" lon="4.73579">
        <ele>184</ele>
        <time>2016-08-26T10:51:54Z</time>
      </trkpt>
      <trkpt lat="45.9451" lon="4.73571">
        <ele>184</ele>
        <time>2016-08-26T10:51:55Z</time>
      </trkpt>
      <trkpt lat="45.94511" lon="4.73563">
        <ele>184</ele>
        <time>2016-08-26T10:51:56Z</time>
      </trkpt>
      <trkpt lat="45.94511" lon="4.73554">
        <ele>183</ele>
        <time>2016-08-26T10:51:57Z</time>
      </trkpt>
      <trkpt lat="45.94511" lon="4.73546">
        <ele>183</ele>
        <time>2016-08-26T10:51:58Z</time>
      </trkpt>
      <trkpt lat="45.94511" lon="4.73537">
        <ele>183</ele>
        <time>2016-08-26T10:51:59Z</time>
      </trkpt>
      <trkpt lat="45.94511" lon="4.73528">
        <ele>183</ele>
        <time>2016-08-26T10:52:00Z</time>
      </trkpt>
      <trkpt lat="45.94511" lon="4.73518">
        <ele>183</ele>
        <time>2016-08-26T10:52:01Z</time>
      </trkpt>
      <trkpt lat="45.94512" lon="4.73509">
        <ele>183</ele>
        <time>2016-08-26T10:52:02Z</time>
      </trkpt>
      <trkpt lat="45.94512" lon="4.735">
        <ele>182</ele>
        <time>2016-08-26T10:52:03Z</time>
      </trkpt>
      <trkpt lat="45.94512" lon="4.7349">
        <ele>182</ele>
        <time>2016-08-26T10:52:04Z</time>
      </trkpt>
      <trkpt lat="45.94512" lon="4.73481">
        <ele>182</ele>
        <time>2016-08-26T10:52:05Z</time>
      </trkpt>
      <trkpt lat="45.94513" lon="4.73471">
        <ele>181</ele>
        <time>2016-08-26T10:52:06Z</time>
      </trkpt>
      <trkpt lat="45.94513" lon="4.73462">
        <ele>181</ele>
        <time>2016-08-26T10:52:07Z</time>
      </trkpt>
      <trkpt lat="45.94512" lon="4.73452">
        <ele>181</ele>
        <time>2016-08-26T10:52:08Z</time>
      </trkpt>
      <trkpt lat="45.94513" lon="4.73442">
        <ele>181</ele>
        <time>2016-08-26T10:52:09Z</time>
      </trkpt>
      <trkpt lat="45.94512" lon="4.73432">
        <ele>181</ele>
        <time>2016-08-26T10:52:10Z</time>
      </trkpt>
      <trkpt lat="45.94512" lon="4.73422">
        <ele>180</ele>
        <time>2016-08-26T10:52:11Z</time>
      </trkpt>
      <trkpt lat="45.94511" lon="4.73411">
        <ele>179</ele>
        <time>2016-08-26T10:52:12Z</time>
      </trkpt>
      <trkpt lat="45.9451" lon="4.734">
        <ele>179</ele>
        <time>2016-08-26T10:52:13Z</time>
      </trkpt>
      <trkpt lat="45.94508" lon="4.7339">
        <ele>179</ele>
        <time>2016-08-26T10:52:14Z</time>
      </trkpt>
      <trkpt lat="45.94507" lon="4.73379">
        <ele>178</ele>
        <time>2016-08-26T10:52:15Z</time>
      </trkpt>
      <trkpt lat="45.94506" lon="4.73368">
        <ele>178</ele>
        <time>2016-08-26T10:52:16Z</time>
      </trkpt>
      <trkpt lat="45.94505" lon="4.73358">
        <ele>178</ele>
        <time>2016-08-26T10:52:17Z</time>
      </trkpt>
      <trkpt lat="45.94503" lon="4.73348">
        <ele>178</ele>
        <time>2016-08-26T10:52:18Z</time>
      </trkpt>
      <trkpt lat="45.94502" lon="4.73337">
        <ele>177</ele>
        <time>2016-08-26T10:52:19Z</time>
      </trkpt>
      <trkpt lat="45.94501" lon="4.73326">
        <ele>177</ele>
        <time>2016-08-26T10:52:20Z</time>
      </trkpt>
      <trkpt lat="45.945" lon="4.73315">
        <ele>177</ele>
        <time>2016-08-26T10:52:21Z</time>
      </trkpt>
      <trkpt lat="45.94499" lon="4.73304">
        <ele>177</ele>
        <time>2016-08-26T10:52:22Z</time>
      </trkpt>
      <trkpt lat="45.94497" lon="4.73293">
        <ele>177</ele>
        <time>2016-08-26T10:52:23Z</time>
      </trkpt>
      <trkpt lat="45.94495" lon="4.73282">
        <ele>177</ele>
        <time>2016-08-26T10:52:24Z</time>
      </trkpt>
      <trkpt lat="45.94493" lon="4.73271">
        <ele>177</ele>
        <time>2016-08-26T10:52:25Z</time>
      </trkpt>
      <trkpt lat="45.94492" lon="4.73261">
        <ele>176</ele>
        <time>2016-08-26T10:52:26Z</time>
      </trkpt>
      <trkpt lat="45.9449" lon="4.7325">
        <ele>176</ele>
        <time>2016-08-26T10:52:27Z</time>
      </trkpt>
      <trkpt lat="45.9449" lon="4.73239">
        <ele>175</ele>
        <time>2016-08-26T10:52:28Z</time>
      </trkpt>
      <trkpt lat="45.94489" lon="4.73228">
        <ele>175</ele>
        <time>2016-08-26T10:52:29Z</time>
      </trkpt>
      <trkpt lat="45.94486" lon="4.73217">
        <ele>175</ele>
        <time>2016-08-26T10:52:30Z</time>
      </trkpt>
      <trkpt lat="45.94485" lon="4.73206">
        <ele>175</ele>
        <time>2016-08-26T10:52:31Z</time>
      </trkpt>
      <trkpt lat="45.94484" lon="4.73195">
        <ele>174</ele>
        <time>2016-08-26T10:52:32Z</time>
      </trkpt>
      <trkpt lat="45.94482" lon="4.73184">
        <ele>174</ele>
        <time>2016-08-26T10:52:33Z</time>
      </trkpt>
      <trkpt lat="45.94481" lon="4.73174">
        <ele>174</ele>
        <time>2016-08-26T10:52:34Z</time>
      </trkpt>
      <trkpt lat="45.9448" lon="4.73164">
        <ele>173</ele>
        <time>2016-08-26T10:52:35Z</time>
      </trkpt>
      <trkpt lat="45.94479" lon="4.73154">
        <ele>173</ele>
        <time>2016-08-26T10:52:36Z</time>
      </trkpt>
      <trkpt lat="45.94478" lon="4.73145">
        <ele>172</ele>
        <time>2016-08-26T10:52:37Z</time>
      </trkpt>
      <trkpt lat="45.94477" lon="4.73136">
        <ele>172</ele>
        <time>2016-08-26T10:52:38Z</time>
      </trkpt>
      <trkpt lat="45.94477" lon="4.73126">
        <ele>172</ele>
        <time>2016-08-26T10:52:39Z</time>
      </trkpt>
      <trkpt lat="45.94476" lon="4.73117">
        <ele>172</ele>
        <time>2016-08-26T10:52:40Z</time>
      </trkpt>
      <trkpt lat="45.94476" lon="4.73108">
        <ele>172</ele>
        <time>2016-08-26T10:52:41Z</time>
      </trkpt>
      <trkpt lat="45.94475" lon="4.731">
        <ele>172</ele>
        <time>2016-08-26T10:52:42Z</time>
      </trkpt>
      <trkpt lat="45.94474" lon="4.73091">
        <ele>172</ele>
        <time>2016-08-26T10:52:43Z</time>
      </trkpt>
      <trkpt lat="45.94473" lon="4.73084">
        <ele>172</ele>
        <time>2016-08-26T10:52:44Z</time>
      </trkpt>
      <trkpt lat="45.94472" lon="4.73076">
        <ele>170</ele>
        <time>2016-08-26T10:52:45Z</time>
      </trkpt>
      <trkpt lat="45.9447" lon="4.73068">
        <ele>170</ele>
        <time>2016-08-26T10:52:46Z</time>
      </trkpt>
      <trkpt lat="45.94469" lon="4.73061">
        <ele>170</ele>
        <time>2016-08-26T10:52:47Z</time>
      </trkpt>
      <trkpt lat="45.94468" lon="4.73053">
        <ele>170</ele>
        <time>2016-08-26T10:52:48Z</time>
      </trkpt>
      <trkpt lat="45.94466" lon="4.73045">
        <ele>170</ele>
        <time>2016-08-26T10:52:49Z</time>
      </trkpt>
      <trkpt lat="45.94465" lon="4.73038">
        <ele>170</ele>
        <time>2016-08-26T10:52:50Z</time>
      </trkpt>
      <trkpt lat="45.94463" lon="4.7303">
        <ele>169</ele>
        <time>2016-08-26T10:52:51Z</time>
      </trkpt>
      <trkpt lat="45.94462" lon="4.73023">
        <ele>169</ele>
        <time>2016-08-26T10:52:52Z</time>
      </trkpt>
      <trkpt lat="45.9446" lon="4.73015">
        <ele>169</ele>
        <time>2016-08-26T10:52:53Z</time>
      </trkpt>
      <trkpt lat="45.94459" lon="4.73008">
        <ele>169</ele>
        <time>2016-08-26T10:52:54Z</time>
      </trkpt>
      <trkpt lat="45.94457" lon="4.73001">
        <ele>169</ele>
        <time>2016-08-26T10:52:55Z</time>
      </trkpt>
      <trkpt lat="45.94456" lon="4.72994">
        <ele>168</ele>
        <time>2016-08-26T10:52:56Z</time>
      </trkpt>
      <trkpt lat="45.94454" lon="4.72987">
        <ele>167</ele>
        <time>2016-08-26T10:52:57Z</time>
      </trkpt>
      <trkpt lat="45.94453" lon="4.7298">
        <ele>167</ele>
        <time>2016-08-26T10:52:58Z</time>
      </trkpt>
      <trkpt lat="45.94453" lon="4.72973">
        <ele>167</ele>
        <time>2016-08-26T10:52:59Z</time>
      </trkpt>
      <trkpt lat="45.94452" lon="4.72966">
        <ele>167</ele>
        <time>2016-08-26T10:53:00Z</time>
      </trkpt>
      <trkpt lat="45.94451" lon="4.7296">
        <ele>167</ele>
        <time>2016-08-26T10:53:01Z</time>
      </trkpt>
      <trkpt lat="45.9445" lon="4.72953">
        <ele>167</ele>
        <time>2016-08-26T10:53:02Z</time>
      </trkpt>
      <trkpt lat="45.94449" lon="4.72946">
        <ele>167</ele>
        <time>2016-08-26T10:53:03Z</time>
      </trkpt>
      <trkpt lat="45.94448" lon="4.72939">
        <ele>167</ele>
        <time>2016-08-26T10:53:04Z</time>
      </trkpt>
      <trkpt lat="45.94447" lon="4.72932">
        <ele>167</ele>
        <time>2016-08-26T10:53:05Z</time>
      </trkpt>
      <trkpt lat="45.94446" lon="4.72925">
        <ele>167</ele>
        <time>2016-08-26T10:53:06Z</time>
      </trkpt>
      <trkpt lat="45.94445" lon="4.72917">
        <ele>167</ele>
        <time>2016-08-26T10:53:07Z</time>
      </trkpt>
      <trkpt lat="45.94444" lon="4.72909">
        <ele>166</ele>
        <time>2016-08-26T10:53:08Z</time>
      </trkpt>
      <trkpt lat="45.94442" lon="4.72901">
        <ele>166</ele>
        <time>2016-08-26T10:53:09Z</time>
      </trkpt>
      <trkpt lat="45.94441" lon="4.72893">
        <ele>166</ele>
        <time>2016-08-26T10:53:10Z</time>
      </trkpt>
      <trkpt lat="45.9444" lon="4.72884">
        <ele>166</ele>
        <time>2016-08-26T10:53:11Z</time>
      </trkpt>
      <trkpt lat="45.94438" lon="4.72876">
        <ele>166</ele>
        <time>2016-08-26T10:53:12Z</time>
      </trkpt>
      <trkpt lat="45.94437" lon="4.72867">
        <ele>166</ele>
        <time>2016-08-26T10:53:13Z</time>
      </trkpt>
      <trkpt lat="45.94436" lon="4.72859">
        <ele>166</ele>
        <time>2016-08-26T10:53:14Z</time>
      </trkpt>
      <trkpt lat="45.94434" lon="4.7285">
        <ele>166</ele>
        <time>2016-08-26T10:53:15Z</time>
      </trkpt>
      <trkpt lat="45.94433" lon="4.72841">
        <ele>166</ele>
        <time>2016-08-26T10:53:16Z</time>
      </trkpt>
      <trkpt lat="45.94431" lon="4.72832">
        <ele>167</ele>
        <time>2016-08-26T10:53:17Z</time>
      </trkpt>
      <trkpt lat="45.94429" lon="4.72822">
        <ele>167</ele>
        <time>2016-08-26T10:53:18Z</time>
      </trkpt>
      <trkpt lat="45.94428" lon="4.72813">
        <ele>167</ele>
        <time>2016-08-26T10:53:19Z</time>
      </trkpt>
      <trkpt lat="45.94427" lon="4.72803">
        <ele>167</ele>
        <time>2016-08-26T10:53:20Z</time>
      </trkpt>
      <trkpt lat="45.94426" lon="4.72792">
        <ele>168</ele>
        <time>2016-08-26T10:53:21Z</time>
      </trkpt>
      <trkpt lat="45.94425" lon="4.72782">
        <ele>168</ele>
        <time>2016-08-26T10:53:22Z</time>
      </trkpt>
      <trkpt lat="45.94424" lon="4.72771">
        <ele>169</ele>
        <time>2016-08-26T10:53:23Z</time>
      </trkpt>
      <trkpt lat="45.94423" lon="4.7276">
        <ele>170</ele>
        <time>2016-08-26T10:53:24Z</time>
      </trkpt>
      <trkpt lat="45.94421" lon="4.7275">
        <ele>171</ele>
        <time>2016-08-26T10:53:25Z</time>
      </trkpt>
      <trkpt lat="45.94421" lon="4.72739">
        <ele>171</ele>
        <time>2016-08-26T10:53:26Z</time>
      </trkpt>
      <trkpt lat="45.94421" lon="4.72728">
        <ele>171</ele>
        <time>2016-08-26T10:53:27Z</time>
      </trkpt>
      <trkpt lat="45.94419" lon="4.72718">
        <ele>171</ele>
        <time>2016-08-26T10:53:28Z</time>
      </trkpt>
      <trkpt lat="45.94418" lon="4.72706">
        <ele>172</ele>
        <time>2016-08-26T10:53:29Z</time>
      </trkpt>
      <trkpt lat="45.94416" lon="4.72695">
        <ele>173</ele>
        <time>2016-08-26T10:53:30Z</time>
      </trkpt>
      <trkpt lat="45.94415" lon="4.72684">
        <ele>173</ele>
        <time>2016-08-26T10:53:31Z</time>
      </trkpt>
      <trkpt lat="45.94414" lon="4.72673">
        <ele>174</ele>
        <time>2016-08-26T10:53:32Z</time>
      </trkpt>
      <trkpt lat="45.94412" lon="4.72662">
        <ele>174</ele>
        <time>2016-08-26T10:53:33Z</time>
      </trkpt>
      <trkpt lat="45.94411" lon="4.72651">
        <ele>174</ele>
        <time>2016-08-26T10:53:34Z</time>
      </trkpt>
      <trkpt lat="45.9441" lon="4.7264">
        <ele>174</ele>
        <time>2016-08-26T10:53:35Z</time>
      </trkpt>
      <trkpt lat="45.94409" lon="4.7263">
        <ele>174</ele>
        <time>2016-08-26T10:53:36Z</time>
      </trkpt>
      <trkpt lat="45.94408" lon="4.72619">
        <ele>173</ele>
        <time>2016-08-26T10:53:37Z</time>
      </trkpt>
      <trkpt lat="45.94407" lon="4.72609">
        <ele>173</ele>
        <time>2016-08-26T10:53:38Z</time>
      </trkpt>
      <trkpt lat="45.94406" lon="4.72599">
        <ele>173</ele>
        <time>2016-08-26T10:53:39Z</time>
      </trkpt>
      <trkpt lat="45.94405" lon="4.72589">
        <ele>173</ele>
        <time>2016-08-26T10:53:40Z</time>
      </trkpt>
      <trkpt lat="45.94404" lon="4.7258">
        <ele>173</ele>
        <time>2016-08-26T10:53:41Z</time>
      </trkpt>
      <trkpt lat="45.94402" lon="4.7257">
        <ele>173</ele>
        <time>2016-08-26T10:53:42Z</time>
      </trkpt>
      <trkpt lat="45.94401" lon="4.72561">
        <ele>173</ele>
        <time>2016-08-26T10:53:43Z</time>
      </trkpt>
      <trkpt lat="45.94399" lon="4.72552">
        <ele>173</ele>
        <time>2016-08-26T10:53:44Z</time>
      </trkpt>
      <trkpt lat="45.94398" lon="4.72544">
        <ele>173</ele>
        <time>2016-08-26T10:53:45Z</time>
      </trkpt>
      <trkpt lat="45.94396" lon="4.72535">
        <ele>174</ele>
        <time>2016-08-26T10:53:46Z</time>
      </trkpt>
      <trkpt lat="45.94394" lon="4.72527">
        <ele>174</ele>
        <time>2016-08-26T10:53:47Z</time>
      </trkpt>
      <trkpt lat="45.94392" lon="4.72519">
        <ele>174</ele>
        <time>2016-08-26T10:53:48Z</time>
      </trkpt>
      <trkpt lat="45.94391" lon="4.72511">
        <ele>174</ele>
        <time>2016-08-26T10:53:49Z</time>
      </trkpt>
      <trkpt lat="45.94388" lon="4.72504">
        <ele>174</ele>
        <time>2016-08-26T10:53:50Z</time>
      </trkpt>
      <trkpt lat="45.94385" lon="4.72496">
        <ele>173</ele>
        <time>2016-08-26T10:53:51Z</time>
      </trkpt>
      <trkpt lat="45.94383" lon="4.72488">
        <ele>173</ele>
        <time>2016-08-26T10:53:52Z</time>
      </trkpt>
      <trkpt lat="45.94379" lon="4.7248">
        <ele>173</ele>
        <time>2016-08-26T10:53:53Z</time>
      </trkpt>
      <trkpt lat="45.94376" lon="4.72472">
        <ele>173</ele>
        <time>2016-08-26T10:53:54Z</time>
      </trkpt>
      <trkpt lat="45.94372" lon="4.72464">
        <ele>173</ele>
        <time>2016-08-26T10:53:55Z</time>
      </trkpt>
      <trkpt lat="45.94368" lon="4.72456">
        <ele>173</ele>
        <time>2016-08-26T10:53:56Z</time>
      </trkpt>
      <trkpt lat="45.94365" lon="4.72447">
        <ele>173</ele>
        <time>2016-08-26T10:53:57Z</time>
      </trkpt>
      <trkpt lat="45.94361" lon="4.7244">
        <ele>173</ele>
        <time>2016-08-26T10:53:58Z</time>
      </trkpt>
      <trkpt lat="45.94357" lon="4.72431">
        <ele>173</ele>
        <time>2016-08-26T10:53:59Z</time>
      </trkpt>
      <trkpt lat="45.94355" lon="4.72424">
        <ele>173</ele>
        <time>2016-08-26T10:54:00Z</time>
      </trkpt>
      <trkpt lat="45.94352" lon="4.72417">
        <ele>173</ele>
        <time>2016-08-26T10:54:01Z</time>
      </trkpt>
      <trkpt lat="45.94349" lon="4.72411">
        <ele>173</ele>
        <time>2016-08-26T10:54:02Z</time>
      </trkpt>
      <trkpt lat="45.94347" lon="4.72404">
        <ele>172</ele>
        <time>2016-08-26T10:54:03Z</time>
      </trkpt>
      <trkpt lat="45.94344" lon="4.72396">
        <ele>172</ele>
        <time>2016-08-26T10:54:04Z</time>
      </trkpt>
      <trkpt lat="45.94342" lon="4.72389">
        <ele>172</ele>
        <time>2016-08-26T10:54:05Z</time>
      </trkpt>
      <trkpt lat="45.94338" lon="4.72382">
        <ele>172</ele>
        <time>2016-08-26T10:54:06Z</time>
      </trkpt>
      <trkpt lat="45.94335" lon="4.72374">
        <ele>172</ele>
        <time>2016-08-26T10:54:07Z</time>
      </trkpt>
      <trkpt lat="45.94331" lon="4.72366">
        <ele>172</ele>
        <time>2016-08-26T10:54:08Z</time>
      </trkpt>
      <trkpt lat="45.94328" lon="4.72358">
        <ele>172</ele>
        <time>2016-08-26T10:54:09Z</time>
      </trkpt>
      <trkpt lat="45.94325" lon="4.72351">
        <ele>172</ele>
        <time>2016-08-26T10:54:10Z</time>
      </trkpt>
      <trkpt lat="45.94322" lon="4.72344">
        <ele>172</ele>
        <time>2016-08-26T10:54:11Z</time>
      </trkpt>
      <trkpt lat="45.94318" lon="4.72336">
        <ele>172</ele>
        <time>2016-08-26T10:54:12Z</time>
      </trkpt>
      <trkpt lat="45.94314" lon="4.72328">
        <ele>172</ele>
        <time>2016-08-26T10:54:13Z</time>
      </trkpt>
      <trkpt lat="45.9431" lon="4.7232">
        <ele>171</ele>
        <time>2016-08-26T10:54:14Z</time>
      </trkpt>
      <trkpt lat="45.94307" lon="4.72313">
        <ele>171</ele>
        <time>2016-08-26T10:54:15Z</time>
      </trkpt>
      <trkpt lat="45.94304" lon="4.72305">
        <ele>171</ele>
        <time>2016-08-26T10:54:16Z</time>
      </trkpt>
      <trkpt lat="45.943" lon="4.72298">
        <ele>171</ele>
        <time>2016-08-26T10:54:17Z</time>
      </trkpt>
      <trkpt lat="45.94296" lon="4.72291">
        <ele>171</ele>
        <time>2016-08-26T10:54:18Z</time>
      </trkpt>
      <trkpt lat="45.94293" lon="4.72284">
        <ele>171</ele>
        <time>2016-08-26T10:54:19Z</time>
      </trkpt>
      <trkpt lat="45.9429" lon="4.72277">
        <ele>171</ele>
        <time>2016-08-26T10:54:20Z</time>
      </trkpt>
      <trkpt lat="45.94285" lon="4.72269">
        <ele>171</ele>
        <time>2016-08-26T10:54:22Z</time>
      </trkpt>
      <trkpt lat="45.94282" lon="4.72266">
        <ele>171</ele>
        <time>2016-08-26T10:54:23Z</time>
      </trkpt>
      <trkpt lat="45.94276" lon="4.72267">
        <ele>171</ele>
        <time>2016-08-26T10:54:25Z</time>
      </trkpt>
      <trkpt lat="45.94271" lon="4.7227">
        <ele>171</ele>
        <time>2016-08-26T10:54:26Z</time>
      </trkpt>
      <trkpt lat="45.94266" lon="4.72274">
        <ele>171</ele>
        <time>2016-08-26T10:54:27Z</time>
      </trkpt>
      <trkpt lat="45.94259" lon="4.72276">
        <ele>171</ele>
        <time>2016-08-26T10:54:28Z</time>
      </trkpt>
      <trkpt lat="45.94253" lon="4.72278">
        <ele>171</ele>
        <time>2016-08-26T10:54:29Z</time>
      </trkpt>
      <trkpt lat="45.94247" lon="4.7228">
        <ele>171</ele>
        <time>2016-08-26T10:54:30Z</time>
      </trkpt>
      <trkpt lat="45.94242" lon="4.72281">
        <ele>171</ele>
        <time>2016-08-26T10:54:31Z</time>
      </trkpt>
      <trkpt lat="45.94236" lon="4.72282">
        <ele>171</ele>
        <time>2016-08-26T10:54:32Z</time>
      </trkpt>
      <trkpt lat="45.94229" lon="4.72283">
        <ele>171</ele>
        <time>2016-08-26T10:54:33Z</time>
      </trkpt>
      <trkpt lat="45.94223" lon="4.72284">
        <ele>171</ele>
        <time>2016-08-26T10:54:34Z</time>
      </trkpt>
      <trkpt lat="45.94217" lon="4.72284">
        <ele>171</ele>
        <time>2016-08-26T10:54:35Z</time>
      </trkpt>
      <trkpt lat="45.94211" lon="4.72284">
        <ele>171</ele>
        <time>2016-08-26T10:54:36Z</time>
      </trkpt>
      <trkpt lat="45.94205" lon="4.72284">
        <ele>171</ele>
        <time>2016-08-26T10:54:37Z</time>
      </trkpt>
      <trkpt lat="45.94199" lon="4.72285">
        <ele>171</ele>
        <time>2016-08-26T10:54:38Z</time>
      </trkpt>
      <trkpt lat="45.94193" lon="4.72285">
        <ele>171</ele>
        <time>2016-08-26T10:54:39Z</time>
      </trkpt>
      <trkpt lat="45.94186" lon="4.72284">
        <ele>171</ele>
        <time>2016-08-26T10:54:40Z</time>
      </trkpt>
      <trkpt lat="45.94181" lon="4.72284">
        <ele>171</ele>
        <time>2016-08-26T10:54:41Z</time>
      </trkpt>
      <trkpt lat="45.94174" lon="4.72284">
        <ele>171</ele>
        <time>2016-08-26T10:54:42Z</time>
      </trkpt>
      <trkpt lat="45.94168" lon="4.72283">
        <ele>171</ele>
        <time>2016-08-26T10:54:43Z</time>
      </trkpt>
      <trkpt lat="45.94163" lon="4.72283">
        <ele>171</ele>
        <time>2016-08-26T10:54:44Z</time>
      </trkpt>
      <trkpt lat="45.94157" lon="4.72282">
        <ele>171</ele>
        <time>2016-08-26T10:54:45Z</time>
      </trkpt>
      <trkpt lat="45.94151" lon="4.72281">
        <ele>171</ele>
        <time>2016-08-26T10:54:46Z</time>
      </trkpt>
      <trkpt lat="45.94146" lon="4.72279">
        <ele>171</ele>
        <time>2016-08-26T10:54:47Z</time>
      </trkpt>
      <trkpt lat="45.9414" lon="4.72277">
        <ele>171</ele>
        <time>2016-08-26T10:54:48Z</time>
      </trkpt>
      <trkpt lat="45.94135" lon="4.72274">
        <ele>171</ele>
        <time>2016-08-26T10:54:49Z</time>
      </trkpt>
      <trkpt lat="45.9413" lon="4.72271">
        <ele>171</ele>
        <time>2016-08-26T10:54:50Z</time>
      </trkpt>
      <trkpt lat="45.94126" lon="4.72269">
        <ele>171</ele>
        <time>2016-08-26T10:54:51Z</time>
      </trkpt>
      <trkpt lat="45.94121" lon="4.72267">
        <ele>171</ele>
        <time>2016-08-26T10:54:52Z</time>
      </trkpt>
      <trkpt lat="45.94116" lon="4.72265">
        <ele>171</ele>
        <time>2016-08-26T10:54:53Z</time>
      </trkpt>
      <trkpt lat="45.94111" lon="4.72264">
        <ele>171</ele>
        <time>2016-08-26T10:54:54Z</time>
      </trkpt>
      <trkpt lat="45.94106" lon="4.72263">
        <ele>171</ele>
        <time>2016-08-26T10:54:55Z</time>
      </trkpt>
      <trkpt lat="45.94101" lon="4.72263">
        <ele>171</ele>
        <time>2016-08-26T10:54:56Z</time>
      </trkpt>
      <trkpt lat="45.94094" lon="4.72264">
        <ele>171</ele>
        <time>2016-08-26T10:54:57Z</time>
      </trkpt>
      <trkpt lat="45.94086" lon="4.72266">
        <ele>171</ele>
        <time>2016-08-26T10:54:58Z</time>
      </trkpt>
      <trkpt lat="45.94077" lon="4.72269">
        <ele>171</ele>
        <time>2016-08-26T10:54:59Z</time>
      </trkpt>
      <trkpt lat="45.94072" lon="4.72272">
        <ele>171</ele>
        <time>2016-08-26T10:55:00Z</time>
      </trkpt>
      <trkpt lat="45.94066" lon="4.72275">
        <ele>171</ele>
        <time>2016-08-26T10:55:01Z</time>
      </trkpt>
      <trkpt lat="45.94061" lon="4.72281">
        <ele>171</ele>
        <time>2016-08-26T10:55:02Z</time>
      </trkpt>
      <trkpt lat="45.94056" lon="4.72286">
        <ele>171</ele>
        <time>2016-08-26T10:55:03Z</time>
      </trkpt>
      <trkpt lat="45.9405" lon="4.72292">
        <ele>171</ele>
        <time>2016-08-26T10:55:04Z</time>
      </trkpt>
      <trkpt lat="45.94046" lon="4.72299">
        <ele>171</ele>
        <time>2016-08-26T10:55:05Z</time>
      </trkpt>
      <trkpt lat="45.94041" lon="4.72305">
        <ele>171</ele>
        <time>2016-08-26T10:55:06Z</time>
      </trkpt>
      <trkpt lat="45.94036" lon="4.72311">
        <ele>171</ele>
        <time>2016-08-26T10:55:07Z</time>
      </trkpt>
      <trkpt lat="45.94031" lon="4.72316">
        <ele>171</ele>
        <time>2016-08-26T10:55:08Z</time>
      </trkpt>
      <trkpt lat="45.94026" lon="4.72322">
        <ele>171</ele>
        <time>2016-08-26T10:55:09Z</time>
      </trkpt>
      <trkpt lat="45.94022" lon="4.72328">
        <ele>171</ele>
        <time>2016-08-26T10:55:10Z</time>
      </trkpt>
      <trkpt lat="45.94017" lon="4.72334">
        <ele>171</ele>
        <time>2016-08-26T10:55:11Z</time>
      </trkpt>
      <trkpt lat="45.94013" lon="4.72341">
        <ele>171</ele>
        <time>2016-08-26T10:55:12Z</time>
      </trkpt>
      <trkpt lat="45.94009" lon="4.72347">
        <ele>171</ele>
        <time>2016-08-26T10:55:13Z</time>
      </trkpt>
      <trkpt lat="45.94004" lon="4.72352">
        <ele>171</ele>
        <time>2016-08-26T10:55:14Z</time>
      </trkpt>
      <trkpt lat="45.94" lon="4.72358">
        <ele>171</ele>
        <time>2016-08-26T10:55:15Z</time>
      </trkpt>
      <trkpt lat="45.93995" lon="4.72363">
        <ele>171</ele>
        <time>2016-08-26T10:55:16Z</time>
      </trkpt>
      <trkpt lat="45.9399" lon="4.72369">
        <ele>171</ele>
        <time>2016-08-26T10:55:17Z</time>
      </trkpt>
      <trkpt lat="45.93986" lon="4.72375">
        <ele>171</ele>
        <time>2016-08-26T10:55:18Z</time>
      </trkpt>
      <trkpt lat="45.93981" lon="4.72381">
        <ele>171</ele>
        <time>2016-08-26T10:55:19Z</time>
      </trkpt>
      <trkpt lat="45.93976" lon="4.72387">
        <ele>171</ele>
        <time>2016-08-26T10:55:20Z</time>
      </trkpt>
      <trkpt lat="45.93972" lon="4.72393">
        <ele>171</ele>
        <time>2016-08-26T10:55:21Z</time>
      </trkpt>
      <trkpt lat="45.93967" lon="4.72399">
        <ele>171</ele>
        <time>2016-08-26T10:55:22Z</time>
      </trkpt>
      <trkpt lat="45.93962" lon="4.72405">
        <ele>171</ele>
        <time>2016-08-26T10:55:23Z</time>
      </trkpt>
      <trkpt lat="45.93957" lon="4.7241">
        <ele>171</ele>
        <time>2016-08-26T10:55:24Z</time>
      </trkpt>
      <trkpt lat="45.93952" lon="4.72416">
        <ele>171</ele>
        <time>2016-08-26T10:55:25Z</time>
      </trkpt>
      <trkpt lat="45.93948" lon="4.72421">
        <ele>171</ele>
        <time>2016-08-26T10:55:26Z</time>
      </trkpt>
      <trkpt lat="45.93944" lon="4.72426">
        <ele>171</ele>
        <time>2016-08-26T10:55:27Z</time>
      </trkpt>
      <trkpt lat="45.9394" lon="4.72431">
        <ele>171</ele>
        <time>2016-08-26T10:55:28Z</time>
      </trkpt>
      <trkpt lat="45.93936" lon="4.72436">
        <ele>171</ele>
        <time>2016-08-26T10:55:29Z</time>
      </trkpt>
      <trkpt lat="45.93931" lon="4.7244">
        <ele>171</ele>
        <time>2016-08-26T10:55:30Z</time>
      </trkpt>
      <trkpt lat="45.93925" lon="4.72446">
        <ele>171</ele>
        <time>2016-08-26T10:55:31Z</time>
      </trkpt>
      <trkpt lat="45.93921" lon="4.72452">
        <ele>171</ele>
        <time>2016-08-26T10:55:32Z</time>
      </trkpt>
      <trkpt lat="45.93917" lon="4.72457">
        <ele>171</ele>
        <time>2016-08-26T10:55:33Z</time>
      </trkpt>
      <trkpt lat="45.93913" lon="4.72463">
        <ele>172</ele>
        <time>2016-08-26T10:55:34Z</time>
      </trkpt>
      <trkpt lat="45.93909" lon="4.72468">
        <ele>172</ele>
        <time>2016-08-26T10:55:35Z</time>
      </trkpt>
      <trkpt lat="45.93904" lon="4.72474">
        <ele>172</ele>
        <time>2016-08-26T10:55:36Z</time>
      </trkpt>
      <trkpt lat="45.93901" lon="4.72479">
        <ele>172</ele>
        <time>2016-08-26T10:55:37Z</time>
      </trkpt>
      <trkpt lat="45.93896" lon="4.72484">
        <ele>172</ele>
        <time>2016-08-26T10:55:38Z</time>
      </trkpt>
      <trkpt lat="45.93892" lon="4.72489">
        <ele>172</ele>
        <time>2016-08-26T10:55:39Z</time>
      </trkpt>
      <trkpt lat="45.93888" lon="4.72493">
        <ele>172</ele>
        <time>2016-08-26T10:55:40Z</time>
      </trkpt>
      <trkpt lat="45.93884" lon="4.72498">
        <ele>172</ele>
        <time>2016-08-26T10:55:41Z</time>
      </trkpt>
      <trkpt lat="45.9388" lon="4.72502">
        <ele>173</ele>
        <time>2016-08-26T10:55:42Z</time>
      </trkpt>
      <trkpt lat="45.93876" lon="4.72507">
        <ele>173</ele>
        <time>2016-08-26T10:55:43Z</time>
      </trkpt>
      <trkpt lat="45.93872" lon="4.72511">
        <ele>173</ele>
        <time>2016-08-26T10:55:44Z</time>
      </trkpt>
      <trkpt lat="45.93868" lon="4.72515">
        <ele>173</ele>
        <time>2016-08-26T10:55:45Z</time>
      </trkpt>
      <trkpt lat="45.93859" lon="4.72514">
        <ele>173</ele>
        <time>2016-08-26T10:55:47Z</time>
      </trkpt>
      <trkpt lat="45.93855" lon="4.72511">
        <ele>173</ele>
        <time>2016-08-26T10:55:48Z</time>
      </trkpt>
      <trkpt lat="45.93851" lon="4.72508">
        <ele>173</ele>
        <time>2016-08-26T10:55:49Z</time>
      </trkpt>
      <trkpt lat="45.93847" lon="4.72505">
        <ele>174</ele>
        <time>2016-08-26T10:55:50Z</time>
      </trkpt>
      <trkpt lat="45.93843" lon="4.72501">
        <ele>174</ele>
        <time>2016-08-26T10:55:51Z</time>
      </trkpt>
      <trkpt lat="45.93839" lon="4.72496">
        <ele>174</ele>
        <time>2016-08-26T10:55:52Z</time>
      </trkpt>
      <trkpt lat="45.93835" lon="4.72491">
        <ele>173</ele>
        <time>2016-08-26T10:55:53Z</time>
      </trkpt>
      <trkpt lat="45.93831" lon="4.72486">
        <ele>173</ele>
        <time>2016-08-26T10:55:54Z</time>
      </trkpt>
      <trkpt lat="45.93826" lon="4.72477">
        <ele>173</ele>
        <time>2016-08-26T10:55:55Z</time>
      </trkpt>
      <trkpt lat="45.93826" lon="4.72469">
        <ele>172</ele>
        <time>2016-08-26T10:55:56Z</time>
      </trkpt>
      <trkpt lat="45.93819" lon="4.72462">
        <ele>172</ele>
        <time>2016-08-26T10:55:58Z</time>
      </trkpt>
      <trkpt lat="45.93816" lon="4.72458">
        <ele>172</ele>
        <time>2016-08-26T10:55:59Z</time>
      </trkpt>
      <trkpt lat="45.93812" lon="4.72454">
        <ele>172</ele>
        <time>2016-08-26T10:56:00Z</time>
      </trkpt>
      <trkpt lat="45.93808" lon="4.72449">
        <ele>172</ele>
        <time>2016-08-26T10:56:01Z</time>
      </trkpt>
      <trkpt lat="45.93801" lon="4.72443">
        <ele>172</ele>
        <time>2016-08-26T10:56:03Z</time>
      </trkpt>
      <trkpt lat="45.93798" lon="4.72439">
        <ele>172</ele>
        <time>2016-08-26T10:56:04Z</time>
      </trkpt>
      <trkpt lat="45.93791" lon="4.72432">
        <ele>172</ele>
        <time>2016-08-26T10:56:06Z</time>
      </trkpt>
      <trkpt lat="45.93787" lon="4.72429">
        <ele>172</ele>
        <time>2016-08-26T10:56:07Z</time>
      </trkpt>
      <trkpt lat="45.93782" lon="4.72426">
        <ele>172</ele>
        <time>2016-08-26T10:56:08Z</time>
      </trkpt>
      <trkpt lat="45.93778" lon="4.72422">
        <ele>171</ele>
        <time>2016-08-26T10:56:09Z</time>
      </trkpt>
      <trkpt lat="45.93774" lon="4.72419">
        <ele>171</ele>
        <time>2016-08-26T10:56:10Z</time>
      </trkpt>
      <trkpt lat="45.9377" lon="4.72413">
        <ele>171</ele>
        <time>2016-08-26T10:56:11Z</time>
      </trkpt>
      <trkpt lat="45.93766" lon="4.72408">
        <ele>171</ele>
        <time>2016-08-26T10:56:12Z</time>
      </trkpt>
      <trkpt lat="45.93761" lon="4.72404">
        <ele>171</ele>
        <time>2016-08-26T10:56:13Z</time>
      </trkpt>
      <trkpt lat="45.93757" lon="4.72399">
        <ele>171</ele>
        <time>2016-08-26T10:56:14Z</time>
      </trkpt>
      <trkpt lat="45.93753" lon="4.72396">
        <ele>171</ele>
        <time>2016-08-26T10:56:15Z</time>
      </trkpt>
      <trkpt lat="45.9375" lon="4.72392">
        <ele>171</ele>
        <time>2016-08-26T10:56:16Z</time>
      </trkpt>
      <trkpt lat="45.93745" lon="4.72387">
        <ele>171</ele>
        <time>2016-08-26T10:56:17Z</time>
      </trkpt>
      <trkpt lat="45.9374" lon="4.72383">
        <ele>171</ele>
        <time>2016-08-26T10:56:18Z</time>
      </trkpt>
      <trkpt lat="45.93734" lon="4.72378">
        <ele>171</ele>
        <time>2016-08-26T10:56:19Z</time>
      </trkpt>
      <trkpt lat="45.93729" lon="4.72373">
        <ele>172</ele>
        <time>2016-08-26T10:56:20Z</time>
      </trkpt>
      <trkpt lat="45.93724" lon="4.72368">
        <ele>172</ele>
        <time>2016-08-26T10:56:21Z</time>
      </trkpt>
      <trkpt lat="45.93719" lon="4.72364">
        <ele>172</ele>
        <time>2016-08-26T10:56:22Z</time>
      </trkpt>
      <trkpt lat="45.93715" lon="4.7236">
        <ele>172</ele>
        <time>2016-08-26T10:56:23Z</time>
      </trkpt>
      <trkpt lat="45.93711" lon="4.72356">
        <ele>172</ele>
        <time>2016-08-26T10:56:24Z</time>
      </trkpt>
      <trkpt lat="45.93707" lon="4.72352">
        <ele>171</ele>
        <time>2016-08-26T10:56:25Z</time>
      </trkpt>
      <trkpt lat="45.93703" lon="4.72348">
        <ele>171</ele>
        <time>2016-08-26T10:56:26Z</time>
      </trkpt>
      <trkpt lat="45.93699" lon="4.72344">
        <ele>171</ele>
        <time>2016-08-26T10:56:27Z</time>
      </trkpt>
      <trkpt lat="45.93695" lon="4.72339">
        <ele>171</ele>
        <time>2016-08-26T10:56:28Z</time>
      </trkpt>
      <trkpt lat="45.93689" lon="4.72335">
        <ele>171</ele>
        <time>2016-08-26T10:56:29Z</time>
      </trkpt>
      <trkpt lat="45.93683" lon="4.72332">
        <ele>171</ele>
        <time>2016-08-26T10:56:30Z</time>
      </trkpt>
      <trkpt lat="45.93679" lon="4.72327">
        <ele>171</ele>
        <time>2016-08-26T10:56:31Z</time>
      </trkpt>
      <trkpt lat="45.93675" lon="4.72321">
        <ele>171</ele>
        <time>2016-08-26T10:56:32Z</time>
      </trkpt>
      <trkpt lat="45.9367" lon="4.72316">
        <ele>171</ele>
        <time>2016-08-26T10:56:33Z</time>
      </trkpt>
      <trkpt lat="45.93664" lon="4.72312">
        <ele>172</ele>
        <time>2016-08-26T10:56:34Z</time>
      </trkpt>
      <trkpt lat="45.93659" lon="4.72307">
        <ele>172</ele>
        <time>2016-08-26T10:56:35Z</time>
      </trkpt>
      <trkpt lat="45.93654" lon="4.72303">
        <ele>172</ele>
        <time>2016-08-26T10:56:36Z</time>
      </trkpt>
      <trkpt lat="45.93649" lon="4.72299">
        <ele>172</ele>
        <time>2016-08-26T10:56:37Z</time>
      </trkpt>
      <trkpt lat="45.93642" lon="4.72291">
        <ele>172</ele>
        <time>2016-08-26T10:56:39Z</time>
      </trkpt>
      <trkpt lat="45.93638" lon="4.72288">
        <ele>172</ele>
        <time>2016-08-26T10:56:40Z</time>
      </trkpt>
      <trkpt lat="45.93634" lon="4.72284">
        <ele>172</ele>
        <time>2016-08-26T10:56:41Z</time>
      </trkpt>
      <trkpt lat="45.9363" lon="4.72279">
        <ele>172</ele>
        <time>2016-08-26T10:56:42Z</time>
      </trkpt>
      <trkpt lat="45.93626" lon="4.72275">
        <ele>172</ele>
        <time>2016-08-26T10:56:43Z</time>
      </trkpt>
      <trkpt lat="45.93622" lon="4.7227">
        <ele>172</ele>
        <time>2016-08-26T10:56:44Z</time>
      </trkpt>
      <trkpt lat="45.93617" lon="4.72266">
        <ele>172</ele>
        <time>2016-08-26T10:56:45Z</time>
      </trkpt>
      <trkpt lat="45.93613" lon="4.72262">
        <ele>172</ele>
        <time>2016-08-26T10:56:46Z</time>
      </trkpt>
      <trkpt lat="45.93609" lon="4.72258">
        <ele>173</ele>
        <time>2016-08-26T10:56:47Z</time>
      </trkpt>
      <trkpt lat="45.93605" lon="4.72253">
        <ele>173</ele>
        <time>2016-08-26T10:56:48Z</time>
      </trkpt>
      <trkpt lat="45.93601" lon="4.72242">
        <ele>173</ele>
        <time>2016-08-26T10:56:50Z</time>
      </trkpt>
      <trkpt lat="45.93599" lon="4.72236">
        <ele>173</ele>
        <time>2016-08-26T10:56:51Z</time>
      </trkpt>
      <trkpt lat="45.93595" lon="4.72225">
        <ele>173</ele>
        <time>2016-08-26T10:56:53Z</time>
      </trkpt>
      <trkpt lat="45.9359" lon="4.72221">
        <ele>173</ele>
        <time>2016-08-26T10:56:54Z</time>
      </trkpt>
      <trkpt lat="45.93585" lon="4.7221">
        <ele>173</ele>
        <time>2016-08-26T10:56:57Z</time>
      </trkpt>
      <trkpt lat="45.93584" lon="4.72207">
        <ele>173</ele>
        <time>2016-08-26T10:56:58Z</time>
      </trkpt>
      <trkpt lat="45.93577" lon="4.72204">
        <ele>173</ele>
        <time>2016-08-26T10:57:00Z</time>
      </trkpt>
      <trkpt lat="45.93566" lon="4.72202">
        <ele>173</ele>
        <time>2016-08-26T10:57:01Z</time>
      </trkpt>
      <trkpt lat="45.93558" lon="4.72204">
        <ele>173</ele>
        <time>2016-08-26T10:57:02Z</time>
      </trkpt>
      <trkpt lat="45.93554" lon="4.72208">
        <ele>173</ele>
        <time>2016-08-26T10:57:03Z</time>
      </trkpt>
      <trkpt lat="45.9355" lon="4.72213">
        <ele>173</ele>
        <time>2016-08-26T10:57:04Z</time>
      </trkpt>
      <trkpt lat="45.93546" lon="4.72218">
        <ele>172</ele>
        <time>2016-08-26T10:57:05Z</time>
      </trkpt>
      <trkpt lat="45.93543" lon="4.72224">
        <ele>172</ele>
        <time>2016-08-26T10:57:06Z</time>
      </trkpt>
      <trkpt lat="45.9354" lon="4.7223">
        <ele>172</ele>
        <time>2016-08-26T10:57:07Z</time>
      </trkpt>
      <trkpt lat="45.93537" lon="4.72236">
        <ele>172</ele>
        <time>2016-08-26T10:57:08Z</time>
      </trkpt>
      <trkpt lat="45.93534" lon="4.72242">
        <ele>172</ele>
        <time>2016-08-26T10:57:09Z</time>
      </trkpt>
      <trkpt lat="45.93531" lon="4.72248">
        <ele>172</ele>
        <time>2016-08-26T10:57:10Z</time>
      </trkpt>
      <trkpt lat="45.93528" lon="4.72255">
        <ele>172</ele>
        <time>2016-08-26T10:57:11Z</time>
      </trkpt>
      <trkpt lat="45.93525" lon="4.72262">
        <ele>172</ele>
        <time>2016-08-26T10:57:12Z</time>
      </trkpt>
      <trkpt lat="45.93523" lon="4.72269">
        <ele>172</ele>
        <time>2016-08-26T10:57:13Z</time>
      </trkpt>
      <trkpt lat="45.9352" lon="4.72274">
        <ele>172</ele>
        <time>2016-08-26T10:57:14Z</time>
      </trkpt>
      <trkpt lat="45.93517" lon="4.7228">
        <ele>172</ele>
        <time>2016-08-26T10:57:15Z</time>
      </trkpt>
      <trkpt lat="45.93514" lon="4.72287">
        <ele>172</ele>
        <time>2016-08-26T10:57:16Z</time>
      </trkpt>
      <trkpt lat="45.9351" lon="4.72293">
        <ele>172</ele>
        <time>2016-08-26T10:57:17Z</time>
      </trkpt>
      <trkpt lat="45.93507" lon="4.723">
        <ele>172</ele>
        <time>2016-08-26T10:57:18Z</time>
      </trkpt>
      <trkpt lat="45.93502" lon="4.72306">
        <ele>173</ele>
        <time>2016-08-26T10:57:19Z</time>
      </trkpt>
      <trkpt lat="45.93498" lon="4.72312">
        <ele>173</ele>
        <time>2016-08-26T10:57:20Z</time>
      </trkpt>
      <trkpt lat="45.93494" lon="4.72318">
        <ele>173</ele>
        <time>2016-08-26T10:57:21Z</time>
      </trkpt>
      <trkpt lat="45.93489" lon="4.72323">
        <ele>173</ele>
        <time>2016-08-26T10:57:22Z</time>
      </trkpt>
      <trkpt lat="45.93484" lon="4.7233">
        <ele>173</ele>
        <time>2016-08-26T10:57:23Z</time>
      </trkpt>
      <trkpt lat="45.93479" lon="4.72336">
        <ele>173</ele>
        <time>2016-08-26T10:57:24Z</time>
      </trkpt>
      <trkpt lat="45.93475" lon="4.72343">
        <ele>173</ele>
        <time>2016-08-26T10:57:25Z</time>
      </trkpt>
      <trkpt lat="45.93472" lon="4.7235">
        <ele>173</ele>
        <time>2016-08-26T10:57:26Z</time>
      </trkpt>
      <trkpt lat="45.93467" lon="4.72355">
        <ele>173</ele>
        <time>2016-08-26T10:57:27Z</time>
      </trkpt>
      <trkpt lat="45.93464" lon="4.72361">
        <ele>173</ele>
        <time>2016-08-26T10:57:28Z</time>
      </trkpt>
      <trkpt lat="45.9346" lon="4.72367">
        <ele>173</ele>
        <time>2016-08-26T10:57:29Z</time>
      </trkpt>
      <trkpt lat="45.93456" lon="4.72373">
        <ele>173</ele>
        <time>2016-08-26T10:57:30Z</time>
      </trkpt>
      <trkpt lat="45.93451" lon="4.72378">
        <ele>173</ele>
        <time>2016-08-26T10:57:31Z</time>
      </trkpt>
      <trkpt lat="45.93447" lon="4.72383">
        <ele>173</ele>
        <time>2016-08-26T10:57:32Z</time>
      </trkpt>
      <trkpt lat="45.93442" lon="4.72389">
        <ele>173</ele>
        <time>2016-08-26T10:57:33Z</time>
      </trkpt>
      <trkpt lat="45.93437" lon="4.72394">
        <ele>173</ele>
        <time>2016-08-26T10:57:34Z</time>
      </trkpt>
      <trkpt lat="45.93432" lon="4.72398">
        <ele>174</ele>
        <time>2016-08-26T10:57:35Z</time>
      </trkpt>
      <trkpt lat="45.93425" lon="4.724">
        <ele>174</ele>
        <time>2016-08-26T10:57:36Z</time>
      </trkpt>
      <trkpt lat="45.93418" lon="4.72402">
        <ele>174</ele>
        <time>2016-08-26T10:57:37Z</time>
      </trkpt>
      <trkpt lat="45.93412" lon="4.72403">
        <ele>174</ele>
        <time>2016-08-26T10:57:38Z</time>
      </trkpt>
      <trkpt lat="45.93406" lon="4.72404">
        <ele>174</ele>
        <time>2016-08-26T10:57:39Z</time>
      </trkpt>
      <trkpt lat="45.93401" lon="4.72403">
        <ele>174</ele>
        <time>2016-08-26T10:57:40Z</time>
      </trkpt>
      <trkpt lat="45.93396" lon="4.72403">
        <ele>174</ele>
        <time>2016-08-26T10:57:41Z</time>
      </trkpt>
      <trkpt lat="45.93392" lon="4.72403">
        <ele>174</ele>
        <time>2016-08-26T10:57:42Z</time>
      </trkpt>
      <trkpt lat="45.93387" lon="4.72406">
        <ele>174</ele>
        <time>2016-08-26T10:57:43Z</time>
      </trkpt>
      <trkpt lat="45.93385" lon="4.72411">
        <ele>174</ele>
        <time>2016-08-26T10:57:44Z</time>
      </trkpt>
      <trkpt lat="45.93382" lon="4.72417">
        <ele>173</ele>
        <time>2016-08-26T10:57:45Z</time>
      </trkpt>
      <trkpt lat="45.93383" lon="4.72425">
        <ele>173</ele>
        <time>2016-08-26T10:57:46Z</time>
      </trkpt>
      <trkpt lat="45.93384" lon="4.72433">
        <ele>173</ele>
        <time>2016-08-26T10:57:47Z</time>
      </trkpt>
      <trkpt lat="45.93386" lon="4.72441">
        <ele>173</ele>
        <time>2016-08-26T10:57:48Z</time>
      </trkpt>
      <trkpt lat="45.93388" lon="4.72449">
        <ele>173</ele>
        <time>2016-08-26T10:57:49Z</time>
      </trkpt>
      <trkpt lat="45.93388" lon="4.72457">
        <ele>173</ele>
        <time>2016-08-26T10:57:50Z</time>
      </trkpt>
      <trkpt lat="45.93386" lon="4.72465">
        <ele>173</ele>
        <time>2016-08-26T10:57:51Z</time>
      </trkpt>
      <trkpt lat="45.93383" lon="4.72472">
        <ele>173</ele>
        <time>2016-08-26T10:57:52Z</time>
      </trkpt>
      <trkpt lat="45.93379" lon="4.72478">
        <ele>173</ele>
        <time>2016-08-26T10:57:53Z</time>
      </trkpt>
      <trkpt lat="45.93375" lon="4.72483">
        <ele>173</ele>
        <time>2016-08-26T10:57:54Z</time>
      </trkpt>
      <trkpt lat="45.9337" lon="4.72488">
        <ele>173</ele>
        <time>2016-08-26T10:57:55Z</time>
      </trkpt>
      <trkpt lat="45.93364" lon="4.72493">
        <ele>173</ele>
        <time>2016-08-26T10:57:56Z</time>
      </trkpt>
      <trkpt lat="45.93359" lon="4.72498">
        <ele>173</ele>
        <time>2016-08-26T10:57:57Z</time>
      </trkpt>
      <trkpt lat="45.93352" lon="4.72503">
        <ele>172</ele>
        <time>2016-08-26T10:57:58Z</time>
      </trkpt>
      <trkpt lat="45.93346" lon="4.72508">
        <ele>172</ele>
        <time>2016-08-26T10:57:59Z</time>
      </trkpt>
      <trkpt lat="45.93341" lon="4.72515">
        <ele>172</ele>
        <time>2016-08-26T10:58:00Z</time>
      </trkpt>
      <trkpt lat="45.93337" lon="4.72522">
        <ele>172</ele>
        <time>2016-08-26T10:58:01Z</time>
      </trkpt>
      <trkpt lat="45.93332" lon="4.72527">
        <ele>172</ele>
        <time>2016-08-26T10:58:02Z</time>
      </trkpt>
      <trkpt lat="45.93328" lon="4.72532">
        <ele>172</ele>
        <time>2016-08-26T10:58:03Z</time>
      </trkpt>
      <trkpt lat="45.93323" lon="4.72537">
        <ele>172</ele>
        <time>2016-08-26T10:58:04Z</time>
      </trkpt>
      <trkpt lat="45.93319" lon="4.72542">
        <ele>172</ele>
        <time>2016-08-26T10:58:05Z</time>
      </trkpt>
      <trkpt lat="45.93315" lon="4.72548">
        <ele>172</ele>
        <time>2016-08-26T10:58:06Z</time>
      </trkpt>
      <trkpt lat="45.9331" lon="4.72554">
        <ele>172</ele>
        <time>2016-08-26T10:58:07Z</time>
      </trkpt>
      <trkpt lat="45.93305" lon="4.7256">
        <ele>172</ele>
        <time>2016-08-26T10:58:08Z</time>
      </trkpt>
      <trkpt lat="45.93301" lon="4.72564">
        <ele>172</ele>
        <time>2016-08-26T10:58:09Z</time>
      </trkpt>
      <trkpt lat="45.93296" lon="4.72568">
        <ele>172</ele>
        <time>2016-08-26T10:58:10Z</time>
      </trkpt>
      <trkpt lat="45.93292" lon="4.72573">
        <ele>172</ele>
        <time>2016-08-26T10:58:11Z</time>
      </trkpt>
      <trkpt lat="45.93288" lon="4.72578">
        <ele>171</ele>
        <time>2016-08-26T10:58:12Z</time>
      </trkpt>
      <trkpt lat="45.93284" lon="4.72584">
        <ele>170</ele>
        <time>2016-08-26T10:58:13Z</time>
      </trkpt>
      <trkpt lat="45.93279" lon="4.7259">
        <ele>170</ele>
        <time>2016-08-26T10:58:14Z</time>
      </trkpt>
      <trkpt lat="45.93273" lon="4.72595">
        <ele>170</ele>
        <time>2016-08-26T10:58:15Z</time>
      </trkpt>
      <trkpt lat="45.93268" lon="4.726">
        <ele>170</ele>
        <time>2016-08-26T10:58:16Z</time>
      </trkpt>
      <trkpt lat="45.93263" lon="4.72606">
        <ele>170</ele>
        <time>2016-08-26T10:58:17Z</time>
      </trkpt>
      <trkpt lat="45.93258" lon="4.72613">
        <ele>170</ele>
        <time>2016-08-26T10:58:18Z</time>
      </trkpt>
      <trkpt lat="45.93253" lon="4.72618">
        <ele>170</ele>
        <time>2016-08-26T10:58:19Z</time>
      </trkpt>
      <trkpt lat="45.93246" lon="4.72624">
        <ele>170</ele>
        <time>2016-08-26T10:58:20Z</time>
      </trkpt>
      <trkpt lat="45.93241" lon="4.72629">
        <ele>170</ele>
        <time>2016-08-26T10:58:21Z</time>
      </trkpt>
      <trkpt lat="45.93237" lon="4.72635">
        <ele>170</ele>
        <time>2016-08-26T10:58:22Z</time>
      </trkpt>
      <trkpt lat="45.93233" lon="4.7264">
        <ele>170</ele>
        <time>2016-08-26T10:58:23Z</time>
      </trkpt>
      <trkpt lat="45.93228" lon="4.72646">
        <ele>170</ele>
        <time>2016-08-26T10:58:24Z</time>
      </trkpt>
      <trkpt lat="45.93225" lon="4.72651">
        <ele>170</ele>
        <time>2016-08-26T10:58:25Z</time>
      </trkpt>
      <trkpt lat="45.93221" lon="4.72656">
        <ele>170</ele>
        <time>2016-08-26T10:58:26Z</time>
      </trkpt>
      <trkpt lat="45.93217" lon="4.7266">
        <ele>170</ele>
        <time>2016-08-26T10:58:27Z</time>
      </trkpt>
      <trkpt lat="45.93214" lon="4.72665">
        <ele>170</ele>
        <time>2016-08-26T10:58:28Z</time>
      </trkpt>
      <trkpt lat="45.9321" lon="4.7267">
        <ele>169</ele>
        <time>2016-08-26T10:58:29Z</time>
      </trkpt>
      <trkpt lat="45.93206" lon="4.72675">
        <ele>169</ele>
        <time>2016-08-26T10:58:30Z</time>
      </trkpt>
      <trkpt lat="45.93201" lon="4.72681">
        <ele>169</ele>
        <time>2016-08-26T10:58:31Z</time>
      </trkpt>
      <trkpt lat="45.93197" lon="4.72687">
        <ele>169</ele>
        <time>2016-08-26T10:58:32Z</time>
      </trkpt>
      <trkpt lat="45.93193" lon="4.72692">
        <ele>169</ele>
        <time>2016-08-26T10:58:33Z</time>
      </trkpt>
      <trkpt lat="45.93187" lon="4.72698">
        <ele>169</ele>
        <time>2016-08-26T10:58:34Z</time>
      </trkpt>
      <trkpt lat="45.93182" lon="4.72703">
        <ele>169</ele>
        <time>2016-08-26T10:58:35Z</time>
      </trkpt>
      <trkpt lat="45.93177" lon="4.72708">
        <ele>169</ele>
        <time>2016-08-26T10:58:36Z</time>
      </trkpt>
      <trkpt lat="45.93172" lon="4.72714">
        <ele>170</ele>
        <time>2016-08-26T10:58:37Z</time>
      </trkpt>
      <trkpt lat="45.93168" lon="4.7272">
        <ele>170</ele>
        <time>2016-08-26T10:58:38Z</time>
      </trkpt>
      <trkpt lat="45.93163" lon="4.72725">
        <ele>170</ele>
        <time>2016-08-26T10:58:39Z</time>
      </trkpt>
      <trkpt lat="45.93158" lon="4.7273">
        <ele>170</ele>
        <time>2016-08-26T10:58:40Z</time>
      </trkpt>
      <trkpt lat="45.93152" lon="4.72735">
        <ele>170</ele>
        <time>2016-08-26T10:58:41Z</time>
      </trkpt>
      <trkpt lat="45.93147" lon="4.7274">
        <ele>170</ele>
        <time>2016-08-26T10:58:42Z</time>
      </trkpt>
      <trkpt lat="45.93141" lon="4.72746">
        <ele>170</ele>
        <time>2016-08-26T10:58:43Z</time>
      </trkpt>
      <trkpt lat="45.93136" lon="4.72752">
        <ele>171</ele>
        <time>2016-08-26T10:58:44Z</time>
      </trkpt>
      <trkpt lat="45.93132" lon="4.72758">
        <ele>171</ele>
        <time>2016-08-26T10:58:45Z</time>
      </trkpt>
      <trkpt lat="45.93127" lon="4.72763">
        <ele>171</ele>
        <time>2016-08-26T10:58:46Z</time>
      </trkpt>
      <trkpt lat="45.93123" lon="4.72769">
        <ele>171</ele>
        <time>2016-08-26T10:58:47Z</time>
      </trkpt>
      <trkpt lat="45.93119" lon="4.72775">
        <ele>171</ele>
        <time>2016-08-26T10:58:48Z</time>
      </trkpt>
      <trkpt lat="45.93115" lon="4.7278">
        <ele>171</ele>
        <time>2016-08-26T10:58:49Z</time>
      </trkpt>
      <trkpt lat="45.9311" lon="4.72785">
        <ele>171</ele>
        <time>2016-08-26T10:58:50Z</time>
      </trkpt>
      <trkpt lat="45.93106" lon="4.7279">
        <ele>171</ele>
        <time>2016-08-26T10:58:51Z</time>
      </trkpt>
      <trkpt lat="45.93101" lon="4.72795">
        <ele>171</ele>
        <time>2016-08-26T10:58:52Z</time>
      </trkpt>
      <trkpt lat="45.93096" lon="4.72801">
        <ele>171</ele>
        <time>2016-08-26T10:58:53Z</time>
      </trkpt>
      <trkpt lat="45.93092" lon="4.72806">
        <ele>172</ele>
        <time>2016-08-26T10:58:54Z</time>
      </trkpt>
      <trkpt lat="45.93088" lon="4.72811">
        <ele>172</ele>
        <time>2016-08-26T10:58:55Z</time>
      </trkpt>
      <trkpt lat="45.93084" lon="4.72816">
        <ele>172</ele>
        <time>2016-08-26T10:58:56Z</time>
      </trkpt>
      <trkpt lat="45.93081" lon="4.7282">
        <ele>173</ele>
        <time>2016-08-26T10:58:57Z</time>
      </trkpt>
      <trkpt lat="45.93074" lon="4.72829">
        <ele>173</ele>
        <time>2016-08-26T10:58:59Z</time>
      </trkpt>
      <trkpt lat="45.93071" lon="4.72833">
        <ele>173</ele>
        <time>2016-08-26T10:59:00Z</time>
      </trkpt>
      <trkpt lat="45.93065" lon="4.72843">
        <ele>172</ele>
        <time>2016-08-26T10:59:02Z</time>
      </trkpt>
      <trkpt lat="45.93059" lon="4.72849">
        <ele>172</ele>
        <time>2016-08-26T10:59:03Z</time>
      </trkpt>
      <trkpt lat="45.93056" lon="4.72855">
        <ele>172</ele>
        <time>2016-08-26T10:59:04Z</time>
      </trkpt>
      <trkpt lat="45.93051" lon="4.7286">
        <ele>172</ele>
        <time>2016-08-26T10:59:05Z</time>
      </trkpt>
      <trkpt lat="45.93041" lon="4.72867">
        <ele>172</ele>
        <time>2016-08-26T10:59:06Z</time>
      </trkpt>
      <trkpt lat="45.93034" lon="4.72872">
        <ele>172</ele>
        <time>2016-08-26T10:59:07Z</time>
      </trkpt>
      <trkpt lat="45.93029" lon="4.72878">
        <ele>172</ele>
        <time>2016-08-26T10:59:08Z</time>
      </trkpt>
      <trkpt lat="45.93024" lon="4.72883">
        <ele>172</ele>
        <time>2016-08-26T10:59:09Z</time>
      </trkpt>
      <trkpt lat="45.9302" lon="4.72888">
        <ele>172</ele>
        <time>2016-08-26T10:59:10Z</time>
      </trkpt>
      <trkpt lat="45.93015" lon="4.72893">
        <ele>172</ele>
        <time>2016-08-26T10:59:11Z</time>
      </trkpt>
      <trkpt lat="45.93011" lon="4.72898">
        <ele>172</ele>
        <time>2016-08-26T10:59:12Z</time>
      </trkpt>
      <trkpt lat="45.93007" lon="4.72902">
        <ele>172</ele>
        <time>2016-08-26T10:59:13Z</time>
      </trkpt>
      <trkpt lat="45.93003" lon="4.72907">
        <ele>171</ele>
        <time>2016-08-26T10:59:14Z</time>
      </trkpt>
      <trkpt lat="45.92999" lon="4.72912">
        <ele>171</ele>
        <time>2016-08-26T10:59:15Z</time>
      </trkpt>
      <trkpt lat="45.92996" lon="4.72917">
        <ele>171</ele>
        <time>2016-08-26T10:59:16Z</time>
      </trkpt>
      <trkpt lat="45.92993" lon="4.72921">
        <ele>171</ele>
        <time>2016-08-26T10:59:17Z</time>
      </trkpt>
      <trkpt lat="45.92989" lon="4.72926">
        <ele>171</ele>
        <time>2016-08-26T10:59:18Z</time>
      </trkpt>
      <trkpt lat="45.92986" lon="4.7293">
        <ele>171</ele>
        <time>2016-08-26T10:59:19Z</time>
      </trkpt>
      <trkpt lat="45.92982" lon="4.72934">
        <ele>171</ele>
        <time>2016-08-26T10:59:20Z</time>
      </trkpt>
      <trkpt lat="45.92975" lon="4.72943">
        <ele>171</ele>
        <time>2016-08-26T10:59:22Z</time>
      </trkpt>
      <trkpt lat="45.92972" lon="4.72947">
        <ele>171</ele>
        <time>2016-08-26T10:59:23Z</time>
      </trkpt>
      <trkpt lat="45.92968" lon="4.72952">
        <ele>171</ele>
        <time>2016-08-26T10:59:24Z</time>
      </trkpt>
      <trkpt lat="45.92964" lon="4.72957">
        <ele>171</ele>
        <time>2016-08-26T10:59:25Z</time>
      </trkpt>
      <trkpt lat="45.9296" lon="4.72961">
        <ele>171</ele>
        <time>2016-08-26T10:59:26Z</time>
      </trkpt>
      <trkpt lat="45.92957" lon="4.72967">
        <ele>171</ele>
        <time>2016-08-26T10:59:27Z</time>
      </trkpt>
      <trkpt lat="45.92953" lon="4.72971">
        <ele>171</ele>
        <time>2016-08-26T10:59:28Z</time>
      </trkpt>
      <trkpt lat="45.92949" lon="4.72976">
        <ele>171</ele>
        <time>2016-08-26T10:59:29Z</time>
      </trkpt>
      <trkpt lat="45.92945" lon="4.72981">
        <ele>171</ele>
        <time>2016-08-26T10:59:30Z</time>
      </trkpt>
      <trkpt lat="45.92942" lon="4.72987">
        <ele>171</ele>
        <time>2016-08-26T10:59:31Z</time>
      </trkpt>
      <trkpt lat="45.92937" lon="4.72992">
        <ele>171</ele>
        <time>2016-08-26T10:59:32Z</time>
      </trkpt>
      <trkpt lat="45.92933" lon="4.72998">
        <ele>172</ele>
        <time>2016-08-26T10:59:33Z</time>
      </trkpt>
      <trkpt lat="45.92929" lon="4.73003">
        <ele>172</ele>
        <time>2016-08-26T10:59:34Z</time>
      </trkpt>
      <trkpt lat="45.92924" lon="4.73008">
        <ele>172</ele>
        <time>2016-08-26T10:59:35Z</time>
      </trkpt>
      <trkpt lat="45.9292" lon="4.73014">
        <ele>172</ele>
        <time>2016-08-26T10:59:36Z</time>
      </trkpt>
      <trkpt lat="45.92916" lon="4.73019">
        <ele>172</ele>
        <time>2016-08-26T10:59:37Z</time>
      </trkpt>
      <trkpt lat="45.92911" lon="4.73024">
        <ele>172</ele>
        <time>2016-08-26T10:59:38Z</time>
      </trkpt>
      <trkpt lat="45.92907" lon="4.7303">
        <ele>172</ele>
        <time>2016-08-26T10:59:39Z</time>
      </trkpt>
      <trkpt lat="45.92903" lon="4.73035">
        <ele>172</ele>
        <time>2016-08-26T10:59:40Z</time>
      </trkpt>
      <trkpt lat="45.92898" lon="4.73042">
        <ele>172</ele>
        <time>2016-08-26T10:59:41Z</time>
      </trkpt>
      <trkpt lat="45.92894" lon="4.73048">
        <ele>172</ele>
        <time>2016-08-26T10:59:42Z</time>
      </trkpt>
      <trkpt lat="45.9289" lon="4.73054">
        <ele>172</ele>
        <time>2016-08-26T10:59:43Z</time>
      </trkpt>
      <trkpt lat="45.92886" lon="4.7306">
        <ele>172</ele>
        <time>2016-08-26T10:59:44Z</time>
      </trkpt>
      <trkpt lat="45.92883" lon="4.73067">
        <ele>172</ele>
        <time>2016-08-26T10:59:45Z</time>
      </trkpt>
      <trkpt lat="45.9288" lon="4.73074">
        <ele>172</ele>
        <time>2016-08-26T10:59:46Z</time>
      </trkpt>
      <trkpt lat="45.92877" lon="4.73081">
        <ele>172</ele>
        <time>2016-08-26T10:59:47Z</time>
      </trkpt>
      <trkpt lat="45.92874" lon="4.73088">
        <ele>172</ele>
        <time>2016-08-26T10:59:48Z</time>
      </trkpt>
      <trkpt lat="45.92872" lon="4.73096">
        <ele>172</ele>
        <time>2016-08-26T10:59:49Z</time>
      </trkpt>
      <trkpt lat="45.92869" lon="4.73103">
        <ele>172</ele>
        <time>2016-08-26T10:59:50Z</time>
      </trkpt>
      <trkpt lat="45.92867" lon="4.73111">
        <ele>171</ele>
        <time>2016-08-26T10:59:51Z</time>
      </trkpt>
      <trkpt lat="45.92865" lon="4.73118">
        <ele>171</ele>
        <time>2016-08-26T10:59:52Z</time>
      </trkpt>
      <trkpt lat="45.92864" lon="4.73126">
        <ele>171</ele>
        <time>2016-08-26T10:59:53Z</time>
      </trkpt>
      <trkpt lat="45.92862" lon="4.73134">
        <ele>171</ele>
        <time>2016-08-26T10:59:54Z</time>
      </trkpt>
      <trkpt lat="45.92861" lon="4.73142">
        <ele>171</ele>
        <time>2016-08-26T10:59:55Z</time>
      </trkpt>
      <trkpt lat="45.9286" lon="4.7315">
        <ele>171</ele>
        <time>2016-08-26T10:59:56Z</time>
      </trkpt>
      <trkpt lat="45.92859" lon="4.73158">
        <ele>171</ele>
        <time>2016-08-26T10:59:57Z</time>
      </trkpt>
      <trkpt lat="45.92858" lon="4.73167">
        <ele>171</ele>
        <time>2016-08-26T10:59:58Z</time>
      </trkpt>
      <trkpt lat="45.92857" lon="4.73175">
        <ele>171</ele>
        <time>2016-08-26T10:59:59Z</time>
      </trkpt>
      <trkpt lat="45.92856" lon="4.73184">
        <ele>171</ele>
        <time>2016-08-26T11:00:00Z</time>
      </trkpt>
      <trkpt lat="45.92855" lon="4.73193">
        <ele>171</ele>
        <time>2016-08-26T11:00:01Z</time>
      </trkpt>
      <trkpt lat="45.92854" lon="4.73202">
        <ele>171</ele>
        <time>2016-08-26T11:00:02Z</time>
      </trkpt>
      <trkpt lat="45.92853" lon="4.73212">
        <ele>171</ele>
        <time>2016-08-26T11:00:03Z</time>
      </trkpt>
      <trkpt lat="45.92852" lon="4.73222">
        <ele>171</ele>
        <time>2016-08-26T11:00:04Z</time>
      </trkpt>
      <trkpt lat="45.92851" lon="4.73231">
        <ele>171</ele>
        <time>2016-08-26T11:00:05Z</time>
      </trkpt>
      <trkpt lat="45.9285" lon="4.7324">
        <ele>171</ele>
        <time>2016-08-26T11:00:06Z</time>
      </trkpt>
      <trkpt lat="45.92849" lon="4.73249">
        <ele>170</ele>
        <time>2016-08-26T11:00:07Z</time>
      </trkpt>
      <trkpt lat="45.92848" lon="4.73257">
        <ele>171</ele>
        <time>2016-08-26T11:00:08Z</time>
      </trkpt>
      <trkpt lat="45.92848" lon="4.73266">
        <ele>171</ele>
        <time>2016-08-26T11:00:09Z</time>
      </trkpt>
      <trkpt lat="45.92847" lon="4.73274">
        <ele>171</ele>
        <time>2016-08-26T11:00:10Z</time>
      </trkpt>
      <trkpt lat="45.92846" lon="4.73282">
        <ele>171</ele>
        <time>2016-08-26T11:00:11Z</time>
      </trkpt>
      <trkpt lat="45.92845" lon="4.7329">
        <ele>171</ele>
        <time>2016-08-26T11:00:12Z</time>
      </trkpt>
      <trkpt lat="45.92844" lon="4.73298">
        <ele>171</ele>
        <time>2016-08-26T11:00:13Z</time>
      </trkpt>
      <trkpt lat="45.92843" lon="4.73306">
        <ele>171</ele>
        <time>2016-08-26T11:00:14Z</time>
      </trkpt>
      <trkpt lat="45.92841" lon="4.73314">
        <ele>171</ele>
        <time>2016-08-26T11:00:15Z</time>
      </trkpt>
      <trkpt lat="45.9284" lon="4.73323">
        <ele>171</ele>
        <time>2016-08-26T11:00:16Z</time>
      </trkpt>
      <trkpt lat="45.92839" lon="4.73332">
        <ele>171</ele>
        <time>2016-08-26T11:00:17Z</time>
      </trkpt>
      <trkpt lat="45.92838" lon="4.73341">
        <ele>171</ele>
        <time>2016-08-26T11:00:18Z</time>
      </trkpt>
      <trkpt lat="45.92836" lon="4.7335">
        <ele>171</ele>
        <time>2016-08-26T11:00:19Z</time>
      </trkpt>
      <trkpt lat="45.92835" lon="4.73359">
        <ele>171</ele>
        <time>2016-08-26T11:00:20Z</time>
      </trkpt>
      <trkpt lat="45.92834" lon="4.73367">
        <ele>171</ele>
        <time>2016-08-26T11:00:21Z</time>
      </trkpt>
      <trkpt lat="45.92833" lon="4.73375">
        <ele>171</ele>
        <time>2016-08-26T11:00:22Z</time>
      </trkpt>
      <trkpt lat="45.92832" lon="4.73384">
        <ele>171</ele>
        <time>2016-08-26T11:00:23Z</time>
      </trkpt>
      <trkpt lat="45.92832" lon="4.73392">
        <ele>172</ele>
        <time>2016-08-26T11:00:24Z</time>
      </trkpt>
      <trkpt lat="45.92832" lon="4.734">
        <ele>172</ele>
        <time>2016-08-26T11:00:25Z</time>
      </trkpt>
      <trkpt lat="45.92832" lon="4.73407">
        <ele>172</ele>
        <time>2016-08-26T11:00:26Z</time>
      </trkpt>
      <trkpt lat="45.92831" lon="4.73414">
        <ele>172</ele>
        <time>2016-08-26T11:00:27Z</time>
      </trkpt>
      <trkpt lat="45.92831" lon="4.73422">
        <ele>172</ele>
        <time>2016-08-26T11:00:28Z</time>
      </trkpt>
      <trkpt lat="45.92831" lon="4.73428">
        <ele>172</ele>
        <time>2016-08-26T11:00:29Z</time>
      </trkpt>
      <trkpt lat="45.9283" lon="4.73435">
        <ele>172</ele>
        <time>2016-08-26T11:00:30Z</time>
      </trkpt>
      <trkpt lat="45.92829" lon="4.73442">
        <ele>172</ele>
        <time>2016-08-26T11:00:31Z</time>
      </trkpt>
      <trkpt lat="45.92827" lon="4.7345">
        <ele>172</ele>
        <time>2016-08-26T11:00:32Z</time>
      </trkpt>
      <trkpt lat="45.92826" lon="4.73457">
        <ele>172</ele>
        <time>2016-08-26T11:00:33Z</time>
      </trkpt>
      <trkpt lat="45.92824" lon="4.73464">
        <ele>171</ele>
        <time>2016-08-26T11:00:34Z</time>
      </trkpt>
      <trkpt lat="45.92823" lon="4.73472">
        <ele>172</ele>
        <time>2016-08-26T11:00:35Z</time>
      </trkpt>
      <trkpt lat="45.92822" lon="4.7348">
        <ele>172</ele>
        <time>2016-08-26T11:00:36Z</time>
      </trkpt>
      <trkpt lat="45.92822" lon="4.73489">
        <ele>172</ele>
        <time>2016-08-26T11:00:37Z</time>
      </trkpt>
      <trkpt lat="45.92821" lon="4.73497">
        <ele>172</ele>
        <time>2016-08-26T11:00:38Z</time>
      </trkpt>
      <trkpt lat="45.9282" lon="4.73505">
        <ele>172</ele>
        <time>2016-08-26T11:00:39Z</time>
      </trkpt>
      <trkpt lat="45.92819" lon="4.73513">
        <ele>172</ele>
        <time>2016-08-26T11:00:40Z</time>
      </trkpt>
      <trkpt lat="45.92818" lon="4.73521">
        <ele>172</ele>
        <time>2016-08-26T11:00:41Z</time>
      </trkpt>
      <trkpt lat="45.92817" lon="4.73529">
        <ele>172</ele>
        <time>2016-08-26T11:00:42Z</time>
      </trkpt>
      <trkpt lat="45.92816" lon="4.73538">
        <ele>172</ele>
        <time>2016-08-26T11:00:43Z</time>
      </trkpt>
      <trkpt lat="45.92815" lon="4.73546">
        <ele>171</ele>
        <time>2016-08-26T11:00:44Z</time>
      </trkpt>
      <trkpt lat="45.92814" lon="4.73556">
        <ele>171</ele>
        <time>2016-08-26T11:00:45Z</time>
      </trkpt>
      <trkpt lat="45.92813" lon="4.73564">
        <ele>171</ele>
        <time>2016-08-26T11:00:46Z</time>
      </trkpt>
      <trkpt lat="45.92812" lon="4.73573">
        <ele>171</ele>
        <time>2016-08-26T11:00:47Z</time>
      </trkpt>
      <trkpt lat="45.92812" lon="4.73581">
        <ele>171</ele>
        <time>2016-08-26T11:00:48Z</time>
      </trkpt>
      <trkpt lat="45.92811" lon="4.7359">
        <ele>172</ele>
        <time>2016-08-26T11:00:49Z</time>
      </trkpt>
      <trkpt lat="45.92811" lon="4.73598">
        <ele>172</ele>
        <time>2016-08-26T11:00:50Z</time>
      </trkpt>
      <trkpt lat="45.92811" lon="4.73607">
        <ele>172</ele>
        <time>2016-08-26T11:00:51Z</time>
      </trkpt>
      <trkpt lat="45.92811" lon="4.73615">
        <ele>172</ele>
        <time>2016-08-26T11:00:52Z</time>
      </trkpt>
      <trkpt lat="45.9281" lon="4.73623">
        <ele>172</ele>
        <time>2016-08-26T11:00:53Z</time>
      </trkpt>
      <trkpt lat="45.92808" lon="4.73629">
        <ele>172</ele>
        <time>2016-08-26T11:00:54Z</time>
      </trkpt>
      <trkpt lat="45.92805" lon="4.73635">
        <ele>172</ele>
        <time>2016-08-26T11:00:55Z</time>
      </trkpt>
      <trkpt lat="45.92801" lon="4.7364">
        <ele>172</ele>
        <time>2016-08-26T11:00:56Z</time>
      </trkpt>
      <trkpt lat="45.92799" lon="4.73646">
        <ele>172</ele>
        <time>2016-08-26T11:00:57Z</time>
      </trkpt>
      <trkpt lat="45.92796" lon="4.73653">
        <ele>172</ele>
        <time>2016-08-26T11:00:58Z</time>
      </trkpt>
      <trkpt lat="45.92794" lon="4.7366">
        <ele>172</ele>
        <time>2016-08-26T11:00:59Z</time>
      </trkpt>
      <trkpt lat="45.92792" lon="4.73668">
        <ele>172</ele>
        <time>2016-08-26T11:01:00Z</time>
      </trkpt>
      <trkpt lat="45.9279" lon="4.73675">
        <ele>172</ele>
        <time>2016-08-26T11:01:01Z</time>
      </trkpt>
      <trkpt lat="45.92789" lon="4.73683">
        <ele>172</ele>
        <time>2016-08-26T11:01:02Z</time>
      </trkpt>
      <trkpt lat="45.92788" lon="4.7369">
        <ele>172</ele>
        <time>2016-08-26T11:01:03Z</time>
      </trkpt>
      <trkpt lat="45.92785" lon="4.73697">
        <ele>172</ele>
        <time>2016-08-26T11:01:04Z</time>
      </trkpt>
      <trkpt lat="45.92783" lon="4.73704">
        <ele>172</ele>
        <time>2016-08-26T11:01:05Z</time>
      </trkpt>
      <trkpt lat="45.92782" lon="4.73711">
        <ele>172</ele>
        <time>2016-08-26T11:01:06Z</time>
      </trkpt>
      <trkpt lat="45.92781" lon="4.73718">
        <ele>172</ele>
        <time>2016-08-26T11:01:07Z</time>
      </trkpt>
      <trkpt lat="45.92778" lon="4.73729">
        <ele>172</ele>
        <time>2016-08-26T11:01:09Z</time>
      </trkpt>
      <trkpt lat="45.92776" lon="4.73732">
        <ele>172</ele>
        <time>2016-08-26T11:01:10Z</time>
      </trkpt>
      <trkpt lat="45.92767" lon="4.73729">
        <ele>172</ele>
        <time>2016-08-26T11:01:13Z</time>
      </trkpt>
      <trkpt lat="45.92764" lon="4.73727">
        <ele>172</ele>
        <time>2016-08-26T11:01:14Z</time>
      </trkpt>
      <trkpt lat="45.9276" lon="4.73725">
        <ele>172</ele>
        <time>2016-08-26T11:01:15Z</time>
      </trkpt>
      <trkpt lat="45.92755" lon="4.73724">
        <ele>172</ele>
        <time>2016-08-26T11:01:16Z</time>
      </trkpt>
      <trkpt lat="45.9275" lon="4.73722">
        <ele>172</ele>
        <time>2016-08-26T11:01:17Z</time>
      </trkpt>
      <trkpt lat="45.92745" lon="4.73721">
        <ele>173</ele>
        <time>2016-08-26T11:01:18Z</time>
      </trkpt>
      <trkpt lat="45.92739" lon="4.73719">
        <ele>173</ele>
        <time>2016-08-26T11:01:19Z</time>
      </trkpt>
      <trkpt lat="45.92733" lon="4.73717">
        <ele>173</ele>
        <time>2016-08-26T11:01:20Z</time>
      </trkpt>
      <trkpt lat="45.92725" lon="4.73715">
        <ele>173</ele>
        <time>2016-08-26T11:01:21Z</time>
      </trkpt>
      <trkpt lat="45.92719" lon="4.73714">
        <ele>173</ele>
        <time>2016-08-26T11:01:22Z</time>
      </trkpt>
      <trkpt lat="45.92714" lon="4.73713">
        <ele>173</ele>
        <time>2016-08-26T11:01:23Z</time>
      </trkpt>
      <trkpt lat="45.92707" lon="4.73712">
        <ele>173</ele>
        <time>2016-08-26T11:01:24Z</time>
      </trkpt>
      <trkpt lat="45.92701" lon="4.7371">
        <ele>173</ele>
        <time>2016-08-26T11:01:25Z</time>
      </trkpt>
      <trkpt lat="45.92695" lon="4.73707">
        <ele>173</ele>
        <time>2016-08-26T11:01:26Z</time>
      </trkpt>
      <trkpt lat="45.9269" lon="4.73705">
        <ele>173</ele>
        <time>2016-08-26T11:01:27Z</time>
      </trkpt>
      <trkpt lat="45.92685" lon="4.73703">
        <ele>173</ele>
        <time>2016-08-26T11:01:28Z</time>
      </trkpt>
      <trkpt lat="45.92679" lon="4.73701">
        <ele>173</ele>
        <time>2016-08-26T11:01:29Z</time>
      </trkpt>
      <trkpt lat="45.92674" lon="4.73699">
        <ele>174</ele>
        <time>2016-08-26T11:01:30Z</time>
      </trkpt>
      <trkpt lat="45.92668" lon="4.73697">
        <ele>174</ele>
        <time>2016-08-26T11:01:31Z</time>
      </trkpt>
      <trkpt lat="45.92663" lon="4.73694">
        <ele>173</ele>
        <time>2016-08-26T11:01:32Z</time>
      </trkpt>
      <trkpt lat="45.92659" lon="4.73693">
        <ele>173</ele>
        <time>2016-08-26T11:01:33Z</time>
      </trkpt>
      <trkpt lat="45.92655" lon="4.73688">
        <ele>173</ele>
        <time>2016-08-26T11:01:34Z</time>
      </trkpt>
      <trkpt lat="45.9265" lon="4.73685">
        <ele>173</ele>
        <time>2016-08-26T11:01:35Z</time>
      </trkpt>
      <trkpt lat="45.92646" lon="4.73679">
        <ele>173</ele>
        <time>2016-08-26T11:01:36Z</time>
      </trkpt>
      <trkpt lat="45.92642" lon="4.73673">
        <ele>173</ele>
        <time>2016-08-26T11:01:37Z</time>
      </trkpt>
      <trkpt lat="45.92637" lon="4.73665">
        <ele>173</ele>
        <time>2016-08-26T11:01:38Z</time>
      </trkpt>
      <trkpt lat="45.92633" lon="4.73659">
        <ele>173</ele>
        <time>2016-08-26T11:01:39Z</time>
      </trkpt>
      <trkpt lat="45.9263" lon="4.7365">
        <ele>173</ele>
        <time>2016-08-26T11:01:40Z</time>
      </trkpt>
      <trkpt lat="45.92626" lon="4.73643">
        <ele>173</ele>
        <time>2016-08-26T11:01:41Z</time>
      </trkpt>
      <trkpt lat="45.92623" lon="4.73636">
        <ele>173</ele>
        <time>2016-08-26T11:01:42Z</time>
      </trkpt>
      <trkpt lat="45.92619" lon="4.73631">
        <ele>173</ele>
        <time>2016-08-26T11:01:43Z</time>
      </trkpt>
      <trkpt lat="45.92615" lon="4.73627">
        <ele>173</ele>
        <time>2016-08-26T11:01:44Z</time>
      </trkpt>
      <trkpt lat="45.92609" lon="4.73625">
        <ele>173</ele>
        <time>2016-08-26T11:01:45Z</time>
      </trkpt>
      <trkpt lat="45.92604" lon="4.73624">
        <ele>173</ele>
        <time>2016-08-26T11:01:46Z</time>
      </trkpt>
      <trkpt lat="45.92599" lon="4.73624">
        <ele>173</ele>
        <time>2016-08-26T11:01:47Z</time>
      </trkpt>
      <trkpt lat="45.92594" lon="4.73624">
        <ele>173</ele>
        <time>2016-08-26T11:01:48Z</time>
      </trkpt>
      <trkpt lat="45.92589" lon="4.73625">
        <ele>172</ele>
        <time>2016-08-26T11:01:49Z</time>
      </trkpt>
      <trkpt lat="45.92584" lon="4.73626">
        <ele>172</ele>
        <time>2016-08-26T11:01:50Z</time>
      </trkpt>
      <trkpt lat="45.92578" lon="4.73627">
        <ele>173</ele>
        <time>2016-08-26T11:01:51Z</time>
      </trkpt>
      <trkpt lat="45.92574" lon="4.73628">
        <ele>173</ele>
        <time>2016-08-26T11:01:52Z</time>
      </trkpt>
      <trkpt lat="45.92568" lon="4.7363">
        <ele>173</ele>
        <time>2016-08-26T11:01:53Z</time>
      </trkpt>
      <trkpt lat="45.92562" lon="4.73631">
        <ele>173</ele>
        <time>2016-08-26T11:01:54Z</time>
      </trkpt>
      <trkpt lat="45.92555" lon="4.73632">
        <ele>173</ele>
        <time>2016-08-26T11:01:55Z</time>
      </trkpt>
      <trkpt lat="45.92545" lon="4.73632">
        <ele>173</ele>
        <time>2016-08-26T11:01:56Z</time>
      </trkpt>
      <trkpt lat="45.9254" lon="4.73633">
        <ele>173</ele>
        <time>2016-08-26T11:01:57Z</time>
      </trkpt>
      <trkpt lat="45.92534" lon="4.73634">
        <ele>173</ele>
        <time>2016-08-26T11:01:58Z</time>
      </trkpt>
      <trkpt lat="45.92529" lon="4.73636">
        <ele>173</ele>
        <time>2016-08-26T11:01:59Z</time>
      </trkpt>
      <trkpt lat="45.92524" lon="4.73637">
        <ele>173</ele>
        <time>2016-08-26T11:02:00Z</time>
      </trkpt>
      <trkpt lat="45.92519" lon="4.73638">
        <ele>173</ele>
        <time>2016-08-26T11:02:01Z</time>
      </trkpt>
      <trkpt lat="45.92514" lon="4.73639">
        <ele>173</ele>
        <time>2016-08-26T11:02:02Z</time>
      </trkpt>
      <trkpt lat="45.92506" lon="4.73639">
        <ele>174</ele>
        <time>2016-08-26T11:02:04Z</time>
      </trkpt>
      <trkpt lat="45.92501" lon="4.73639">
        <ele>174</ele>
        <time>2016-08-26T11:02:05Z</time>
      </trkpt>
      <trkpt lat="45.92495" lon="4.7364">
        <ele>174</ele>
        <time>2016-08-26T11:02:06Z</time>
      </trkpt>
      <trkpt lat="45.9249" lon="4.73641">
        <ele>174</ele>
        <time>2016-08-26T11:02:07Z</time>
      </trkpt>
      <trkpt lat="45.92483" lon="4.73641">
        <ele>174</ele>
        <time>2016-08-26T11:02:08Z</time>
      </trkpt>
      <trkpt lat="45.92478" lon="4.73641">
        <ele>174</ele>
        <time>2016-08-26T11:02:09Z</time>
      </trkpt>
      <trkpt lat="45.9247" lon="4.73642">
        <ele>174</ele>
        <time>2016-08-26T11:02:11Z</time>
      </trkpt>
      <trkpt lat="45.92467" lon="4.73644">
        <ele>174</ele>
        <time>2016-08-26T11:02:12Z</time>
      </trkpt>
      <trkpt lat="45.92464" lon="4.73653">
        <ele>174</ele>
        <time>2016-08-26T11:02:15Z</time>
      </trkpt>
      <trkpt lat="45.92465" lon="4.73658">
        <ele>174</ele>
        <time>2016-08-26T11:02:16Z</time>
      </trkpt>
      <trkpt lat="45.92465" lon="4.73667">
        <ele>174</ele>
        <time>2016-08-26T11:02:18Z</time>
      </trkpt>
      <trkpt lat="45.92465" lon="4.73671">
        <ele>174</ele>
        <time>2016-08-26T11:02:19Z</time>
      </trkpt>
      <trkpt lat="45.92464" lon="4.73683">
        <ele>174</ele>
        <time>2016-08-26T11:02:22Z</time>
      </trkpt>
      <trkpt lat="45.92463" lon="4.73687">
        <ele>174</ele>
        <time>2016-08-26T11:02:23Z</time>
      </trkpt>
      <trkpt lat="45.92462" lon="4.73697">
        <ele>174</ele>
        <time>2016-08-26T11:02:26Z</time>
      </trkpt>
      <trkpt lat="45.92462" lon="4.737">
        <ele>174</ele>
        <time>2016-08-26T11:02:27Z</time>
      </trkpt>
      <trkpt lat="45.92462" lon="4.73702">
        <ele>174</ele>
        <time>2016-08-26T11:02:28Z</time>
      </trkpt>
      <trkpt lat="45.92462" lon="4.73705">
        <ele>174</ele>
        <time>2016-08-26T11:02:58.472Z</time>
      </trkpt>
    </trkseg>
  </trk>
</gpx>